<?xml version="1.0" encoding="UTF-8" standalone="no" ?>
<gpx xmlns="http://www.topografix.com/GPX/1/1" xmlns:xsi="http://www.w3.org/2001/XMLSchema-instance" xsi:schemaLocation="http://www.topografix.com/GPX/1/1 http://www.topografix.com/GPX/1/1/gpx.xsd" version="1.1" creator="VisuGPX - https://www.visugpx.com">
  <metadata>
    <name>apres midi</name>
    <desc><![CDATA[balade apres midi]]></desc>
  </metadata>
  <trk>
    <name><![CDATA[Cycling 5/19/14 5:59 pm]]></name>
    <trkseg>
      <trkpt lat="46.55689" lon="3.34182">
        <ele>274.2</ele>
        <time>2014-05-19T17:59:58Z</time>
      </trkpt>
      <trkpt lat="46.55689" lon="3.34181">
        <ele>273.1</ele>
        <time>2014-05-19T18:00:01Z</time>
      </trkpt>
      <trkpt lat="46.55685" lon="3.34169">
        <ele>272.3</ele>
        <time>2014-05-19T18:00:03Z</time>
      </trkpt>
      <trkpt lat="46.55697" lon="3.34162">
        <ele>271.5</ele>
        <time>2014-05-19T18:00:10Z</time>
      </trkpt>
      <trkpt lat="46.55709" lon="3.3416">
        <ele>270.7</ele>
        <time>2014-05-19T18:00:11Z</time>
      </trkpt>
      <trkpt lat="46.55723" lon="3.34161">
        <ele>270.7</ele>
        <time>2014-05-19T18:00:14Z</time>
      </trkpt>
      <trkpt lat="46.55736" lon="3.34159">
        <ele>269.3</ele>
        <time>2014-05-19T18:00:15Z</time>
      </trkpt>
      <trkpt lat="46.55749" lon="3.34157">
        <ele>267.7</ele>
        <time>2014-05-19T18:00:18Z</time>
      </trkpt>
      <trkpt lat="46.5576" lon="3.34155">
        <ele>266.3</ele>
        <time>2014-05-19T18:00:20Z</time>
      </trkpt>
      <trkpt lat="46.55767" lon="3.34152">
        <ele>266</ele>
        <time>2014-05-19T18:00:34Z</time>
      </trkpt>
      <trkpt lat="46.55768" lon="3.34153">
        <ele>262.7</ele>
        <time>2014-05-19T18:00:51Z</time>
      </trkpt>
      <trkpt lat="46.55768" lon="3.34153">
        <ele>262.7</ele>
        <time>2014-05-19T18:00:51Z</time>
      </trkpt>
      <trkpt lat="46.55768" lon="3.34153">
        <ele>262.7</ele>
        <time>2014-05-19T18:00:52Z</time>
      </trkpt>
      <trkpt lat="46.55776" lon="3.34153">
        <ele>261.2</ele>
        <time>2014-05-19T18:00:54Z</time>
      </trkpt>
      <trkpt lat="46.55776" lon="3.34153">
        <ele>261.2</ele>
        <time>2014-05-19T18:00:54Z</time>
      </trkpt>
      <trkpt lat="46.5579" lon="3.34161">
        <ele>261.4</ele>
        <time>2014-05-19T18:01:01Z</time>
      </trkpt>
      <trkpt lat="46.55835" lon="3.34169">
        <ele>261.5</ele>
        <time>2014-05-19T18:01:01Z</time>
      </trkpt>
      <trkpt lat="46.55846" lon="3.3417">
        <ele>261.7</ele>
        <time>2014-05-19T18:01:02Z</time>
      </trkpt>
      <trkpt lat="46.55856" lon="3.34171">
        <ele>261.8</ele>
        <time>2014-05-19T18:01:04Z</time>
      </trkpt>
      <trkpt lat="46.55866" lon="3.34172">
        <ele>261.9</ele>
        <time>2014-05-19T18:01:05Z</time>
      </trkpt>
      <trkpt lat="46.55877" lon="3.34174">
        <ele>262</ele>
        <time>2014-05-19T18:01:06Z</time>
      </trkpt>
      <trkpt lat="46.55887" lon="3.34175">
        <ele>262.5</ele>
        <time>2014-05-19T18:01:06Z</time>
      </trkpt>
      <trkpt lat="46.55897" lon="3.34176">
        <ele>263</ele>
        <time>2014-05-19T18:01:08Z</time>
      </trkpt>
      <trkpt lat="46.55907" lon="3.34177">
        <ele>263.4</ele>
        <time>2014-05-19T18:01:08Z</time>
      </trkpt>
      <trkpt lat="46.55917" lon="3.34178">
        <ele>263.8</ele>
        <time>2014-05-19T18:01:10Z</time>
      </trkpt>
      <trkpt lat="46.55927" lon="3.34179">
        <ele>264.1</ele>
        <time>2014-05-19T18:01:10Z</time>
      </trkpt>
      <trkpt lat="46.55938" lon="3.3418">
        <ele>264.5</ele>
        <time>2014-05-19T18:01:11Z</time>
      </trkpt>
      <trkpt lat="46.55948" lon="3.34181">
        <ele>264.9</ele>
        <time>2014-05-19T18:01:12Z</time>
      </trkpt>
      <trkpt lat="46.55957" lon="3.34182">
        <ele>265.2</ele>
        <time>2014-05-19T18:01:13Z</time>
      </trkpt>
      <trkpt lat="46.55965" lon="3.34183">
        <ele>265.4</ele>
        <time>2014-05-19T18:01:15Z</time>
      </trkpt>
      <trkpt lat="46.55979" lon="3.34184">
        <ele>265.7</ele>
        <time>2014-05-19T18:01:16Z</time>
      </trkpt>
      <trkpt lat="46.55992" lon="3.34183">
        <ele>265.9</ele>
        <time>2014-05-19T18:01:19Z</time>
      </trkpt>
      <trkpt lat="46.56003" lon="3.34177">
        <ele>266.1</ele>
        <time>2014-05-19T18:01:20Z</time>
      </trkpt>
      <trkpt lat="46.56011" lon="3.34181">
        <ele>266.4</ele>
        <time>2014-05-19T18:01:33Z</time>
      </trkpt>
      <trkpt lat="46.56013" lon="3.34157">
        <ele>266.7</ele>
        <time>2014-05-19T18:01:37Z</time>
      </trkpt>
      <trkpt lat="46.56012" lon="3.34137">
        <ele>267</ele>
        <time>2014-05-19T18:01:38Z</time>
      </trkpt>
      <trkpt lat="46.56013" lon="3.34114">
        <ele>267.4</ele>
        <time>2014-05-19T18:01:41Z</time>
      </trkpt>
      <trkpt lat="46.56013" lon="3.34098">
        <ele>267.6</ele>
        <time>2014-05-19T18:01:41Z</time>
      </trkpt>
      <trkpt lat="46.56014" lon="3.34084">
        <ele>267.9</ele>
        <time>2014-05-19T18:01:42Z</time>
      </trkpt>
      <trkpt lat="46.56015" lon="3.3407">
        <ele>268.2</ele>
        <time>2014-05-19T18:01:43Z</time>
      </trkpt>
      <trkpt lat="46.56016" lon="3.34057">
        <ele>268.5</ele>
        <time>2014-05-19T18:01:45Z</time>
      </trkpt>
      <trkpt lat="46.56017" lon="3.34044">
        <ele>268.8</ele>
        <time>2014-05-19T18:01:45Z</time>
      </trkpt>
      <trkpt lat="46.56018" lon="3.34019">
        <ele>269.2</ele>
        <time>2014-05-19T18:01:47Z</time>
      </trkpt>
      <trkpt lat="46.56018" lon="3.34007">
        <ele>269.6</ele>
        <time>2014-05-19T18:01:48Z</time>
      </trkpt>
      <trkpt lat="46.56019" lon="3.33985">
        <ele>269.9</ele>
        <time>2014-05-19T18:01:51Z</time>
      </trkpt>
      <trkpt lat="46.5602" lon="3.33967">
        <ele>270.1</ele>
        <time>2014-05-19T18:01:52Z</time>
      </trkpt>
      <trkpt lat="46.56014" lon="3.33952">
        <ele>270.3</ele>
        <time>2014-05-19T18:01:54Z</time>
      </trkpt>
      <trkpt lat="46.56006" lon="3.33946">
        <ele>270.6</ele>
        <time>2014-05-19T18:01:56Z</time>
      </trkpt>
      <trkpt lat="46.55995" lon="3.33942">
        <ele>270.6</ele>
        <time>2014-05-19T18:01:59Z</time>
      </trkpt>
      <trkpt lat="46.55985" lon="3.3394">
        <ele>270.5</ele>
        <time>2014-05-19T18:02:01Z</time>
      </trkpt>
      <trkpt lat="46.55976" lon="3.33937">
        <ele>270.4</ele>
        <time>2014-05-19T18:02:02Z</time>
      </trkpt>
      <trkpt lat="46.55968" lon="3.33934">
        <ele>270.2</ele>
        <time>2014-05-19T18:02:05Z</time>
      </trkpt>
      <trkpt lat="46.55958" lon="3.33932">
        <ele>270</ele>
        <time>2014-05-19T18:02:06Z</time>
      </trkpt>
      <trkpt lat="46.55948" lon="3.3393">
        <ele>269.6</ele>
        <time>2014-05-19T18:02:08Z</time>
      </trkpt>
      <trkpt lat="46.5594" lon="3.33926">
        <ele>269.1</ele>
        <time>2014-05-19T18:02:10Z</time>
      </trkpt>
      <trkpt lat="46.55933" lon="3.33917">
        <ele>268.7</ele>
        <time>2014-05-19T18:02:12Z</time>
      </trkpt>
      <trkpt lat="46.55934" lon="3.33902">
        <ele>268.3</ele>
        <time>2014-05-19T18:02:15Z</time>
      </trkpt>
      <trkpt lat="46.55941" lon="3.33887">
        <ele>267.8</ele>
        <time>2014-05-19T18:02:17Z</time>
      </trkpt>
      <trkpt lat="46.5595" lon="3.33869">
        <ele>267.4</ele>
        <time>2014-05-19T18:02:18Z</time>
      </trkpt>
      <trkpt lat="46.5596" lon="3.3385">
        <ele>267.1</ele>
        <time>2014-05-19T18:02:20Z</time>
      </trkpt>
      <trkpt lat="46.55966" lon="3.33839">
        <ele>266.9</ele>
        <time>2014-05-19T18:02:21Z</time>
      </trkpt>
      <trkpt lat="46.55972" lon="3.33825">
        <ele>266.8</ele>
        <time>2014-05-19T18:02:23Z</time>
      </trkpt>
      <trkpt lat="46.55979" lon="3.33814">
        <ele>266.6</ele>
        <time>2014-05-19T18:02:26Z</time>
      </trkpt>
      <trkpt lat="46.5598" lon="3.33809">
        <ele>266.5</ele>
        <time>2014-05-19T18:02:37Z</time>
      </trkpt>
      <trkpt lat="46.55985" lon="3.33802">
        <ele>267.7</ele>
        <time>2014-05-19T18:02:50Z</time>
      </trkpt>
      <trkpt lat="46.55985" lon="3.33802">
        <ele>267.8</ele>
        <time>2014-05-19T18:02:50Z</time>
      </trkpt>
      <trkpt lat="46.55987" lon="3.33788">
        <ele>267.9</ele>
        <time>2014-05-19T18:03:00Z</time>
      </trkpt>
      <trkpt lat="46.5598" lon="3.33774">
        <ele>268</ele>
        <time>2014-05-19T18:03:02Z</time>
      </trkpt>
      <trkpt lat="46.55972" lon="3.33759">
        <ele>268</ele>
        <time>2014-05-19T18:03:04Z</time>
      </trkpt>
      <trkpt lat="46.55962" lon="3.33742">
        <ele>268.1</ele>
        <time>2014-05-19T18:03:06Z</time>
      </trkpt>
      <trkpt lat="46.55956" lon="3.33731">
        <ele>268.4</ele>
        <time>2014-05-19T18:03:07Z</time>
      </trkpt>
      <trkpt lat="46.55951" lon="3.3372">
        <ele>268.7</ele>
        <time>2014-05-19T18:03:08Z</time>
      </trkpt>
      <trkpt lat="46.55945" lon="3.33709">
        <ele>268.8</ele>
        <time>2014-05-19T18:03:09Z</time>
      </trkpt>
      <trkpt lat="46.55939" lon="3.33697">
        <ele>268.9</ele>
        <time>2014-05-19T18:03:10Z</time>
      </trkpt>
      <trkpt lat="46.55931" lon="3.33686">
        <ele>269</ele>
        <time>2014-05-19T18:03:11Z</time>
      </trkpt>
      <trkpt lat="46.55925" lon="3.33672">
        <ele>269</ele>
        <time>2014-05-19T18:03:12Z</time>
      </trkpt>
      <trkpt lat="46.55919" lon="3.33658">
        <ele>269.1</ele>
        <time>2014-05-19T18:03:13Z</time>
      </trkpt>
      <trkpt lat="46.55913" lon="3.33645">
        <ele>269.2</ele>
        <time>2014-05-19T18:03:14Z</time>
      </trkpt>
      <trkpt lat="46.55907" lon="3.33631">
        <ele>269.2</ele>
        <time>2014-05-19T18:03:15Z</time>
      </trkpt>
      <trkpt lat="46.559" lon="3.33618">
        <ele>269.3</ele>
        <time>2014-05-19T18:03:16Z</time>
      </trkpt>
      <trkpt lat="46.55894" lon="3.33606">
        <ele>269.3</ele>
        <time>2014-05-19T18:03:17Z</time>
      </trkpt>
      <trkpt lat="46.55889" lon="3.33593">
        <ele>269.3</ele>
        <time>2014-05-19T18:03:18Z</time>
      </trkpt>
      <trkpt lat="46.55884" lon="3.33579">
        <ele>269.2</ele>
        <time>2014-05-19T18:03:19Z</time>
      </trkpt>
      <trkpt lat="46.55878" lon="3.33566">
        <ele>269.1</ele>
        <time>2014-05-19T18:03:20Z</time>
      </trkpt>
      <trkpt lat="46.55873" lon="3.33553">
        <ele>269</ele>
        <time>2014-05-19T18:03:21Z</time>
      </trkpt>
      <trkpt lat="46.55868" lon="3.33542">
        <ele>268.9</ele>
        <time>2014-05-19T18:03:22Z</time>
      </trkpt>
      <trkpt lat="46.55863" lon="3.3353">
        <ele>268.9</ele>
        <time>2014-05-19T18:03:23Z</time>
      </trkpt>
      <trkpt lat="46.55857" lon="3.33519">
        <ele>268.8</ele>
        <time>2014-05-19T18:03:24Z</time>
      </trkpt>
      <trkpt lat="46.55852" lon="3.33507">
        <ele>268.7</ele>
        <time>2014-05-19T18:03:25Z</time>
      </trkpt>
      <trkpt lat="46.55848" lon="3.33494">
        <ele>268.6</ele>
        <time>2014-05-19T18:03:26Z</time>
      </trkpt>
      <trkpt lat="46.55842" lon="3.33482">
        <ele>268.4</ele>
        <time>2014-05-19T18:03:27Z</time>
      </trkpt>
      <trkpt lat="46.55837" lon="3.33471">
        <ele>268.1</ele>
        <time>2014-05-19T18:03:28Z</time>
      </trkpt>
      <trkpt lat="46.55832" lon="3.3346">
        <ele>267.7</ele>
        <time>2014-05-19T18:03:29Z</time>
      </trkpt>
      <trkpt lat="46.55827" lon="3.3345">
        <ele>267.3</ele>
        <time>2014-05-19T18:03:30Z</time>
      </trkpt>
      <trkpt lat="46.55822" lon="3.33429">
        <ele>266.8</ele>
        <time>2014-05-19T18:03:32Z</time>
      </trkpt>
      <trkpt lat="46.55825" lon="3.33408">
        <ele>266.5</ele>
        <time>2014-05-19T18:03:34Z</time>
      </trkpt>
      <trkpt lat="46.55829" lon="3.33387">
        <ele>266.2</ele>
        <time>2014-05-19T18:03:36Z</time>
      </trkpt>
      <trkpt lat="46.55833" lon="3.33367">
        <ele>266.1</ele>
        <time>2014-05-19T18:03:38Z</time>
      </trkpt>
      <trkpt lat="46.55837" lon="3.33347">
        <ele>265.9</ele>
        <time>2014-05-19T18:03:40Z</time>
      </trkpt>
      <trkpt lat="46.55839" lon="3.33334">
        <ele>265.8</ele>
        <time>2014-05-19T18:03:42Z</time>
      </trkpt>
      <trkpt lat="46.55841" lon="3.33321">
        <ele>265.8</ele>
        <time>2014-05-19T18:03:46Z</time>
      </trkpt>
      <trkpt lat="46.55842" lon="3.33306">
        <ele>265.8</ele>
        <time>2014-05-19T18:03:48Z</time>
      </trkpt>
      <trkpt lat="46.55844" lon="3.33287">
        <ele>265.9</ele>
        <time>2014-05-19T18:03:50Z</time>
      </trkpt>
      <trkpt lat="46.55847" lon="3.33266">
        <ele>266</ele>
        <time>2014-05-19T18:03:52Z</time>
      </trkpt>
      <trkpt lat="46.55849" lon="3.33253">
        <ele>266.2</ele>
        <time>2014-05-19T18:03:53Z</time>
      </trkpt>
      <trkpt lat="46.5585" lon="3.3324">
        <ele>266.5</ele>
        <time>2014-05-19T18:03:54Z</time>
      </trkpt>
      <trkpt lat="46.55852" lon="3.33225">
        <ele>266.6</ele>
        <time>2014-05-19T18:03:55Z</time>
      </trkpt>
      <trkpt lat="46.55854" lon="3.3321">
        <ele>266.5</ele>
        <time>2014-05-19T18:03:56Z</time>
      </trkpt>
      <trkpt lat="46.55856" lon="3.33195">
        <ele>266.3</ele>
        <time>2014-05-19T18:03:57Z</time>
      </trkpt>
      <trkpt lat="46.55858" lon="3.33179">
        <ele>266.1</ele>
        <time>2014-05-19T18:03:58Z</time>
      </trkpt>
      <trkpt lat="46.5586" lon="3.33164">
        <ele>265.9</ele>
        <time>2014-05-19T18:03:59Z</time>
      </trkpt>
      <trkpt lat="46.55862" lon="3.33149">
        <ele>265.6</ele>
        <time>2014-05-19T18:04:00Z</time>
      </trkpt>
      <trkpt lat="46.55864" lon="3.33134">
        <ele>265.4</ele>
        <time>2014-05-19T18:04:01Z</time>
      </trkpt>
      <trkpt lat="46.55866" lon="3.33121">
        <ele>265.2</ele>
        <time>2014-05-19T18:04:02Z</time>
      </trkpt>
      <trkpt lat="46.55867" lon="3.33109">
        <ele>265</ele>
        <time>2014-05-19T18:04:03Z</time>
      </trkpt>
      <trkpt lat="46.5587" lon="3.33096">
        <ele>264.8</ele>
        <time>2014-05-19T18:04:04Z</time>
      </trkpt>
      <trkpt lat="46.55874" lon="3.33084">
        <ele>264.6</ele>
        <time>2014-05-19T18:04:05Z</time>
      </trkpt>
      <trkpt lat="46.55878" lon="3.33072">
        <ele>264.4</ele>
        <time>2014-05-19T18:04:06Z</time>
      </trkpt>
      <trkpt lat="46.55888" lon="3.33054">
        <ele>264.3</ele>
        <time>2014-05-19T18:04:08Z</time>
      </trkpt>
      <trkpt lat="46.55898" lon="3.33036">
        <ele>264.1</ele>
        <time>2014-05-19T18:04:10Z</time>
      </trkpt>
      <trkpt lat="46.55904" lon="3.33027">
        <ele>264.1</ele>
        <time>2014-05-19T18:04:11Z</time>
      </trkpt>
      <trkpt lat="46.55914" lon="3.3301">
        <ele>264</ele>
        <time>2014-05-19T18:04:13Z</time>
      </trkpt>
      <trkpt lat="46.55925" lon="3.32994">
        <ele>263.9</ele>
        <time>2014-05-19T18:04:15Z</time>
      </trkpt>
      <trkpt lat="46.55936" lon="3.32976">
        <ele>263.8</ele>
        <time>2014-05-19T18:04:17Z</time>
      </trkpt>
      <trkpt lat="46.55942" lon="3.32967">
        <ele>263.7</ele>
        <time>2014-05-19T18:04:18Z</time>
      </trkpt>
      <trkpt lat="46.55948" lon="3.32957">
        <ele>263.7</ele>
        <time>2014-05-19T18:04:19Z</time>
      </trkpt>
      <trkpt lat="46.55954" lon="3.32948">
        <ele>263.6</ele>
        <time>2014-05-19T18:04:20Z</time>
      </trkpt>
      <trkpt lat="46.55961" lon="3.32937">
        <ele>263.6</ele>
        <time>2014-05-19T18:04:21Z</time>
      </trkpt>
      <trkpt lat="46.55967" lon="3.32927">
        <ele>263.5</ele>
        <time>2014-05-19T18:04:22Z</time>
      </trkpt>
      <trkpt lat="46.55973" lon="3.32918">
        <ele>263.5</ele>
        <time>2014-05-19T18:04:23Z</time>
      </trkpt>
      <trkpt lat="46.55979" lon="3.32908">
        <ele>263.4</ele>
        <time>2014-05-19T18:04:24Z</time>
      </trkpt>
      <trkpt lat="46.55986" lon="3.32898">
        <ele>263.3</ele>
        <time>2014-05-19T18:04:25Z</time>
      </trkpt>
      <trkpt lat="46.55992" lon="3.32888">
        <ele>263.1</ele>
        <time>2014-05-19T18:04:26Z</time>
      </trkpt>
      <trkpt lat="46.55999" lon="3.32877">
        <ele>263</ele>
        <time>2014-05-19T18:04:27Z</time>
      </trkpt>
      <trkpt lat="46.56006" lon="3.32867">
        <ele>262.8</ele>
        <time>2014-05-19T18:04:28Z</time>
      </trkpt>
      <trkpt lat="46.56013" lon="3.32856">
        <ele>262.7</ele>
        <time>2014-05-19T18:04:29Z</time>
      </trkpt>
      <trkpt lat="46.5602" lon="3.32845">
        <ele>262.6</ele>
        <time>2014-05-19T18:04:30Z</time>
      </trkpt>
      <trkpt lat="46.56028" lon="3.32832">
        <ele>262.4</ele>
        <time>2014-05-19T18:04:31Z</time>
      </trkpt>
      <trkpt lat="46.56036" lon="3.3282">
        <ele>262.2</ele>
        <time>2014-05-19T18:04:32Z</time>
      </trkpt>
      <trkpt lat="46.56044" lon="3.32807">
        <ele>262.2</ele>
        <time>2014-05-19T18:04:33Z</time>
      </trkpt>
      <trkpt lat="46.56051" lon="3.32796">
        <ele>262.1</ele>
        <time>2014-05-19T18:04:34Z</time>
      </trkpt>
      <trkpt lat="46.56058" lon="3.32786">
        <ele>262</ele>
        <time>2014-05-19T18:04:35Z</time>
      </trkpt>
      <trkpt lat="46.56066" lon="3.32773">
        <ele>261.9</ele>
        <time>2014-05-19T18:04:37Z</time>
      </trkpt>
      <trkpt lat="46.56072" lon="3.32764">
        <ele>261.9</ele>
        <time>2014-05-19T18:04:39Z</time>
      </trkpt>
      <trkpt lat="46.56074" lon="3.32763">
        <ele>261.9</ele>
        <time>2014-05-19T18:04:51Z</time>
      </trkpt>
      <trkpt lat="46.56079" lon="3.32758">
        <ele>264.8</ele>
        <time>2014-05-19T18:05:58Z</time>
      </trkpt>
      <trkpt lat="46.56079" lon="3.32758">
        <ele>264.8</ele>
        <time>2014-05-19T18:05:58Z</time>
      </trkpt>
      <trkpt lat="46.56087" lon="3.3275">
        <ele>264.8</ele>
        <time>2014-05-19T18:06:01Z</time>
      </trkpt>
      <trkpt lat="46.56094" lon="3.32741">
        <ele>264.8</ele>
        <time>2014-05-19T18:06:05Z</time>
      </trkpt>
      <trkpt lat="46.56095" lon="3.3274">
        <ele>264.8</ele>
        <time>2014-05-19T18:06:16Z</time>
      </trkpt>
      <trkpt lat="46.56101" lon="3.32732">
        <ele>262.2</ele>
        <time>2014-05-19T18:07:28Z</time>
      </trkpt>
      <trkpt lat="46.56101" lon="3.32732">
        <ele>262.3</ele>
        <time>2014-05-19T18:07:28Z</time>
      </trkpt>
      <trkpt lat="46.5611" lon="3.32722">
        <ele>262.4</ele>
        <time>2014-05-19T18:07:31Z</time>
      </trkpt>
      <trkpt lat="46.56115" lon="3.32713">
        <ele>262.5</ele>
        <time>2014-05-19T18:07:38Z</time>
      </trkpt>
      <trkpt lat="46.56121" lon="3.32704">
        <ele>262.7</ele>
        <time>2014-05-19T18:07:45Z</time>
      </trkpt>
      <trkpt lat="46.56127" lon="3.32694">
        <ele>262.7</ele>
        <time>2014-05-19T18:07:56Z</time>
      </trkpt>
      <trkpt lat="46.56133" lon="3.32685">
        <ele>262.8</ele>
        <time>2014-05-19T18:08:00Z</time>
      </trkpt>
      <trkpt lat="46.5614" lon="3.32675">
        <ele>262.9</ele>
        <time>2014-05-19T18:08:16Z</time>
      </trkpt>
      <trkpt lat="46.56146" lon="3.32667">
        <ele>263</ele>
        <time>2014-05-19T18:08:19Z</time>
      </trkpt>
      <trkpt lat="46.56153" lon="3.32658">
        <ele>263.2</ele>
        <time>2014-05-19T18:08:23Z</time>
      </trkpt>
      <trkpt lat="46.56159" lon="3.3265">
        <ele>263.4</ele>
        <time>2014-05-19T18:08:28Z</time>
      </trkpt>
      <trkpt lat="46.56165" lon="3.32641">
        <ele>263.5</ele>
        <time>2014-05-19T18:08:33Z</time>
      </trkpt>
      <trkpt lat="46.56167" lon="3.3264">
        <ele>263.6</ele>
        <time>2014-05-19T18:08:43Z</time>
      </trkpt>
      <trkpt lat="46.56171" lon="3.32633">
        <ele>266.7</ele>
        <time>2014-05-19T18:08:56Z</time>
      </trkpt>
      <trkpt lat="46.56171" lon="3.32633">
        <ele>266.7</ele>
        <time>2014-05-19T18:08:56Z</time>
      </trkpt>
      <trkpt lat="46.56179" lon="3.32624">
        <ele>266.8</ele>
        <time>2014-05-19T18:09:09Z</time>
      </trkpt>
      <trkpt lat="46.56186" lon="3.32614">
        <ele>267</ele>
        <time>2014-05-19T18:09:13Z</time>
      </trkpt>
      <trkpt lat="46.56192" lon="3.32606">
        <ele>267.2</ele>
        <time>2014-05-19T18:09:17Z</time>
      </trkpt>
      <trkpt lat="46.56198" lon="3.32598">
        <ele>267.2</ele>
        <time>2014-05-19T18:09:23Z</time>
      </trkpt>
      <trkpt lat="46.56206" lon="3.32589">
        <ele>267.4</ele>
        <time>2014-05-19T18:09:31Z</time>
      </trkpt>
      <trkpt lat="46.56214" lon="3.3258">
        <ele>267.6</ele>
        <time>2014-05-19T18:09:35Z</time>
      </trkpt>
      <trkpt lat="46.56221" lon="3.32571">
        <ele>267.7</ele>
        <time>2014-05-19T18:09:39Z</time>
      </trkpt>
      <trkpt lat="46.56227" lon="3.32563">
        <ele>267.7</ele>
        <time>2014-05-19T18:09:44Z</time>
      </trkpt>
      <trkpt lat="46.56225" lon="3.32565">
        <ele>267.8</ele>
        <time>2014-05-19T18:09:53Z</time>
      </trkpt>
      <trkpt lat="46.56241" lon="3.32552">
        <ele>269.3</ele>
        <time>2014-05-19T18:10:34Z</time>
      </trkpt>
      <trkpt lat="46.56241" lon="3.32552">
        <ele>269.5</ele>
        <time>2014-05-19T18:10:34Z</time>
      </trkpt>
      <trkpt lat="46.56252" lon="3.32549">
        <ele>269.6</ele>
        <time>2014-05-19T18:10:34Z</time>
      </trkpt>
      <trkpt lat="46.56262" lon="3.32543">
        <ele>269.6</ele>
        <time>2014-05-19T18:10:39Z</time>
      </trkpt>
      <trkpt lat="46.56266" lon="3.32531">
        <ele>269.6</ele>
        <time>2014-05-19T18:10:42Z</time>
      </trkpt>
      <trkpt lat="46.56262" lon="3.32518">
        <ele>269.6</ele>
        <time>2014-05-19T18:10:47Z</time>
      </trkpt>
      <trkpt lat="46.56254" lon="3.32508">
        <ele>269.7</ele>
        <time>2014-05-19T18:10:50Z</time>
      </trkpt>
      <trkpt lat="46.56247" lon="3.32498">
        <ele>269.8</ele>
        <time>2014-05-19T18:10:53Z</time>
      </trkpt>
      <trkpt lat="46.56242" lon="3.32487">
        <ele>269.7</ele>
        <time>2014-05-19T18:10:56Z</time>
      </trkpt>
      <trkpt lat="46.56237" lon="3.32475">
        <ele>269.5</ele>
        <time>2014-05-19T18:10:59Z</time>
      </trkpt>
      <trkpt lat="46.56234" lon="3.32462">
        <ele>269.3</ele>
        <time>2014-05-19T18:11:02Z</time>
      </trkpt>
      <trkpt lat="46.56229" lon="3.32448">
        <ele>269</ele>
        <time>2014-05-19T18:11:05Z</time>
      </trkpt>
      <trkpt lat="46.56224" lon="3.32435">
        <ele>268.8</ele>
        <time>2014-05-19T18:11:06Z</time>
      </trkpt>
      <trkpt lat="46.5622" lon="3.32422">
        <ele>268.5</ele>
        <time>2014-05-19T18:11:09Z</time>
      </trkpt>
      <trkpt lat="46.56216" lon="3.3241">
        <ele>268.2</ele>
        <time>2014-05-19T18:11:11Z</time>
      </trkpt>
      <trkpt lat="46.56212" lon="3.32398">
        <ele>268</ele>
        <time>2014-05-19T18:11:12Z</time>
      </trkpt>
      <trkpt lat="46.56207" lon="3.32385">
        <ele>267.8</ele>
        <time>2014-05-19T18:11:15Z</time>
      </trkpt>
      <trkpt lat="46.56203" lon="3.32371">
        <ele>267.6</ele>
        <time>2014-05-19T18:11:16Z</time>
      </trkpt>
      <trkpt lat="46.56198" lon="3.32356">
        <ele>267.4</ele>
        <time>2014-05-19T18:11:19Z</time>
      </trkpt>
      <trkpt lat="46.56194" lon="3.32344">
        <ele>267.3</ele>
        <time>2014-05-19T18:11:20Z</time>
      </trkpt>
      <trkpt lat="46.56189" lon="3.3233">
        <ele>267.4</ele>
        <time>2014-05-19T18:11:22Z</time>
      </trkpt>
      <trkpt lat="46.56184" lon="3.32314">
        <ele>267.5</ele>
        <time>2014-05-19T18:11:25Z</time>
      </trkpt>
      <trkpt lat="46.56177" lon="3.32297">
        <ele>267.7</ele>
        <time>2014-05-19T18:11:27Z</time>
      </trkpt>
      <trkpt lat="46.56171" lon="3.32278">
        <ele>267.9</ele>
        <time>2014-05-19T18:11:29Z</time>
      </trkpt>
      <trkpt lat="46.56164" lon="3.32256">
        <ele>268</ele>
        <time>2014-05-19T18:11:30Z</time>
      </trkpt>
      <trkpt lat="46.56155" lon="3.32235">
        <ele>268.3</ele>
        <time>2014-05-19T18:11:32Z</time>
      </trkpt>
      <trkpt lat="46.56151" lon="3.32224">
        <ele>268.5</ele>
        <time>2014-05-19T18:11:33Z</time>
      </trkpt>
      <trkpt lat="46.56145" lon="3.32207">
        <ele>268.6</ele>
        <time>2014-05-19T18:11:35Z</time>
      </trkpt>
      <trkpt lat="46.5614" lon="3.3219">
        <ele>268.6</ele>
        <time>2014-05-19T18:11:38Z</time>
      </trkpt>
      <trkpt lat="46.56134" lon="3.32173">
        <ele>268.6</ele>
        <time>2014-05-19T18:11:39Z</time>
      </trkpt>
      <trkpt lat="46.5613" lon="3.32161">
        <ele>268.7</ele>
        <time>2014-05-19T18:11:42Z</time>
      </trkpt>
      <trkpt lat="46.56125" lon="3.32148">
        <ele>268.6</ele>
        <time>2014-05-19T18:11:43Z</time>
      </trkpt>
      <trkpt lat="46.56121" lon="3.32132">
        <ele>268.6</ele>
        <time>2014-05-19T18:11:46Z</time>
      </trkpt>
      <trkpt lat="46.56116" lon="3.32115">
        <ele>268.5</ele>
        <time>2014-05-19T18:11:48Z</time>
      </trkpt>
      <trkpt lat="46.56114" lon="3.32096">
        <ele>268.2</ele>
        <time>2014-05-19T18:11:49Z</time>
      </trkpt>
      <trkpt lat="46.56114" lon="3.32077">
        <ele>267.8</ele>
        <time>2014-05-19T18:11:51Z</time>
      </trkpt>
      <trkpt lat="46.56107" lon="3.32062">
        <ele>267.3</ele>
        <time>2014-05-19T18:11:53Z</time>
      </trkpt>
      <trkpt lat="46.56096" lon="3.32053">
        <ele>266.7</ele>
        <time>2014-05-19T18:11:56Z</time>
      </trkpt>
      <trkpt lat="46.56088" lon="3.3204">
        <ele>266.2</ele>
        <time>2014-05-19T18:11:57Z</time>
      </trkpt>
      <trkpt lat="46.56082" lon="3.32024">
        <ele>265.7</ele>
        <time>2014-05-19T18:11:59Z</time>
      </trkpt>
      <trkpt lat="46.56077" lon="3.32009">
        <ele>265.1</ele>
        <time>2014-05-19T18:12:01Z</time>
      </trkpt>
      <trkpt lat="46.56072" lon="3.31995">
        <ele>264.4</ele>
        <time>2014-05-19T18:12:04Z</time>
      </trkpt>
      <trkpt lat="46.56069" lon="3.31984">
        <ele>263.8</ele>
        <time>2014-05-19T18:12:07Z</time>
      </trkpt>
      <trkpt lat="46.56064" lon="3.3197">
        <ele>263.2</ele>
        <time>2014-05-19T18:12:09Z</time>
      </trkpt>
      <trkpt lat="46.56059" lon="3.31955">
        <ele>262.5</ele>
        <time>2014-05-19T18:12:11Z</time>
      </trkpt>
      <trkpt lat="46.56053" lon="3.31939">
        <ele>261.9</ele>
        <time>2014-05-19T18:12:14Z</time>
      </trkpt>
      <trkpt lat="46.56048" lon="3.31924">
        <ele>261.5</ele>
        <time>2014-05-19T18:12:15Z</time>
      </trkpt>
      <trkpt lat="46.56042" lon="3.31907">
        <ele>261.1</ele>
        <time>2014-05-19T18:12:18Z</time>
      </trkpt>
      <trkpt lat="46.56036" lon="3.31889">
        <ele>260.9</ele>
        <time>2014-05-19T18:12:19Z</time>
      </trkpt>
      <trkpt lat="46.56028" lon="3.31873">
        <ele>260.7</ele>
        <time>2014-05-19T18:12:21Z</time>
      </trkpt>
      <trkpt lat="46.56022" lon="3.31855">
        <ele>260.5</ele>
        <time>2014-05-19T18:12:23Z</time>
      </trkpt>
      <trkpt lat="46.56015" lon="3.31838">
        <ele>260.4</ele>
        <time>2014-05-19T18:12:25Z</time>
      </trkpt>
      <trkpt lat="46.56009" lon="3.3182">
        <ele>260.3</ele>
        <time>2014-05-19T18:12:27Z</time>
      </trkpt>
      <trkpt lat="46.56005" lon="3.3181">
        <ele>260.1</ele>
        <time>2014-05-19T18:12:28Z</time>
      </trkpt>
      <trkpt lat="46.55999" lon="3.3179">
        <ele>260</ele>
        <time>2014-05-19T18:12:30Z</time>
      </trkpt>
      <trkpt lat="46.55992" lon="3.31769">
        <ele>260</ele>
        <time>2014-05-19T18:12:32Z</time>
      </trkpt>
      <trkpt lat="46.55988" lon="3.31758">
        <ele>259.9</ele>
        <time>2014-05-19T18:12:33Z</time>
      </trkpt>
      <trkpt lat="46.55984" lon="3.31746">
        <ele>259.8</ele>
        <time>2014-05-19T18:12:35Z</time>
      </trkpt>
      <trkpt lat="46.5598" lon="3.31735">
        <ele>259.8</ele>
        <time>2014-05-19T18:12:35Z</time>
      </trkpt>
      <trkpt lat="46.55976" lon="3.31723">
        <ele>259.9</ele>
        <time>2014-05-19T18:12:36Z</time>
      </trkpt>
      <trkpt lat="46.55972" lon="3.31711">
        <ele>260</ele>
        <time>2014-05-19T18:12:37Z</time>
      </trkpt>
      <trkpt lat="46.55967" lon="3.31699">
        <ele>260.1</ele>
        <time>2014-05-19T18:12:38Z</time>
      </trkpt>
      <trkpt lat="46.55963" lon="3.31686">
        <ele>260.1</ele>
        <time>2014-05-19T18:12:39Z</time>
      </trkpt>
      <trkpt lat="46.55959" lon="3.31673">
        <ele>260.1</ele>
        <time>2014-05-19T18:12:40Z</time>
      </trkpt>
      <trkpt lat="46.55953" lon="3.31662">
        <ele>260.2</ele>
        <time>2014-05-19T18:12:41Z</time>
      </trkpt>
      <trkpt lat="46.5595" lon="3.3165">
        <ele>260.2</ele>
        <time>2014-05-19T18:12:42Z</time>
      </trkpt>
      <trkpt lat="46.55946" lon="3.31639">
        <ele>260.2</ele>
        <time>2014-05-19T18:12:43Z</time>
      </trkpt>
      <trkpt lat="46.55942" lon="3.31628">
        <ele>260.3</ele>
        <time>2014-05-19T18:12:44Z</time>
      </trkpt>
      <trkpt lat="46.55939" lon="3.31617">
        <ele>260.3</ele>
        <time>2014-05-19T18:12:45Z</time>
      </trkpt>
      <trkpt lat="46.55933" lon="3.31595">
        <ele>260.3</ele>
        <time>2014-05-19T18:12:47Z</time>
      </trkpt>
      <trkpt lat="46.55928" lon="3.31583">
        <ele>260.2</ele>
        <time>2014-05-19T18:12:49Z</time>
      </trkpt>
      <trkpt lat="46.55923" lon="3.3157">
        <ele>260</ele>
        <time>2014-05-19T18:12:50Z</time>
      </trkpt>
      <trkpt lat="46.55919" lon="3.31558">
        <ele>259.8</ele>
        <time>2014-05-19T18:12:50Z</time>
      </trkpt>
      <trkpt lat="46.55914" lon="3.31543">
        <ele>259.5</ele>
        <time>2014-05-19T18:12:51Z</time>
      </trkpt>
      <trkpt lat="46.5591" lon="3.3153">
        <ele>259.3</ele>
        <time>2014-05-19T18:12:52Z</time>
      </trkpt>
      <trkpt lat="46.55905" lon="3.31516">
        <ele>259.1</ele>
        <time>2014-05-19T18:12:53Z</time>
      </trkpt>
      <trkpt lat="46.559" lon="3.31501">
        <ele>259</ele>
        <time>2014-05-19T18:12:54Z</time>
      </trkpt>
      <trkpt lat="46.55895" lon="3.31486">
        <ele>258.8</ele>
        <time>2014-05-19T18:12:55Z</time>
      </trkpt>
      <trkpt lat="46.5589" lon="3.31471">
        <ele>258.6</ele>
        <time>2014-05-19T18:12:56Z</time>
      </trkpt>
      <trkpt lat="46.55885" lon="3.31456">
        <ele>258.3</ele>
        <time>2014-05-19T18:12:58Z</time>
      </trkpt>
      <trkpt lat="46.55879" lon="3.3144">
        <ele>258</ele>
        <time>2014-05-19T18:12:58Z</time>
      </trkpt>
      <trkpt lat="46.55874" lon="3.31427">
        <ele>257.7</ele>
        <time>2014-05-19T18:13:00Z</time>
      </trkpt>
      <trkpt lat="46.55869" lon="3.31411">
        <ele>257.5</ele>
        <time>2014-05-19T18:13:00Z</time>
      </trkpt>
      <trkpt lat="46.55863" lon="3.31395">
        <ele>257.5</ele>
        <time>2014-05-19T18:13:01Z</time>
      </trkpt>
      <trkpt lat="46.55858" lon="3.31379">
        <ele>257.5</ele>
        <time>2014-05-19T18:13:02Z</time>
      </trkpt>
      <trkpt lat="46.55853" lon="3.31364">
        <ele>257.5</ele>
        <time>2014-05-19T18:13:03Z</time>
      </trkpt>
      <trkpt lat="46.55849" lon="3.31349">
        <ele>257.5</ele>
        <time>2014-05-19T18:13:04Z</time>
      </trkpt>
      <trkpt lat="46.55844" lon="3.31337">
        <ele>257.5</ele>
        <time>2014-05-19T18:13:05Z</time>
      </trkpt>
      <trkpt lat="46.5584" lon="3.31322">
        <ele>257.6</ele>
        <time>2014-05-19T18:13:07Z</time>
      </trkpt>
      <trkpt lat="46.55837" lon="3.31311">
        <ele>257.7</ele>
        <time>2014-05-19T18:13:07Z</time>
      </trkpt>
      <trkpt lat="46.55836" lon="3.31297">
        <ele>257.8</ele>
        <time>2014-05-19T18:13:09Z</time>
      </trkpt>
      <trkpt lat="46.55837" lon="3.31283">
        <ele>258.1</ele>
        <time>2014-05-19T18:13:09Z</time>
      </trkpt>
      <trkpt lat="46.55837" lon="3.3127">
        <ele>258.4</ele>
        <time>2014-05-19T18:13:11Z</time>
      </trkpt>
      <trkpt lat="46.55835" lon="3.31258">
        <ele>258.7</ele>
        <time>2014-05-19T18:13:11Z</time>
      </trkpt>
      <trkpt lat="46.55831" lon="3.31246">
        <ele>258.9</ele>
        <time>2014-05-19T18:13:12Z</time>
      </trkpt>
      <trkpt lat="46.55826" lon="3.31235">
        <ele>259.2</ele>
        <time>2014-05-19T18:13:13Z</time>
      </trkpt>
      <trkpt lat="46.5582" lon="3.31223">
        <ele>259.3</ele>
        <time>2014-05-19T18:13:14Z</time>
      </trkpt>
      <trkpt lat="46.55816" lon="3.3121">
        <ele>259.3</ele>
        <time>2014-05-19T18:13:15Z</time>
      </trkpt>
      <trkpt lat="46.55812" lon="3.31197">
        <ele>259.4</ele>
        <time>2014-05-19T18:13:17Z</time>
      </trkpt>
      <trkpt lat="46.55809" lon="3.31182">
        <ele>259.4</ele>
        <time>2014-05-19T18:13:17Z</time>
      </trkpt>
      <trkpt lat="46.55808" lon="3.31167">
        <ele>259.4</ele>
        <time>2014-05-19T18:13:18Z</time>
      </trkpt>
      <trkpt lat="46.55806" lon="3.31151">
        <ele>259.4</ele>
        <time>2014-05-19T18:13:19Z</time>
      </trkpt>
      <trkpt lat="46.55804" lon="3.31134">
        <ele>259.3</ele>
        <time>2014-05-19T18:13:20Z</time>
      </trkpt>
      <trkpt lat="46.55803" lon="3.31118">
        <ele>259.1</ele>
        <time>2014-05-19T18:13:22Z</time>
      </trkpt>
      <trkpt lat="46.55801" lon="3.31101">
        <ele>259</ele>
        <time>2014-05-19T18:13:22Z</time>
      </trkpt>
      <trkpt lat="46.55799" lon="3.31083">
        <ele>258.9</ele>
        <time>2014-05-19T18:13:23Z</time>
      </trkpt>
      <trkpt lat="46.55798" lon="3.31066">
        <ele>258.7</ele>
        <time>2014-05-19T18:13:24Z</time>
      </trkpt>
      <trkpt lat="46.55796" lon="3.31047">
        <ele>258.6</ele>
        <time>2014-05-19T18:13:25Z</time>
      </trkpt>
      <trkpt lat="46.55793" lon="3.3103">
        <ele>258.5</ele>
        <time>2014-05-19T18:13:26Z</time>
      </trkpt>
      <trkpt lat="46.55792" lon="3.31011">
        <ele>258.4</ele>
        <time>2014-05-19T18:13:27Z</time>
      </trkpt>
      <trkpt lat="46.55789" lon="3.30993">
        <ele>258.3</ele>
        <time>2014-05-19T18:13:28Z</time>
      </trkpt>
      <trkpt lat="46.55788" lon="3.30974">
        <ele>258.2</ele>
        <time>2014-05-19T18:13:30Z</time>
      </trkpt>
      <trkpt lat="46.55786" lon="3.30954">
        <ele>258.1</ele>
        <time>2014-05-19T18:13:30Z</time>
      </trkpt>
      <trkpt lat="46.55783" lon="3.30936">
        <ele>258</ele>
        <time>2014-05-19T18:13:31Z</time>
      </trkpt>
      <trkpt lat="46.55782" lon="3.30917">
        <ele>257.9</ele>
        <time>2014-05-19T18:13:32Z</time>
      </trkpt>
      <trkpt lat="46.55779" lon="3.30898">
        <ele>257.7</ele>
        <time>2014-05-19T18:13:33Z</time>
      </trkpt>
      <trkpt lat="46.55777" lon="3.30879">
        <ele>257.6</ele>
        <time>2014-05-19T18:13:35Z</time>
      </trkpt>
      <trkpt lat="46.55776" lon="3.30861">
        <ele>257.4</ele>
        <time>2014-05-19T18:13:36Z</time>
      </trkpt>
      <trkpt lat="46.55774" lon="3.30843">
        <ele>257.3</ele>
        <time>2014-05-19T18:13:36Z</time>
      </trkpt>
      <trkpt lat="46.55772" lon="3.30825">
        <ele>257.3</ele>
        <time>2014-05-19T18:13:37Z</time>
      </trkpt>
      <trkpt lat="46.55771" lon="3.30807">
        <ele>257.3</ele>
        <time>2014-05-19T18:13:38Z</time>
      </trkpt>
      <trkpt lat="46.55769" lon="3.3079">
        <ele>257.3</ele>
        <time>2014-05-19T18:13:39Z</time>
      </trkpt>
      <trkpt lat="46.55768" lon="3.30771">
        <ele>257.4</ele>
        <time>2014-05-19T18:13:40Z</time>
      </trkpt>
      <trkpt lat="46.55766" lon="3.30754">
        <ele>257.8</ele>
        <time>2014-05-19T18:13:41Z</time>
      </trkpt>
      <trkpt lat="46.55764" lon="3.30737">
        <ele>258.2</ele>
        <time>2014-05-19T18:13:42Z</time>
      </trkpt>
      <trkpt lat="46.55763" lon="3.3072">
        <ele>258.7</ele>
        <time>2014-05-19T18:13:43Z</time>
      </trkpt>
      <trkpt lat="46.55761" lon="3.30703">
        <ele>259.3</ele>
        <time>2014-05-19T18:13:44Z</time>
      </trkpt>
      <trkpt lat="46.5576" lon="3.30686">
        <ele>259.9</ele>
        <time>2014-05-19T18:13:45Z</time>
      </trkpt>
      <trkpt lat="46.55758" lon="3.30669">
        <ele>260.6</ele>
        <time>2014-05-19T18:13:46Z</time>
      </trkpt>
      <trkpt lat="46.55757" lon="3.30652">
        <ele>261.2</ele>
        <time>2014-05-19T18:13:48Z</time>
      </trkpt>
      <trkpt lat="46.55756" lon="3.30635">
        <ele>261.9</ele>
        <time>2014-05-19T18:13:49Z</time>
      </trkpt>
      <trkpt lat="46.55754" lon="3.30618">
        <ele>262.5</ele>
        <time>2014-05-19T18:13:50Z</time>
      </trkpt>
      <trkpt lat="46.55752" lon="3.30601">
        <ele>263</ele>
        <time>2014-05-19T18:13:50Z</time>
      </trkpt>
      <trkpt lat="46.5575" lon="3.30585">
        <ele>263.5</ele>
        <time>2014-05-19T18:13:51Z</time>
      </trkpt>
      <trkpt lat="46.55748" lon="3.30568">
        <ele>263.8</ele>
        <time>2014-05-19T18:13:52Z</time>
      </trkpt>
      <trkpt lat="46.55747" lon="3.30552">
        <ele>264</ele>
        <time>2014-05-19T18:13:53Z</time>
      </trkpt>
      <trkpt lat="46.55745" lon="3.30536">
        <ele>264.1</ele>
        <time>2014-05-19T18:13:54Z</time>
      </trkpt>
      <trkpt lat="46.55743" lon="3.30521">
        <ele>264.2</ele>
        <time>2014-05-19T18:13:55Z</time>
      </trkpt>
      <trkpt lat="46.55742" lon="3.30506">
        <ele>264.1</ele>
        <time>2014-05-19T18:13:57Z</time>
      </trkpt>
      <trkpt lat="46.5574" lon="3.30491">
        <ele>264.1</ele>
        <time>2014-05-19T18:13:58Z</time>
      </trkpt>
      <trkpt lat="46.55738" lon="3.30476">
        <ele>264.2</ele>
        <time>2014-05-19T18:13:58Z</time>
      </trkpt>
      <trkpt lat="46.55736" lon="3.30463">
        <ele>264.5</ele>
        <time>2014-05-19T18:13:59Z</time>
      </trkpt>
      <trkpt lat="46.55735" lon="3.30451">
        <ele>265.2</ele>
        <time>2014-05-19T18:14:00Z</time>
      </trkpt>
      <trkpt lat="46.55733" lon="3.30439">
        <ele>266.1</ele>
        <time>2014-05-19T18:14:01Z</time>
      </trkpt>
      <trkpt lat="46.55735" lon="3.30421">
        <ele>267.1</ele>
        <time>2014-05-19T18:14:03Z</time>
      </trkpt>
      <trkpt lat="46.55735" lon="3.30409">
        <ele>268.3</ele>
        <time>2014-05-19T18:14:07Z</time>
      </trkpt>
      <trkpt lat="46.55729" lon="3.30394">
        <ele>269.5</ele>
        <time>2014-05-19T18:14:10Z</time>
      </trkpt>
      <trkpt lat="46.55716" lon="3.30387">
        <ele>270.8</ele>
        <time>2014-05-19T18:14:12Z</time>
      </trkpt>
      <trkpt lat="46.55704" lon="3.30384">
        <ele>272.2</ele>
        <time>2014-05-19T18:14:15Z</time>
      </trkpt>
      <trkpt lat="46.55689" lon="3.30376">
        <ele>273.9</ele>
        <time>2014-05-19T18:14:16Z</time>
      </trkpt>
      <trkpt lat="46.55681" lon="3.30373">
        <ele>275.6</ele>
        <time>2014-05-19T18:14:17Z</time>
      </trkpt>
      <trkpt lat="46.5567" lon="3.30371">
        <ele>277.3</ele>
        <time>2014-05-19T18:14:18Z</time>
      </trkpt>
      <trkpt lat="46.55659" lon="3.30369">
        <ele>278.9</ele>
        <time>2014-05-19T18:14:19Z</time>
      </trkpt>
      <trkpt lat="46.55647" lon="3.30367">
        <ele>280.1</ele>
        <time>2014-05-19T18:14:21Z</time>
      </trkpt>
      <trkpt lat="46.55635" lon="3.30364">
        <ele>281.1</ele>
        <time>2014-05-19T18:14:21Z</time>
      </trkpt>
      <trkpt lat="46.55623" lon="3.30364">
        <ele>282.2</ele>
        <time>2014-05-19T18:14:22Z</time>
      </trkpt>
      <trkpt lat="46.55611" lon="3.30367">
        <ele>283.2</ele>
        <time>2014-05-19T18:14:23Z</time>
      </trkpt>
      <trkpt lat="46.55598" lon="3.3037">
        <ele>284.3</ele>
        <time>2014-05-19T18:14:24Z</time>
      </trkpt>
      <trkpt lat="46.55583" lon="3.30375">
        <ele>285.4</ele>
        <time>2014-05-19T18:14:25Z</time>
      </trkpt>
      <trkpt lat="46.55568" lon="3.30381">
        <ele>286.4</ele>
        <time>2014-05-19T18:14:26Z</time>
      </trkpt>
      <trkpt lat="46.55553" lon="3.30384">
        <ele>287.3</ele>
        <time>2014-05-19T18:14:27Z</time>
      </trkpt>
      <trkpt lat="46.55538" lon="3.30387">
        <ele>288.2</ele>
        <time>2014-05-19T18:14:28Z</time>
      </trkpt>
      <trkpt lat="46.55523" lon="3.30387">
        <ele>289.1</ele>
        <time>2014-05-19T18:14:29Z</time>
      </trkpt>
      <trkpt lat="46.55508" lon="3.30386">
        <ele>289.9</ele>
        <time>2014-05-19T18:14:30Z</time>
      </trkpt>
      <trkpt lat="46.55494" lon="3.30385">
        <ele>290.8</ele>
        <time>2014-05-19T18:14:31Z</time>
      </trkpt>
      <trkpt lat="46.5548" lon="3.30385">
        <ele>291.6</ele>
        <time>2014-05-19T18:14:32Z</time>
      </trkpt>
      <trkpt lat="46.55468" lon="3.30386">
        <ele>292.4</ele>
        <time>2014-05-19T18:14:33Z</time>
      </trkpt>
      <trkpt lat="46.55455" lon="3.3039">
        <ele>293.1</ele>
        <time>2014-05-19T18:14:34Z</time>
      </trkpt>
      <trkpt lat="46.55442" lon="3.30401">
        <ele>293.7</ele>
        <time>2014-05-19T18:14:35Z</time>
      </trkpt>
      <trkpt lat="46.55429" lon="3.3041">
        <ele>294.4</ele>
        <time>2014-05-19T18:14:36Z</time>
      </trkpt>
      <trkpt lat="46.55417" lon="3.30418">
        <ele>295</ele>
        <time>2014-05-19T18:14:37Z</time>
      </trkpt>
      <trkpt lat="46.55404" lon="3.30425">
        <ele>295.6</ele>
        <time>2014-05-19T18:14:38Z</time>
      </trkpt>
      <trkpt lat="46.55391" lon="3.30431">
        <ele>296</ele>
        <time>2014-05-19T18:14:39Z</time>
      </trkpt>
      <trkpt lat="46.55379" lon="3.30434">
        <ele>296.5</ele>
        <time>2014-05-19T18:14:40Z</time>
      </trkpt>
      <trkpt lat="46.55365" lon="3.30436">
        <ele>297</ele>
        <time>2014-05-19T18:14:41Z</time>
      </trkpt>
      <trkpt lat="46.55352" lon="3.30436">
        <ele>297.4</ele>
        <time>2014-05-19T18:14:42Z</time>
      </trkpt>
      <trkpt lat="46.55336" lon="3.30434">
        <ele>297.8</ele>
        <time>2014-05-19T18:14:43Z</time>
      </trkpt>
      <trkpt lat="46.55324" lon="3.30429">
        <ele>298.3</ele>
        <time>2014-05-19T18:14:44Z</time>
      </trkpt>
      <trkpt lat="46.55309" lon="3.30426">
        <ele>298.7</ele>
        <time>2014-05-19T18:14:45Z</time>
      </trkpt>
      <trkpt lat="46.55295" lon="3.30423">
        <ele>299</ele>
        <time>2014-05-19T18:14:46Z</time>
      </trkpt>
      <trkpt lat="46.5528" lon="3.3042">
        <ele>299.4</ele>
        <time>2014-05-19T18:14:47Z</time>
      </trkpt>
      <trkpt lat="46.55265" lon="3.30417">
        <ele>299.8</ele>
        <time>2014-05-19T18:14:48Z</time>
      </trkpt>
      <trkpt lat="46.55251" lon="3.30414">
        <ele>300.1</ele>
        <time>2014-05-19T18:14:49Z</time>
      </trkpt>
      <trkpt lat="46.55237" lon="3.30411">
        <ele>300.4</ele>
        <time>2014-05-19T18:14:50Z</time>
      </trkpt>
      <trkpt lat="46.55223" lon="3.30407">
        <ele>300.6</ele>
        <time>2014-05-19T18:14:51Z</time>
      </trkpt>
      <trkpt lat="46.55208" lon="3.30403">
        <ele>300.8</ele>
        <time>2014-05-19T18:14:52Z</time>
      </trkpt>
      <trkpt lat="46.55194" lon="3.30399">
        <ele>300.9</ele>
        <time>2014-05-19T18:14:53Z</time>
      </trkpt>
      <trkpt lat="46.55178" lon="3.30395">
        <ele>301.1</ele>
        <time>2014-05-19T18:14:55Z</time>
      </trkpt>
      <trkpt lat="46.55163" lon="3.30392">
        <ele>301.3</ele>
        <time>2014-05-19T18:14:55Z</time>
      </trkpt>
      <trkpt lat="46.55147" lon="3.30388">
        <ele>301.3</ele>
        <time>2014-05-19T18:14:56Z</time>
      </trkpt>
      <trkpt lat="46.55132" lon="3.30384">
        <ele>301.4</ele>
        <time>2014-05-19T18:14:58Z</time>
      </trkpt>
      <trkpt lat="46.55116" lon="3.30381">
        <ele>301.3</ele>
        <time>2014-05-19T18:14:59Z</time>
      </trkpt>
      <trkpt lat="46.551" lon="3.30376">
        <ele>301.2</ele>
        <time>2014-05-19T18:14:59Z</time>
      </trkpt>
      <trkpt lat="46.55084" lon="3.30373">
        <ele>301.1</ele>
        <time>2014-05-19T18:15:00Z</time>
      </trkpt>
      <trkpt lat="46.55068" lon="3.30369">
        <ele>300.9</ele>
        <time>2014-05-19T18:15:02Z</time>
      </trkpt>
      <trkpt lat="46.55052" lon="3.30365">
        <ele>300.7</ele>
        <time>2014-05-19T18:15:03Z</time>
      </trkpt>
      <trkpt lat="46.55037" lon="3.30361">
        <ele>300.5</ele>
        <time>2014-05-19T18:15:03Z</time>
      </trkpt>
      <trkpt lat="46.55021" lon="3.30358">
        <ele>300.4</ele>
        <time>2014-05-19T18:15:05Z</time>
      </trkpt>
      <trkpt lat="46.55005" lon="3.30354">
        <ele>300.2</ele>
        <time>2014-05-19T18:15:05Z</time>
      </trkpt>
      <trkpt lat="46.5499" lon="3.3035">
        <ele>300.1</ele>
        <time>2014-05-19T18:15:06Z</time>
      </trkpt>
      <trkpt lat="46.54973" lon="3.30348">
        <ele>300</ele>
        <time>2014-05-19T18:15:07Z</time>
      </trkpt>
      <trkpt lat="46.54957" lon="3.30346">
        <ele>300</ele>
        <time>2014-05-19T18:15:08Z</time>
      </trkpt>
      <trkpt lat="46.54941" lon="3.30342">
        <ele>300</ele>
        <time>2014-05-19T18:15:10Z</time>
      </trkpt>
      <trkpt lat="46.54925" lon="3.30339">
        <ele>300.1</ele>
        <time>2014-05-19T18:15:11Z</time>
      </trkpt>
      <trkpt lat="46.54909" lon="3.30335">
        <ele>300.3</ele>
        <time>2014-05-19T18:15:11Z</time>
      </trkpt>
      <trkpt lat="46.54894" lon="3.30331">
        <ele>300.6</ele>
        <time>2014-05-19T18:15:12Z</time>
      </trkpt>
      <trkpt lat="46.54878" lon="3.30327">
        <ele>301</ele>
        <time>2014-05-19T18:15:13Z</time>
      </trkpt>
      <trkpt lat="46.54862" lon="3.30323">
        <ele>301.3</ele>
        <time>2014-05-19T18:15:15Z</time>
      </trkpt>
      <trkpt lat="46.54848" lon="3.3032">
        <ele>301.7</ele>
        <time>2014-05-19T18:15:16Z</time>
      </trkpt>
      <trkpt lat="46.54834" lon="3.30317">
        <ele>302.1</ele>
        <time>2014-05-19T18:15:17Z</time>
      </trkpt>
      <trkpt lat="46.54819" lon="3.30312">
        <ele>302.6</ele>
        <time>2014-05-19T18:15:17Z</time>
      </trkpt>
      <trkpt lat="46.54804" lon="3.30308">
        <ele>303</ele>
        <time>2014-05-19T18:15:18Z</time>
      </trkpt>
      <trkpt lat="46.54789" lon="3.30303">
        <ele>303.5</ele>
        <time>2014-05-19T18:15:20Z</time>
      </trkpt>
      <trkpt lat="46.54773" lon="3.30297">
        <ele>303.9</ele>
        <time>2014-05-19T18:15:20Z</time>
      </trkpt>
      <trkpt lat="46.54758" lon="3.30291">
        <ele>304.2</ele>
        <time>2014-05-19T18:15:22Z</time>
      </trkpt>
      <trkpt lat="46.54744" lon="3.30284">
        <ele>304.4</ele>
        <time>2014-05-19T18:15:22Z</time>
      </trkpt>
      <trkpt lat="46.54729" lon="3.30275">
        <ele>304.4</ele>
        <time>2014-05-19T18:15:23Z</time>
      </trkpt>
      <trkpt lat="46.54715" lon="3.30264">
        <ele>304.4</ele>
        <time>2014-05-19T18:15:24Z</time>
      </trkpt>
      <trkpt lat="46.54701" lon="3.30252">
        <ele>304.3</ele>
        <time>2014-05-19T18:15:25Z</time>
      </trkpt>
      <trkpt lat="46.54688" lon="3.30238">
        <ele>304.2</ele>
        <time>2014-05-19T18:15:26Z</time>
      </trkpt>
      <trkpt lat="46.54674" lon="3.30223">
        <ele>303.9</ele>
        <time>2014-05-19T18:15:27Z</time>
      </trkpt>
      <trkpt lat="46.5466" lon="3.30209">
        <ele>303.5</ele>
        <time>2014-05-19T18:15:29Z</time>
      </trkpt>
      <trkpt lat="46.54647" lon="3.30195">
        <ele>303.1</ele>
        <time>2014-05-19T18:15:30Z</time>
      </trkpt>
      <trkpt lat="46.54633" lon="3.3018">
        <ele>302.8</ele>
        <time>2014-05-19T18:15:30Z</time>
      </trkpt>
      <trkpt lat="46.54619" lon="3.30165">
        <ele>302.4</ele>
        <time>2014-05-19T18:15:31Z</time>
      </trkpt>
      <trkpt lat="46.54606" lon="3.3015">
        <ele>302</ele>
        <time>2014-05-19T18:15:32Z</time>
      </trkpt>
      <trkpt lat="46.54592" lon="3.30136">
        <ele>301.7</ele>
        <time>2014-05-19T18:15:33Z</time>
      </trkpt>
      <trkpt lat="46.54578" lon="3.30121">
        <ele>301.4</ele>
        <time>2014-05-19T18:15:34Z</time>
      </trkpt>
      <trkpt lat="46.54564" lon="3.30107">
        <ele>301.1</ele>
        <time>2014-05-19T18:15:35Z</time>
      </trkpt>
      <trkpt lat="46.5455" lon="3.30092">
        <ele>301</ele>
        <time>2014-05-19T18:15:36Z</time>
      </trkpt>
      <trkpt lat="46.54536" lon="3.30078">
        <ele>300.9</ele>
        <time>2014-05-19T18:15:38Z</time>
      </trkpt>
      <trkpt lat="46.54521" lon="3.30063">
        <ele>301</ele>
        <time>2014-05-19T18:15:38Z</time>
      </trkpt>
      <trkpt lat="46.54507" lon="3.30048">
        <ele>301</ele>
        <time>2014-05-19T18:15:40Z</time>
      </trkpt>
      <trkpt lat="46.54493" lon="3.30034">
        <ele>301</ele>
        <time>2014-05-19T18:15:41Z</time>
      </trkpt>
      <trkpt lat="46.54479" lon="3.3002">
        <ele>301</ele>
        <time>2014-05-19T18:15:41Z</time>
      </trkpt>
      <trkpt lat="46.54466" lon="3.30006">
        <ele>301.2</ele>
        <time>2014-05-19T18:15:43Z</time>
      </trkpt>
      <trkpt lat="46.54452" lon="3.29992">
        <ele>301.3</ele>
        <time>2014-05-19T18:15:43Z</time>
      </trkpt>
      <trkpt lat="46.54439" lon="3.29978">
        <ele>301.6</ele>
        <time>2014-05-19T18:15:44Z</time>
      </trkpt>
      <trkpt lat="46.54426" lon="3.29963">
        <ele>301.9</ele>
        <time>2014-05-19T18:15:45Z</time>
      </trkpt>
      <trkpt lat="46.54413" lon="3.29948">
        <ele>302.2</ele>
        <time>2014-05-19T18:15:46Z</time>
      </trkpt>
      <trkpt lat="46.544" lon="3.29933">
        <ele>302.5</ele>
        <time>2014-05-19T18:15:47Z</time>
      </trkpt>
      <trkpt lat="46.54387" lon="3.29918">
        <ele>302.8</ele>
        <time>2014-05-19T18:15:48Z</time>
      </trkpt>
      <trkpt lat="46.54375" lon="3.29902">
        <ele>303.1</ele>
        <time>2014-05-19T18:15:49Z</time>
      </trkpt>
      <trkpt lat="46.54363" lon="3.29886">
        <ele>303.4</ele>
        <time>2014-05-19T18:15:50Z</time>
      </trkpt>
      <trkpt lat="46.54351" lon="3.2987">
        <ele>303.7</ele>
        <time>2014-05-19T18:15:51Z</time>
      </trkpt>
      <trkpt lat="46.54338" lon="3.29852">
        <ele>304.1</ele>
        <time>2014-05-19T18:15:52Z</time>
      </trkpt>
      <trkpt lat="46.54325" lon="3.29836">
        <ele>304.3</ele>
        <time>2014-05-19T18:15:53Z</time>
      </trkpt>
      <trkpt lat="46.54313" lon="3.29819">
        <ele>304.6</ele>
        <time>2014-05-19T18:15:54Z</time>
      </trkpt>
      <trkpt lat="46.543" lon="3.29802">
        <ele>304.8</ele>
        <time>2014-05-19T18:15:55Z</time>
      </trkpt>
      <trkpt lat="46.54286" lon="3.29784">
        <ele>305</ele>
        <time>2014-05-19T18:15:57Z</time>
      </trkpt>
      <trkpt lat="46.54273" lon="3.29766">
        <ele>305.1</ele>
        <time>2014-05-19T18:15:58Z</time>
      </trkpt>
      <trkpt lat="46.54259" lon="3.29747">
        <ele>305.2</ele>
        <time>2014-05-19T18:15:58Z</time>
      </trkpt>
      <trkpt lat="46.54245" lon="3.2973">
        <ele>305.4</ele>
        <time>2014-05-19T18:15:59Z</time>
      </trkpt>
      <trkpt lat="46.54231" lon="3.29711">
        <ele>305.6</ele>
        <time>2014-05-19T18:16:01Z</time>
      </trkpt>
      <trkpt lat="46.54217" lon="3.29692">
        <ele>305.7</ele>
        <time>2014-05-19T18:16:01Z</time>
      </trkpt>
      <trkpt lat="46.54203" lon="3.29674">
        <ele>305.8</ele>
        <time>2014-05-19T18:16:02Z</time>
      </trkpt>
      <trkpt lat="46.54189" lon="3.29656">
        <ele>306.1</ele>
        <time>2014-05-19T18:16:03Z</time>
      </trkpt>
      <trkpt lat="46.54175" lon="3.2964">
        <ele>306.3</ele>
        <time>2014-05-19T18:16:04Z</time>
      </trkpt>
      <trkpt lat="46.5416" lon="3.29625">
        <ele>306.7</ele>
        <time>2014-05-19T18:16:06Z</time>
      </trkpt>
      <trkpt lat="46.54145" lon="3.29614">
        <ele>307.1</ele>
        <time>2014-05-19T18:16:07Z</time>
      </trkpt>
      <trkpt lat="46.54128" lon="3.29603">
        <ele>307.5</ele>
        <time>2014-05-19T18:16:08Z</time>
      </trkpt>
      <trkpt lat="46.54112" lon="3.29593">
        <ele>307.9</ele>
        <time>2014-05-19T18:16:08Z</time>
      </trkpt>
      <trkpt lat="46.54095" lon="3.29583">
        <ele>308.4</ele>
        <time>2014-05-19T18:16:09Z</time>
      </trkpt>
      <trkpt lat="46.54078" lon="3.29575">
        <ele>308.9</ele>
        <time>2014-05-19T18:16:10Z</time>
      </trkpt>
      <trkpt lat="46.5406" lon="3.29565">
        <ele>309.3</ele>
        <time>2014-05-19T18:16:12Z</time>
      </trkpt>
      <trkpt lat="46.54043" lon="3.29556">
        <ele>309.7</ele>
        <time>2014-05-19T18:16:12Z</time>
      </trkpt>
      <trkpt lat="46.54025" lon="3.29547">
        <ele>310.1</ele>
        <time>2014-05-19T18:16:13Z</time>
      </trkpt>
      <trkpt lat="46.54007" lon="3.29539">
        <ele>310.5</ele>
        <time>2014-05-19T18:16:15Z</time>
      </trkpt>
      <trkpt lat="46.53989" lon="3.2953">
        <ele>310.9</ele>
        <time>2014-05-19T18:16:16Z</time>
      </trkpt>
      <trkpt lat="46.53971" lon="3.2952">
        <ele>311.3</ele>
        <time>2014-05-19T18:16:17Z</time>
      </trkpt>
      <trkpt lat="46.53953" lon="3.29511">
        <ele>311.6</ele>
        <time>2014-05-19T18:16:17Z</time>
      </trkpt>
      <trkpt lat="46.53935" lon="3.29501">
        <ele>312</ele>
        <time>2014-05-19T18:16:18Z</time>
      </trkpt>
      <trkpt lat="46.53917" lon="3.29492">
        <ele>312.4</ele>
        <time>2014-05-19T18:16:20Z</time>
      </trkpt>
      <trkpt lat="46.539" lon="3.29482">
        <ele>312.8</ele>
        <time>2014-05-19T18:16:20Z</time>
      </trkpt>
      <trkpt lat="46.53882" lon="3.29472">
        <ele>313.1</ele>
        <time>2014-05-19T18:16:22Z</time>
      </trkpt>
      <trkpt lat="46.53865" lon="3.29463">
        <ele>313.5</ele>
        <time>2014-05-19T18:16:22Z</time>
      </trkpt>
      <trkpt lat="46.53848" lon="3.29453">
        <ele>313.8</ele>
        <time>2014-05-19T18:16:23Z</time>
      </trkpt>
      <trkpt lat="46.53831" lon="3.29445">
        <ele>314.2</ele>
        <time>2014-05-19T18:16:24Z</time>
      </trkpt>
      <trkpt lat="46.53814" lon="3.29436">
        <ele>314.4</ele>
        <time>2014-05-19T18:16:26Z</time>
      </trkpt>
      <trkpt lat="46.53796" lon="3.29427">
        <ele>314.7</ele>
        <time>2014-05-19T18:16:26Z</time>
      </trkpt>
      <trkpt lat="46.5378" lon="3.29418">
        <ele>315.1</ele>
        <time>2014-05-19T18:16:27Z</time>
      </trkpt>
      <trkpt lat="46.53763" lon="3.29408">
        <ele>315.5</ele>
        <time>2014-05-19T18:16:28Z</time>
      </trkpt>
      <trkpt lat="46.53746" lon="3.29399">
        <ele>315.7</ele>
        <time>2014-05-19T18:16:30Z</time>
      </trkpt>
      <trkpt lat="46.5373" lon="3.29391">
        <ele>315.9</ele>
        <time>2014-05-19T18:16:30Z</time>
      </trkpt>
      <trkpt lat="46.53714" lon="3.29384">
        <ele>316</ele>
        <time>2014-05-19T18:16:31Z</time>
      </trkpt>
      <trkpt lat="46.53697" lon="3.29374">
        <ele>316.2</ele>
        <time>2014-05-19T18:16:33Z</time>
      </trkpt>
      <trkpt lat="46.53681" lon="3.29365">
        <ele>316.4</ele>
        <time>2014-05-19T18:16:33Z</time>
      </trkpt>
      <trkpt lat="46.53664" lon="3.29358">
        <ele>316.5</ele>
        <time>2014-05-19T18:16:34Z</time>
      </trkpt>
      <trkpt lat="46.53647" lon="3.29351">
        <ele>316.7</ele>
        <time>2014-05-19T18:16:35Z</time>
      </trkpt>
      <trkpt lat="46.5363" lon="3.29344">
        <ele>316.8</ele>
        <time>2014-05-19T18:16:36Z</time>
      </trkpt>
      <trkpt lat="46.53613" lon="3.29339">
        <ele>316.9</ele>
        <time>2014-05-19T18:16:38Z</time>
      </trkpt>
      <trkpt lat="46.53597" lon="3.29333">
        <ele>317</ele>
        <time>2014-05-19T18:16:39Z</time>
      </trkpt>
      <trkpt lat="46.5358" lon="3.29328">
        <ele>317</ele>
        <time>2014-05-19T18:16:39Z</time>
      </trkpt>
      <trkpt lat="46.53564" lon="3.29323">
        <ele>317</ele>
        <time>2014-05-19T18:16:40Z</time>
      </trkpt>
      <trkpt lat="46.53548" lon="3.29317">
        <ele>317</ele>
        <time>2014-05-19T18:16:41Z</time>
      </trkpt>
      <trkpt lat="46.53531" lon="3.29312">
        <ele>317</ele>
        <time>2014-05-19T18:16:43Z</time>
      </trkpt>
      <trkpt lat="46.53515" lon="3.29307">
        <ele>317</ele>
        <time>2014-05-19T18:16:43Z</time>
      </trkpt>
      <trkpt lat="46.53498" lon="3.29302">
        <ele>316.9</ele>
        <time>2014-05-19T18:16:44Z</time>
      </trkpt>
      <trkpt lat="46.53481" lon="3.29296">
        <ele>316.8</ele>
        <time>2014-05-19T18:16:45Z</time>
      </trkpt>
      <trkpt lat="46.53464" lon="3.2929">
        <ele>316.8</ele>
        <time>2014-05-19T18:16:47Z</time>
      </trkpt>
      <trkpt lat="46.53447" lon="3.29285">
        <ele>316.8</ele>
        <time>2014-05-19T18:16:48Z</time>
      </trkpt>
      <trkpt lat="46.5343" lon="3.29279">
        <ele>316.9</ele>
        <time>2014-05-19T18:16:48Z</time>
      </trkpt>
      <trkpt lat="46.53412" lon="3.29273">
        <ele>316.9</ele>
        <time>2014-05-19T18:16:49Z</time>
      </trkpt>
      <trkpt lat="46.53395" lon="3.29267">
        <ele>316.9</ele>
        <time>2014-05-19T18:16:50Z</time>
      </trkpt>
      <trkpt lat="46.53379" lon="3.29261">
        <ele>316.9</ele>
        <time>2014-05-19T18:16:51Z</time>
      </trkpt>
      <trkpt lat="46.53364" lon="3.29254">
        <ele>316.9</ele>
        <time>2014-05-19T18:16:52Z</time>
      </trkpt>
      <trkpt lat="46.53349" lon="3.29246">
        <ele>316.9</ele>
        <time>2014-05-19T18:16:53Z</time>
      </trkpt>
      <trkpt lat="46.53333" lon="3.29236">
        <ele>316.9</ele>
        <time>2014-05-19T18:16:54Z</time>
      </trkpt>
      <trkpt lat="46.53318" lon="3.29225">
        <ele>316.9</ele>
        <time>2014-05-19T18:16:55Z</time>
      </trkpt>
      <trkpt lat="46.53303" lon="3.29213">
        <ele>316.8</ele>
        <time>2014-05-19T18:16:56Z</time>
      </trkpt>
      <trkpt lat="46.53289" lon="3.29199">
        <ele>316.7</ele>
        <time>2014-05-19T18:16:57Z</time>
      </trkpt>
      <trkpt lat="46.53274" lon="3.29184">
        <ele>316.4</ele>
        <time>2014-05-19T18:16:58Z</time>
      </trkpt>
      <trkpt lat="46.5326" lon="3.2917">
        <ele>316.2</ele>
        <time>2014-05-19T18:16:59Z</time>
      </trkpt>
      <trkpt lat="46.53245" lon="3.29155">
        <ele>315.9</ele>
        <time>2014-05-19T18:17:00Z</time>
      </trkpt>
      <trkpt lat="46.5323" lon="3.2914">
        <ele>315.6</ele>
        <time>2014-05-19T18:17:01Z</time>
      </trkpt>
      <trkpt lat="46.53215" lon="3.29125">
        <ele>315.3</ele>
        <time>2014-05-19T18:17:02Z</time>
      </trkpt>
      <trkpt lat="46.532" lon="3.2911">
        <ele>315</ele>
        <time>2014-05-19T18:17:03Z</time>
      </trkpt>
      <trkpt lat="46.53186" lon="3.29095">
        <ele>314.7</ele>
        <time>2014-05-19T18:17:04Z</time>
      </trkpt>
      <trkpt lat="46.53169" lon="3.2908">
        <ele>314.5</ele>
        <time>2014-05-19T18:17:06Z</time>
      </trkpt>
      <trkpt lat="46.53151" lon="3.29062">
        <ele>314.3</ele>
        <time>2014-05-19T18:17:06Z</time>
      </trkpt>
      <trkpt lat="46.53133" lon="3.29043">
        <ele>314.1</ele>
        <time>2014-05-19T18:17:07Z</time>
      </trkpt>
      <trkpt lat="46.53114" lon="3.29024">
        <ele>314</ele>
        <time>2014-05-19T18:17:08Z</time>
      </trkpt>
      <trkpt lat="46.53095" lon="3.29005">
        <ele>313.9</ele>
        <time>2014-05-19T18:17:10Z</time>
      </trkpt>
      <trkpt lat="46.53076" lon="3.28984">
        <ele>313.9</ele>
        <time>2014-05-19T18:17:10Z</time>
      </trkpt>
      <trkpt lat="46.53059" lon="3.28966">
        <ele>313.9</ele>
        <time>2014-05-19T18:17:11Z</time>
      </trkpt>
      <trkpt lat="46.53044" lon="3.28947">
        <ele>314</ele>
        <time>2014-05-19T18:17:12Z</time>
      </trkpt>
      <trkpt lat="46.53029" lon="3.2893">
        <ele>314</ele>
        <time>2014-05-19T18:17:13Z</time>
      </trkpt>
      <trkpt lat="46.53012" lon="3.28911">
        <ele>314.1</ele>
        <time>2014-05-19T18:17:14Z</time>
      </trkpt>
      <trkpt lat="46.52999" lon="3.28893">
        <ele>314.3</ele>
        <time>2014-05-19T18:17:15Z</time>
      </trkpt>
      <trkpt lat="46.52985" lon="3.28875">
        <ele>314.6</ele>
        <time>2014-05-19T18:17:16Z</time>
      </trkpt>
      <trkpt lat="46.52973" lon="3.28857">
        <ele>314.9</ele>
        <time>2014-05-19T18:17:17Z</time>
      </trkpt>
      <trkpt lat="46.52959" lon="3.28838">
        <ele>315.1</ele>
        <time>2014-05-19T18:17:18Z</time>
      </trkpt>
      <trkpt lat="46.52944" lon="3.28822">
        <ele>315.4</ele>
        <time>2014-05-19T18:17:19Z</time>
      </trkpt>
      <trkpt lat="46.52928" lon="3.28806">
        <ele>315.6</ele>
        <time>2014-05-19T18:17:20Z</time>
      </trkpt>
      <trkpt lat="46.52913" lon="3.28789">
        <ele>315.8</ele>
        <time>2014-05-19T18:17:21Z</time>
      </trkpt>
      <trkpt lat="46.52896" lon="3.28773">
        <ele>315.9</ele>
        <time>2014-05-19T18:17:22Z</time>
      </trkpt>
      <trkpt lat="46.52881" lon="3.28759">
        <ele>315.9</ele>
        <time>2014-05-19T18:17:23Z</time>
      </trkpt>
      <trkpt lat="46.52866" lon="3.28742">
        <ele>315.8</ele>
        <time>2014-05-19T18:17:24Z</time>
      </trkpt>
      <trkpt lat="46.5285" lon="3.28725">
        <ele>315.7</ele>
        <time>2014-05-19T18:17:25Z</time>
      </trkpt>
      <trkpt lat="46.52834" lon="3.28709">
        <ele>315.3</ele>
        <time>2014-05-19T18:17:27Z</time>
      </trkpt>
      <trkpt lat="46.52817" lon="3.28693">
        <ele>314.8</ele>
        <time>2014-05-19T18:17:28Z</time>
      </trkpt>
      <trkpt lat="46.52801" lon="3.28677">
        <ele>314.3</ele>
        <time>2014-05-19T18:17:29Z</time>
      </trkpt>
      <trkpt lat="46.52785" lon="3.28661">
        <ele>313.9</ele>
        <time>2014-05-19T18:17:30Z</time>
      </trkpt>
      <trkpt lat="46.5277" lon="3.28645">
        <ele>313.5</ele>
        <time>2014-05-19T18:17:31Z</time>
      </trkpt>
      <trkpt lat="46.52754" lon="3.28629">
        <ele>313.1</ele>
        <time>2014-05-19T18:17:32Z</time>
      </trkpt>
      <trkpt lat="46.52738" lon="3.28613">
        <ele>312.8</ele>
        <time>2014-05-19T18:17:33Z</time>
      </trkpt>
      <trkpt lat="46.52722" lon="3.28597">
        <ele>312.5</ele>
        <time>2014-05-19T18:17:34Z</time>
      </trkpt>
      <trkpt lat="46.52705" lon="3.28582">
        <ele>312.4</ele>
        <time>2014-05-19T18:17:35Z</time>
      </trkpt>
      <trkpt lat="46.52689" lon="3.28567">
        <ele>312.3</ele>
        <time>2014-05-19T18:17:36Z</time>
      </trkpt>
      <trkpt lat="46.52672" lon="3.28555">
        <ele>312.4</ele>
        <time>2014-05-19T18:17:37Z</time>
      </trkpt>
      <trkpt lat="46.52654" lon="3.28543">
        <ele>312.5</ele>
        <time>2014-05-19T18:17:38Z</time>
      </trkpt>
      <trkpt lat="46.52636" lon="3.28532">
        <ele>312.7</ele>
        <time>2014-05-19T18:17:39Z</time>
      </trkpt>
      <trkpt lat="46.52617" lon="3.28524">
        <ele>313</ele>
        <time>2014-05-19T18:17:40Z</time>
      </trkpt>
      <trkpt lat="46.52599" lon="3.28516">
        <ele>313.3</ele>
        <time>2014-05-19T18:17:41Z</time>
      </trkpt>
      <trkpt lat="46.5258" lon="3.2851">
        <ele>313.4</ele>
        <time>2014-05-19T18:17:42Z</time>
      </trkpt>
      <trkpt lat="46.52561" lon="3.28505">
        <ele>313.7</ele>
        <time>2014-05-19T18:17:43Z</time>
      </trkpt>
      <trkpt lat="46.52541" lon="3.28498">
        <ele>314</ele>
        <time>2014-05-19T18:17:44Z</time>
      </trkpt>
      <trkpt lat="46.52521" lon="3.28497">
        <ele>314.3</ele>
        <time>2014-05-19T18:17:45Z</time>
      </trkpt>
      <trkpt lat="46.52501" lon="3.28495">
        <ele>314.5</ele>
        <time>2014-05-19T18:17:46Z</time>
      </trkpt>
      <trkpt lat="46.52482" lon="3.28492">
        <ele>314.8</ele>
        <time>2014-05-19T18:17:47Z</time>
      </trkpt>
      <trkpt lat="46.52463" lon="3.28488">
        <ele>315</ele>
        <time>2014-05-19T18:17:48Z</time>
      </trkpt>
      <trkpt lat="46.52448" lon="3.28481">
        <ele>315.2</ele>
        <time>2014-05-19T18:17:49Z</time>
      </trkpt>
      <trkpt lat="46.52431" lon="3.28474">
        <ele>315.3</ele>
        <time>2014-05-19T18:17:50Z</time>
      </trkpt>
      <trkpt lat="46.52415" lon="3.28464">
        <ele>315.5</ele>
        <time>2014-05-19T18:17:51Z</time>
      </trkpt>
      <trkpt lat="46.52398" lon="3.28453">
        <ele>315.7</ele>
        <time>2014-05-19T18:17:52Z</time>
      </trkpt>
      <trkpt lat="46.52381" lon="3.28441">
        <ele>315.9</ele>
        <time>2014-05-19T18:17:53Z</time>
      </trkpt>
      <trkpt lat="46.52364" lon="3.2843">
        <ele>316</ele>
        <time>2014-05-19T18:17:54Z</time>
      </trkpt>
      <trkpt lat="46.52346" lon="3.28418">
        <ele>316.1</ele>
        <time>2014-05-19T18:17:55Z</time>
      </trkpt>
      <trkpt lat="46.5233" lon="3.28405">
        <ele>316.2</ele>
        <time>2014-05-19T18:17:56Z</time>
      </trkpt>
      <trkpt lat="46.52314" lon="3.28392">
        <ele>316.3</ele>
        <time>2014-05-19T18:17:57Z</time>
      </trkpt>
      <trkpt lat="46.52298" lon="3.28378">
        <ele>316.4</ele>
        <time>2014-05-19T18:17:58Z</time>
      </trkpt>
      <trkpt lat="46.52282" lon="3.28362">
        <ele>316.4</ele>
        <time>2014-05-19T18:17:59Z</time>
      </trkpt>
      <trkpt lat="46.52267" lon="3.28346">
        <ele>316.6</ele>
        <time>2014-05-19T18:18:00Z</time>
      </trkpt>
      <trkpt lat="46.52253" lon="3.28329">
        <ele>316.8</ele>
        <time>2014-05-19T18:18:01Z</time>
      </trkpt>
      <trkpt lat="46.52239" lon="3.28311">
        <ele>317.1</ele>
        <time>2014-05-19T18:18:02Z</time>
      </trkpt>
      <trkpt lat="46.52226" lon="3.28293">
        <ele>317.2</ele>
        <time>2014-05-19T18:18:03Z</time>
      </trkpt>
      <trkpt lat="46.52212" lon="3.28276">
        <ele>317.4</ele>
        <time>2014-05-19T18:18:04Z</time>
      </trkpt>
      <trkpt lat="46.52198" lon="3.28259">
        <ele>317.6</ele>
        <time>2014-05-19T18:18:05Z</time>
      </trkpt>
      <trkpt lat="46.52184" lon="3.28241">
        <ele>317.8</ele>
        <time>2014-05-19T18:18:06Z</time>
      </trkpt>
      <trkpt lat="46.5217" lon="3.28223">
        <ele>317.9</ele>
        <time>2014-05-19T18:18:07Z</time>
      </trkpt>
      <trkpt lat="46.52156" lon="3.28205">
        <ele>318</ele>
        <time>2014-05-19T18:18:08Z</time>
      </trkpt>
      <trkpt lat="46.52142" lon="3.28187">
        <ele>318.2</ele>
        <time>2014-05-19T18:18:09Z</time>
      </trkpt>
      <trkpt lat="46.52127" lon="3.28169">
        <ele>318.3</ele>
        <time>2014-05-19T18:18:10Z</time>
      </trkpt>
      <trkpt lat="46.52113" lon="3.28151">
        <ele>318.4</ele>
        <time>2014-05-19T18:18:11Z</time>
      </trkpt>
      <trkpt lat="46.52098" lon="3.28132">
        <ele>318.6</ele>
        <time>2014-05-19T18:18:12Z</time>
      </trkpt>
      <trkpt lat="46.52083" lon="3.28114">
        <ele>318.8</ele>
        <time>2014-05-19T18:18:13Z</time>
      </trkpt>
      <trkpt lat="46.52068" lon="3.28094">
        <ele>318.9</ele>
        <time>2014-05-19T18:18:14Z</time>
      </trkpt>
      <trkpt lat="46.52053" lon="3.28076">
        <ele>319.1</ele>
        <time>2014-05-19T18:18:15Z</time>
      </trkpt>
      <trkpt lat="46.52038" lon="3.28057">
        <ele>319.3</ele>
        <time>2014-05-19T18:18:16Z</time>
      </trkpt>
      <trkpt lat="46.52023" lon="3.28038">
        <ele>319.5</ele>
        <time>2014-05-19T18:18:17Z</time>
      </trkpt>
      <trkpt lat="46.52008" lon="3.28019">
        <ele>319.7</ele>
        <time>2014-05-19T18:18:18Z</time>
      </trkpt>
      <trkpt lat="46.51994" lon="3.28001">
        <ele>320</ele>
        <time>2014-05-19T18:18:19Z</time>
      </trkpt>
      <trkpt lat="46.51979" lon="3.27983">
        <ele>320.3</ele>
        <time>2014-05-19T18:18:20Z</time>
      </trkpt>
      <trkpt lat="46.51964" lon="3.27965">
        <ele>320.5</ele>
        <time>2014-05-19T18:18:21Z</time>
      </trkpt>
      <trkpt lat="46.5195" lon="3.27947">
        <ele>320.7</ele>
        <time>2014-05-19T18:18:22Z</time>
      </trkpt>
      <trkpt lat="46.51935" lon="3.27929">
        <ele>320.8</ele>
        <time>2014-05-19T18:18:23Z</time>
      </trkpt>
      <trkpt lat="46.51921" lon="3.27911">
        <ele>320.9</ele>
        <time>2014-05-19T18:18:24Z</time>
      </trkpt>
      <trkpt lat="46.51906" lon="3.27893">
        <ele>321</ele>
        <time>2014-05-19T18:18:25Z</time>
      </trkpt>
      <trkpt lat="46.51892" lon="3.27875">
        <ele>321.1</ele>
        <time>2014-05-19T18:18:26Z</time>
      </trkpt>
      <trkpt lat="46.51877" lon="3.27857">
        <ele>321.2</ele>
        <time>2014-05-19T18:18:27Z</time>
      </trkpt>
      <trkpt lat="46.51863" lon="3.27839">
        <ele>321.2</ele>
        <time>2014-05-19T18:18:28Z</time>
      </trkpt>
      <trkpt lat="46.51848" lon="3.2782">
        <ele>321.3</ele>
        <time>2014-05-19T18:18:29Z</time>
      </trkpt>
      <trkpt lat="46.51834" lon="3.27803">
        <ele>321.3</ele>
        <time>2014-05-19T18:18:30Z</time>
      </trkpt>
      <trkpt lat="46.51819" lon="3.27784">
        <ele>321.3</ele>
        <time>2014-05-19T18:18:31Z</time>
      </trkpt>
      <trkpt lat="46.51804" lon="3.27766">
        <ele>321.3</ele>
        <time>2014-05-19T18:18:32Z</time>
      </trkpt>
      <trkpt lat="46.51788" lon="3.27747">
        <ele>321.3</ele>
        <time>2014-05-19T18:18:33Z</time>
      </trkpt>
      <trkpt lat="46.51773" lon="3.27726">
        <ele>321.3</ele>
        <time>2014-05-19T18:18:34Z</time>
      </trkpt>
      <trkpt lat="46.51757" lon="3.27706">
        <ele>321.3</ele>
        <time>2014-05-19T18:18:35Z</time>
      </trkpt>
      <trkpt lat="46.5174" lon="3.27685">
        <ele>321.3</ele>
        <time>2014-05-19T18:18:36Z</time>
      </trkpt>
      <trkpt lat="46.51723" lon="3.27664">
        <ele>321.3</ele>
        <time>2014-05-19T18:18:37Z</time>
      </trkpt>
      <trkpt lat="46.51706" lon="3.27643">
        <ele>321.2</ele>
        <time>2014-05-19T18:18:38Z</time>
      </trkpt>
      <trkpt lat="46.51689" lon="3.27622">
        <ele>321.1</ele>
        <time>2014-05-19T18:18:39Z</time>
      </trkpt>
      <trkpt lat="46.51671" lon="3.27598">
        <ele>321.1</ele>
        <time>2014-05-19T18:18:40Z</time>
      </trkpt>
      <trkpt lat="46.51653" lon="3.27575">
        <ele>320.9</ele>
        <time>2014-05-19T18:18:41Z</time>
      </trkpt>
      <trkpt lat="46.51635" lon="3.27552">
        <ele>320.8</ele>
        <time>2014-05-19T18:18:42Z</time>
      </trkpt>
      <trkpt lat="46.51617" lon="3.27529">
        <ele>320.7</ele>
        <time>2014-05-19T18:18:43Z</time>
      </trkpt>
      <trkpt lat="46.51598" lon="3.27506">
        <ele>320.6</ele>
        <time>2014-05-19T18:18:44Z</time>
      </trkpt>
      <trkpt lat="46.5158" lon="3.27483">
        <ele>320.6</ele>
        <time>2014-05-19T18:18:45Z</time>
      </trkpt>
      <trkpt lat="46.51561" lon="3.2746">
        <ele>320.5</ele>
        <time>2014-05-19T18:18:46Z</time>
      </trkpt>
      <trkpt lat="46.51542" lon="3.27437">
        <ele>320.4</ele>
        <time>2014-05-19T18:18:47Z</time>
      </trkpt>
      <trkpt lat="46.51524" lon="3.27414">
        <ele>320.2</ele>
        <time>2014-05-19T18:18:48Z</time>
      </trkpt>
      <trkpt lat="46.51505" lon="3.27391">
        <ele>320</ele>
        <time>2014-05-19T18:18:49Z</time>
      </trkpt>
      <trkpt lat="46.51486" lon="3.27369">
        <ele>319.8</ele>
        <time>2014-05-19T18:18:50Z</time>
      </trkpt>
      <trkpt lat="46.51469" lon="3.27345">
        <ele>319.6</ele>
        <time>2014-05-19T18:18:51Z</time>
      </trkpt>
      <trkpt lat="46.5145" lon="3.27323">
        <ele>319.4</ele>
        <time>2014-05-19T18:18:52Z</time>
      </trkpt>
      <trkpt lat="46.51432" lon="3.27301">
        <ele>319.2</ele>
        <time>2014-05-19T18:18:53Z</time>
      </trkpt>
      <trkpt lat="46.51414" lon="3.27279">
        <ele>319</ele>
        <time>2014-05-19T18:18:54Z</time>
      </trkpt>
      <trkpt lat="46.51396" lon="3.27256">
        <ele>318.8</ele>
        <time>2014-05-19T18:18:55Z</time>
      </trkpt>
      <trkpt lat="46.51377" lon="3.27234">
        <ele>318.5</ele>
        <time>2014-05-19T18:18:56Z</time>
      </trkpt>
      <trkpt lat="46.5136" lon="3.27211">
        <ele>318.3</ele>
        <time>2014-05-19T18:18:57Z</time>
      </trkpt>
      <trkpt lat="46.51342" lon="3.27188">
        <ele>318.2</ele>
        <time>2014-05-19T18:18:58Z</time>
      </trkpt>
      <trkpt lat="46.51323" lon="3.27166">
        <ele>318.2</ele>
        <time>2014-05-19T18:18:59Z</time>
      </trkpt>
      <trkpt lat="46.51304" lon="3.27144">
        <ele>318.2</ele>
        <time>2014-05-19T18:19:00Z</time>
      </trkpt>
      <trkpt lat="46.51286" lon="3.27122">
        <ele>318.3</ele>
        <time>2014-05-19T18:19:00Z</time>
      </trkpt>
      <trkpt lat="46.51268" lon="3.271">
        <ele>318.4</ele>
        <time>2014-05-19T18:19:01Z</time>
      </trkpt>
      <trkpt lat="46.5125" lon="3.27078">
        <ele>318.6</ele>
        <time>2014-05-19T18:19:02Z</time>
      </trkpt>
      <trkpt lat="46.51232" lon="3.27056">
        <ele>318.9</ele>
        <time>2014-05-19T18:19:03Z</time>
      </trkpt>
      <trkpt lat="46.51215" lon="3.27034">
        <ele>319.3</ele>
        <time>2014-05-19T18:19:05Z</time>
      </trkpt>
      <trkpt lat="46.51197" lon="3.27012">
        <ele>319.7</ele>
        <time>2014-05-19T18:19:06Z</time>
      </trkpt>
      <trkpt lat="46.51179" lon="3.26991">
        <ele>320.2</ele>
        <time>2014-05-19T18:19:07Z</time>
      </trkpt>
      <trkpt lat="46.51161" lon="3.2697">
        <ele>320.7</ele>
        <time>2014-05-19T18:19:08Z</time>
      </trkpt>
      <trkpt lat="46.51144" lon="3.26952">
        <ele>321.2</ele>
        <time>2014-05-19T18:19:09Z</time>
      </trkpt>
      <trkpt lat="46.51128" lon="3.2693">
        <ele>321.8</ele>
        <time>2014-05-19T18:19:09Z</time>
      </trkpt>
      <trkpt lat="46.51111" lon="3.26909">
        <ele>322.3</ele>
        <time>2014-05-19T18:19:11Z</time>
      </trkpt>
      <trkpt lat="46.51093" lon="3.26888">
        <ele>322.7</ele>
        <time>2014-05-19T18:19:12Z</time>
      </trkpt>
      <trkpt lat="46.51077" lon="3.26866">
        <ele>323</ele>
        <time>2014-05-19T18:19:13Z</time>
      </trkpt>
      <trkpt lat="46.5106" lon="3.26844">
        <ele>323</ele>
        <time>2014-05-19T18:19:14Z</time>
      </trkpt>
      <trkpt lat="46.51042" lon="3.26819">
        <ele>323</ele>
        <time>2014-05-19T18:19:15Z</time>
      </trkpt>
      <trkpt lat="46.51024" lon="3.26798">
        <ele>322.9</ele>
        <time>2014-05-19T18:19:16Z</time>
      </trkpt>
      <trkpt lat="46.51007" lon="3.26776">
        <ele>322.7</ele>
        <time>2014-05-19T18:19:17Z</time>
      </trkpt>
      <trkpt lat="46.50989" lon="3.26756">
        <ele>322.4</ele>
        <time>2014-05-19T18:19:17Z</time>
      </trkpt>
      <trkpt lat="46.50971" lon="3.26733">
        <ele>322.1</ele>
        <time>2014-05-19T18:19:19Z</time>
      </trkpt>
      <trkpt lat="46.50954" lon="3.26712">
        <ele>321.7</ele>
        <time>2014-05-19T18:19:19Z</time>
      </trkpt>
      <trkpt lat="46.50936" lon="3.2669">
        <ele>321.3</ele>
        <time>2014-05-19T18:19:21Z</time>
      </trkpt>
      <trkpt lat="46.50919" lon="3.26671">
        <ele>320.9</ele>
        <time>2014-05-19T18:19:21Z</time>
      </trkpt>
      <trkpt lat="46.50903" lon="3.2665">
        <ele>320.5</ele>
        <time>2014-05-19T18:19:22Z</time>
      </trkpt>
      <trkpt lat="46.50887" lon="3.2663">
        <ele>320.3</ele>
        <time>2014-05-19T18:19:23Z</time>
      </trkpt>
      <trkpt lat="46.50872" lon="3.2661">
        <ele>320.3</ele>
        <time>2014-05-19T18:19:24Z</time>
      </trkpt>
      <trkpt lat="46.50858" lon="3.26592">
        <ele>320.3</ele>
        <time>2014-05-19T18:19:25Z</time>
      </trkpt>
      <trkpt lat="46.50843" lon="3.26573">
        <ele>320.3</ele>
        <time>2014-05-19T18:19:26Z</time>
      </trkpt>
      <trkpt lat="46.50831" lon="3.26562">
        <ele>320.2</ele>
        <time>2014-05-19T18:19:27Z</time>
      </trkpt>
      <trkpt lat="46.5082" lon="3.26548">
        <ele>320.2</ele>
        <time>2014-05-19T18:19:28Z</time>
      </trkpt>
      <trkpt lat="46.50809" lon="3.26534">
        <ele>320.1</ele>
        <time>2014-05-19T18:19:29Z</time>
      </trkpt>
      <trkpt lat="46.508" lon="3.26519">
        <ele>320.1</ele>
        <time>2014-05-19T18:19:30Z</time>
      </trkpt>
      <trkpt lat="46.50794" lon="3.26502">
        <ele>320</ele>
        <time>2014-05-19T18:19:32Z</time>
      </trkpt>
      <trkpt lat="46.50788" lon="3.26488">
        <ele>319.9</ele>
        <time>2014-05-19T18:19:33Z</time>
      </trkpt>
      <trkpt lat="46.50783" lon="3.26473">
        <ele>319.9</ele>
        <time>2014-05-19T18:19:34Z</time>
      </trkpt>
      <trkpt lat="46.50785" lon="3.26452">
        <ele>319.8</ele>
        <time>2014-05-19T18:19:35Z</time>
      </trkpt>
      <trkpt lat="46.50789" lon="3.26434">
        <ele>319.7</ele>
        <time>2014-05-19T18:19:35Z</time>
      </trkpt>
      <trkpt lat="46.50791" lon="3.26417">
        <ele>319.6</ele>
        <time>2014-05-19T18:19:36Z</time>
      </trkpt>
      <trkpt lat="46.50793" lon="3.264">
        <ele>319.5</ele>
        <time>2014-05-19T18:19:38Z</time>
      </trkpt>
      <trkpt lat="46.50796" lon="3.26381">
        <ele>319.6</ele>
        <time>2014-05-19T18:19:38Z</time>
      </trkpt>
      <trkpt lat="46.50798" lon="3.26364">
        <ele>319.6</ele>
        <time>2014-05-19T18:19:39Z</time>
      </trkpt>
      <trkpt lat="46.50802" lon="3.26346">
        <ele>319.7</ele>
        <time>2014-05-19T18:19:40Z</time>
      </trkpt>
      <trkpt lat="46.50806" lon="3.26328">
        <ele>319.8</ele>
        <time>2014-05-19T18:19:41Z</time>
      </trkpt>
      <trkpt lat="46.50808" lon="3.26311">
        <ele>320.1</ele>
        <time>2014-05-19T18:19:42Z</time>
      </trkpt>
      <trkpt lat="46.5081" lon="3.26293">
        <ele>320.3</ele>
        <time>2014-05-19T18:19:43Z</time>
      </trkpt>
      <trkpt lat="46.50813" lon="3.26276">
        <ele>320.4</ele>
        <time>2014-05-19T18:19:45Z</time>
      </trkpt>
      <trkpt lat="46.50817" lon="3.26253">
        <ele>320.5</ele>
        <time>2014-05-19T18:19:45Z</time>
      </trkpt>
      <trkpt lat="46.50821" lon="3.2623">
        <ele>320.5</ele>
        <time>2014-05-19T18:19:46Z</time>
      </trkpt>
      <trkpt lat="46.50824" lon="3.26207">
        <ele>320.5</ele>
        <time>2014-05-19T18:19:48Z</time>
      </trkpt>
      <trkpt lat="46.50828" lon="3.26184">
        <ele>320.5</ele>
        <time>2014-05-19T18:19:49Z</time>
      </trkpt>
      <trkpt lat="46.50833" lon="3.26159">
        <ele>320.5</ele>
        <time>2014-05-19T18:19:49Z</time>
      </trkpt>
      <trkpt lat="46.50838" lon="3.26134">
        <ele>320.5</ele>
        <time>2014-05-19T18:19:51Z</time>
      </trkpt>
      <trkpt lat="46.50842" lon="3.261">
        <ele>320.4</ele>
        <time>2014-05-19T18:19:52Z</time>
      </trkpt>
      <trkpt lat="46.50847" lon="3.2607">
        <ele>320.3</ele>
        <time>2014-05-19T18:19:53Z</time>
      </trkpt>
      <trkpt lat="46.50851" lon="3.2604">
        <ele>320.2</ele>
        <time>2014-05-19T18:19:54Z</time>
      </trkpt>
      <trkpt lat="46.50857" lon="3.26009">
        <ele>320.2</ele>
        <time>2014-05-19T18:19:55Z</time>
      </trkpt>
      <trkpt lat="46.50861" lon="3.25976">
        <ele>320.2</ele>
        <time>2014-05-19T18:19:56Z</time>
      </trkpt>
      <trkpt lat="46.50867" lon="3.25945">
        <ele>320.2</ele>
        <time>2014-05-19T18:19:57Z</time>
      </trkpt>
      <trkpt lat="46.50873" lon="3.2591">
        <ele>320.2</ele>
        <time>2014-05-19T18:19:58Z</time>
      </trkpt>
      <trkpt lat="46.50878" lon="3.25876">
        <ele>320.3</ele>
        <time>2014-05-19T18:19:58Z</time>
      </trkpt>
      <trkpt lat="46.50883" lon="3.25844">
        <ele>320.5</ele>
        <time>2014-05-19T18:19:59Z</time>
      </trkpt>
      <trkpt lat="46.50888" lon="3.25809">
        <ele>320.7</ele>
        <time>2014-05-19T18:20:01Z</time>
      </trkpt>
      <trkpt lat="46.50894" lon="3.25777">
        <ele>320.9</ele>
        <time>2014-05-19T18:20:01Z</time>
      </trkpt>
      <trkpt lat="46.50899" lon="3.25744">
        <ele>321</ele>
        <time>2014-05-19T18:20:03Z</time>
      </trkpt>
      <trkpt lat="46.50903" lon="3.25711">
        <ele>321</ele>
        <time>2014-05-19T18:20:04Z</time>
      </trkpt>
      <trkpt lat="46.50908" lon="3.25678">
        <ele>321.2</ele>
        <time>2014-05-19T18:20:05Z</time>
      </trkpt>
      <trkpt lat="46.50913" lon="3.25644">
        <ele>321.2</ele>
        <time>2014-05-19T18:20:06Z</time>
      </trkpt>
      <trkpt lat="46.50919" lon="3.25612">
        <ele>321.4</ele>
        <time>2014-05-19T18:20:07Z</time>
      </trkpt>
      <trkpt lat="46.50923" lon="3.2558">
        <ele>321.5</ele>
        <time>2014-05-19T18:20:08Z</time>
      </trkpt>
      <trkpt lat="46.50928" lon="3.25547">
        <ele>321.6</ele>
        <time>2014-05-19T18:20:09Z</time>
      </trkpt>
      <trkpt lat="46.50933" lon="3.25514">
        <ele>321.8</ele>
        <time>2014-05-19T18:20:10Z</time>
      </trkpt>
      <trkpt lat="46.50939" lon="3.25481">
        <ele>321.9</ele>
        <time>2014-05-19T18:20:11Z</time>
      </trkpt>
      <trkpt lat="46.50943" lon="3.25449">
        <ele>321.9</ele>
        <time>2014-05-19T18:20:12Z</time>
      </trkpt>
      <trkpt lat="46.50947" lon="3.25415">
        <ele>322</ele>
        <time>2014-05-19T18:20:13Z</time>
      </trkpt>
      <trkpt lat="46.50951" lon="3.25383">
        <ele>322.1</ele>
        <time>2014-05-19T18:20:14Z</time>
      </trkpt>
      <trkpt lat="46.50956" lon="3.25351">
        <ele>322.3</ele>
        <time>2014-05-19T18:20:15Z</time>
      </trkpt>
      <trkpt lat="46.50962" lon="3.25319">
        <ele>322.4</ele>
        <time>2014-05-19T18:20:16Z</time>
      </trkpt>
      <trkpt lat="46.50967" lon="3.25286">
        <ele>322.5</ele>
        <time>2014-05-19T18:20:17Z</time>
      </trkpt>
      <trkpt lat="46.50973" lon="3.25254">
        <ele>322.5</ele>
        <time>2014-05-19T18:20:18Z</time>
      </trkpt>
      <trkpt lat="46.50978" lon="3.25222">
        <ele>322.6</ele>
        <time>2014-05-19T18:20:19Z</time>
      </trkpt>
      <trkpt lat="46.50983" lon="3.25189">
        <ele>322.5</ele>
        <time>2014-05-19T18:20:20Z</time>
      </trkpt>
      <trkpt lat="46.50986" lon="3.25158">
        <ele>322.5</ele>
        <time>2014-05-19T18:20:21Z</time>
      </trkpt>
      <trkpt lat="46.50992" lon="3.25126">
        <ele>322.5</ele>
        <time>2014-05-19T18:20:22Z</time>
      </trkpt>
      <trkpt lat="46.50996" lon="3.25094">
        <ele>322.3</ele>
        <time>2014-05-19T18:20:23Z</time>
      </trkpt>
      <trkpt lat="46.51001" lon="3.25062">
        <ele>322.2</ele>
        <time>2014-05-19T18:20:24Z</time>
      </trkpt>
      <trkpt lat="46.51006" lon="3.25031">
        <ele>322.1</ele>
        <time>2014-05-19T18:20:24Z</time>
      </trkpt>
      <trkpt lat="46.5101" lon="3.24998">
        <ele>322</ele>
        <time>2014-05-19T18:20:26Z</time>
      </trkpt>
      <trkpt lat="46.51016" lon="3.24965">
        <ele>322</ele>
        <time>2014-05-19T18:20:26Z</time>
      </trkpt>
      <trkpt lat="46.51022" lon="3.24933">
        <ele>322</ele>
        <time>2014-05-19T18:20:27Z</time>
      </trkpt>
      <trkpt lat="46.51026" lon="3.24901">
        <ele>322.2</ele>
        <time>2014-05-19T18:20:28Z</time>
      </trkpt>
      <trkpt lat="46.51031" lon="3.24869">
        <ele>322.2</ele>
        <time>2014-05-19T18:20:30Z</time>
      </trkpt>
      <trkpt lat="46.51036" lon="3.24837">
        <ele>322.3</ele>
        <time>2014-05-19T18:20:30Z</time>
      </trkpt>
      <trkpt lat="46.51041" lon="3.24803">
        <ele>322.4</ele>
        <time>2014-05-19T18:20:31Z</time>
      </trkpt>
      <trkpt lat="46.51046" lon="3.2477">
        <ele>322.6</ele>
        <time>2014-05-19T18:20:32Z</time>
      </trkpt>
      <trkpt lat="46.51051" lon="3.24738">
        <ele>322.8</ele>
        <time>2014-05-19T18:20:33Z</time>
      </trkpt>
      <trkpt lat="46.51057" lon="3.24706">
        <ele>323</ele>
        <time>2014-05-19T18:20:34Z</time>
      </trkpt>
      <trkpt lat="46.51062" lon="3.24675">
        <ele>323</ele>
        <time>2014-05-19T18:20:35Z</time>
      </trkpt>
      <trkpt lat="46.51068" lon="3.24644">
        <ele>323.1</ele>
        <time>2014-05-19T18:20:36Z</time>
      </trkpt>
      <trkpt lat="46.51073" lon="3.24613">
        <ele>323.1</ele>
        <time>2014-05-19T18:20:37Z</time>
      </trkpt>
      <trkpt lat="46.51076" lon="3.24583">
        <ele>323.1</ele>
        <time>2014-05-19T18:20:38Z</time>
      </trkpt>
      <trkpt lat="46.51081" lon="3.2455">
        <ele>323.1</ele>
        <time>2014-05-19T18:20:39Z</time>
      </trkpt>
      <trkpt lat="46.51086" lon="3.24517">
        <ele>323.1</ele>
        <time>2014-05-19T18:20:40Z</time>
      </trkpt>
      <trkpt lat="46.51091" lon="3.24484">
        <ele>323.1</ele>
        <time>2014-05-19T18:20:41Z</time>
      </trkpt>
      <trkpt lat="46.51096" lon="3.24452">
        <ele>323.2</ele>
        <time>2014-05-19T18:20:42Z</time>
      </trkpt>
      <trkpt lat="46.51102" lon="3.24418">
        <ele>323.4</ele>
        <time>2014-05-19T18:20:43Z</time>
      </trkpt>
      <trkpt lat="46.51107" lon="3.24386">
        <ele>323.7</ele>
        <time>2014-05-19T18:20:44Z</time>
      </trkpt>
      <trkpt lat="46.51111" lon="3.24352">
        <ele>324</ele>
        <time>2014-05-19T18:20:46Z</time>
      </trkpt>
      <trkpt lat="46.51116" lon="3.24318">
        <ele>324.3</ele>
        <time>2014-05-19T18:20:47Z</time>
      </trkpt>
      <trkpt lat="46.51122" lon="3.24286">
        <ele>324.7</ele>
        <time>2014-05-19T18:20:48Z</time>
      </trkpt>
      <trkpt lat="46.51126" lon="3.24251">
        <ele>325</ele>
        <time>2014-05-19T18:20:49Z</time>
      </trkpt>
      <trkpt lat="46.51131" lon="3.24216">
        <ele>325.3</ele>
        <time>2014-05-19T18:20:50Z</time>
      </trkpt>
      <trkpt lat="46.51137" lon="3.24183">
        <ele>325.6</ele>
        <time>2014-05-19T18:20:51Z</time>
      </trkpt>
      <trkpt lat="46.51141" lon="3.24148">
        <ele>326</ele>
        <time>2014-05-19T18:20:52Z</time>
      </trkpt>
      <trkpt lat="46.51146" lon="3.24113">
        <ele>326.3</ele>
        <time>2014-05-19T18:20:53Z</time>
      </trkpt>
      <trkpt lat="46.51151" lon="3.24079">
        <ele>326.6</ele>
        <time>2014-05-19T18:20:54Z</time>
      </trkpt>
      <trkpt lat="46.51153" lon="3.24044">
        <ele>326.8</ele>
        <time>2014-05-19T18:20:55Z</time>
      </trkpt>
      <trkpt lat="46.5116" lon="3.24009">
        <ele>327.1</ele>
        <time>2014-05-19T18:20:56Z</time>
      </trkpt>
      <trkpt lat="46.51165" lon="3.23974">
        <ele>327.5</ele>
        <time>2014-05-19T18:20:57Z</time>
      </trkpt>
      <trkpt lat="46.51171" lon="3.23939">
        <ele>328</ele>
        <time>2014-05-19T18:20:58Z</time>
      </trkpt>
      <trkpt lat="46.51177" lon="3.23904">
        <ele>328.5</ele>
        <time>2014-05-19T18:20:59Z</time>
      </trkpt>
      <trkpt lat="46.51182" lon="3.23868">
        <ele>329</ele>
        <time>2014-05-19T18:21:00Z</time>
      </trkpt>
      <trkpt lat="46.51186" lon="3.23834">
        <ele>329.8</ele>
        <time>2014-05-19T18:21:01Z</time>
      </trkpt>
      <trkpt lat="46.51192" lon="3.238">
        <ele>330.6</ele>
        <time>2014-05-19T18:21:02Z</time>
      </trkpt>
      <trkpt lat="46.51198" lon="3.23765">
        <ele>331.6</ele>
        <time>2014-05-19T18:21:03Z</time>
      </trkpt>
      <trkpt lat="46.51204" lon="3.23731">
        <ele>332.8</ele>
        <time>2014-05-19T18:21:04Z</time>
      </trkpt>
      <trkpt lat="46.5121" lon="3.23696">
        <ele>334.1</ele>
        <time>2014-05-19T18:21:05Z</time>
      </trkpt>
      <trkpt lat="46.51215" lon="3.23663">
        <ele>335.3</ele>
        <time>2014-05-19T18:21:06Z</time>
      </trkpt>
      <trkpt lat="46.51221" lon="3.23629">
        <ele>336.6</ele>
        <time>2014-05-19T18:21:07Z</time>
      </trkpt>
      <trkpt lat="46.51227" lon="3.23596">
        <ele>337.9</ele>
        <time>2014-05-19T18:21:08Z</time>
      </trkpt>
      <trkpt lat="46.51233" lon="3.23562">
        <ele>339.2</ele>
        <time>2014-05-19T18:21:08Z</time>
      </trkpt>
      <trkpt lat="46.51237" lon="3.2353">
        <ele>340.3</ele>
        <time>2014-05-19T18:21:09Z</time>
      </trkpt>
      <trkpt lat="46.51243" lon="3.23498">
        <ele>341.6</ele>
        <time>2014-05-19T18:21:11Z</time>
      </trkpt>
      <trkpt lat="46.51248" lon="3.23468">
        <ele>342.7</ele>
        <time>2014-05-19T18:21:12Z</time>
      </trkpt>
      <trkpt lat="46.51251" lon="3.23439">
        <ele>343.8</ele>
        <time>2014-05-19T18:21:13Z</time>
      </trkpt>
      <trkpt lat="46.51256" lon="3.2341">
        <ele>344.8</ele>
        <time>2014-05-19T18:21:14Z</time>
      </trkpt>
      <trkpt lat="46.5126" lon="3.23382">
        <ele>345.5</ele>
        <time>2014-05-19T18:21:15Z</time>
      </trkpt>
      <trkpt lat="46.51265" lon="3.23355">
        <ele>346.2</ele>
        <time>2014-05-19T18:21:16Z</time>
      </trkpt>
      <trkpt lat="46.51269" lon="3.23331">
        <ele>346.8</ele>
        <time>2014-05-19T18:21:17Z</time>
      </trkpt>
      <trkpt lat="46.51273" lon="3.23306">
        <ele>347.3</ele>
        <time>2014-05-19T18:21:18Z</time>
      </trkpt>
      <trkpt lat="46.51277" lon="3.23282">
        <ele>348.1</ele>
        <time>2014-05-19T18:21:18Z</time>
      </trkpt>
      <trkpt lat="46.51281" lon="3.23262">
        <ele>349.7</ele>
        <time>2014-05-19T18:21:20Z</time>
      </trkpt>
      <trkpt lat="46.51283" lon="3.23244">
        <ele>351.5</ele>
        <time>2014-05-19T18:21:21Z</time>
      </trkpt>
      <trkpt lat="46.51286" lon="3.23229">
        <ele>353.2</ele>
        <time>2014-05-19T18:21:22Z</time>
      </trkpt>
      <trkpt lat="46.51287" lon="3.23216">
        <ele>354.7</ele>
        <time>2014-05-19T18:21:23Z</time>
      </trkpt>
      <trkpt lat="46.51289" lon="3.23201">
        <ele>356.2</ele>
        <time>2014-05-19T18:21:25Z</time>
      </trkpt>
      <trkpt lat="46.51291" lon="3.23189">
        <ele>357.7</ele>
        <time>2014-05-19T18:21:37Z</time>
      </trkpt>
      <trkpt lat="46.51298" lon="3.23172">
        <ele>359.2</ele>
        <time>2014-05-19T18:21:39Z</time>
      </trkpt>
      <trkpt lat="46.51305" lon="3.23151">
        <ele>360.7</ele>
        <time>2014-05-19T18:21:41Z</time>
      </trkpt>
      <trkpt lat="46.51309" lon="3.23138">
        <ele>362.2</ele>
        <time>2014-05-19T18:21:42Z</time>
      </trkpt>
      <trkpt lat="46.51314" lon="3.23124">
        <ele>363.8</ele>
        <time>2014-05-19T18:21:43Z</time>
      </trkpt>
      <trkpt lat="46.51319" lon="3.23108">
        <ele>364.9</ele>
        <time>2014-05-19T18:21:44Z</time>
      </trkpt>
      <trkpt lat="46.51325" lon="3.23091">
        <ele>365.2</ele>
        <time>2014-05-19T18:21:45Z</time>
      </trkpt>
      <trkpt lat="46.5133" lon="3.23074">
        <ele>365.5</ele>
        <time>2014-05-19T18:21:46Z</time>
      </trkpt>
      <trkpt lat="46.51336" lon="3.23058">
        <ele>365.7</ele>
        <time>2014-05-19T18:21:47Z</time>
      </trkpt>
      <trkpt lat="46.51342" lon="3.23041">
        <ele>365.9</ele>
        <time>2014-05-19T18:21:48Z</time>
      </trkpt>
      <trkpt lat="46.51346" lon="3.2303">
        <ele>366</ele>
        <time>2014-05-19T18:21:49Z</time>
      </trkpt>
      <trkpt lat="46.5135" lon="3.23019">
        <ele>366.2</ele>
        <time>2014-05-19T18:21:50Z</time>
      </trkpt>
      <trkpt lat="46.51356" lon="3.22998">
        <ele>366.4</ele>
        <time>2014-05-19T18:21:52Z</time>
      </trkpt>
      <trkpt lat="46.51357" lon="3.23004">
        <ele>366.5</ele>
        <time>2014-05-19T18:22:03Z</time>
      </trkpt>
      <trkpt lat="46.51364" lon="3.22984">
        <ele>368.6</ele>
        <time>2014-05-19T18:22:07Z</time>
      </trkpt>
      <trkpt lat="46.51364" lon="3.22984">
        <ele>368.6</ele>
        <time>2014-05-19T18:22:07Z</time>
      </trkpt>
      <trkpt lat="46.5137" lon="3.22965">
        <ele>368.6</ele>
        <time>2014-05-19T18:22:09Z</time>
      </trkpt>
      <trkpt lat="46.51378" lon="3.22942">
        <ele>368.7</ele>
        <time>2014-05-19T18:22:11Z</time>
      </trkpt>
      <trkpt lat="46.51382" lon="3.22928">
        <ele>368.8</ele>
        <time>2014-05-19T18:22:12Z</time>
      </trkpt>
      <trkpt lat="46.51387" lon="3.22912">
        <ele>368.9</ele>
        <time>2014-05-19T18:22:13Z</time>
      </trkpt>
      <trkpt lat="46.51393" lon="3.22897">
        <ele>369</ele>
        <time>2014-05-19T18:22:14Z</time>
      </trkpt>
      <trkpt lat="46.51398" lon="3.2288">
        <ele>369.2</ele>
        <time>2014-05-19T18:22:15Z</time>
      </trkpt>
      <trkpt lat="46.51404" lon="3.22862">
        <ele>369.3</ele>
        <time>2014-05-19T18:22:16Z</time>
      </trkpt>
      <trkpt lat="46.5141" lon="3.22844">
        <ele>369.3</ele>
        <time>2014-05-19T18:22:17Z</time>
      </trkpt>
      <trkpt lat="46.51416" lon="3.22824">
        <ele>369.3</ele>
        <time>2014-05-19T18:22:18Z</time>
      </trkpt>
      <trkpt lat="46.51423" lon="3.22804">
        <ele>369.3</ele>
        <time>2014-05-19T18:22:19Z</time>
      </trkpt>
      <trkpt lat="46.51431" lon="3.22783">
        <ele>369.4</ele>
        <time>2014-05-19T18:22:20Z</time>
      </trkpt>
      <trkpt lat="46.51439" lon="3.22762">
        <ele>369.4</ele>
        <time>2014-05-19T18:22:21Z</time>
      </trkpt>
      <trkpt lat="46.51449" lon="3.22741">
        <ele>369.3</ele>
        <time>2014-05-19T18:22:22Z</time>
      </trkpt>
      <trkpt lat="46.51459" lon="3.22719">
        <ele>369.2</ele>
        <time>2014-05-19T18:22:23Z</time>
      </trkpt>
      <trkpt lat="46.51471" lon="3.22699">
        <ele>369</ele>
        <time>2014-05-19T18:22:24Z</time>
      </trkpt>
      <trkpt lat="46.51483" lon="3.22679">
        <ele>368.7</ele>
        <time>2014-05-19T18:22:25Z</time>
      </trkpt>
      <trkpt lat="46.51496" lon="3.2266">
        <ele>368.4</ele>
        <time>2014-05-19T18:22:26Z</time>
      </trkpt>
      <trkpt lat="46.5151" lon="3.22641">
        <ele>367.9</ele>
        <time>2014-05-19T18:22:27Z</time>
      </trkpt>
      <trkpt lat="46.51523" lon="3.22622">
        <ele>367.4</ele>
        <time>2014-05-19T18:22:28Z</time>
      </trkpt>
      <trkpt lat="46.51537" lon="3.22603">
        <ele>366.8</ele>
        <time>2014-05-19T18:22:29Z</time>
      </trkpt>
      <trkpt lat="46.51551" lon="3.22583">
        <ele>366.1</ele>
        <time>2014-05-19T18:22:30Z</time>
      </trkpt>
      <trkpt lat="46.51565" lon="3.22564">
        <ele>365.4</ele>
        <time>2014-05-19T18:22:31Z</time>
      </trkpt>
      <trkpt lat="46.5158" lon="3.22545">
        <ele>364.6</ele>
        <time>2014-05-19T18:22:32Z</time>
      </trkpt>
      <trkpt lat="46.51594" lon="3.22525">
        <ele>363.8</ele>
        <time>2014-05-19T18:22:33Z</time>
      </trkpt>
      <trkpt lat="46.51609" lon="3.22505">
        <ele>362.9</ele>
        <time>2014-05-19T18:22:34Z</time>
      </trkpt>
      <trkpt lat="46.51624" lon="3.22485">
        <ele>362.1</ele>
        <time>2014-05-19T18:22:35Z</time>
      </trkpt>
      <trkpt lat="46.51639" lon="3.22464">
        <ele>361.2</ele>
        <time>2014-05-19T18:22:36Z</time>
      </trkpt>
      <trkpt lat="46.51654" lon="3.22443">
        <ele>360.2</ele>
        <time>2014-05-19T18:22:37Z</time>
      </trkpt>
      <trkpt lat="46.5167" lon="3.22421">
        <ele>359.4</ele>
        <time>2014-05-19T18:22:38Z</time>
      </trkpt>
      <trkpt lat="46.51685" lon="3.224">
        <ele>358.6</ele>
        <time>2014-05-19T18:22:39Z</time>
      </trkpt>
      <trkpt lat="46.51701" lon="3.22378">
        <ele>357.8</ele>
        <time>2014-05-19T18:22:40Z</time>
      </trkpt>
      <trkpt lat="46.51717" lon="3.22357">
        <ele>357.1</ele>
        <time>2014-05-19T18:22:41Z</time>
      </trkpt>
      <trkpt lat="46.51733" lon="3.22335">
        <ele>356.4</ele>
        <time>2014-05-19T18:22:42Z</time>
      </trkpt>
      <trkpt lat="46.51749" lon="3.22313">
        <ele>355.7</ele>
        <time>2014-05-19T18:22:43Z</time>
      </trkpt>
      <trkpt lat="46.51765" lon="3.22292">
        <ele>355.1</ele>
        <time>2014-05-19T18:22:44Z</time>
      </trkpt>
      <trkpt lat="46.51781" lon="3.22269">
        <ele>354.5</ele>
        <time>2014-05-19T18:22:45Z</time>
      </trkpt>
      <trkpt lat="46.51798" lon="3.22246">
        <ele>354.1</ele>
        <time>2014-05-19T18:22:46Z</time>
      </trkpt>
      <trkpt lat="46.51814" lon="3.22224">
        <ele>353.7</ele>
        <time>2014-05-19T18:22:47Z</time>
      </trkpt>
      <trkpt lat="46.51831" lon="3.22201">
        <ele>353.4</ele>
        <time>2014-05-19T18:22:48Z</time>
      </trkpt>
      <trkpt lat="46.51847" lon="3.22178">
        <ele>353.2</ele>
        <time>2014-05-19T18:22:49Z</time>
      </trkpt>
      <trkpt lat="46.51864" lon="3.22156">
        <ele>353.1</ele>
        <time>2014-05-19T18:22:50Z</time>
      </trkpt>
      <trkpt lat="46.5188" lon="3.22133">
        <ele>353</ele>
        <time>2014-05-19T18:22:51Z</time>
      </trkpt>
      <trkpt lat="46.51897" lon="3.22111">
        <ele>353</ele>
        <time>2014-05-19T18:22:52Z</time>
      </trkpt>
      <trkpt lat="46.51913" lon="3.22088">
        <ele>353</ele>
        <time>2014-05-19T18:22:53Z</time>
      </trkpt>
      <trkpt lat="46.5193" lon="3.22066">
        <ele>353.1</ele>
        <time>2014-05-19T18:22:54Z</time>
      </trkpt>
      <trkpt lat="46.51946" lon="3.22043">
        <ele>353.2</ele>
        <time>2014-05-19T18:22:55Z</time>
      </trkpt>
      <trkpt lat="46.51963" lon="3.22021">
        <ele>353.4</ele>
        <time>2014-05-19T18:22:56Z</time>
      </trkpt>
      <trkpt lat="46.5198" lon="3.21999">
        <ele>353.5</ele>
        <time>2014-05-19T18:22:57Z</time>
      </trkpt>
      <trkpt lat="46.51996" lon="3.21977">
        <ele>353.7</ele>
        <time>2014-05-19T18:22:58Z</time>
      </trkpt>
      <trkpt lat="46.52013" lon="3.21955">
        <ele>353.8</ele>
        <time>2014-05-19T18:22:59Z</time>
      </trkpt>
      <trkpt lat="46.52028" lon="3.21933">
        <ele>353.9</ele>
        <time>2014-05-19T18:23:00Z</time>
      </trkpt>
      <trkpt lat="46.52044" lon="3.21912">
        <ele>354</ele>
        <time>2014-05-19T18:23:01Z</time>
      </trkpt>
      <trkpt lat="46.52059" lon="3.21893">
        <ele>354</ele>
        <time>2014-05-19T18:23:02Z</time>
      </trkpt>
      <trkpt lat="46.52075" lon="3.21875">
        <ele>353.8</ele>
        <time>2014-05-19T18:23:03Z</time>
      </trkpt>
      <trkpt lat="46.52092" lon="3.21859">
        <ele>353.7</ele>
        <time>2014-05-19T18:23:04Z</time>
      </trkpt>
      <trkpt lat="46.52109" lon="3.21844">
        <ele>353.4</ele>
        <time>2014-05-19T18:23:05Z</time>
      </trkpt>
      <trkpt lat="46.52128" lon="3.21837">
        <ele>353.1</ele>
        <time>2014-05-19T18:23:06Z</time>
      </trkpt>
      <trkpt lat="46.52147" lon="3.21829">
        <ele>352.7</ele>
        <time>2014-05-19T18:23:07Z</time>
      </trkpt>
      <trkpt lat="46.52166" lon="3.21821">
        <ele>352.2</ele>
        <time>2014-05-19T18:23:08Z</time>
      </trkpt>
      <trkpt lat="46.52185" lon="3.21814">
        <ele>351.6</ele>
        <time>2014-05-19T18:23:09Z</time>
      </trkpt>
      <trkpt lat="46.52207" lon="3.21806">
        <ele>351</ele>
        <time>2014-05-19T18:23:10Z</time>
      </trkpt>
      <trkpt lat="46.52228" lon="3.21799">
        <ele>350.5</ele>
        <time>2014-05-19T18:23:11Z</time>
      </trkpt>
      <trkpt lat="46.52248" lon="3.21792">
        <ele>349.9</ele>
        <time>2014-05-19T18:23:12Z</time>
      </trkpt>
      <trkpt lat="46.52269" lon="3.21785">
        <ele>349.4</ele>
        <time>2014-05-19T18:23:13Z</time>
      </trkpt>
      <trkpt lat="46.5229" lon="3.21777">
        <ele>348.9</ele>
        <time>2014-05-19T18:23:14Z</time>
      </trkpt>
      <trkpt lat="46.5231" lon="3.21769">
        <ele>348.4</ele>
        <time>2014-05-19T18:23:15Z</time>
      </trkpt>
      <trkpt lat="46.52331" lon="3.21762">
        <ele>347.8</ele>
        <time>2014-05-19T18:23:16Z</time>
      </trkpt>
      <trkpt lat="46.52352" lon="3.21755">
        <ele>347.2</ele>
        <time>2014-05-19T18:23:17Z</time>
      </trkpt>
      <trkpt lat="46.52373" lon="3.21747">
        <ele>346.6</ele>
        <time>2014-05-19T18:23:18Z</time>
      </trkpt>
      <trkpt lat="46.52393" lon="3.21739">
        <ele>345.9</ele>
        <time>2014-05-19T18:23:19Z</time>
      </trkpt>
      <trkpt lat="46.52414" lon="3.21732">
        <ele>345.3</ele>
        <time>2014-05-19T18:23:20Z</time>
      </trkpt>
      <trkpt lat="46.52435" lon="3.21725">
        <ele>344.6</ele>
        <time>2014-05-19T18:23:21Z</time>
      </trkpt>
      <trkpt lat="46.52456" lon="3.21717">
        <ele>343.9</ele>
        <time>2014-05-19T18:23:22Z</time>
      </trkpt>
      <trkpt lat="46.52476" lon="3.2171">
        <ele>343</ele>
        <time>2014-05-19T18:23:23Z</time>
      </trkpt>
      <trkpt lat="46.52497" lon="3.21703">
        <ele>342.1</ele>
        <time>2014-05-19T18:23:24Z</time>
      </trkpt>
      <trkpt lat="46.52517" lon="3.21696">
        <ele>341.1</ele>
        <time>2014-05-19T18:23:25Z</time>
      </trkpt>
      <trkpt lat="46.52537" lon="3.21688">
        <ele>340.1</ele>
        <time>2014-05-19T18:23:26Z</time>
      </trkpt>
      <trkpt lat="46.52555" lon="3.21679">
        <ele>339.1</ele>
        <time>2014-05-19T18:23:27Z</time>
      </trkpt>
      <trkpt lat="46.52572" lon="3.21667">
        <ele>338.2</ele>
        <time>2014-05-19T18:23:28Z</time>
      </trkpt>
      <trkpt lat="46.52588" lon="3.21653">
        <ele>337.4</ele>
        <time>2014-05-19T18:23:30Z</time>
      </trkpt>
      <trkpt lat="46.52603" lon="3.21637">
        <ele>336.7</ele>
        <time>2014-05-19T18:23:30Z</time>
      </trkpt>
      <trkpt lat="46.52617" lon="3.21618">
        <ele>335.9</ele>
        <time>2014-05-19T18:23:31Z</time>
      </trkpt>
      <trkpt lat="46.5263" lon="3.21597">
        <ele>335</ele>
        <time>2014-05-19T18:23:32Z</time>
      </trkpt>
      <trkpt lat="46.52641" lon="3.21575">
        <ele>334.1</ele>
        <time>2014-05-19T18:23:33Z</time>
      </trkpt>
      <trkpt lat="46.52651" lon="3.21552">
        <ele>333.3</ele>
        <time>2014-05-19T18:23:34Z</time>
      </trkpt>
      <trkpt lat="46.52661" lon="3.21528">
        <ele>332.6</ele>
        <time>2014-05-19T18:23:35Z</time>
      </trkpt>
      <trkpt lat="46.52671" lon="3.21504">
        <ele>331.9</ele>
        <time>2014-05-19T18:23:36Z</time>
      </trkpt>
      <trkpt lat="46.5268" lon="3.21479">
        <ele>331.3</ele>
        <time>2014-05-19T18:23:37Z</time>
      </trkpt>
      <trkpt lat="46.5269" lon="3.21455">
        <ele>330.7</ele>
        <time>2014-05-19T18:23:38Z</time>
      </trkpt>
      <trkpt lat="46.52701" lon="3.21429">
        <ele>330</ele>
        <time>2014-05-19T18:23:39Z</time>
      </trkpt>
      <trkpt lat="46.52711" lon="3.21404">
        <ele>329.3</ele>
        <time>2014-05-19T18:23:40Z</time>
      </trkpt>
      <trkpt lat="46.52722" lon="3.21378">
        <ele>328.7</ele>
        <time>2014-05-19T18:23:41Z</time>
      </trkpt>
      <trkpt lat="46.52733" lon="3.21353">
        <ele>328.1</ele>
        <time>2014-05-19T18:23:42Z</time>
      </trkpt>
      <trkpt lat="46.52743" lon="3.21328">
        <ele>327.5</ele>
        <time>2014-05-19T18:23:43Z</time>
      </trkpt>
      <trkpt lat="46.52753" lon="3.21302">
        <ele>326.9</ele>
        <time>2014-05-19T18:23:44Z</time>
      </trkpt>
      <trkpt lat="46.52763" lon="3.21277">
        <ele>326.3</ele>
        <time>2014-05-19T18:23:45Z</time>
      </trkpt>
      <trkpt lat="46.52772" lon="3.21252">
        <ele>325.8</ele>
        <time>2014-05-19T18:23:46Z</time>
      </trkpt>
      <trkpt lat="46.52782" lon="3.21227">
        <ele>325.2</ele>
        <time>2014-05-19T18:23:47Z</time>
      </trkpt>
      <trkpt lat="46.52792" lon="3.21203">
        <ele>324.5</ele>
        <time>2014-05-19T18:23:48Z</time>
      </trkpt>
      <trkpt lat="46.52801" lon="3.21179">
        <ele>323.9</ele>
        <time>2014-05-19T18:23:49Z</time>
      </trkpt>
      <trkpt lat="46.5281" lon="3.21156">
        <ele>323.3</ele>
        <time>2014-05-19T18:23:50Z</time>
      </trkpt>
      <trkpt lat="46.5282" lon="3.21132">
        <ele>322.8</ele>
        <time>2014-05-19T18:23:51Z</time>
      </trkpt>
      <trkpt lat="46.52829" lon="3.21109">
        <ele>322.3</ele>
        <time>2014-05-19T18:23:52Z</time>
      </trkpt>
      <trkpt lat="46.52837" lon="3.21085">
        <ele>321.6</ele>
        <time>2014-05-19T18:23:53Z</time>
      </trkpt>
      <trkpt lat="46.52844" lon="3.21062">
        <ele>321</ele>
        <time>2014-05-19T18:23:54Z</time>
      </trkpt>
      <trkpt lat="46.52852" lon="3.2104">
        <ele>320.3</ele>
        <time>2014-05-19T18:23:55Z</time>
      </trkpt>
      <trkpt lat="46.52861" lon="3.21018">
        <ele>319.5</ele>
        <time>2014-05-19T18:23:56Z</time>
      </trkpt>
      <trkpt lat="46.5287" lon="3.20997">
        <ele>318.8</ele>
        <time>2014-05-19T18:23:57Z</time>
      </trkpt>
      <trkpt lat="46.5288" lon="3.20977">
        <ele>317.9</ele>
        <time>2014-05-19T18:23:58Z</time>
      </trkpt>
      <trkpt lat="46.52888" lon="3.20956">
        <ele>317</ele>
        <time>2014-05-19T18:23:59Z</time>
      </trkpt>
      <trkpt lat="46.52895" lon="3.20934">
        <ele>316</ele>
        <time>2014-05-19T18:24:00Z</time>
      </trkpt>
      <trkpt lat="46.52903" lon="3.20913">
        <ele>314.9</ele>
        <time>2014-05-19T18:24:01Z</time>
      </trkpt>
      <trkpt lat="46.52911" lon="3.20892">
        <ele>313.6</ele>
        <time>2014-05-19T18:24:02Z</time>
      </trkpt>
      <trkpt lat="46.52917" lon="3.2087">
        <ele>312.2</ele>
        <time>2014-05-19T18:24:03Z</time>
      </trkpt>
      <trkpt lat="46.52924" lon="3.20846">
        <ele>310.9</ele>
        <time>2014-05-19T18:24:04Z</time>
      </trkpt>
      <trkpt lat="46.52928" lon="3.20822">
        <ele>309.5</ele>
        <time>2014-05-19T18:24:05Z</time>
      </trkpt>
      <trkpt lat="46.52933" lon="3.20797">
        <ele>308.3</ele>
        <time>2014-05-19T18:24:06Z</time>
      </trkpt>
      <trkpt lat="46.52937" lon="3.20771">
        <ele>307</ele>
        <time>2014-05-19T18:24:07Z</time>
      </trkpt>
      <trkpt lat="46.52942" lon="3.20744">
        <ele>305.7</ele>
        <time>2014-05-19T18:24:08Z</time>
      </trkpt>
      <trkpt lat="46.52946" lon="3.20716">
        <ele>304.5</ele>
        <time>2014-05-19T18:24:09Z</time>
      </trkpt>
      <trkpt lat="46.5295" lon="3.20688">
        <ele>303.4</ele>
        <time>2014-05-19T18:24:10Z</time>
      </trkpt>
      <trkpt lat="46.52955" lon="3.2066">
        <ele>302.3</ele>
        <time>2014-05-19T18:24:11Z</time>
      </trkpt>
      <trkpt lat="46.5296" lon="3.20632">
        <ele>301.2</ele>
        <time>2014-05-19T18:24:12Z</time>
      </trkpt>
      <trkpt lat="46.52965" lon="3.20604">
        <ele>300.1</ele>
        <time>2014-05-19T18:24:13Z</time>
      </trkpt>
      <trkpt lat="46.5297" lon="3.20576">
        <ele>299</ele>
        <time>2014-05-19T18:24:14Z</time>
      </trkpt>
      <trkpt lat="46.52974" lon="3.20548">
        <ele>297.9</ele>
        <time>2014-05-19T18:24:15Z</time>
      </trkpt>
      <trkpt lat="46.52979" lon="3.2052">
        <ele>296.8</ele>
        <time>2014-05-19T18:24:16Z</time>
      </trkpt>
      <trkpt lat="46.52983" lon="3.20492">
        <ele>295.6</ele>
        <time>2014-05-19T18:24:17Z</time>
      </trkpt>
      <trkpt lat="46.52989" lon="3.20463">
        <ele>294.5</ele>
        <time>2014-05-19T18:24:18Z</time>
      </trkpt>
      <trkpt lat="46.52993" lon="3.20435">
        <ele>293.4</ele>
        <time>2014-05-19T18:24:19Z</time>
      </trkpt>
      <trkpt lat="46.52998" lon="3.20406">
        <ele>292.2</ele>
        <time>2014-05-19T18:24:20Z</time>
      </trkpt>
      <trkpt lat="46.53003" lon="3.20378">
        <ele>291.1</ele>
        <time>2014-05-19T18:24:21Z</time>
      </trkpt>
      <trkpt lat="46.53008" lon="3.2035">
        <ele>290.2</ele>
        <time>2014-05-19T18:24:22Z</time>
      </trkpt>
      <trkpt lat="46.53013" lon="3.20322">
        <ele>289.3</ele>
        <time>2014-05-19T18:24:23Z</time>
      </trkpt>
      <trkpt lat="46.53018" lon="3.20294">
        <ele>288.5</ele>
        <time>2014-05-19T18:24:24Z</time>
      </trkpt>
      <trkpt lat="46.53023" lon="3.20267">
        <ele>287.8</ele>
        <time>2014-05-19T18:24:25Z</time>
      </trkpt>
      <trkpt lat="46.53029" lon="3.2024">
        <ele>287.3</ele>
        <time>2014-05-19T18:24:26Z</time>
      </trkpt>
      <trkpt lat="46.53037" lon="3.20214">
        <ele>286.9</ele>
        <time>2014-05-19T18:24:27Z</time>
      </trkpt>
      <trkpt lat="46.53044" lon="3.20189">
        <ele>286.5</ele>
        <time>2014-05-19T18:24:28Z</time>
      </trkpt>
      <trkpt lat="46.53052" lon="3.20163">
        <ele>286.3</ele>
        <time>2014-05-19T18:24:29Z</time>
      </trkpt>
      <trkpt lat="46.5306" lon="3.20138">
        <ele>286</ele>
        <time>2014-05-19T18:24:30Z</time>
      </trkpt>
      <trkpt lat="46.53067" lon="3.20113">
        <ele>285.8</ele>
        <time>2014-05-19T18:24:31Z</time>
      </trkpt>
      <trkpt lat="46.53075" lon="3.20087">
        <ele>285.7</ele>
        <time>2014-05-19T18:24:32Z</time>
      </trkpt>
      <trkpt lat="46.53083" lon="3.20063">
        <ele>285.5</ele>
        <time>2014-05-19T18:24:33Z</time>
      </trkpt>
      <trkpt lat="46.53091" lon="3.20038">
        <ele>285.3</ele>
        <time>2014-05-19T18:24:34Z</time>
      </trkpt>
      <trkpt lat="46.53099" lon="3.20013">
        <ele>285.1</ele>
        <time>2014-05-19T18:24:35Z</time>
      </trkpt>
      <trkpt lat="46.53106" lon="3.19988">
        <ele>284.9</ele>
        <time>2014-05-19T18:24:36Z</time>
      </trkpt>
      <trkpt lat="46.53114" lon="3.19962">
        <ele>284.8</ele>
        <time>2014-05-19T18:24:37Z</time>
      </trkpt>
      <trkpt lat="46.53122" lon="3.19937">
        <ele>284.7</ele>
        <time>2014-05-19T18:24:38Z</time>
      </trkpt>
      <trkpt lat="46.53129" lon="3.19911">
        <ele>284.7</ele>
        <time>2014-05-19T18:24:39Z</time>
      </trkpt>
      <trkpt lat="46.53137" lon="3.19885">
        <ele>284.8</ele>
        <time>2014-05-19T18:24:40Z</time>
      </trkpt>
      <trkpt lat="46.53144" lon="3.19859">
        <ele>284.8</ele>
        <time>2014-05-19T18:24:41Z</time>
      </trkpt>
      <trkpt lat="46.53151" lon="3.19834">
        <ele>284.9</ele>
        <time>2014-05-19T18:24:42Z</time>
      </trkpt>
      <trkpt lat="46.53161" lon="3.19811">
        <ele>285.1</ele>
        <time>2014-05-19T18:24:43Z</time>
      </trkpt>
      <trkpt lat="46.5317" lon="3.19789">
        <ele>285.3</ele>
        <time>2014-05-19T18:24:44Z</time>
      </trkpt>
      <trkpt lat="46.53179" lon="3.1977">
        <ele>285.6</ele>
        <time>2014-05-19T18:24:45Z</time>
      </trkpt>
      <trkpt lat="46.5319" lon="3.19753">
        <ele>285.8</ele>
        <time>2014-05-19T18:24:46Z</time>
      </trkpt>
      <trkpt lat="46.53202" lon="3.19739">
        <ele>286</ele>
        <time>2014-05-19T18:24:47Z</time>
      </trkpt>
      <trkpt lat="46.53214" lon="3.19727">
        <ele>286.3</ele>
        <time>2014-05-19T18:24:48Z</time>
      </trkpt>
      <trkpt lat="46.53225" lon="3.19715">
        <ele>286.4</ele>
        <time>2014-05-19T18:24:49Z</time>
      </trkpt>
      <trkpt lat="46.53237" lon="3.19706">
        <ele>286.4</ele>
        <time>2014-05-19T18:24:50Z</time>
      </trkpt>
      <trkpt lat="46.53248" lon="3.19698">
        <ele>286.4</ele>
        <time>2014-05-19T18:24:51Z</time>
      </trkpt>
      <trkpt lat="46.53259" lon="3.1969">
        <ele>286.4</ele>
        <time>2014-05-19T18:24:52Z</time>
      </trkpt>
      <trkpt lat="46.5327" lon="3.19682">
        <ele>286.4</ele>
        <time>2014-05-19T18:24:53Z</time>
      </trkpt>
      <trkpt lat="46.53281" lon="3.19675">
        <ele>286.4</ele>
        <time>2014-05-19T18:24:54Z</time>
      </trkpt>
      <trkpt lat="46.53291" lon="3.19667">
        <ele>286.3</ele>
        <time>2014-05-19T18:24:55Z</time>
      </trkpt>
      <trkpt lat="46.53301" lon="3.19659">
        <ele>286.3</ele>
        <time>2014-05-19T18:24:56Z</time>
      </trkpt>
      <trkpt lat="46.53312" lon="3.19652">
        <ele>286.3</ele>
        <time>2014-05-19T18:24:57Z</time>
      </trkpt>
      <trkpt lat="46.53322" lon="3.19645">
        <ele>286.3</ele>
        <time>2014-05-19T18:24:58Z</time>
      </trkpt>
      <trkpt lat="46.53332" lon="3.19638">
        <ele>286.3</ele>
        <time>2014-05-19T18:24:59Z</time>
      </trkpt>
      <trkpt lat="46.53341" lon="3.19632">
        <ele>286.4</ele>
        <time>2014-05-19T18:25:00Z</time>
      </trkpt>
      <trkpt lat="46.53351" lon="3.19625">
        <ele>286.6</ele>
        <time>2014-05-19T18:25:01Z</time>
      </trkpt>
      <trkpt lat="46.53359" lon="3.19618">
        <ele>287</ele>
        <time>2014-05-19T18:25:02Z</time>
      </trkpt>
      <trkpt lat="46.53368" lon="3.19612">
        <ele>287.4</ele>
        <time>2014-05-19T18:25:03Z</time>
      </trkpt>
      <trkpt lat="46.53376" lon="3.19606">
        <ele>287.8</ele>
        <time>2014-05-19T18:25:04Z</time>
      </trkpt>
      <trkpt lat="46.53385" lon="3.196">
        <ele>288.3</ele>
        <time>2014-05-19T18:25:05Z</time>
      </trkpt>
      <trkpt lat="46.53393" lon="3.19594">
        <ele>288.7</ele>
        <time>2014-05-19T18:25:06Z</time>
      </trkpt>
      <trkpt lat="46.534" lon="3.19589">
        <ele>289.1</ele>
        <time>2014-05-19T18:25:07Z</time>
      </trkpt>
      <trkpt lat="46.53414" lon="3.1958">
        <ele>289.6</ele>
        <time>2014-05-19T18:25:09Z</time>
      </trkpt>
      <trkpt lat="46.53423" lon="3.19574">
        <ele>290</ele>
        <time>2014-05-19T18:25:11Z</time>
      </trkpt>
      <trkpt lat="46.53431" lon="3.19566">
        <ele>290.3</ele>
        <time>2014-05-19T18:25:16Z</time>
      </trkpt>
      <trkpt lat="46.5343" lon="3.19551">
        <ele>290.6</ele>
        <time>2014-05-19T18:25:18Z</time>
      </trkpt>
      <trkpt lat="46.53427" lon="3.19535">
        <ele>290.9</ele>
        <time>2014-05-19T18:25:20Z</time>
      </trkpt>
      <trkpt lat="46.53424" lon="3.19522">
        <ele>291.2</ele>
        <time>2014-05-19T18:25:23Z</time>
      </trkpt>
      <trkpt lat="46.53424" lon="3.19522">
        <ele>291.2</ele>
        <time>2014-05-19T18:25:32Z</time>
      </trkpt>
      <trkpt lat="46.53417" lon="3.19516">
        <ele>294.2</ele>
        <time>2014-05-19T18:25:47Z</time>
      </trkpt>
      <trkpt lat="46.53417" lon="3.19516">
        <ele>294.3</ele>
        <time>2014-05-19T18:25:47Z</time>
      </trkpt>
      <trkpt lat="46.5341" lon="3.19494">
        <ele>294.3</ele>
        <time>2014-05-19T18:25:50Z</time>
      </trkpt>
      <trkpt lat="46.53407" lon="3.19474">
        <ele>294.3</ele>
        <time>2014-05-19T18:25:52Z</time>
      </trkpt>
      <trkpt lat="46.53404" lon="3.19463">
        <ele>294.3</ele>
        <time>2014-05-19T18:25:53Z</time>
      </trkpt>
      <trkpt lat="46.53401" lon="3.1945">
        <ele>294.3</ele>
        <time>2014-05-19T18:25:54Z</time>
      </trkpt>
      <trkpt lat="46.53397" lon="3.19436">
        <ele>294.2</ele>
        <time>2014-05-19T18:25:55Z</time>
      </trkpt>
      <trkpt lat="46.53394" lon="3.19422">
        <ele>294.2</ele>
        <time>2014-05-19T18:25:56Z</time>
      </trkpt>
      <trkpt lat="46.5339" lon="3.19407">
        <ele>294.2</ele>
        <time>2014-05-19T18:25:57Z</time>
      </trkpt>
      <trkpt lat="46.53385" lon="3.19391">
        <ele>294.4</ele>
        <time>2014-05-19T18:25:58Z</time>
      </trkpt>
      <trkpt lat="46.53382" lon="3.19376">
        <ele>294.5</ele>
        <time>2014-05-19T18:25:59Z</time>
      </trkpt>
      <trkpt lat="46.53378" lon="3.19361">
        <ele>294.6</ele>
        <time>2014-05-19T18:26:00Z</time>
      </trkpt>
      <trkpt lat="46.53374" lon="3.19347">
        <ele>294.7</ele>
        <time>2014-05-19T18:26:01Z</time>
      </trkpt>
      <trkpt lat="46.53371" lon="3.19333">
        <ele>294.8</ele>
        <time>2014-05-19T18:26:02Z</time>
      </trkpt>
      <trkpt lat="46.53367" lon="3.1932">
        <ele>294.9</ele>
        <time>2014-05-19T18:26:03Z</time>
      </trkpt>
      <trkpt lat="46.53364" lon="3.19308">
        <ele>294.8</ele>
        <time>2014-05-19T18:26:04Z</time>
      </trkpt>
      <trkpt lat="46.53361" lon="3.19297">
        <ele>294.6</ele>
        <time>2014-05-19T18:26:05Z</time>
      </trkpt>
      <trkpt lat="46.53355" lon="3.19278">
        <ele>294.4</ele>
        <time>2014-05-19T18:26:07Z</time>
      </trkpt>
      <trkpt lat="46.53351" lon="3.19263">
        <ele>294.2</ele>
        <time>2014-05-19T18:26:09Z</time>
      </trkpt>
      <trkpt lat="46.53348" lon="3.19251">
        <ele>294.1</ele>
        <time>2014-05-19T18:26:11Z</time>
      </trkpt>
      <trkpt lat="46.53355" lon="3.1924">
        <ele>293.9</ele>
        <time>2014-05-19T18:26:15Z</time>
      </trkpt>
      <trkpt lat="46.53367" lon="3.19244">
        <ele>293.8</ele>
        <time>2014-05-19T18:26:17Z</time>
      </trkpt>
      <trkpt lat="46.5338" lon="3.19248">
        <ele>293.6</ele>
        <time>2014-05-19T18:26:19Z</time>
      </trkpt>
      <trkpt lat="46.53388" lon="3.19252">
        <ele>293.5</ele>
        <time>2014-05-19T18:26:20Z</time>
      </trkpt>
      <trkpt lat="46.53397" lon="3.19254">
        <ele>293.3</ele>
        <time>2014-05-19T18:26:21Z</time>
      </trkpt>
      <trkpt lat="46.53407" lon="3.19256">
        <ele>293.2</ele>
        <time>2014-05-19T18:26:22Z</time>
      </trkpt>
      <trkpt lat="46.53416" lon="3.19255">
        <ele>293.2</ele>
        <time>2014-05-19T18:26:23Z</time>
      </trkpt>
      <trkpt lat="46.53425" lon="3.19256">
        <ele>293.5</ele>
        <time>2014-05-19T18:26:24Z</time>
      </trkpt>
      <trkpt lat="46.53435" lon="3.19255">
        <ele>293.7</ele>
        <time>2014-05-19T18:26:25Z</time>
      </trkpt>
      <trkpt lat="46.53444" lon="3.19255">
        <ele>294.1</ele>
        <time>2014-05-19T18:26:26Z</time>
      </trkpt>
      <trkpt lat="46.53453" lon="3.19255">
        <ele>294.6</ele>
        <time>2014-05-19T18:26:27Z</time>
      </trkpt>
      <trkpt lat="46.53466" lon="3.19254">
        <ele>295</ele>
        <time>2014-05-19T18:26:29Z</time>
      </trkpt>
      <trkpt lat="46.53477" lon="3.19256">
        <ele>295.3</ele>
        <time>2014-05-19T18:26:31Z</time>
      </trkpt>
      <trkpt lat="46.53488" lon="3.19263">
        <ele>295.5</ele>
        <time>2014-05-19T18:26:33Z</time>
      </trkpt>
      <trkpt lat="46.535" lon="3.19275">
        <ele>295.9</ele>
        <time>2014-05-19T18:26:35Z</time>
      </trkpt>
      <trkpt lat="46.53507" lon="3.19282">
        <ele>296.4</ele>
        <time>2014-05-19T18:26:36Z</time>
      </trkpt>
      <trkpt lat="46.53515" lon="3.19296">
        <ele>297</ele>
        <time>2014-05-19T18:26:38Z</time>
      </trkpt>
      <trkpt lat="46.53519" lon="3.19308">
        <ele>297.4</ele>
        <time>2014-05-19T18:26:40Z</time>
      </trkpt>
      <trkpt lat="46.53525" lon="3.19319">
        <ele>297.8</ele>
        <time>2014-05-19T18:26:42Z</time>
      </trkpt>
      <trkpt lat="46.53533" lon="3.19319">
        <ele>298.3</ele>
        <time>2014-05-19T18:26:51Z</time>
      </trkpt>
      <trkpt lat="46.53531" lon="3.19306">
        <ele>298.6</ele>
        <time>2014-05-19T18:26:55Z</time>
      </trkpt>
      <trkpt lat="46.5352" lon="3.193">
        <ele>298.7</ele>
        <time>2014-05-19T18:27:01Z</time>
      </trkpt>
      <trkpt lat="46.53514" lon="3.1929">
        <ele>298.8</ele>
        <time>2014-05-19T18:27:03Z</time>
      </trkpt>
      <trkpt lat="46.53506" lon="3.19276">
        <ele>299</ele>
        <time>2014-05-19T18:27:05Z</time>
      </trkpt>
      <trkpt lat="46.53498" lon="3.19266">
        <ele>299.2</ele>
        <time>2014-05-19T18:27:07Z</time>
      </trkpt>
      <trkpt lat="46.53489" lon="3.19258">
        <ele>299.2</ele>
        <time>2014-05-19T18:27:09Z</time>
      </trkpt>
      <trkpt lat="46.53478" lon="3.19253">
        <ele>299.1</ele>
        <time>2014-05-19T18:27:11Z</time>
      </trkpt>
      <trkpt lat="46.53467" lon="3.19252">
        <ele>298.9</ele>
        <time>2014-05-19T18:27:13Z</time>
      </trkpt>
      <trkpt lat="46.53454" lon="3.19252">
        <ele>298.7</ele>
        <time>2014-05-19T18:27:15Z</time>
      </trkpt>
      <trkpt lat="46.53439" lon="3.19251">
        <ele>298.5</ele>
        <time>2014-05-19T18:27:17Z</time>
      </trkpt>
      <trkpt lat="46.53424" lon="3.1925">
        <ele>298.2</ele>
        <time>2014-05-19T18:27:19Z</time>
      </trkpt>
      <trkpt lat="46.53409" lon="3.19247">
        <ele>297.9</ele>
        <time>2014-05-19T18:27:21Z</time>
      </trkpt>
      <trkpt lat="46.53394" lon="3.19245">
        <ele>297.7</ele>
        <time>2014-05-19T18:27:23Z</time>
      </trkpt>
      <trkpt lat="46.5338" lon="3.19239">
        <ele>297.4</ele>
        <time>2014-05-19T18:27:25Z</time>
      </trkpt>
      <trkpt lat="46.53366" lon="3.19233">
        <ele>297.2</ele>
        <time>2014-05-19T18:27:27Z</time>
      </trkpt>
      <trkpt lat="46.53354" lon="3.19232">
        <ele>296.9</ele>
        <time>2014-05-19T18:27:29Z</time>
      </trkpt>
      <trkpt lat="46.53346" lon="3.1923">
        <ele>296.6</ele>
        <time>2014-05-19T18:27:33Z</time>
      </trkpt>
      <trkpt lat="46.53339" lon="3.19221">
        <ele>296.3</ele>
        <time>2014-05-19T18:27:35Z</time>
      </trkpt>
      <trkpt lat="46.53334" lon="3.19206">
        <ele>296.1</ele>
        <time>2014-05-19T18:27:37Z</time>
      </trkpt>
      <trkpt lat="46.53329" lon="3.19187">
        <ele>296</ele>
        <time>2014-05-19T18:27:39Z</time>
      </trkpt>
      <trkpt lat="46.53323" lon="3.19166">
        <ele>295.8</ele>
        <time>2014-05-19T18:27:41Z</time>
      </trkpt>
      <trkpt lat="46.5332" lon="3.19154">
        <ele>295.6</ele>
        <time>2014-05-19T18:27:42Z</time>
      </trkpt>
      <trkpt lat="46.53316" lon="3.19133">
        <ele>295.4</ele>
        <time>2014-05-19T18:27:44Z</time>
      </trkpt>
      <trkpt lat="46.53311" lon="3.19112">
        <ele>295.3</ele>
        <time>2014-05-19T18:27:46Z</time>
      </trkpt>
      <trkpt lat="46.53305" lon="3.19091">
        <ele>295.1</ele>
        <time>2014-05-19T18:27:48Z</time>
      </trkpt>
      <trkpt lat="46.53297" lon="3.19072">
        <ele>295.2</ele>
        <time>2014-05-19T18:27:50Z</time>
      </trkpt>
      <trkpt lat="46.5329" lon="3.19051">
        <ele>295.4</ele>
        <time>2014-05-19T18:27:52Z</time>
      </trkpt>
      <trkpt lat="46.53286" lon="3.1904">
        <ele>295.4</ele>
        <time>2014-05-19T18:27:53Z</time>
      </trkpt>
      <trkpt lat="46.53281" lon="3.19019">
        <ele>295.5</ele>
        <time>2014-05-19T18:27:55Z</time>
      </trkpt>
      <trkpt lat="46.53275" lon="3.19002">
        <ele>295.5</ele>
        <time>2014-05-19T18:27:57Z</time>
      </trkpt>
      <trkpt lat="46.53274" lon="3.18989">
        <ele>295.5</ele>
        <time>2014-05-19T18:27:59Z</time>
      </trkpt>
      <trkpt lat="46.53271" lon="3.18974">
        <ele>295.6</ele>
        <time>2014-05-19T18:28:02Z</time>
      </trkpt>
      <trkpt lat="46.5327" lon="3.18965">
        <ele>295.7</ele>
        <time>2014-05-19T18:28:23Z</time>
      </trkpt>
      <trkpt lat="46.5327" lon="3.1896">
        <ele>293.5</ele>
        <time>2014-05-19T18:28:35Z</time>
      </trkpt>
      <trkpt lat="46.5327" lon="3.1896">
        <ele>293.2</ele>
        <time>2014-05-19T18:28:35Z</time>
      </trkpt>
      <trkpt lat="46.5327" lon="3.18947">
        <ele>293.1</ele>
        <time>2014-05-19T18:28:37Z</time>
      </trkpt>
      <trkpt lat="46.5327" lon="3.18935">
        <ele>293</ele>
        <time>2014-05-19T18:28:38Z</time>
      </trkpt>
      <trkpt lat="46.5327" lon="3.18914">
        <ele>293</ele>
        <time>2014-05-19T18:28:40Z</time>
      </trkpt>
      <trkpt lat="46.5327" lon="3.18889">
        <ele>293.1</ele>
        <time>2014-05-19T18:28:42Z</time>
      </trkpt>
      <trkpt lat="46.53269" lon="3.18875">
        <ele>293.1</ele>
        <time>2014-05-19T18:28:43Z</time>
      </trkpt>
      <trkpt lat="46.53269" lon="3.1886">
        <ele>293.1</ele>
        <time>2014-05-19T18:28:44Z</time>
      </trkpt>
      <trkpt lat="46.5327" lon="3.18844">
        <ele>293.3</ele>
        <time>2014-05-19T18:28:45Z</time>
      </trkpt>
      <trkpt lat="46.5327" lon="3.18827">
        <ele>293.6</ele>
        <time>2014-05-19T18:28:46Z</time>
      </trkpt>
      <trkpt lat="46.5327" lon="3.1881">
        <ele>294</ele>
        <time>2014-05-19T18:28:47Z</time>
      </trkpt>
      <trkpt lat="46.53271" lon="3.18792">
        <ele>294.6</ele>
        <time>2014-05-19T18:28:49Z</time>
      </trkpt>
      <trkpt lat="46.53271" lon="3.18774">
        <ele>295.2</ele>
        <time>2014-05-19T18:28:50Z</time>
      </trkpt>
      <trkpt lat="46.53271" lon="3.18756">
        <ele>295.8</ele>
        <time>2014-05-19T18:28:50Z</time>
      </trkpt>
      <trkpt lat="46.5327" lon="3.18737">
        <ele>296.4</ele>
        <time>2014-05-19T18:28:51Z</time>
      </trkpt>
      <trkpt lat="46.53269" lon="3.18718">
        <ele>296.9</ele>
        <time>2014-05-19T18:28:53Z</time>
      </trkpt>
      <trkpt lat="46.53269" lon="3.18699">
        <ele>297.5</ele>
        <time>2014-05-19T18:28:54Z</time>
      </trkpt>
      <trkpt lat="46.53268" lon="3.18679">
        <ele>298</ele>
        <time>2014-05-19T18:28:55Z</time>
      </trkpt>
      <trkpt lat="46.53266" lon="3.18659">
        <ele>298.4</ele>
        <time>2014-05-19T18:28:56Z</time>
      </trkpt>
      <trkpt lat="46.53264" lon="3.18638">
        <ele>298.9</ele>
        <time>2014-05-19T18:28:56Z</time>
      </trkpt>
      <trkpt lat="46.53262" lon="3.18618">
        <ele>299.2</ele>
        <time>2014-05-19T18:28:58Z</time>
      </trkpt>
      <trkpt lat="46.5326" lon="3.18597">
        <ele>299.4</ele>
        <time>2014-05-19T18:28:58Z</time>
      </trkpt>
      <trkpt lat="46.53259" lon="3.18575">
        <ele>299.6</ele>
        <time>2014-05-19T18:29:00Z</time>
      </trkpt>
      <trkpt lat="46.53259" lon="3.18553">
        <ele>299.7</ele>
        <time>2014-05-19T18:29:00Z</time>
      </trkpt>
      <trkpt lat="46.5326" lon="3.18531">
        <ele>299.8</ele>
        <time>2014-05-19T18:29:02Z</time>
      </trkpt>
      <trkpt lat="46.53262" lon="3.1851">
        <ele>299.9</ele>
        <time>2014-05-19T18:29:03Z</time>
      </trkpt>
      <trkpt lat="46.53264" lon="3.1849">
        <ele>300.1</ele>
        <time>2014-05-19T18:29:03Z</time>
      </trkpt>
      <trkpt lat="46.53266" lon="3.18472">
        <ele>300.2</ele>
        <time>2014-05-19T18:29:04Z</time>
      </trkpt>
      <trkpt lat="46.53268" lon="3.18453">
        <ele>300.3</ele>
        <time>2014-05-19T18:29:05Z</time>
      </trkpt>
      <trkpt lat="46.53269" lon="3.18435">
        <ele>300.5</ele>
        <time>2014-05-19T18:29:07Z</time>
      </trkpt>
      <trkpt lat="46.53268" lon="3.18417">
        <ele>300.6</ele>
        <time>2014-05-19T18:29:08Z</time>
      </trkpt>
      <trkpt lat="46.53268" lon="3.184">
        <ele>300.8</ele>
        <time>2014-05-19T18:29:09Z</time>
      </trkpt>
      <trkpt lat="46.53267" lon="3.18385">
        <ele>301</ele>
        <time>2014-05-19T18:29:09Z</time>
      </trkpt>
      <trkpt lat="46.53268" lon="3.18371">
        <ele>301.3</ele>
        <time>2014-05-19T18:29:10Z</time>
      </trkpt>
      <trkpt lat="46.53271" lon="3.18358">
        <ele>301.7</ele>
        <time>2014-05-19T18:29:11Z</time>
      </trkpt>
      <trkpt lat="46.53275" lon="3.18346">
        <ele>302.1</ele>
        <time>2014-05-19T18:29:13Z</time>
      </trkpt>
      <trkpt lat="46.53278" lon="3.18332">
        <ele>302.5</ele>
        <time>2014-05-19T18:29:14Z</time>
      </trkpt>
      <trkpt lat="46.5328" lon="3.18316">
        <ele>303</ele>
        <time>2014-05-19T18:29:14Z</time>
      </trkpt>
      <trkpt lat="46.53282" lon="3.18298">
        <ele>303.5</ele>
        <time>2014-05-19T18:29:16Z</time>
      </trkpt>
      <trkpt lat="46.53286" lon="3.1828">
        <ele>304.1</ele>
        <time>2014-05-19T18:29:17Z</time>
      </trkpt>
      <trkpt lat="46.5329" lon="3.18261">
        <ele>304.6</ele>
        <time>2014-05-19T18:29:18Z</time>
      </trkpt>
      <trkpt lat="46.53295" lon="3.18241">
        <ele>305.3</ele>
        <time>2014-05-19T18:29:18Z</time>
      </trkpt>
      <trkpt lat="46.533" lon="3.18221">
        <ele>306.1</ele>
        <time>2014-05-19T18:29:19Z</time>
      </trkpt>
      <trkpt lat="46.53306" lon="3.18201">
        <ele>306.9</ele>
        <time>2014-05-19T18:29:21Z</time>
      </trkpt>
      <trkpt lat="46.53313" lon="3.1818">
        <ele>307.6</ele>
        <time>2014-05-19T18:29:21Z</time>
      </trkpt>
      <trkpt lat="46.53321" lon="3.1816">
        <ele>308.5</ele>
        <time>2014-05-19T18:29:23Z</time>
      </trkpt>
      <trkpt lat="46.5333" lon="3.18141">
        <ele>309.3</ele>
        <time>2014-05-19T18:29:23Z</time>
      </trkpt>
      <trkpt lat="46.5334" lon="3.18123">
        <ele>310.2</ele>
        <time>2014-05-19T18:29:25Z</time>
      </trkpt>
      <trkpt lat="46.53351" lon="3.18105">
        <ele>311</ele>
        <time>2014-05-19T18:29:25Z</time>
      </trkpt>
      <trkpt lat="46.53363" lon="3.18089">
        <ele>311.9</ele>
        <time>2014-05-19T18:29:27Z</time>
      </trkpt>
      <trkpt lat="46.53376" lon="3.18074">
        <ele>312.7</ele>
        <time>2014-05-19T18:29:28Z</time>
      </trkpt>
      <trkpt lat="46.5339" lon="3.18061">
        <ele>313.6</ele>
        <time>2014-05-19T18:29:28Z</time>
      </trkpt>
      <trkpt lat="46.53405" lon="3.1805">
        <ele>314.4</ele>
        <time>2014-05-19T18:29:29Z</time>
      </trkpt>
      <trkpt lat="46.5342" lon="3.18041">
        <ele>315.2</ele>
        <time>2014-05-19T18:29:30Z</time>
      </trkpt>
      <trkpt lat="46.53436" lon="3.18033">
        <ele>316</ele>
        <time>2014-05-19T18:29:32Z</time>
      </trkpt>
      <trkpt lat="46.53452" lon="3.18025">
        <ele>316.8</ele>
        <time>2014-05-19T18:29:32Z</time>
      </trkpt>
      <trkpt lat="46.53467" lon="3.18017">
        <ele>317.7</ele>
        <time>2014-05-19T18:29:33Z</time>
      </trkpt>
      <trkpt lat="46.53481" lon="3.18011">
        <ele>318.4</ele>
        <time>2014-05-19T18:29:34Z</time>
      </trkpt>
      <trkpt lat="46.53493" lon="3.18004">
        <ele>319.2</ele>
        <time>2014-05-19T18:29:36Z</time>
      </trkpt>
      <trkpt lat="46.53505" lon="3.17996">
        <ele>320</ele>
        <time>2014-05-19T18:29:37Z</time>
      </trkpt>
      <trkpt lat="46.53515" lon="3.17985">
        <ele>320.7</ele>
        <time>2014-05-19T18:29:37Z</time>
      </trkpt>
      <trkpt lat="46.53525" lon="3.17974">
        <ele>321.4</ele>
        <time>2014-05-19T18:29:39Z</time>
      </trkpt>
      <trkpt lat="46.53534" lon="3.17962">
        <ele>322.1</ele>
        <time>2014-05-19T18:29:40Z</time>
      </trkpt>
      <trkpt lat="46.53545" lon="3.17951">
        <ele>322.8</ele>
        <time>2014-05-19T18:29:41Z</time>
      </trkpt>
      <trkpt lat="46.53555" lon="3.17942">
        <ele>323.4</ele>
        <time>2014-05-19T18:29:41Z</time>
      </trkpt>
      <trkpt lat="46.53567" lon="3.17933">
        <ele>324</ele>
        <time>2014-05-19T18:29:42Z</time>
      </trkpt>
      <trkpt lat="46.53578" lon="3.17925">
        <ele>324.6</ele>
        <time>2014-05-19T18:29:43Z</time>
      </trkpt>
      <trkpt lat="46.5359" lon="3.17917">
        <ele>325.1</ele>
        <time>2014-05-19T18:29:45Z</time>
      </trkpt>
      <trkpt lat="46.53603" lon="3.17908">
        <ele>325.6</ele>
        <time>2014-05-19T18:29:46Z</time>
      </trkpt>
      <trkpt lat="46.53616" lon="3.17899">
        <ele>326.1</ele>
        <time>2014-05-19T18:29:46Z</time>
      </trkpt>
      <trkpt lat="46.53628" lon="3.17891">
        <ele>326.5</ele>
        <time>2014-05-19T18:29:47Z</time>
      </trkpt>
      <trkpt lat="46.53642" lon="3.17882">
        <ele>326.9</ele>
        <time>2014-05-19T18:29:49Z</time>
      </trkpt>
      <trkpt lat="46.53656" lon="3.17875">
        <ele>327.4</ele>
        <time>2014-05-19T18:29:50Z</time>
      </trkpt>
      <trkpt lat="46.53671" lon="3.17869">
        <ele>327.8</ele>
        <time>2014-05-19T18:29:50Z</time>
      </trkpt>
      <trkpt lat="46.53685" lon="3.17863">
        <ele>328.2</ele>
        <time>2014-05-19T18:29:51Z</time>
      </trkpt>
      <trkpt lat="46.537" lon="3.17857">
        <ele>328.7</ele>
        <time>2014-05-19T18:29:52Z</time>
      </trkpt>
      <trkpt lat="46.53716" lon="3.17851">
        <ele>329.1</ele>
        <time>2014-05-19T18:29:54Z</time>
      </trkpt>
      <trkpt lat="46.53732" lon="3.17845">
        <ele>329.6</ele>
        <time>2014-05-19T18:29:55Z</time>
      </trkpt>
      <trkpt lat="46.53747" lon="3.1784">
        <ele>330.2</ele>
        <time>2014-05-19T18:29:55Z</time>
      </trkpt>
      <trkpt lat="46.53763" lon="3.17836">
        <ele>330.7</ele>
        <time>2014-05-19T18:29:57Z</time>
      </trkpt>
      <trkpt lat="46.53778" lon="3.17831">
        <ele>331.2</ele>
        <time>2014-05-19T18:29:57Z</time>
      </trkpt>
      <trkpt lat="46.53794" lon="3.17827">
        <ele>331.6</ele>
        <time>2014-05-19T18:29:58Z</time>
      </trkpt>
      <trkpt lat="46.53809" lon="3.17823">
        <ele>332</ele>
        <time>2014-05-19T18:29:59Z</time>
      </trkpt>
      <trkpt lat="46.53824" lon="3.17818">
        <ele>332.4</ele>
        <time>2014-05-19T18:30:00Z</time>
      </trkpt>
      <trkpt lat="46.53839" lon="3.17813">
        <ele>332.7</ele>
        <time>2014-05-19T18:30:01Z</time>
      </trkpt>
      <trkpt lat="46.53854" lon="3.17805">
        <ele>333</ele>
        <time>2014-05-19T18:30:03Z</time>
      </trkpt>
      <trkpt lat="46.53868" lon="3.17797">
        <ele>333.2</ele>
        <time>2014-05-19T18:30:04Z</time>
      </trkpt>
      <trkpt lat="46.53882" lon="3.17788">
        <ele>333.3</ele>
        <time>2014-05-19T18:30:04Z</time>
      </trkpt>
      <trkpt lat="46.53897" lon="3.1778">
        <ele>333.4</ele>
        <time>2014-05-19T18:30:05Z</time>
      </trkpt>
      <trkpt lat="46.53912" lon="3.17771">
        <ele>333.4</ele>
        <time>2014-05-19T18:30:07Z</time>
      </trkpt>
      <trkpt lat="46.53927" lon="3.17762">
        <ele>333.3</ele>
        <time>2014-05-19T18:30:08Z</time>
      </trkpt>
      <trkpt lat="46.53942" lon="3.17754">
        <ele>333.2</ele>
        <time>2014-05-19T18:30:09Z</time>
      </trkpt>
      <trkpt lat="46.53956" lon="3.17746">
        <ele>333.1</ele>
        <time>2014-05-19T18:30:09Z</time>
      </trkpt>
      <trkpt lat="46.53969" lon="3.17738">
        <ele>333</ele>
        <time>2014-05-19T18:30:10Z</time>
      </trkpt>
      <trkpt lat="46.53982" lon="3.1773">
        <ele>332.8</ele>
        <time>2014-05-19T18:30:11Z</time>
      </trkpt>
      <trkpt lat="46.53992" lon="3.17726">
        <ele>332.8</ele>
        <time>2014-05-19T18:30:13Z</time>
      </trkpt>
      <trkpt lat="46.54001" lon="3.1772">
        <ele>332.7</ele>
        <time>2014-05-19T18:30:13Z</time>
      </trkpt>
      <trkpt lat="46.54009" lon="3.17715">
        <ele>332.7</ele>
        <time>2014-05-19T18:30:14Z</time>
      </trkpt>
      <trkpt lat="46.54016" lon="3.17711">
        <ele>332.8</ele>
        <time>2014-05-19T18:30:15Z</time>
      </trkpt>
      <trkpt lat="46.54023" lon="3.17702">
        <ele>332.9</ele>
        <time>2014-05-19T18:30:21Z</time>
      </trkpt>
      <trkpt lat="46.54021" lon="3.17688">
        <ele>333.1</ele>
        <time>2014-05-19T18:30:23Z</time>
      </trkpt>
      <trkpt lat="46.54016" lon="3.17671">
        <ele>333.3</ele>
        <time>2014-05-19T18:30:25Z</time>
      </trkpt>
      <trkpt lat="46.54013" lon="3.17659">
        <ele>333.4</ele>
        <time>2014-05-19T18:30:27Z</time>
      </trkpt>
      <trkpt lat="46.54011" lon="3.17644">
        <ele>333.6</ele>
        <time>2014-05-19T18:30:27Z</time>
      </trkpt>
      <trkpt lat="46.54012" lon="3.17628">
        <ele>333.8</ele>
        <time>2014-05-19T18:30:29Z</time>
      </trkpt>
      <trkpt lat="46.54012" lon="3.17613">
        <ele>333.9</ele>
        <time>2014-05-19T18:30:29Z</time>
      </trkpt>
      <trkpt lat="46.54018" lon="3.17594">
        <ele>334</ele>
        <time>2014-05-19T18:30:31Z</time>
      </trkpt>
      <trkpt lat="46.54023" lon="3.17575">
        <ele>334.1</ele>
        <time>2014-05-19T18:30:32Z</time>
      </trkpt>
      <trkpt lat="46.54028" lon="3.17557">
        <ele>334.1</ele>
        <time>2014-05-19T18:30:32Z</time>
      </trkpt>
      <trkpt lat="46.54033" lon="3.17538">
        <ele>334</ele>
        <time>2014-05-19T18:30:33Z</time>
      </trkpt>
      <trkpt lat="46.54036" lon="3.17517">
        <ele>333.9</ele>
        <time>2014-05-19T18:30:35Z</time>
      </trkpt>
      <trkpt lat="46.5404" lon="3.17496">
        <ele>333.8</ele>
        <time>2014-05-19T18:30:35Z</time>
      </trkpt>
      <trkpt lat="46.54043" lon="3.17472">
        <ele>333.5</ele>
        <time>2014-05-19T18:30:36Z</time>
      </trkpt>
      <trkpt lat="46.54046" lon="3.17449">
        <ele>333.5</ele>
        <time>2014-05-19T18:30:37Z</time>
      </trkpt>
      <trkpt lat="46.54049" lon="3.17426">
        <ele>333.4</ele>
        <time>2014-05-19T18:30:39Z</time>
      </trkpt>
      <trkpt lat="46.54053" lon="3.17404">
        <ele>333.5</ele>
        <time>2014-05-19T18:30:40Z</time>
      </trkpt>
      <trkpt lat="46.54056" lon="3.17382">
        <ele>333.6</ele>
        <time>2014-05-19T18:30:41Z</time>
      </trkpt>
      <trkpt lat="46.54059" lon="3.1736">
        <ele>333.8</ele>
        <time>2014-05-19T18:30:41Z</time>
      </trkpt>
      <trkpt lat="46.54057" lon="3.17338">
        <ele>334</ele>
        <time>2014-05-19T18:30:43Z</time>
      </trkpt>
      <trkpt lat="46.54057" lon="3.17315">
        <ele>334.3</ele>
        <time>2014-05-19T18:30:43Z</time>
      </trkpt>
      <trkpt lat="46.54053" lon="3.17292">
        <ele>334.5</ele>
        <time>2014-05-19T18:30:44Z</time>
      </trkpt>
      <trkpt lat="46.54052" lon="3.17269">
        <ele>334.7</ele>
        <time>2014-05-19T18:30:45Z</time>
      </trkpt>
      <trkpt lat="46.5405" lon="3.17247">
        <ele>335</ele>
        <time>2014-05-19T18:30:46Z</time>
      </trkpt>
      <trkpt lat="46.54049" lon="3.17226">
        <ele>335.4</ele>
        <time>2014-05-19T18:30:48Z</time>
      </trkpt>
      <trkpt lat="46.54048" lon="3.17205">
        <ele>335.7</ele>
        <time>2014-05-19T18:30:48Z</time>
      </trkpt>
      <trkpt lat="46.54048" lon="3.17184">
        <ele>336</ele>
        <time>2014-05-19T18:30:49Z</time>
      </trkpt>
      <trkpt lat="46.5405" lon="3.17164">
        <ele>336.2</ele>
        <time>2014-05-19T18:30:50Z</time>
      </trkpt>
      <trkpt lat="46.54051" lon="3.17144">
        <ele>336.5</ele>
        <time>2014-05-19T18:30:51Z</time>
      </trkpt>
      <trkpt lat="46.54047" lon="3.17124">
        <ele>336.7</ele>
        <time>2014-05-19T18:30:53Z</time>
      </trkpt>
      <trkpt lat="46.54044" lon="3.17103">
        <ele>336.9</ele>
        <time>2014-05-19T18:30:53Z</time>
      </trkpt>
      <trkpt lat="46.54036" lon="3.17083">
        <ele>337</ele>
        <time>2014-05-19T18:30:55Z</time>
      </trkpt>
      <trkpt lat="46.5403" lon="3.17062">
        <ele>337.1</ele>
        <time>2014-05-19T18:30:55Z</time>
      </trkpt>
      <trkpt lat="46.54024" lon="3.17039">
        <ele>337.3</ele>
        <time>2014-05-19T18:30:57Z</time>
      </trkpt>
      <trkpt lat="46.54018" lon="3.17017">
        <ele>337.5</ele>
        <time>2014-05-19T18:30:57Z</time>
      </trkpt>
      <trkpt lat="46.54018" lon="3.16992">
        <ele>337.6</ele>
        <time>2014-05-19T18:30:59Z</time>
      </trkpt>
      <trkpt lat="46.54017" lon="3.16967">
        <ele>337.7</ele>
        <time>2014-05-19T18:30:59Z</time>
      </trkpt>
      <trkpt lat="46.54016" lon="3.16942">
        <ele>337.8</ele>
        <time>2014-05-19T18:31:01Z</time>
      </trkpt>
      <trkpt lat="46.54014" lon="3.16917">
        <ele>337.9</ele>
        <time>2014-05-19T18:31:01Z</time>
      </trkpt>
      <trkpt lat="46.5401" lon="3.16894">
        <ele>337.9</ele>
        <time>2014-05-19T18:31:03Z</time>
      </trkpt>
      <trkpt lat="46.54006" lon="3.1687">
        <ele>337.9</ele>
        <time>2014-05-19T18:31:04Z</time>
      </trkpt>
      <trkpt lat="46.54002" lon="3.16847">
        <ele>338</ele>
        <time>2014-05-19T18:31:04Z</time>
      </trkpt>
      <trkpt lat="46.53998" lon="3.16824">
        <ele>338.1</ele>
        <time>2014-05-19T18:31:05Z</time>
      </trkpt>
      <trkpt lat="46.53997" lon="3.16802">
        <ele>338.2</ele>
        <time>2014-05-19T18:31:07Z</time>
      </trkpt>
      <trkpt lat="46.53996" lon="3.16778">
        <ele>338.4</ele>
        <time>2014-05-19T18:31:08Z</time>
      </trkpt>
      <trkpt lat="46.53996" lon="3.16755">
        <ele>338.5</ele>
        <time>2014-05-19T18:31:08Z</time>
      </trkpt>
      <trkpt lat="46.53996" lon="3.16732">
        <ele>338.6</ele>
        <time>2014-05-19T18:31:09Z</time>
      </trkpt>
      <trkpt lat="46.53996" lon="3.16708">
        <ele>338.7</ele>
        <time>2014-05-19T18:31:11Z</time>
      </trkpt>
      <trkpt lat="46.53996" lon="3.16685">
        <ele>338.8</ele>
        <time>2014-05-19T18:31:12Z</time>
      </trkpt>
      <trkpt lat="46.53995" lon="3.16661">
        <ele>338.9</ele>
        <time>2014-05-19T18:31:13Z</time>
      </trkpt>
      <trkpt lat="46.53994" lon="3.16638">
        <ele>339</ele>
        <time>2014-05-19T18:31:13Z</time>
      </trkpt>
      <trkpt lat="46.53997" lon="3.16614">
        <ele>339</ele>
        <time>2014-05-19T18:31:14Z</time>
      </trkpt>
      <trkpt lat="46.53998" lon="3.16591">
        <ele>339</ele>
        <time>2014-05-19T18:31:16Z</time>
      </trkpt>
      <trkpt lat="46.54" lon="3.16568">
        <ele>339</ele>
        <time>2014-05-19T18:31:17Z</time>
      </trkpt>
      <trkpt lat="46.54001" lon="3.16545">
        <ele>338.9</ele>
        <time>2014-05-19T18:31:17Z</time>
      </trkpt>
      <trkpt lat="46.54003" lon="3.16522">
        <ele>338.8</ele>
        <time>2014-05-19T18:31:18Z</time>
      </trkpt>
      <trkpt lat="46.54006" lon="3.165">
        <ele>338.7</ele>
        <time>2014-05-19T18:31:20Z</time>
      </trkpt>
      <trkpt lat="46.5401" lon="3.16478">
        <ele>338.7</ele>
        <time>2014-05-19T18:31:21Z</time>
      </trkpt>
      <trkpt lat="46.54013" lon="3.16456">
        <ele>338.7</ele>
        <time>2014-05-19T18:31:22Z</time>
      </trkpt>
      <trkpt lat="46.54017" lon="3.16436">
        <ele>338.6</ele>
        <time>2014-05-19T18:31:22Z</time>
      </trkpt>
      <trkpt lat="46.54023" lon="3.16417">
        <ele>338.6</ele>
        <time>2014-05-19T18:31:23Z</time>
      </trkpt>
      <trkpt lat="46.54027" lon="3.16398">
        <ele>338.5</ele>
        <time>2014-05-19T18:31:25Z</time>
      </trkpt>
      <trkpt lat="46.54032" lon="3.16378">
        <ele>338.4</ele>
        <time>2014-05-19T18:31:25Z</time>
      </trkpt>
      <trkpt lat="46.54038" lon="3.16359">
        <ele>338.3</ele>
        <time>2014-05-19T18:31:26Z</time>
      </trkpt>
      <trkpt lat="46.54043" lon="3.16339">
        <ele>338.2</ele>
        <time>2014-05-19T18:31:27Z</time>
      </trkpt>
      <trkpt lat="46.54048" lon="3.16318">
        <ele>338</ele>
        <time>2014-05-19T18:31:29Z</time>
      </trkpt>
      <trkpt lat="46.54054" lon="3.16297">
        <ele>337.8</ele>
        <time>2014-05-19T18:31:29Z</time>
      </trkpt>
      <trkpt lat="46.54059" lon="3.16276">
        <ele>337.6</ele>
        <time>2014-05-19T18:31:31Z</time>
      </trkpt>
      <trkpt lat="46.54065" lon="3.16255">
        <ele>337.5</ele>
        <time>2014-05-19T18:31:31Z</time>
      </trkpt>
      <trkpt lat="46.54071" lon="3.16233">
        <ele>337.3</ele>
        <time>2014-05-19T18:31:33Z</time>
      </trkpt>
      <trkpt lat="46.54077" lon="3.16211">
        <ele>337</ele>
        <time>2014-05-19T18:31:33Z</time>
      </trkpt>
      <trkpt lat="46.54082" lon="3.16189">
        <ele>336.7</ele>
        <time>2014-05-19T18:31:34Z</time>
      </trkpt>
      <trkpt lat="46.54088" lon="3.16166">
        <ele>336.4</ele>
        <time>2014-05-19T18:31:35Z</time>
      </trkpt>
      <trkpt lat="46.54095" lon="3.16144">
        <ele>336.2</ele>
        <time>2014-05-19T18:31:36Z</time>
      </trkpt>
      <trkpt lat="46.541" lon="3.16121">
        <ele>335.9</ele>
        <time>2014-05-19T18:31:37Z</time>
      </trkpt>
      <trkpt lat="46.54104" lon="3.16097">
        <ele>335.8</ele>
        <time>2014-05-19T18:31:38Z</time>
      </trkpt>
      <trkpt lat="46.54109" lon="3.16074">
        <ele>335.6</ele>
        <time>2014-05-19T18:31:39Z</time>
      </trkpt>
      <trkpt lat="46.54114" lon="3.16051">
        <ele>335.4</ele>
        <time>2014-05-19T18:31:41Z</time>
      </trkpt>
      <trkpt lat="46.54119" lon="3.16027">
        <ele>335.3</ele>
        <time>2014-05-19T18:31:42Z</time>
      </trkpt>
      <trkpt lat="46.54126" lon="3.16009">
        <ele>335</ele>
        <time>2014-05-19T18:31:43Z</time>
      </trkpt>
      <trkpt lat="46.54132" lon="3.15991">
        <ele>334.8</ele>
        <time>2014-05-19T18:31:44Z</time>
      </trkpt>
      <trkpt lat="46.54141" lon="3.15977">
        <ele>334.6</ele>
        <time>2014-05-19T18:31:45Z</time>
      </trkpt>
      <trkpt lat="46.5415" lon="3.15961">
        <ele>334.2</ele>
        <time>2014-05-19T18:31:46Z</time>
      </trkpt>
      <trkpt lat="46.54167" lon="3.15955">
        <ele>333.9</ele>
        <time>2014-05-19T18:31:47Z</time>
      </trkpt>
      <trkpt lat="46.5418" lon="3.15944">
        <ele>333.6</ele>
        <time>2014-05-19T18:31:48Z</time>
      </trkpt>
      <trkpt lat="46.54196" lon="3.15934">
        <ele>333.2</ele>
        <time>2014-05-19T18:31:49Z</time>
      </trkpt>
      <trkpt lat="46.5421" lon="3.15923">
        <ele>332.8</ele>
        <time>2014-05-19T18:31:50Z</time>
      </trkpt>
      <trkpt lat="46.54227" lon="3.1591">
        <ele>332.5</ele>
        <time>2014-05-19T18:31:51Z</time>
      </trkpt>
      <trkpt lat="46.54242" lon="3.15898">
        <ele>332.2</ele>
        <time>2014-05-19T18:31:52Z</time>
      </trkpt>
      <trkpt lat="46.54257" lon="3.15886">
        <ele>331.8</ele>
        <time>2014-05-19T18:31:53Z</time>
      </trkpt>
      <trkpt lat="46.54272" lon="3.15874">
        <ele>331.5</ele>
        <time>2014-05-19T18:31:54Z</time>
      </trkpt>
      <trkpt lat="46.54286" lon="3.15859">
        <ele>331.3</ele>
        <time>2014-05-19T18:31:55Z</time>
      </trkpt>
      <trkpt lat="46.543" lon="3.15845">
        <ele>331</ele>
        <time>2014-05-19T18:31:56Z</time>
      </trkpt>
      <trkpt lat="46.54312" lon="3.15825">
        <ele>330.8</ele>
        <time>2014-05-19T18:31:57Z</time>
      </trkpt>
      <trkpt lat="46.54325" lon="3.15808">
        <ele>330.6</ele>
        <time>2014-05-19T18:31:58Z</time>
      </trkpt>
      <trkpt lat="46.54334" lon="3.15788">
        <ele>330.4</ele>
        <time>2014-05-19T18:31:59Z</time>
      </trkpt>
      <trkpt lat="46.54346" lon="3.15769">
        <ele>330.3</ele>
        <time>2014-05-19T18:32:00Z</time>
      </trkpt>
      <trkpt lat="46.5435" lon="3.1575">
        <ele>330.1</ele>
        <time>2014-05-19T18:32:01Z</time>
      </trkpt>
      <trkpt lat="46.54355" lon="3.15731">
        <ele>330.1</ele>
        <time>2014-05-19T18:32:02Z</time>
      </trkpt>
      <trkpt lat="46.54359" lon="3.15711">
        <ele>329.9</ele>
        <time>2014-05-19T18:32:03Z</time>
      </trkpt>
      <trkpt lat="46.54363" lon="3.1569">
        <ele>329.8</ele>
        <time>2014-05-19T18:32:04Z</time>
      </trkpt>
      <trkpt lat="46.54367" lon="3.15663">
        <ele>329.6</ele>
        <time>2014-05-19T18:32:05Z</time>
      </trkpt>
      <trkpt lat="46.54371" lon="3.15638">
        <ele>329.5</ele>
        <time>2014-05-19T18:32:06Z</time>
      </trkpt>
      <trkpt lat="46.54376" lon="3.15611">
        <ele>329.5</ele>
        <time>2014-05-19T18:32:07Z</time>
      </trkpt>
      <trkpt lat="46.54381" lon="3.15584">
        <ele>329.5</ele>
        <time>2014-05-19T18:32:08Z</time>
      </trkpt>
      <trkpt lat="46.54386" lon="3.15555">
        <ele>329.6</ele>
        <time>2014-05-19T18:32:09Z</time>
      </trkpt>
      <trkpt lat="46.54391" lon="3.15528">
        <ele>329.6</ele>
        <time>2014-05-19T18:32:10Z</time>
      </trkpt>
      <trkpt lat="46.54396" lon="3.15501">
        <ele>329.7</ele>
        <time>2014-05-19T18:32:11Z</time>
      </trkpt>
      <trkpt lat="46.54401" lon="3.15474">
        <ele>329.7</ele>
        <time>2014-05-19T18:32:12Z</time>
      </trkpt>
      <trkpt lat="46.54405" lon="3.15451">
        <ele>329.8</ele>
        <time>2014-05-19T18:32:13Z</time>
      </trkpt>
      <trkpt lat="46.5441" lon="3.15427">
        <ele>329.9</ele>
        <time>2014-05-19T18:32:14Z</time>
      </trkpt>
      <trkpt lat="46.54411" lon="3.15407">
        <ele>330</ele>
        <time>2014-05-19T18:32:15Z</time>
      </trkpt>
      <trkpt lat="46.5441" lon="3.15385">
        <ele>330.1</ele>
        <time>2014-05-19T18:32:16Z</time>
      </trkpt>
      <trkpt lat="46.54409" lon="3.15362">
        <ele>330.2</ele>
        <time>2014-05-19T18:32:17Z</time>
      </trkpt>
      <trkpt lat="46.54407" lon="3.15339">
        <ele>330.2</ele>
        <time>2014-05-19T18:32:18Z</time>
      </trkpt>
      <trkpt lat="46.54403" lon="3.15314">
        <ele>330.1</ele>
        <time>2014-05-19T18:32:19Z</time>
      </trkpt>
      <trkpt lat="46.544" lon="3.1529">
        <ele>329.9</ele>
        <time>2014-05-19T18:32:20Z</time>
      </trkpt>
      <trkpt lat="46.54398" lon="3.15267">
        <ele>329.7</ele>
        <time>2014-05-19T18:32:21Z</time>
      </trkpt>
      <trkpt lat="46.54395" lon="3.15244">
        <ele>329.5</ele>
        <time>2014-05-19T18:32:22Z</time>
      </trkpt>
      <trkpt lat="46.54391" lon="3.15223">
        <ele>329.2</ele>
        <time>2014-05-19T18:32:23Z</time>
      </trkpt>
      <trkpt lat="46.54388" lon="3.15201">
        <ele>328.9</ele>
        <time>2014-05-19T18:32:24Z</time>
      </trkpt>
      <trkpt lat="46.54383" lon="3.15177">
        <ele>328.5</ele>
        <time>2014-05-19T18:32:25Z</time>
      </trkpt>
      <trkpt lat="46.54378" lon="3.15154">
        <ele>328</ele>
        <time>2014-05-19T18:32:26Z</time>
      </trkpt>
      <trkpt lat="46.54374" lon="3.15131">
        <ele>327.4</ele>
        <time>2014-05-19T18:32:27Z</time>
      </trkpt>
      <trkpt lat="46.54368" lon="3.15107">
        <ele>326.8</ele>
        <time>2014-05-19T18:32:28Z</time>
      </trkpt>
      <trkpt lat="46.54363" lon="3.15084">
        <ele>326.1</ele>
        <time>2014-05-19T18:32:29Z</time>
      </trkpt>
      <trkpt lat="46.54357" lon="3.15062">
        <ele>325.5</ele>
        <time>2014-05-19T18:32:30Z</time>
      </trkpt>
      <trkpt lat="46.54351" lon="3.15038">
        <ele>325</ele>
        <time>2014-05-19T18:32:31Z</time>
      </trkpt>
      <trkpt lat="46.54343" lon="3.15017">
        <ele>324.4</ele>
        <time>2014-05-19T18:32:32Z</time>
      </trkpt>
      <trkpt lat="46.54333" lon="3.14996">
        <ele>323.9</ele>
        <time>2014-05-19T18:32:33Z</time>
      </trkpt>
      <trkpt lat="46.54323" lon="3.14975">
        <ele>323.3</ele>
        <time>2014-05-19T18:32:34Z</time>
      </trkpt>
      <trkpt lat="46.54312" lon="3.14955">
        <ele>322.8</ele>
        <time>2014-05-19T18:32:35Z</time>
      </trkpt>
      <trkpt lat="46.54302" lon="3.14934">
        <ele>322.3</ele>
        <time>2014-05-19T18:32:36Z</time>
      </trkpt>
      <trkpt lat="46.54291" lon="3.14914">
        <ele>321.7</ele>
        <time>2014-05-19T18:32:37Z</time>
      </trkpt>
      <trkpt lat="46.54281" lon="3.14893">
        <ele>320.9</ele>
        <time>2014-05-19T18:32:38Z</time>
      </trkpt>
      <trkpt lat="46.54273" lon="3.14873">
        <ele>319.8</ele>
        <time>2014-05-19T18:32:39Z</time>
      </trkpt>
      <trkpt lat="46.54264" lon="3.14853">
        <ele>318.7</ele>
        <time>2014-05-19T18:32:40Z</time>
      </trkpt>
      <trkpt lat="46.54256" lon="3.14835">
        <ele>317.5</ele>
        <time>2014-05-19T18:32:41Z</time>
      </trkpt>
      <trkpt lat="46.54252" lon="3.14815">
        <ele>316.1</ele>
        <time>2014-05-19T18:32:42Z</time>
      </trkpt>
      <trkpt lat="46.54251" lon="3.14798">
        <ele>314.7</ele>
        <time>2014-05-19T18:32:43Z</time>
      </trkpt>
      <trkpt lat="46.54254" lon="3.14781">
        <ele>313.1</ele>
        <time>2014-05-19T18:32:44Z</time>
      </trkpt>
      <trkpt lat="46.54257" lon="3.14763">
        <ele>311.5</ele>
        <time>2014-05-19T18:32:45Z</time>
      </trkpt>
      <trkpt lat="46.54264" lon="3.14744">
        <ele>309.9</ele>
        <time>2014-05-19T18:32:46Z</time>
      </trkpt>
      <trkpt lat="46.54274" lon="3.14725">
        <ele>308.3</ele>
        <time>2014-05-19T18:32:47Z</time>
      </trkpt>
      <trkpt lat="46.54283" lon="3.14705">
        <ele>306.7</ele>
        <time>2014-05-19T18:32:48Z</time>
      </trkpt>
      <trkpt lat="46.5429" lon="3.14688">
        <ele>305.5</ele>
        <time>2014-05-19T18:32:49Z</time>
      </trkpt>
      <trkpt lat="46.54297" lon="3.14672">
        <ele>304.6</ele>
        <time>2014-05-19T18:32:50Z</time>
      </trkpt>
      <trkpt lat="46.54303" lon="3.14659">
        <ele>303.7</ele>
        <time>2014-05-19T18:32:51Z</time>
      </trkpt>
      <trkpt lat="46.54311" lon="3.14641">
        <ele>302.9</ele>
        <time>2014-05-19T18:32:53Z</time>
      </trkpt>
      <trkpt lat="46.54319" lon="3.14629">
        <ele>302.2</ele>
        <time>2014-05-19T18:32:55Z</time>
      </trkpt>
      <trkpt lat="46.54324" lon="3.14621">
        <ele>301.5</ele>
        <time>2014-05-19T18:32:58Z</time>
      </trkpt>
      <trkpt lat="46.54332" lon="3.14612">
        <ele>301</ele>
        <time>2014-05-19T18:33:10Z</time>
      </trkpt>
      <trkpt lat="46.54339" lon="3.14601">
        <ele>300.2</ele>
        <time>2014-05-19T18:33:13Z</time>
      </trkpt>
      <trkpt lat="46.54345" lon="3.14592">
        <ele>299.5</ele>
        <time>2014-05-19T18:33:14Z</time>
      </trkpt>
      <trkpt lat="46.54358" lon="3.14575">
        <ele>298.7</ele>
        <time>2014-05-19T18:33:16Z</time>
      </trkpt>
      <trkpt lat="46.54366" lon="3.14563">
        <ele>298</ele>
        <time>2014-05-19T18:33:17Z</time>
      </trkpt>
      <trkpt lat="46.54373" lon="3.14549">
        <ele>297.2</ele>
        <time>2014-05-19T18:33:18Z</time>
      </trkpt>
      <trkpt lat="46.54381" lon="3.14533">
        <ele>296.5</ele>
        <time>2014-05-19T18:33:19Z</time>
      </trkpt>
      <trkpt lat="46.54388" lon="3.14515">
        <ele>295.8</ele>
        <time>2014-05-19T18:33:20Z</time>
      </trkpt>
      <trkpt lat="46.54395" lon="3.14495">
        <ele>295.3</ele>
        <time>2014-05-19T18:33:21Z</time>
      </trkpt>
      <trkpt lat="46.54403" lon="3.14475">
        <ele>294.8</ele>
        <time>2014-05-19T18:33:22Z</time>
      </trkpt>
      <trkpt lat="46.54411" lon="3.14454">
        <ele>294.5</ele>
        <time>2014-05-19T18:33:23Z</time>
      </trkpt>
      <trkpt lat="46.54418" lon="3.14432">
        <ele>294.3</ele>
        <time>2014-05-19T18:33:24Z</time>
      </trkpt>
      <trkpt lat="46.54427" lon="3.1441">
        <ele>294.3</ele>
        <time>2014-05-19T18:33:25Z</time>
      </trkpt>
      <trkpt lat="46.54435" lon="3.14387">
        <ele>294.4</ele>
        <time>2014-05-19T18:33:26Z</time>
      </trkpt>
      <trkpt lat="46.54443" lon="3.14365">
        <ele>294.6</ele>
        <time>2014-05-19T18:33:27Z</time>
      </trkpt>
      <trkpt lat="46.5445" lon="3.14342">
        <ele>294.9</ele>
        <time>2014-05-19T18:33:28Z</time>
      </trkpt>
      <trkpt lat="46.54458" lon="3.14319">
        <ele>295.2</ele>
        <time>2014-05-19T18:33:29Z</time>
      </trkpt>
      <trkpt lat="46.54467" lon="3.14296">
        <ele>295.5</ele>
        <time>2014-05-19T18:33:30Z</time>
      </trkpt>
      <trkpt lat="46.54475" lon="3.14273">
        <ele>295.8</ele>
        <time>2014-05-19T18:33:31Z</time>
      </trkpt>
      <trkpt lat="46.54483" lon="3.1425">
        <ele>296.2</ele>
        <time>2014-05-19T18:33:32Z</time>
      </trkpt>
      <trkpt lat="46.54491" lon="3.14227">
        <ele>296.5</ele>
        <time>2014-05-19T18:33:33Z</time>
      </trkpt>
      <trkpt lat="46.54498" lon="3.14204">
        <ele>296.8</ele>
        <time>2014-05-19T18:33:34Z</time>
      </trkpt>
      <trkpt lat="46.54506" lon="3.14181">
        <ele>297.2</ele>
        <time>2014-05-19T18:33:35Z</time>
      </trkpt>
      <trkpt lat="46.54514" lon="3.14159">
        <ele>297.6</ele>
        <time>2014-05-19T18:33:36Z</time>
      </trkpt>
      <trkpt lat="46.54521" lon="3.14138">
        <ele>298.1</ele>
        <time>2014-05-19T18:33:37Z</time>
      </trkpt>
      <trkpt lat="46.54528" lon="3.14117">
        <ele>298.5</ele>
        <time>2014-05-19T18:33:38Z</time>
      </trkpt>
      <trkpt lat="46.54532" lon="3.14096">
        <ele>298.9</ele>
        <time>2014-05-19T18:33:39Z</time>
      </trkpt>
      <trkpt lat="46.54536" lon="3.14074">
        <ele>299.3</ele>
        <time>2014-05-19T18:33:40Z</time>
      </trkpt>
      <trkpt lat="46.54538" lon="3.14052">
        <ele>299.8</ele>
        <time>2014-05-19T18:33:41Z</time>
      </trkpt>
      <trkpt lat="46.54541" lon="3.14032">
        <ele>300.1</ele>
        <time>2014-05-19T18:33:42Z</time>
      </trkpt>
      <trkpt lat="46.54544" lon="3.14011">
        <ele>300.5</ele>
        <time>2014-05-19T18:33:43Z</time>
      </trkpt>
      <trkpt lat="46.54547" lon="3.13991">
        <ele>300.9</ele>
        <time>2014-05-19T18:33:44Z</time>
      </trkpt>
      <trkpt lat="46.54549" lon="3.13971">
        <ele>301.3</ele>
        <time>2014-05-19T18:33:45Z</time>
      </trkpt>
      <trkpt lat="46.54551" lon="3.1395">
        <ele>301.7</ele>
        <time>2014-05-19T18:33:46Z</time>
      </trkpt>
      <trkpt lat="46.54553" lon="3.13931">
        <ele>302.1</ele>
        <time>2014-05-19T18:33:47Z</time>
      </trkpt>
      <trkpt lat="46.54556" lon="3.13914">
        <ele>302.4</ele>
        <time>2014-05-19T18:33:48Z</time>
      </trkpt>
      <trkpt lat="46.5456" lon="3.13898">
        <ele>302.8</ele>
        <time>2014-05-19T18:33:49Z</time>
      </trkpt>
      <trkpt lat="46.54566" lon="3.13884">
        <ele>303.1</ele>
        <time>2014-05-19T18:33:50Z</time>
      </trkpt>
      <trkpt lat="46.54573" lon="3.13871">
        <ele>303.5</ele>
        <time>2014-05-19T18:33:51Z</time>
      </trkpt>
      <trkpt lat="46.5458" lon="3.1386">
        <ele>303.9</ele>
        <time>2014-05-19T18:33:52Z</time>
      </trkpt>
      <trkpt lat="46.5459" lon="3.1385">
        <ele>304.4</ele>
        <time>2014-05-19T18:33:53Z</time>
      </trkpt>
      <trkpt lat="46.54602" lon="3.13839">
        <ele>304.8</ele>
        <time>2014-05-19T18:33:54Z</time>
      </trkpt>
      <trkpt lat="46.54614" lon="3.13828">
        <ele>305.2</ele>
        <time>2014-05-19T18:33:55Z</time>
      </trkpt>
      <trkpt lat="46.54626" lon="3.13817">
        <ele>305.5</ele>
        <time>2014-05-19T18:33:56Z</time>
      </trkpt>
      <trkpt lat="46.54638" lon="3.13806">
        <ele>305.8</ele>
        <time>2014-05-19T18:33:57Z</time>
      </trkpt>
      <trkpt lat="46.54651" lon="3.13795">
        <ele>306.1</ele>
        <time>2014-05-19T18:33:58Z</time>
      </trkpt>
      <trkpt lat="46.54663" lon="3.13783">
        <ele>306.4</ele>
        <time>2014-05-19T18:33:59Z</time>
      </trkpt>
      <trkpt lat="46.54676" lon="3.13769">
        <ele>306.7</ele>
        <time>2014-05-19T18:34:00Z</time>
      </trkpt>
      <trkpt lat="46.54689" lon="3.13756">
        <ele>307</ele>
        <time>2014-05-19T18:34:01Z</time>
      </trkpt>
      <trkpt lat="46.54702" lon="3.13742">
        <ele>307.3</ele>
        <time>2014-05-19T18:34:02Z</time>
      </trkpt>
      <trkpt lat="46.54715" lon="3.1373">
        <ele>307.5</ele>
        <time>2014-05-19T18:34:03Z</time>
      </trkpt>
      <trkpt lat="46.54726" lon="3.13719">
        <ele>307.5</ele>
        <time>2014-05-19T18:34:04Z</time>
      </trkpt>
      <trkpt lat="46.54736" lon="3.1371">
        <ele>307.5</ele>
        <time>2014-05-19T18:34:05Z</time>
      </trkpt>
      <trkpt lat="46.54746" lon="3.13703">
        <ele>307.6</ele>
        <time>2014-05-19T18:34:06Z</time>
      </trkpt>
      <trkpt lat="46.54753" lon="3.13697">
        <ele>307.7</ele>
        <time>2014-05-19T18:34:07Z</time>
      </trkpt>
      <trkpt lat="46.54761" lon="3.1369">
        <ele>307.9</ele>
        <time>2014-05-19T18:34:09Z</time>
      </trkpt>
      <trkpt lat="46.54762" lon="3.13687">
        <ele>307.9</ele>
        <time>2014-05-19T18:34:19Z</time>
      </trkpt>
      <trkpt lat="46.5478" lon="3.13673">
        <ele>307.9</ele>
        <time>2014-05-19T18:34:24Z</time>
      </trkpt>
      <trkpt lat="46.5478" lon="3.13673">
        <ele>307.7</ele>
        <time>2014-05-19T18:34:24Z</time>
      </trkpt>
      <trkpt lat="46.54791" lon="3.13665">
        <ele>307.8</ele>
        <time>2014-05-19T18:34:26Z</time>
      </trkpt>
      <trkpt lat="46.54802" lon="3.13655">
        <ele>307.8</ele>
        <time>2014-05-19T18:34:28Z</time>
      </trkpt>
      <trkpt lat="46.54815" lon="3.13645">
        <ele>307.8</ele>
        <time>2014-05-19T18:34:30Z</time>
      </trkpt>
      <trkpt lat="46.54823" lon="3.13639">
        <ele>307.8</ele>
        <time>2014-05-19T18:34:31Z</time>
      </trkpt>
      <trkpt lat="46.54831" lon="3.13633">
        <ele>307.7</ele>
        <time>2014-05-19T18:34:32Z</time>
      </trkpt>
      <trkpt lat="46.54838" lon="3.13627">
        <ele>307.7</ele>
        <time>2014-05-19T18:34:33Z</time>
      </trkpt>
      <trkpt lat="46.54845" lon="3.13622">
        <ele>307.7</ele>
        <time>2014-05-19T18:34:34Z</time>
      </trkpt>
      <trkpt lat="46.54857" lon="3.1361">
        <ele>308.2</ele>
        <time>2014-05-19T18:34:36Z</time>
      </trkpt>
      <trkpt lat="46.54869" lon="3.13601">
        <ele>308.8</ele>
        <time>2014-05-19T18:34:38Z</time>
      </trkpt>
      <trkpt lat="46.54877" lon="3.13595">
        <ele>309.3</ele>
        <time>2014-05-19T18:34:40Z</time>
      </trkpt>
      <trkpt lat="46.54884" lon="3.13587">
        <ele>309.8</ele>
        <time>2014-05-19T18:34:43Z</time>
      </trkpt>
      <trkpt lat="46.54889" lon="3.13575">
        <ele>310.3</ele>
        <time>2014-05-19T18:34:50Z</time>
      </trkpt>
      <trkpt lat="46.54898" lon="3.1357">
        <ele>310.6</ele>
        <time>2014-05-19T18:34:59Z</time>
      </trkpt>
      <trkpt lat="46.54908" lon="3.1356">
        <ele>310.8</ele>
        <time>2014-05-19T18:35:02Z</time>
      </trkpt>
      <trkpt lat="46.54922" lon="3.13554">
        <ele>310.9</ele>
        <time>2014-05-19T18:35:04Z</time>
      </trkpt>
      <trkpt lat="46.54936" lon="3.13547">
        <ele>311.1</ele>
        <time>2014-05-19T18:35:06Z</time>
      </trkpt>
      <trkpt lat="46.54944" lon="3.13543">
        <ele>311.2</ele>
        <time>2014-05-19T18:35:07Z</time>
      </trkpt>
      <trkpt lat="46.54952" lon="3.13539">
        <ele>311.1</ele>
        <time>2014-05-19T18:35:08Z</time>
      </trkpt>
      <trkpt lat="46.5496" lon="3.13535">
        <ele>310.6</ele>
        <time>2014-05-19T18:35:09Z</time>
      </trkpt>
      <trkpt lat="46.54969" lon="3.13531">
        <ele>310.1</ele>
        <time>2014-05-19T18:35:10Z</time>
      </trkpt>
      <trkpt lat="46.54979" lon="3.13526">
        <ele>309.5</ele>
        <time>2014-05-19T18:35:11Z</time>
      </trkpt>
      <trkpt lat="46.54989" lon="3.13522">
        <ele>308.9</ele>
        <time>2014-05-19T18:35:12Z</time>
      </trkpt>
      <trkpt lat="46.55" lon="3.13519">
        <ele>308.2</ele>
        <time>2014-05-19T18:35:13Z</time>
      </trkpt>
      <trkpt lat="46.55009" lon="3.13516">
        <ele>307.5</ele>
        <time>2014-05-19T18:35:14Z</time>
      </trkpt>
      <trkpt lat="46.55022" lon="3.13514">
        <ele>306.9</ele>
        <time>2014-05-19T18:35:15Z</time>
      </trkpt>
      <trkpt lat="46.55034" lon="3.13513">
        <ele>306.2</ele>
        <time>2014-05-19T18:35:16Z</time>
      </trkpt>
      <trkpt lat="46.55044" lon="3.13512">
        <ele>305.6</ele>
        <time>2014-05-19T18:35:17Z</time>
      </trkpt>
      <trkpt lat="46.55055" lon="3.13511">
        <ele>304.9</ele>
        <time>2014-05-19T18:35:18Z</time>
      </trkpt>
      <trkpt lat="46.55067" lon="3.13511">
        <ele>304.1</ele>
        <time>2014-05-19T18:35:19Z</time>
      </trkpt>
      <trkpt lat="46.55078" lon="3.1351">
        <ele>303.3</ele>
        <time>2014-05-19T18:35:20Z</time>
      </trkpt>
      <trkpt lat="46.55088" lon="3.13508">
        <ele>302.5</ele>
        <time>2014-05-19T18:35:21Z</time>
      </trkpt>
      <trkpt lat="46.55099" lon="3.13507">
        <ele>301.7</ele>
        <time>2014-05-19T18:35:22Z</time>
      </trkpt>
      <trkpt lat="46.55107" lon="3.13501">
        <ele>301</ele>
        <time>2014-05-19T18:35:23Z</time>
      </trkpt>
      <trkpt lat="46.55117" lon="3.13497">
        <ele>300.3</ele>
        <time>2014-05-19T18:35:24Z</time>
      </trkpt>
      <trkpt lat="46.55123" lon="3.13488">
        <ele>299.8</ele>
        <time>2014-05-19T18:35:25Z</time>
      </trkpt>
      <trkpt lat="46.55128" lon="3.13478">
        <ele>299.1</ele>
        <time>2014-05-19T18:35:26Z</time>
      </trkpt>
      <trkpt lat="46.55133" lon="3.13467">
        <ele>298.6</ele>
        <time>2014-05-19T18:35:27Z</time>
      </trkpt>
      <trkpt lat="46.55138" lon="3.13456">
        <ele>298.1</ele>
        <time>2014-05-19T18:35:28Z</time>
      </trkpt>
      <trkpt lat="46.5514" lon="3.13442">
        <ele>297.6</ele>
        <time>2014-05-19T18:35:29Z</time>
      </trkpt>
      <trkpt lat="46.55144" lon="3.1343">
        <ele>297.2</ele>
        <time>2014-05-19T18:35:30Z</time>
      </trkpt>
      <trkpt lat="46.55147" lon="3.13416">
        <ele>296.7</ele>
        <time>2014-05-19T18:35:31Z</time>
      </trkpt>
      <trkpt lat="46.55149" lon="3.13402">
        <ele>296.4</ele>
        <time>2014-05-19T18:35:32Z</time>
      </trkpt>
      <trkpt lat="46.55152" lon="3.13388">
        <ele>296</ele>
        <time>2014-05-19T18:35:33Z</time>
      </trkpt>
      <trkpt lat="46.55155" lon="3.13372">
        <ele>295.6</ele>
        <time>2014-05-19T18:35:34Z</time>
      </trkpt>
      <trkpt lat="46.55158" lon="3.13356">
        <ele>295.2</ele>
        <time>2014-05-19T18:35:35Z</time>
      </trkpt>
      <trkpt lat="46.55162" lon="3.13339">
        <ele>294.7</ele>
        <time>2014-05-19T18:35:36Z</time>
      </trkpt>
      <trkpt lat="46.55166" lon="3.13322">
        <ele>294.4</ele>
        <time>2014-05-19T18:35:37Z</time>
      </trkpt>
      <trkpt lat="46.55169" lon="3.13306">
        <ele>294.1</ele>
        <time>2014-05-19T18:35:38Z</time>
      </trkpt>
      <trkpt lat="46.55173" lon="3.13291">
        <ele>293.9</ele>
        <time>2014-05-19T18:35:39Z</time>
      </trkpt>
      <trkpt lat="46.55177" lon="3.13276">
        <ele>293.7</ele>
        <time>2014-05-19T18:35:40Z</time>
      </trkpt>
      <trkpt lat="46.55182" lon="3.13262">
        <ele>293.5</ele>
        <time>2014-05-19T18:35:41Z</time>
      </trkpt>
      <trkpt lat="46.55187" lon="3.13247">
        <ele>293.3</ele>
        <time>2014-05-19T18:35:42Z</time>
      </trkpt>
      <trkpt lat="46.55193" lon="3.13232">
        <ele>293.1</ele>
        <time>2014-05-19T18:35:43Z</time>
      </trkpt>
      <trkpt lat="46.552" lon="3.13218">
        <ele>292.9</ele>
        <time>2014-05-19T18:35:44Z</time>
      </trkpt>
      <trkpt lat="46.55206" lon="3.13204">
        <ele>292.8</ele>
        <time>2014-05-19T18:35:45Z</time>
      </trkpt>
      <trkpt lat="46.55213" lon="3.13191">
        <ele>292.7</ele>
        <time>2014-05-19T18:35:46Z</time>
      </trkpt>
      <trkpt lat="46.5522" lon="3.13179">
        <ele>292.6</ele>
        <time>2014-05-19T18:35:47Z</time>
      </trkpt>
      <trkpt lat="46.55225" lon="3.13167">
        <ele>292.5</ele>
        <time>2014-05-19T18:35:48Z</time>
      </trkpt>
      <trkpt lat="46.55234" lon="3.13148">
        <ele>292.5</ele>
        <time>2014-05-19T18:35:50Z</time>
      </trkpt>
      <trkpt lat="46.55242" lon="3.13127">
        <ele>292.4</ele>
        <time>2014-05-19T18:35:52Z</time>
      </trkpt>
      <trkpt lat="46.55246" lon="3.13105">
        <ele>292.4</ele>
        <time>2014-05-19T18:35:54Z</time>
      </trkpt>
      <trkpt lat="46.55245" lon="3.13081">
        <ele>292.5</ele>
        <time>2014-05-19T18:35:55Z</time>
      </trkpt>
      <trkpt lat="46.55245" lon="3.13062">
        <ele>292.6</ele>
        <time>2014-05-19T18:35:56Z</time>
      </trkpt>
      <trkpt lat="46.55244" lon="3.13043">
        <ele>292.7</ele>
        <time>2014-05-19T18:35:57Z</time>
      </trkpt>
      <trkpt lat="46.55245" lon="3.13024">
        <ele>292.8</ele>
        <time>2014-05-19T18:35:58Z</time>
      </trkpt>
      <trkpt lat="46.55247" lon="3.13003">
        <ele>292.9</ele>
        <time>2014-05-19T18:35:59Z</time>
      </trkpt>
      <trkpt lat="46.5525" lon="3.12982">
        <ele>293.1</ele>
        <time>2014-05-19T18:36:00Z</time>
      </trkpt>
      <trkpt lat="46.55253" lon="3.12961">
        <ele>293.3</ele>
        <time>2014-05-19T18:36:01Z</time>
      </trkpt>
      <trkpt lat="46.55255" lon="3.12941">
        <ele>293.7</ele>
        <time>2014-05-19T18:36:02Z</time>
      </trkpt>
      <trkpt lat="46.55257" lon="3.12922">
        <ele>294.1</ele>
        <time>2014-05-19T18:36:03Z</time>
      </trkpt>
      <trkpt lat="46.55258" lon="3.12903">
        <ele>294.7</ele>
        <time>2014-05-19T18:36:04Z</time>
      </trkpt>
      <trkpt lat="46.5526" lon="3.12883">
        <ele>295.2</ele>
        <time>2014-05-19T18:36:05Z</time>
      </trkpt>
      <trkpt lat="46.55261" lon="3.12862">
        <ele>295.8</ele>
        <time>2014-05-19T18:36:06Z</time>
      </trkpt>
      <trkpt lat="46.5526" lon="3.12841">
        <ele>296.5</ele>
        <time>2014-05-19T18:36:07Z</time>
      </trkpt>
      <trkpt lat="46.55258" lon="3.12819">
        <ele>297.3</ele>
        <time>2014-05-19T18:36:08Z</time>
      </trkpt>
      <trkpt lat="46.55257" lon="3.12797">
        <ele>298.2</ele>
        <time>2014-05-19T18:36:09Z</time>
      </trkpt>
      <trkpt lat="46.55256" lon="3.12774">
        <ele>299.1</ele>
        <time>2014-05-19T18:36:10Z</time>
      </trkpt>
      <trkpt lat="46.55255" lon="3.12752">
        <ele>300</ele>
        <time>2014-05-19T18:36:11Z</time>
      </trkpt>
      <trkpt lat="46.55254" lon="3.12731">
        <ele>300.9</ele>
        <time>2014-05-19T18:36:12Z</time>
      </trkpt>
      <trkpt lat="46.55254" lon="3.1271">
        <ele>301.7</ele>
        <time>2014-05-19T18:36:13Z</time>
      </trkpt>
      <trkpt lat="46.55254" lon="3.12688">
        <ele>302.5</ele>
        <time>2014-05-19T18:36:14Z</time>
      </trkpt>
      <trkpt lat="46.55255" lon="3.12666">
        <ele>303.2</ele>
        <time>2014-05-19T18:36:15Z</time>
      </trkpt>
      <trkpt lat="46.55255" lon="3.12645">
        <ele>304</ele>
        <time>2014-05-19T18:36:16Z</time>
      </trkpt>
      <trkpt lat="46.55256" lon="3.12624">
        <ele>304.8</ele>
        <time>2014-05-19T18:36:17Z</time>
      </trkpt>
      <trkpt lat="46.55256" lon="3.12602">
        <ele>305.4</ele>
        <time>2014-05-19T18:36:18Z</time>
      </trkpt>
      <trkpt lat="46.55256" lon="3.1258">
        <ele>306</ele>
        <time>2014-05-19T18:36:19Z</time>
      </trkpt>
      <trkpt lat="46.55257" lon="3.12558">
        <ele>306.6</ele>
        <time>2014-05-19T18:36:20Z</time>
      </trkpt>
      <trkpt lat="46.55259" lon="3.12537">
        <ele>307.2</ele>
        <time>2014-05-19T18:36:21Z</time>
      </trkpt>
      <trkpt lat="46.55261" lon="3.12516">
        <ele>307.7</ele>
        <time>2014-05-19T18:36:22Z</time>
      </trkpt>
      <trkpt lat="46.55263" lon="3.12495">
        <ele>308.3</ele>
        <time>2014-05-19T18:36:23Z</time>
      </trkpt>
      <trkpt lat="46.55264" lon="3.12474">
        <ele>308.9</ele>
        <time>2014-05-19T18:36:24Z</time>
      </trkpt>
      <trkpt lat="46.55266" lon="3.12453">
        <ele>309.6</ele>
        <time>2014-05-19T18:36:25Z</time>
      </trkpt>
      <trkpt lat="46.55268" lon="3.12431">
        <ele>310.3</ele>
        <time>2014-05-19T18:36:26Z</time>
      </trkpt>
      <trkpt lat="46.55271" lon="3.12408">
        <ele>311.1</ele>
        <time>2014-05-19T18:36:27Z</time>
      </trkpt>
      <trkpt lat="46.55274" lon="3.12385">
        <ele>311.9</ele>
        <time>2014-05-19T18:36:28Z</time>
      </trkpt>
      <trkpt lat="46.55279" lon="3.12364">
        <ele>312.8</ele>
        <time>2014-05-19T18:36:29Z</time>
      </trkpt>
      <trkpt lat="46.55286" lon="3.12341">
        <ele>313.8</ele>
        <time>2014-05-19T18:36:30Z</time>
      </trkpt>
      <trkpt lat="46.55292" lon="3.1232">
        <ele>314.7</ele>
        <time>2014-05-19T18:36:31Z</time>
      </trkpt>
      <trkpt lat="46.55299" lon="3.12299">
        <ele>315.7</ele>
        <time>2014-05-19T18:36:32Z</time>
      </trkpt>
      <trkpt lat="46.55307" lon="3.12279">
        <ele>316.7</ele>
        <time>2014-05-19T18:36:33Z</time>
      </trkpt>
      <trkpt lat="46.55314" lon="3.12258">
        <ele>317.7</ele>
        <time>2014-05-19T18:36:34Z</time>
      </trkpt>
      <trkpt lat="46.55321" lon="3.12237">
        <ele>318.6</ele>
        <time>2014-05-19T18:36:35Z</time>
      </trkpt>
      <trkpt lat="46.55329" lon="3.12217">
        <ele>319.7</ele>
        <time>2014-05-19T18:36:36Z</time>
      </trkpt>
      <trkpt lat="46.55335" lon="3.12197">
        <ele>320.6</ele>
        <time>2014-05-19T18:36:37Z</time>
      </trkpt>
      <trkpt lat="46.55342" lon="3.12177">
        <ele>321.5</ele>
        <time>2014-05-19T18:36:38Z</time>
      </trkpt>
      <trkpt lat="46.55349" lon="3.12157">
        <ele>322.3</ele>
        <time>2014-05-19T18:36:39Z</time>
      </trkpt>
      <trkpt lat="46.55358" lon="3.12138">
        <ele>323.1</ele>
        <time>2014-05-19T18:36:40Z</time>
      </trkpt>
      <trkpt lat="46.55367" lon="3.12121">
        <ele>323.9</ele>
        <time>2014-05-19T18:36:41Z</time>
      </trkpt>
      <trkpt lat="46.55377" lon="3.12104">
        <ele>324.7</ele>
        <time>2014-05-19T18:36:42Z</time>
      </trkpt>
      <trkpt lat="46.55392" lon="3.12093">
        <ele>325.4</ele>
        <time>2014-05-19T18:36:43Z</time>
      </trkpt>
      <trkpt lat="46.55404" lon="3.12079">
        <ele>326.1</ele>
        <time>2014-05-19T18:36:44Z</time>
      </trkpt>
      <trkpt lat="46.5542" lon="3.12068">
        <ele>326.7</ele>
        <time>2014-05-19T18:36:45Z</time>
      </trkpt>
      <trkpt lat="46.55433" lon="3.12056">
        <ele>327.2</ele>
        <time>2014-05-19T18:36:46Z</time>
      </trkpt>
      <trkpt lat="46.55447" lon="3.12043">
        <ele>327.6</ele>
        <time>2014-05-19T18:36:47Z</time>
      </trkpt>
      <trkpt lat="46.5546" lon="3.1203">
        <ele>327.9</ele>
        <time>2014-05-19T18:36:48Z</time>
      </trkpt>
      <trkpt lat="46.55476" lon="3.12017">
        <ele>328</ele>
        <time>2014-05-19T18:36:49Z</time>
      </trkpt>
      <trkpt lat="46.5549" lon="3.12003">
        <ele>328.1</ele>
        <time>2014-05-19T18:36:50Z</time>
      </trkpt>
      <trkpt lat="46.55504" lon="3.1199">
        <ele>328.2</ele>
        <time>2014-05-19T18:36:51Z</time>
      </trkpt>
      <trkpt lat="46.5552" lon="3.11976">
        <ele>328.1</ele>
        <time>2014-05-19T18:36:52Z</time>
      </trkpt>
      <trkpt lat="46.55536" lon="3.11962">
        <ele>327.8</ele>
        <time>2014-05-19T18:36:53Z</time>
      </trkpt>
      <trkpt lat="46.55552" lon="3.11947">
        <ele>327.5</ele>
        <time>2014-05-19T18:36:54Z</time>
      </trkpt>
      <trkpt lat="46.55567" lon="3.11933">
        <ele>327.1</ele>
        <time>2014-05-19T18:36:55Z</time>
      </trkpt>
      <trkpt lat="46.55582" lon="3.11919">
        <ele>326.6</ele>
        <time>2014-05-19T18:36:56Z</time>
      </trkpt>
      <trkpt lat="46.55599" lon="3.11905">
        <ele>326.1</ele>
        <time>2014-05-19T18:36:57Z</time>
      </trkpt>
      <trkpt lat="46.55615" lon="3.1189">
        <ele>325.5</ele>
        <time>2014-05-19T18:36:58Z</time>
      </trkpt>
      <trkpt lat="46.55632" lon="3.11875">
        <ele>324.9</ele>
        <time>2014-05-19T18:36:59Z</time>
      </trkpt>
      <trkpt lat="46.55649" lon="3.1186">
        <ele>324.2</ele>
        <time>2014-05-19T18:37:00Z</time>
      </trkpt>
      <trkpt lat="46.55666" lon="3.11844">
        <ele>323.5</ele>
        <time>2014-05-19T18:37:01Z</time>
      </trkpt>
      <trkpt lat="46.55682" lon="3.11828">
        <ele>322.7</ele>
        <time>2014-05-19T18:37:02Z</time>
      </trkpt>
      <trkpt lat="46.557" lon="3.11813">
        <ele>322</ele>
        <time>2014-05-19T18:37:03Z</time>
      </trkpt>
      <trkpt lat="46.55716" lon="3.11798">
        <ele>321.3</ele>
        <time>2014-05-19T18:37:04Z</time>
      </trkpt>
      <trkpt lat="46.55731" lon="3.11785">
        <ele>320.7</ele>
        <time>2014-05-19T18:37:05Z</time>
      </trkpt>
      <trkpt lat="46.55745" lon="3.11772">
        <ele>320</ele>
        <time>2014-05-19T18:37:06Z</time>
      </trkpt>
      <trkpt lat="46.55758" lon="3.1176">
        <ele>319.3</ele>
        <time>2014-05-19T18:37:07Z</time>
      </trkpt>
      <trkpt lat="46.5577" lon="3.11749">
        <ele>318.7</ele>
        <time>2014-05-19T18:37:08Z</time>
      </trkpt>
      <trkpt lat="46.55782" lon="3.11739">
        <ele>318.2</ele>
        <time>2014-05-19T18:37:09Z</time>
      </trkpt>
      <trkpt lat="46.55791" lon="3.1173">
        <ele>317.6</ele>
        <time>2014-05-19T18:37:10Z</time>
      </trkpt>
      <trkpt lat="46.55798" lon="3.11724">
        <ele>317.2</ele>
        <time>2014-05-19T18:37:11Z</time>
      </trkpt>
      <trkpt lat="46.55805" lon="3.11717">
        <ele>316.8</ele>
        <time>2014-05-19T18:37:12Z</time>
      </trkpt>
      <trkpt lat="46.55812" lon="3.1171">
        <ele>316.4</ele>
        <time>2014-05-19T18:37:13Z</time>
      </trkpt>
      <trkpt lat="46.55819" lon="3.11704">
        <ele>316</ele>
        <time>2014-05-19T18:37:14Z</time>
      </trkpt>
      <trkpt lat="46.55833" lon="3.11692">
        <ele>315.6</ele>
        <time>2014-05-19T18:37:16Z</time>
      </trkpt>
      <trkpt lat="46.5584" lon="3.11686">
        <ele>315.3</ele>
        <time>2014-05-19T18:37:17Z</time>
      </trkpt>
      <trkpt lat="46.55855" lon="3.11672">
        <ele>315</ele>
        <time>2014-05-19T18:37:19Z</time>
      </trkpt>
      <trkpt lat="46.55862" lon="3.11665">
        <ele>314.7</ele>
        <time>2014-05-19T18:37:20Z</time>
      </trkpt>
      <trkpt lat="46.55872" lon="3.11656">
        <ele>314.3</ele>
        <time>2014-05-19T18:37:21Z</time>
      </trkpt>
      <trkpt lat="46.55881" lon="3.11648">
        <ele>314</ele>
        <time>2014-05-19T18:37:22Z</time>
      </trkpt>
      <trkpt lat="46.55892" lon="3.11638">
        <ele>313.7</ele>
        <time>2014-05-19T18:37:23Z</time>
      </trkpt>
      <trkpt lat="46.55902" lon="3.11629">
        <ele>313.4</ele>
        <time>2014-05-19T18:37:24Z</time>
      </trkpt>
      <trkpt lat="46.55914" lon="3.11617">
        <ele>313.1</ele>
        <time>2014-05-19T18:37:25Z</time>
      </trkpt>
      <trkpt lat="46.55926" lon="3.11606">
        <ele>312.8</ele>
        <time>2014-05-19T18:37:26Z</time>
      </trkpt>
      <trkpt lat="46.55939" lon="3.11594">
        <ele>312.6</ele>
        <time>2014-05-19T18:37:27Z</time>
      </trkpt>
      <trkpt lat="46.55952" lon="3.11582">
        <ele>312.5</ele>
        <time>2014-05-19T18:37:28Z</time>
      </trkpt>
      <trkpt lat="46.55966" lon="3.11569">
        <ele>312.3</ele>
        <time>2014-05-19T18:37:29Z</time>
      </trkpt>
      <trkpt lat="46.55981" lon="3.11556">
        <ele>312.1</ele>
        <time>2014-05-19T18:37:30Z</time>
      </trkpt>
      <trkpt lat="46.55996" lon="3.11542">
        <ele>311.9</ele>
        <time>2014-05-19T18:37:31Z</time>
      </trkpt>
      <trkpt lat="46.56014" lon="3.11527">
        <ele>311.8</ele>
        <time>2014-05-19T18:37:32Z</time>
      </trkpt>
      <trkpt lat="46.56031" lon="3.11512">
        <ele>311.7</ele>
        <time>2014-05-19T18:37:33Z</time>
      </trkpt>
      <trkpt lat="46.56047" lon="3.11496">
        <ele>311.5</ele>
        <time>2014-05-19T18:37:34Z</time>
      </trkpt>
      <trkpt lat="46.56069" lon="3.11477">
        <ele>311.4</ele>
        <time>2014-05-19T18:37:35Z</time>
      </trkpt>
      <trkpt lat="46.56088" lon="3.1146">
        <ele>311.2</ele>
        <time>2014-05-19T18:37:36Z</time>
      </trkpt>
      <trkpt lat="46.56108" lon="3.11441">
        <ele>311</ele>
        <time>2014-05-19T18:37:37Z</time>
      </trkpt>
      <trkpt lat="46.56129" lon="3.11422">
        <ele>310.8</ele>
        <time>2014-05-19T18:37:38Z</time>
      </trkpt>
      <trkpt lat="46.56149" lon="3.11404">
        <ele>310.5</ele>
        <time>2014-05-19T18:37:39Z</time>
      </trkpt>
      <trkpt lat="46.56169" lon="3.11385">
        <ele>310.1</ele>
        <time>2014-05-19T18:37:40Z</time>
      </trkpt>
      <trkpt lat="46.5619" lon="3.11368">
        <ele>309.6</ele>
        <time>2014-05-19T18:37:41Z</time>
      </trkpt>
      <trkpt lat="46.5621" lon="3.11349">
        <ele>309.2</ele>
        <time>2014-05-19T18:37:42Z</time>
      </trkpt>
      <trkpt lat="46.56229" lon="3.11332">
        <ele>308.7</ele>
        <time>2014-05-19T18:37:43Z</time>
      </trkpt>
      <trkpt lat="46.56248" lon="3.11314">
        <ele>308.1</ele>
        <time>2014-05-19T18:37:44Z</time>
      </trkpt>
      <trkpt lat="46.56267" lon="3.11296">
        <ele>307.5</ele>
        <time>2014-05-19T18:37:45Z</time>
      </trkpt>
      <trkpt lat="46.56287" lon="3.11278">
        <ele>307</ele>
        <time>2014-05-19T18:37:46Z</time>
      </trkpt>
      <trkpt lat="46.56306" lon="3.11261">
        <ele>306.4</ele>
        <time>2014-05-19T18:37:47Z</time>
      </trkpt>
      <trkpt lat="46.56324" lon="3.11245">
        <ele>305.9</ele>
        <time>2014-05-19T18:37:48Z</time>
      </trkpt>
      <trkpt lat="46.56342" lon="3.11228">
        <ele>305.4</ele>
        <time>2014-05-19T18:37:49Z</time>
      </trkpt>
      <trkpt lat="46.5636" lon="3.11212">
        <ele>304.9</ele>
        <time>2014-05-19T18:37:50Z</time>
      </trkpt>
      <trkpt lat="46.56378" lon="3.11196">
        <ele>304.4</ele>
        <time>2014-05-19T18:37:51Z</time>
      </trkpt>
      <trkpt lat="46.56396" lon="3.1118">
        <ele>304</ele>
        <time>2014-05-19T18:37:52Z</time>
      </trkpt>
      <trkpt lat="46.56413" lon="3.11164">
        <ele>303.6</ele>
        <time>2014-05-19T18:37:53Z</time>
      </trkpt>
      <trkpt lat="46.5643" lon="3.11149">
        <ele>303.3</ele>
        <time>2014-05-19T18:37:54Z</time>
      </trkpt>
      <trkpt lat="46.56446" lon="3.11135">
        <ele>303</ele>
        <time>2014-05-19T18:37:55Z</time>
      </trkpt>
      <trkpt lat="46.56461" lon="3.1112">
        <ele>302.7</ele>
        <time>2014-05-19T18:37:56Z</time>
      </trkpt>
      <trkpt lat="46.56476" lon="3.11107">
        <ele>302.3</ele>
        <time>2014-05-19T18:37:57Z</time>
      </trkpt>
      <trkpt lat="46.56491" lon="3.11094">
        <ele>301.9</ele>
        <time>2014-05-19T18:37:58Z</time>
      </trkpt>
      <trkpt lat="46.56505" lon="3.11081">
        <ele>301.4</ele>
        <time>2014-05-19T18:37:59Z</time>
      </trkpt>
      <trkpt lat="46.56514" lon="3.11065">
        <ele>300.8</ele>
        <time>2014-05-19T18:38:00Z</time>
      </trkpt>
      <trkpt lat="46.56524" lon="3.11047">
        <ele>300.1</ele>
        <time>2014-05-19T18:38:01Z</time>
      </trkpt>
      <trkpt lat="46.5653" lon="3.11028">
        <ele>299.5</ele>
        <time>2014-05-19T18:38:02Z</time>
      </trkpt>
      <trkpt lat="46.56535" lon="3.11008">
        <ele>298.8</ele>
        <time>2014-05-19T18:38:03Z</time>
      </trkpt>
      <trkpt lat="46.56537" lon="3.10986">
        <ele>298.1</ele>
        <time>2014-05-19T18:38:04Z</time>
      </trkpt>
      <trkpt lat="46.56535" lon="3.10961">
        <ele>297.3</ele>
        <time>2014-05-19T18:38:05Z</time>
      </trkpt>
      <trkpt lat="46.56533" lon="3.10935">
        <ele>296.5</ele>
        <time>2014-05-19T18:38:06Z</time>
      </trkpt>
      <trkpt lat="46.56529" lon="3.10908">
        <ele>295.6</ele>
        <time>2014-05-19T18:38:07Z</time>
      </trkpt>
      <trkpt lat="46.56526" lon="3.1088">
        <ele>294.8</ele>
        <time>2014-05-19T18:38:08Z</time>
      </trkpt>
      <trkpt lat="46.56521" lon="3.1085">
        <ele>294.1</ele>
        <time>2014-05-19T18:38:09Z</time>
      </trkpt>
      <trkpt lat="46.56517" lon="3.1082">
        <ele>293.4</ele>
        <time>2014-05-19T18:38:10Z</time>
      </trkpt>
      <trkpt lat="46.56512" lon="3.1079">
        <ele>292.8</ele>
        <time>2014-05-19T18:38:11Z</time>
      </trkpt>
      <trkpt lat="46.56508" lon="3.10758">
        <ele>292.3</ele>
        <time>2014-05-19T18:38:12Z</time>
      </trkpt>
      <trkpt lat="46.56504" lon="3.10727">
        <ele>292</ele>
        <time>2014-05-19T18:38:13Z</time>
      </trkpt>
      <trkpt lat="46.56501" lon="3.10695">
        <ele>291.8</ele>
        <time>2014-05-19T18:38:14Z</time>
      </trkpt>
      <trkpt lat="46.56497" lon="3.10662">
        <ele>291.8</ele>
        <time>2014-05-19T18:38:15Z</time>
      </trkpt>
      <trkpt lat="46.56493" lon="3.1063">
        <ele>291.8</ele>
        <time>2014-05-19T18:38:16Z</time>
      </trkpt>
      <trkpt lat="46.56488" lon="3.10598">
        <ele>292</ele>
        <time>2014-05-19T18:38:17Z</time>
      </trkpt>
      <trkpt lat="46.56484" lon="3.10566">
        <ele>292.3</ele>
        <time>2014-05-19T18:38:18Z</time>
      </trkpt>
      <trkpt lat="46.5648" lon="3.10535">
        <ele>292.8</ele>
        <time>2014-05-19T18:38:19Z</time>
      </trkpt>
      <trkpt lat="46.56476" lon="3.10504">
        <ele>293.4</ele>
        <time>2014-05-19T18:38:20Z</time>
      </trkpt>
      <trkpt lat="46.56473" lon="3.10474">
        <ele>294.1</ele>
        <time>2014-05-19T18:38:21Z</time>
      </trkpt>
      <trkpt lat="46.56469" lon="3.10445">
        <ele>295</ele>
        <time>2014-05-19T18:38:22Z</time>
      </trkpt>
      <trkpt lat="46.56464" lon="3.10416">
        <ele>296</ele>
        <time>2014-05-19T18:38:23Z</time>
      </trkpt>
      <trkpt lat="46.56462" lon="3.10388">
        <ele>296.9</ele>
        <time>2014-05-19T18:38:24Z</time>
      </trkpt>
      <trkpt lat="46.56461" lon="3.1036">
        <ele>297.8</ele>
        <time>2014-05-19T18:38:25Z</time>
      </trkpt>
      <trkpt lat="46.56463" lon="3.10332">
        <ele>298.7</ele>
        <time>2014-05-19T18:38:26Z</time>
      </trkpt>
      <trkpt lat="46.56469" lon="3.10308">
        <ele>299.7</ele>
        <time>2014-05-19T18:38:27Z</time>
      </trkpt>
      <trkpt lat="46.56477" lon="3.10287">
        <ele>300.6</ele>
        <time>2014-05-19T18:38:28Z</time>
      </trkpt>
      <trkpt lat="46.56489" lon="3.10267">
        <ele>301.5</ele>
        <time>2014-05-19T18:38:29Z</time>
      </trkpt>
      <trkpt lat="46.56502" lon="3.10249">
        <ele>302.2</ele>
        <time>2014-05-19T18:38:30Z</time>
      </trkpt>
      <trkpt lat="46.56518" lon="3.10233">
        <ele>302.9</ele>
        <time>2014-05-19T18:38:31Z</time>
      </trkpt>
      <trkpt lat="46.56534" lon="3.10217">
        <ele>303.6</ele>
        <time>2014-05-19T18:38:32Z</time>
      </trkpt>
      <trkpt lat="46.5655" lon="3.10202">
        <ele>304.1</ele>
        <time>2014-05-19T18:38:33Z</time>
      </trkpt>
      <trkpt lat="46.56567" lon="3.10186">
        <ele>304.6</ele>
        <time>2014-05-19T18:38:34Z</time>
      </trkpt>
      <trkpt lat="46.56584" lon="3.10171">
        <ele>305.2</ele>
        <time>2014-05-19T18:38:35Z</time>
      </trkpt>
      <trkpt lat="46.56601" lon="3.10155">
        <ele>305.7</ele>
        <time>2014-05-19T18:38:36Z</time>
      </trkpt>
      <trkpt lat="46.56618" lon="3.10139">
        <ele>306.2</ele>
        <time>2014-05-19T18:38:37Z</time>
      </trkpt>
      <trkpt lat="46.56636" lon="3.10122">
        <ele>306.9</ele>
        <time>2014-05-19T18:38:38Z</time>
      </trkpt>
      <trkpt lat="46.56654" lon="3.10105">
        <ele>307.6</ele>
        <time>2014-05-19T18:38:39Z</time>
      </trkpt>
      <trkpt lat="46.56672" lon="3.10088">
        <ele>308.4</ele>
        <time>2014-05-19T18:38:40Z</time>
      </trkpt>
      <trkpt lat="46.56691" lon="3.10071">
        <ele>309.3</ele>
        <time>2014-05-19T18:38:41Z</time>
      </trkpt>
      <trkpt lat="46.5671" lon="3.10054">
        <ele>310.2</ele>
        <time>2014-05-19T18:38:42Z</time>
      </trkpt>
      <trkpt lat="46.56729" lon="3.10036">
        <ele>311.1</ele>
        <time>2014-05-19T18:38:43Z</time>
      </trkpt>
      <trkpt lat="46.56749" lon="3.10017">
        <ele>311.9</ele>
        <time>2014-05-19T18:38:44Z</time>
      </trkpt>
      <trkpt lat="46.56768" lon="3.09995">
        <ele>312.8</ele>
        <time>2014-05-19T18:38:45Z</time>
      </trkpt>
      <trkpt lat="46.56786" lon="3.09972">
        <ele>313.5</ele>
        <time>2014-05-19T18:38:46Z</time>
      </trkpt>
      <trkpt lat="46.56804" lon="3.09947">
        <ele>314.1</ele>
        <time>2014-05-19T18:38:47Z</time>
      </trkpt>
      <trkpt lat="46.56822" lon="3.09923">
        <ele>314.8</ele>
        <time>2014-05-19T18:38:48Z</time>
      </trkpt>
      <trkpt lat="46.56841" lon="3.09897">
        <ele>315.4</ele>
        <time>2014-05-19T18:38:49Z</time>
      </trkpt>
      <trkpt lat="46.56859" lon="3.09871">
        <ele>316</ele>
        <time>2014-05-19T18:38:50Z</time>
      </trkpt>
      <trkpt lat="46.56878" lon="3.09845">
        <ele>316.8</ele>
        <time>2014-05-19T18:38:51Z</time>
      </trkpt>
      <trkpt lat="46.56895" lon="3.09818">
        <ele>317.6</ele>
        <time>2014-05-19T18:38:52Z</time>
      </trkpt>
      <trkpt lat="46.56914" lon="3.09793">
        <ele>318.4</ele>
        <time>2014-05-19T18:38:53Z</time>
      </trkpt>
      <trkpt lat="46.56932" lon="3.09767">
        <ele>319.3</ele>
        <time>2014-05-19T18:38:54Z</time>
      </trkpt>
      <trkpt lat="46.56948" lon="3.09741">
        <ele>320.3</ele>
        <time>2014-05-19T18:38:55Z</time>
      </trkpt>
      <trkpt lat="46.56964" lon="3.09713">
        <ele>321.4</ele>
        <time>2014-05-19T18:38:56Z</time>
      </trkpt>
      <trkpt lat="46.56979" lon="3.09685">
        <ele>322.6</ele>
        <time>2014-05-19T18:38:57Z</time>
      </trkpt>
      <trkpt lat="46.56994" lon="3.09657">
        <ele>323.8</ele>
        <time>2014-05-19T18:38:58Z</time>
      </trkpt>
      <trkpt lat="46.57008" lon="3.0963">
        <ele>325</ele>
        <time>2014-05-19T18:38:59Z</time>
      </trkpt>
      <trkpt lat="46.57021" lon="3.09605">
        <ele>326.1</ele>
        <time>2014-05-19T18:39:00Z</time>
      </trkpt>
      <trkpt lat="46.57033" lon="3.09582">
        <ele>327</ele>
        <time>2014-05-19T18:39:01Z</time>
      </trkpt>
      <trkpt lat="46.57045" lon="3.09559">
        <ele>327.8</ele>
        <time>2014-05-19T18:39:02Z</time>
      </trkpt>
      <trkpt lat="46.57055" lon="3.09535">
        <ele>328.3</ele>
        <time>2014-05-19T18:39:03Z</time>
      </trkpt>
      <trkpt lat="46.57065" lon="3.09511">
        <ele>328.8</ele>
        <time>2014-05-19T18:39:04Z</time>
      </trkpt>
      <trkpt lat="46.57073" lon="3.09484">
        <ele>329.1</ele>
        <time>2014-05-19T18:39:05Z</time>
      </trkpt>
      <trkpt lat="46.57081" lon="3.09456">
        <ele>329.2</ele>
        <time>2014-05-19T18:39:06Z</time>
      </trkpt>
      <trkpt lat="46.5709" lon="3.09428">
        <ele>329.3</ele>
        <time>2014-05-19T18:39:07Z</time>
      </trkpt>
      <trkpt lat="46.57099" lon="3.09397">
        <ele>329.3</ele>
        <time>2014-05-19T18:39:08Z</time>
      </trkpt>
      <trkpt lat="46.57108" lon="3.09367">
        <ele>329.2</ele>
        <time>2014-05-19T18:39:09Z</time>
      </trkpt>
      <trkpt lat="46.57117" lon="3.09336">
        <ele>329.1</ele>
        <time>2014-05-19T18:39:10Z</time>
      </trkpt>
      <trkpt lat="46.57126" lon="3.09303">
        <ele>329</ele>
        <time>2014-05-19T18:39:11Z</time>
      </trkpt>
      <trkpt lat="46.57135" lon="3.09271">
        <ele>328.8</ele>
        <time>2014-05-19T18:39:12Z</time>
      </trkpt>
      <trkpt lat="46.57145" lon="3.09236">
        <ele>328.7</ele>
        <time>2014-05-19T18:39:13Z</time>
      </trkpt>
      <trkpt lat="46.57154" lon="3.09201">
        <ele>328.7</ele>
        <time>2014-05-19T18:39:14Z</time>
      </trkpt>
      <trkpt lat="46.57164" lon="3.09166">
        <ele>328.7</ele>
        <time>2014-05-19T18:39:15Z</time>
      </trkpt>
      <trkpt lat="46.57174" lon="3.09132">
        <ele>328.7</ele>
        <time>2014-05-19T18:39:16Z</time>
      </trkpt>
      <trkpt lat="46.57184" lon="3.09096">
        <ele>328.8</ele>
        <time>2014-05-19T18:39:17Z</time>
      </trkpt>
      <trkpt lat="46.57194" lon="3.09061">
        <ele>328.9</ele>
        <time>2014-05-19T18:39:18Z</time>
      </trkpt>
      <trkpt lat="46.57204" lon="3.09025">
        <ele>329</ele>
        <time>2014-05-19T18:39:19Z</time>
      </trkpt>
      <trkpt lat="46.57214" lon="3.0899">
        <ele>329</ele>
        <time>2014-05-19T18:39:20Z</time>
      </trkpt>
      <trkpt lat="46.57224" lon="3.08956">
        <ele>329.1</ele>
        <time>2014-05-19T18:39:21Z</time>
      </trkpt>
      <trkpt lat="46.57233" lon="3.08922">
        <ele>329.1</ele>
        <time>2014-05-19T18:39:22Z</time>
      </trkpt>
      <trkpt lat="46.57243" lon="3.08891">
        <ele>329.3</ele>
        <time>2014-05-19T18:39:23Z</time>
      </trkpt>
      <trkpt lat="46.57254" lon="3.08863">
        <ele>329.4</ele>
        <time>2014-05-19T18:39:24Z</time>
      </trkpt>
      <trkpt lat="46.57266" lon="3.08835">
        <ele>329.5</ele>
        <time>2014-05-19T18:39:25Z</time>
      </trkpt>
      <trkpt lat="46.57278" lon="3.08808">
        <ele>329.6</ele>
        <time>2014-05-19T18:39:26Z</time>
      </trkpt>
      <trkpt lat="46.57297" lon="3.08787">
        <ele>329.8</ele>
        <time>2014-05-19T18:39:27Z</time>
      </trkpt>
      <trkpt lat="46.57316" lon="3.08766">
        <ele>329.9</ele>
        <time>2014-05-19T18:39:28Z</time>
      </trkpt>
      <trkpt lat="46.57334" lon="3.08746">
        <ele>330.1</ele>
        <time>2014-05-19T18:39:29Z</time>
      </trkpt>
      <trkpt lat="46.5735" lon="3.08727">
        <ele>330.2</ele>
        <time>2014-05-19T18:39:30Z</time>
      </trkpt>
      <trkpt lat="46.57363" lon="3.0871">
        <ele>330.4</ele>
        <time>2014-05-19T18:39:31Z</time>
      </trkpt>
      <trkpt lat="46.57377" lon="3.08691">
        <ele>330.6</ele>
        <time>2014-05-19T18:39:32Z</time>
      </trkpt>
      <trkpt lat="46.57391" lon="3.08671">
        <ele>330.8</ele>
        <time>2014-05-19T18:39:33Z</time>
      </trkpt>
      <trkpt lat="46.57405" lon="3.08648">
        <ele>330.9</ele>
        <time>2014-05-19T18:39:34Z</time>
      </trkpt>
      <trkpt lat="46.57418" lon="3.08624">
        <ele>331</ele>
        <time>2014-05-19T18:39:35Z</time>
      </trkpt>
      <trkpt lat="46.5743" lon="3.08599">
        <ele>331.1</ele>
        <time>2014-05-19T18:39:36Z</time>
      </trkpt>
      <trkpt lat="46.57442" lon="3.08574">
        <ele>331.2</ele>
        <time>2014-05-19T18:39:37Z</time>
      </trkpt>
      <trkpt lat="46.5745" lon="3.08544">
        <ele>331.2</ele>
        <time>2014-05-19T18:39:38Z</time>
      </trkpt>
      <trkpt lat="46.57459" lon="3.08518">
        <ele>331.2</ele>
        <time>2014-05-19T18:39:39Z</time>
      </trkpt>
      <trkpt lat="46.57469" lon="3.08491">
        <ele>331</ele>
        <time>2014-05-19T18:39:40Z</time>
      </trkpt>
      <trkpt lat="46.57478" lon="3.08465">
        <ele>330.8</ele>
        <time>2014-05-19T18:39:41Z</time>
      </trkpt>
      <trkpt lat="46.57488" lon="3.08442">
        <ele>330.5</ele>
        <time>2014-05-19T18:39:42Z</time>
      </trkpt>
      <trkpt lat="46.57497" lon="3.08418">
        <ele>330</ele>
        <time>2014-05-19T18:39:43Z</time>
      </trkpt>
      <trkpt lat="46.57498" lon="3.08393">
        <ele>329.3</ele>
        <time>2014-05-19T18:39:44Z</time>
      </trkpt>
      <trkpt lat="46.57504" lon="3.08367">
        <ele>328.6</ele>
        <time>2014-05-19T18:39:45Z</time>
      </trkpt>
      <trkpt lat="46.57509" lon="3.08341">
        <ele>327.8</ele>
        <time>2014-05-19T18:39:46Z</time>
      </trkpt>
      <trkpt lat="46.57513" lon="3.08315">
        <ele>326.9</ele>
        <time>2014-05-19T18:39:47Z</time>
      </trkpt>
      <trkpt lat="46.5752" lon="3.08288">
        <ele>326</ele>
        <time>2014-05-19T18:39:48Z</time>
      </trkpt>
      <trkpt lat="46.57529" lon="3.08264">
        <ele>324.9</ele>
        <time>2014-05-19T18:39:49Z</time>
      </trkpt>
      <trkpt lat="46.57539" lon="3.0824">
        <ele>323.8</ele>
        <time>2014-05-19T18:39:50Z</time>
      </trkpt>
      <trkpt lat="46.57547" lon="3.08216">
        <ele>322.8</ele>
        <time>2014-05-19T18:39:51Z</time>
      </trkpt>
      <trkpt lat="46.57565" lon="3.0819">
        <ele>322</ele>
        <time>2014-05-19T18:39:52Z</time>
      </trkpt>
      <trkpt lat="46.57577" lon="3.08165">
        <ele>321.1</ele>
        <time>2014-05-19T18:39:53Z</time>
      </trkpt>
      <trkpt lat="46.57591" lon="3.08135">
        <ele>320.2</ele>
        <time>2014-05-19T18:39:54Z</time>
      </trkpt>
      <trkpt lat="46.57605" lon="3.08106">
        <ele>319.5</ele>
        <time>2014-05-19T18:39:55Z</time>
      </trkpt>
      <trkpt lat="46.57617" lon="3.08077">
        <ele>318.8</ele>
        <time>2014-05-19T18:39:56Z</time>
      </trkpt>
      <trkpt lat="46.57632" lon="3.08048">
        <ele>318.1</ele>
        <time>2014-05-19T18:39:57Z</time>
      </trkpt>
      <trkpt lat="46.57651" lon="3.08019">
        <ele>317.3</ele>
        <time>2014-05-19T18:39:58Z</time>
      </trkpt>
      <trkpt lat="46.57669" lon="3.07992">
        <ele>316.4</ele>
        <time>2014-05-19T18:39:59Z</time>
      </trkpt>
      <trkpt lat="46.57684" lon="3.07962">
        <ele>315.4</ele>
        <time>2014-05-19T18:40:00Z</time>
      </trkpt>
      <trkpt lat="46.57697" lon="3.07932">
        <ele>314.3</ele>
        <time>2014-05-19T18:40:01Z</time>
      </trkpt>
      <trkpt lat="46.5771" lon="3.07902">
        <ele>313.1</ele>
        <time>2014-05-19T18:40:02Z</time>
      </trkpt>
      <trkpt lat="46.57723" lon="3.07877">
        <ele>311.9</ele>
        <time>2014-05-19T18:40:03Z</time>
      </trkpt>
      <trkpt lat="46.57736" lon="3.07848">
        <ele>310.4</ele>
        <time>2014-05-19T18:40:04Z</time>
      </trkpt>
      <trkpt lat="46.57751" lon="3.07827">
        <ele>308.9</ele>
        <time>2014-05-19T18:40:05Z</time>
      </trkpt>
      <trkpt lat="46.57764" lon="3.07806">
        <ele>307.5</ele>
        <time>2014-05-19T18:40:06Z</time>
      </trkpt>
      <trkpt lat="46.57773" lon="3.07782">
        <ele>306.4</ele>
        <time>2014-05-19T18:40:07Z</time>
      </trkpt>
      <trkpt lat="46.57784" lon="3.07758">
        <ele>305.5</ele>
        <time>2014-05-19T18:40:08Z</time>
      </trkpt>
      <trkpt lat="46.57786" lon="3.0773">
        <ele>304.9</ele>
        <time>2014-05-19T18:40:09Z</time>
      </trkpt>
      <trkpt lat="46.57785" lon="3.07704">
        <ele>304.5</ele>
        <time>2014-05-19T18:40:10Z</time>
      </trkpt>
      <trkpt lat="46.57784" lon="3.07677">
        <ele>304.4</ele>
        <time>2014-05-19T18:40:11Z</time>
      </trkpt>
      <trkpt lat="46.57787" lon="3.07649">
        <ele>304.4</ele>
        <time>2014-05-19T18:40:12Z</time>
      </trkpt>
      <trkpt lat="46.57788" lon="3.07621">
        <ele>304.5</ele>
        <time>2014-05-19T18:40:13Z</time>
      </trkpt>
      <trkpt lat="46.57791" lon="3.07593">
        <ele>305</ele>
        <time>2014-05-19T18:40:14Z</time>
      </trkpt>
      <trkpt lat="46.57795" lon="3.07563">
        <ele>305.8</ele>
        <time>2014-05-19T18:40:15Z</time>
      </trkpt>
      <trkpt lat="46.578" lon="3.07534">
        <ele>306.7</ele>
        <time>2014-05-19T18:40:16Z</time>
      </trkpt>
      <trkpt lat="46.57805" lon="3.07504">
        <ele>307.6</ele>
        <time>2014-05-19T18:40:17Z</time>
      </trkpt>
      <trkpt lat="46.5781" lon="3.07475">
        <ele>308.4</ele>
        <time>2014-05-19T18:40:18Z</time>
      </trkpt>
      <trkpt lat="46.57816" lon="3.07449">
        <ele>309.1</ele>
        <time>2014-05-19T18:40:19Z</time>
      </trkpt>
      <trkpt lat="46.5782" lon="3.07421">
        <ele>309.6</ele>
        <time>2014-05-19T18:40:20Z</time>
      </trkpt>
      <trkpt lat="46.57826" lon="3.07393">
        <ele>310.3</ele>
        <time>2014-05-19T18:40:21Z</time>
      </trkpt>
      <trkpt lat="46.57831" lon="3.07365">
        <ele>311.1</ele>
        <time>2014-05-19T18:40:22Z</time>
      </trkpt>
      <trkpt lat="46.57837" lon="3.07337">
        <ele>312</ele>
        <time>2014-05-19T18:40:23Z</time>
      </trkpt>
      <trkpt lat="46.57842" lon="3.07308">
        <ele>313</ele>
        <time>2014-05-19T18:40:24Z</time>
      </trkpt>
      <trkpt lat="46.5785" lon="3.07281">
        <ele>313.7</ele>
        <time>2014-05-19T18:40:25Z</time>
      </trkpt>
      <trkpt lat="46.57855" lon="3.07255">
        <ele>314.4</ele>
        <time>2014-05-19T18:40:26Z</time>
      </trkpt>
      <trkpt lat="46.57861" lon="3.07228">
        <ele>315.1</ele>
        <time>2014-05-19T18:40:27Z</time>
      </trkpt>
      <trkpt lat="46.57867" lon="3.07201">
        <ele>315.7</ele>
        <time>2014-05-19T18:40:28Z</time>
      </trkpt>
      <trkpt lat="46.57873" lon="3.07174">
        <ele>316.3</ele>
        <time>2014-05-19T18:40:29Z</time>
      </trkpt>
      <trkpt lat="46.5788" lon="3.07146">
        <ele>317</ele>
        <time>2014-05-19T18:40:30Z</time>
      </trkpt>
      <trkpt lat="46.57884" lon="3.0712">
        <ele>317.8</ele>
        <time>2014-05-19T18:40:31Z</time>
      </trkpt>
      <trkpt lat="46.5789" lon="3.07095">
        <ele>318.5</ele>
        <time>2014-05-19T18:40:32Z</time>
      </trkpt>
      <trkpt lat="46.57895" lon="3.07071">
        <ele>319.3</ele>
        <time>2014-05-19T18:40:33Z</time>
      </trkpt>
      <trkpt lat="46.579" lon="3.07047">
        <ele>320</ele>
        <time>2014-05-19T18:40:34Z</time>
      </trkpt>
      <trkpt lat="46.57905" lon="3.07026">
        <ele>320.7</ele>
        <time>2014-05-19T18:40:35Z</time>
      </trkpt>
      <trkpt lat="46.5791" lon="3.07005">
        <ele>321.4</ele>
        <time>2014-05-19T18:40:36Z</time>
      </trkpt>
      <trkpt lat="46.57914" lon="3.06983">
        <ele>322</ele>
        <time>2014-05-19T18:40:37Z</time>
      </trkpt>
      <trkpt lat="46.57918" lon="3.0696">
        <ele>322.7</ele>
        <time>2014-05-19T18:40:38Z</time>
      </trkpt>
      <trkpt lat="46.5792" lon="3.06935">
        <ele>323.4</ele>
        <time>2014-05-19T18:40:39Z</time>
      </trkpt>
      <trkpt lat="46.57923" lon="3.0691">
        <ele>324.1</ele>
        <time>2014-05-19T18:40:40Z</time>
      </trkpt>
      <trkpt lat="46.57927" lon="3.06883">
        <ele>324.7</ele>
        <time>2014-05-19T18:40:41Z</time>
      </trkpt>
      <trkpt lat="46.5793" lon="3.06856">
        <ele>325.1</ele>
        <time>2014-05-19T18:40:42Z</time>
      </trkpt>
      <trkpt lat="46.57934" lon="3.06829">
        <ele>325.3</ele>
        <time>2014-05-19T18:40:43Z</time>
      </trkpt>
      <trkpt lat="46.57938" lon="3.068">
        <ele>325.2</ele>
        <time>2014-05-19T18:40:44Z</time>
      </trkpt>
      <trkpt lat="46.57941" lon="3.06772">
        <ele>325</ele>
        <time>2014-05-19T18:40:45Z</time>
      </trkpt>
      <trkpt lat="46.57945" lon="3.06742">
        <ele>324.7</ele>
        <time>2014-05-19T18:40:46Z</time>
      </trkpt>
      <trkpt lat="46.57948" lon="3.06714">
        <ele>324.4</ele>
        <time>2014-05-19T18:40:47Z</time>
      </trkpt>
      <trkpt lat="46.57952" lon="3.06685">
        <ele>323.9</ele>
        <time>2014-05-19T18:40:48Z</time>
      </trkpt>
      <trkpt lat="46.57955" lon="3.06657">
        <ele>323.2</ele>
        <time>2014-05-19T18:40:49Z</time>
      </trkpt>
      <trkpt lat="46.57958" lon="3.06629">
        <ele>322.3</ele>
        <time>2014-05-19T18:40:50Z</time>
      </trkpt>
      <trkpt lat="46.57962" lon="3.06602">
        <ele>321.5</ele>
        <time>2014-05-19T18:40:51Z</time>
      </trkpt>
      <trkpt lat="46.57967" lon="3.06575">
        <ele>320.7</ele>
        <time>2014-05-19T18:40:52Z</time>
      </trkpt>
      <trkpt lat="46.5797" lon="3.06547">
        <ele>320</ele>
        <time>2014-05-19T18:40:53Z</time>
      </trkpt>
      <trkpt lat="46.57974" lon="3.06521">
        <ele>319.5</ele>
        <time>2014-05-19T18:40:54Z</time>
      </trkpt>
      <trkpt lat="46.57977" lon="3.06495">
        <ele>319</ele>
        <time>2014-05-19T18:40:55Z</time>
      </trkpt>
      <trkpt lat="46.5798" lon="3.06471">
        <ele>318.6</ele>
        <time>2014-05-19T18:40:56Z</time>
      </trkpt>
      <trkpt lat="46.57983" lon="3.06446">
        <ele>318.1</ele>
        <time>2014-05-19T18:40:57Z</time>
      </trkpt>
      <trkpt lat="46.57987" lon="3.06425">
        <ele>317.7</ele>
        <time>2014-05-19T18:40:58Z</time>
      </trkpt>
      <trkpt lat="46.57989" lon="3.06405">
        <ele>317.5</ele>
        <time>2014-05-19T18:40:59Z</time>
      </trkpt>
      <trkpt lat="46.57992" lon="3.06384">
        <ele>317.3</ele>
        <time>2014-05-19T18:41:00Z</time>
      </trkpt>
      <trkpt lat="46.57993" lon="3.06369">
        <ele>317.3</ele>
        <time>2014-05-19T18:41:01Z</time>
      </trkpt>
      <trkpt lat="46.57995" lon="3.06351">
        <ele>317.3</ele>
        <time>2014-05-19T18:41:02Z</time>
      </trkpt>
      <trkpt lat="46.57999" lon="3.06325">
        <ele>317.4</ele>
        <time>2014-05-19T18:41:04Z</time>
      </trkpt>
      <trkpt lat="46.58003" lon="3.06314">
        <ele>317.4</ele>
        <time>2014-05-19T18:41:06Z</time>
      </trkpt>
      <trkpt lat="46.58009" lon="3.06305">
        <ele>317.4</ele>
        <time>2014-05-19T18:41:10Z</time>
      </trkpt>
      <trkpt lat="46.58016" lon="3.06288">
        <ele>317.4</ele>
        <time>2014-05-19T18:41:21Z</time>
      </trkpt>
      <trkpt lat="46.58024" lon="3.06267">
        <ele>317.6</ele>
        <time>2014-05-19T18:41:23Z</time>
      </trkpt>
      <trkpt lat="46.58029" lon="3.06256">
        <ele>317.8</ele>
        <time>2014-05-19T18:41:24Z</time>
      </trkpt>
      <trkpt lat="46.58035" lon="3.06244">
        <ele>318</ele>
        <time>2014-05-19T18:41:25Z</time>
      </trkpt>
      <trkpt lat="46.58041" lon="3.06232">
        <ele>318.2</ele>
        <time>2014-05-19T18:41:26Z</time>
      </trkpt>
      <trkpt lat="46.58048" lon="3.06214">
        <ele>318.4</ele>
        <time>2014-05-19T18:41:27Z</time>
      </trkpt>
      <trkpt lat="46.58054" lon="3.06199">
        <ele>318.7</ele>
        <time>2014-05-19T18:41:28Z</time>
      </trkpt>
      <trkpt lat="46.58057" lon="3.06178">
        <ele>318.9</ele>
        <time>2014-05-19T18:41:29Z</time>
      </trkpt>
      <trkpt lat="46.58061" lon="3.0616">
        <ele>319.2</ele>
        <time>2014-05-19T18:41:30Z</time>
      </trkpt>
      <trkpt lat="46.58063" lon="3.06137">
        <ele>319.4</ele>
        <time>2014-05-19T18:41:31Z</time>
      </trkpt>
      <trkpt lat="46.58067" lon="3.06116">
        <ele>319.5</ele>
        <time>2014-05-19T18:41:32Z</time>
      </trkpt>
      <trkpt lat="46.5807" lon="3.06094">
        <ele>319.6</ele>
        <time>2014-05-19T18:41:33Z</time>
      </trkpt>
      <trkpt lat="46.58073" lon="3.06073">
        <ele>319.7</ele>
        <time>2014-05-19T18:41:34Z</time>
      </trkpt>
      <trkpt lat="46.58076" lon="3.06053">
        <ele>319.7</ele>
        <time>2014-05-19T18:41:35Z</time>
      </trkpt>
      <trkpt lat="46.58079" lon="3.06034">
        <ele>319.6</ele>
        <time>2014-05-19T18:41:36Z</time>
      </trkpt>
      <trkpt lat="46.58083" lon="3.06016">
        <ele>319.5</ele>
        <time>2014-05-19T18:41:37Z</time>
      </trkpt>
      <trkpt lat="46.58087" lon="3.05997">
        <ele>319.5</ele>
        <time>2014-05-19T18:41:38Z</time>
      </trkpt>
      <trkpt lat="46.58092" lon="3.05979">
        <ele>319.4</ele>
        <time>2014-05-19T18:41:39Z</time>
      </trkpt>
      <trkpt lat="46.58098" lon="3.0596">
        <ele>319.3</ele>
        <time>2014-05-19T18:41:40Z</time>
      </trkpt>
      <trkpt lat="46.58103" lon="3.05942">
        <ele>319.1</ele>
        <time>2014-05-19T18:41:41Z</time>
      </trkpt>
      <trkpt lat="46.58106" lon="3.05924">
        <ele>318.9</ele>
        <time>2014-05-19T18:41:42Z</time>
      </trkpt>
      <trkpt lat="46.5811" lon="3.05908">
        <ele>318.7</ele>
        <time>2014-05-19T18:41:43Z</time>
      </trkpt>
      <trkpt lat="46.58115" lon="3.05894">
        <ele>318.6</ele>
        <time>2014-05-19T18:41:44Z</time>
      </trkpt>
      <trkpt lat="46.5812" lon="3.0588">
        <ele>318.3</ele>
        <time>2014-05-19T18:41:45Z</time>
      </trkpt>
      <trkpt lat="46.58126" lon="3.05868">
        <ele>318.1</ele>
        <time>2014-05-19T18:41:46Z</time>
      </trkpt>
      <trkpt lat="46.58131" lon="3.05859">
        <ele>318</ele>
        <time>2014-05-19T18:41:47Z</time>
      </trkpt>
      <trkpt lat="46.58137" lon="3.0585">
        <ele>317.9</ele>
        <time>2014-05-19T18:41:48Z</time>
      </trkpt>
      <trkpt lat="46.58146" lon="3.05834">
        <ele>317.7</ele>
        <time>2014-05-19T18:41:50Z</time>
      </trkpt>
      <trkpt lat="46.58154" lon="3.05815">
        <ele>317.6</ele>
        <time>2014-05-19T18:41:52Z</time>
      </trkpt>
      <trkpt lat="46.58157" lon="3.05803">
        <ele>317.4</ele>
        <time>2014-05-19T18:41:53Z</time>
      </trkpt>
      <trkpt lat="46.58161" lon="3.05783">
        <ele>317.1</ele>
        <time>2014-05-19T18:41:55Z</time>
      </trkpt>
      <trkpt lat="46.58164" lon="3.05767">
        <ele>316.8</ele>
        <time>2014-05-19T18:41:57Z</time>
      </trkpt>
      <trkpt lat="46.58167" lon="3.05749">
        <ele>316.4</ele>
        <time>2014-05-19T18:41:59Z</time>
      </trkpt>
      <trkpt lat="46.58169" lon="3.05734">
        <ele>316.2</ele>
        <time>2014-05-19T18:42:01Z</time>
      </trkpt>
      <trkpt lat="46.58173" lon="3.05718">
        <ele>315.9</ele>
        <time>2014-05-19T18:42:03Z</time>
      </trkpt>
      <trkpt lat="46.58175" lon="3.05702">
        <ele>315.5</ele>
        <time>2014-05-19T18:42:06Z</time>
      </trkpt>
      <trkpt lat="46.58179" lon="3.05691">
        <ele>315.1</ele>
        <time>2014-05-19T18:42:09Z</time>
      </trkpt>
      <trkpt lat="46.58188" lon="3.05694">
        <ele>314.7</ele>
        <time>2014-05-19T18:42:16Z</time>
      </trkpt>
      <trkpt lat="46.58198" lon="3.05699">
        <ele>314.2</ele>
        <time>2014-05-19T18:42:18Z</time>
      </trkpt>
      <trkpt lat="46.5821" lon="3.05705">
        <ele>313.7</ele>
        <time>2014-05-19T18:42:20Z</time>
      </trkpt>
      <trkpt lat="46.58223" lon="3.05712">
        <ele>313.1</ele>
        <time>2014-05-19T18:42:22Z</time>
      </trkpt>
      <trkpt lat="46.58235" lon="3.05719">
        <ele>312.7</ele>
        <time>2014-05-19T18:42:24Z</time>
      </trkpt>
      <trkpt lat="46.58247" lon="3.05716">
        <ele>312.3</ele>
        <time>2014-05-19T18:42:26Z</time>
      </trkpt>
      <trkpt lat="46.58262" lon="3.05705">
        <ele>311.9</ele>
        <time>2014-05-19T18:42:28Z</time>
      </trkpt>
      <trkpt lat="46.5827" lon="3.05698">
        <ele>311.5</ele>
        <time>2014-05-19T18:42:29Z</time>
      </trkpt>
      <trkpt lat="46.58278" lon="3.05691">
        <ele>311.1</ele>
        <time>2014-05-19T18:42:30Z</time>
      </trkpt>
      <trkpt lat="46.58285" lon="3.05683">
        <ele>310.8</ele>
        <time>2014-05-19T18:42:31Z</time>
      </trkpt>
      <trkpt lat="46.58292" lon="3.05674">
        <ele>310.5</ele>
        <time>2014-05-19T18:42:32Z</time>
      </trkpt>
      <trkpt lat="46.58299" lon="3.05664">
        <ele>310.1</ele>
        <time>2014-05-19T18:42:33Z</time>
      </trkpt>
      <trkpt lat="46.58304" lon="3.05652">
        <ele>309.8</ele>
        <time>2014-05-19T18:42:34Z</time>
      </trkpt>
      <trkpt lat="46.58311" lon="3.05641">
        <ele>309.5</ele>
        <time>2014-05-19T18:42:35Z</time>
      </trkpt>
      <trkpt lat="46.58316" lon="3.05627">
        <ele>309.2</ele>
        <time>2014-05-19T18:42:36Z</time>
      </trkpt>
      <trkpt lat="46.58321" lon="3.05613">
        <ele>308.9</ele>
        <time>2014-05-19T18:42:37Z</time>
      </trkpt>
      <trkpt lat="46.58325" lon="3.05597">
        <ele>308.3</ele>
        <time>2014-05-19T18:42:38Z</time>
      </trkpt>
      <trkpt lat="46.58328" lon="3.05581">
        <ele>307.7</ele>
        <time>2014-05-19T18:42:39Z</time>
      </trkpt>
      <trkpt lat="46.5833" lon="3.05565">
        <ele>307.1</ele>
        <time>2014-05-19T18:42:40Z</time>
      </trkpt>
      <trkpt lat="46.58332" lon="3.05549">
        <ele>306.4</ele>
        <time>2014-05-19T18:42:41Z</time>
      </trkpt>
      <trkpt lat="46.58333" lon="3.05535">
        <ele>305.8</ele>
        <time>2014-05-19T18:42:42Z</time>
      </trkpt>
      <trkpt lat="46.58334" lon="3.05514">
        <ele>305.2</ele>
        <time>2014-05-19T18:42:44Z</time>
      </trkpt>
      <trkpt lat="46.58338" lon="3.05504">
        <ele>304.6</ele>
        <time>2014-05-19T18:42:46Z</time>
      </trkpt>
      <trkpt lat="46.58346" lon="3.05496">
        <ele>303.8</ele>
        <time>2014-05-19T18:42:50Z</time>
      </trkpt>
      <trkpt lat="46.58355" lon="3.05499">
        <ele>303</ele>
        <time>2014-05-19T18:42:51Z</time>
      </trkpt>
      <trkpt lat="46.58367" lon="3.05508">
        <ele>302.3</ele>
        <time>2014-05-19T18:42:53Z</time>
      </trkpt>
      <trkpt lat="46.58374" lon="3.05516">
        <ele>301.5</ele>
        <time>2014-05-19T18:42:54Z</time>
      </trkpt>
      <trkpt lat="46.58382" lon="3.05525">
        <ele>300.6</ele>
        <time>2014-05-19T18:42:55Z</time>
      </trkpt>
      <trkpt lat="46.5839" lon="3.05535">
        <ele>299.8</ele>
        <time>2014-05-19T18:42:56Z</time>
      </trkpt>
      <trkpt lat="46.58396" lon="3.05543">
        <ele>298.9</ele>
        <time>2014-05-19T18:42:57Z</time>
      </trkpt>
      <trkpt lat="46.58404" lon="3.05555">
        <ele>297.9</ele>
        <time>2014-05-19T18:42:59Z</time>
      </trkpt>
      <trkpt lat="46.58412" lon="3.05567">
        <ele>296.8</ele>
        <time>2014-05-19T18:43:02Z</time>
      </trkpt>
      <trkpt lat="46.58419" lon="3.05576">
        <ele>295.6</ele>
        <time>2014-05-19T18:43:06Z</time>
      </trkpt>
      <trkpt lat="46.58428" lon="3.05584">
        <ele>294.5</ele>
        <time>2014-05-19T18:43:10Z</time>
      </trkpt>
      <trkpt lat="46.58436" lon="3.05593">
        <ele>293.5</ele>
        <time>2014-05-19T18:43:12Z</time>
      </trkpt>
      <trkpt lat="46.58445" lon="3.056">
        <ele>292.6</ele>
        <time>2014-05-19T18:43:14Z</time>
      </trkpt>
      <trkpt lat="46.58453" lon="3.05609">
        <ele>291.8</ele>
        <time>2014-05-19T18:43:16Z</time>
      </trkpt>
      <trkpt lat="46.58461" lon="3.05617">
        <ele>291.1</ele>
        <time>2014-05-19T18:43:18Z</time>
      </trkpt>
      <trkpt lat="46.58464" lon="3.05632">
        <ele>290.5</ele>
        <time>2014-05-19T18:43:21Z</time>
      </trkpt>
      <trkpt lat="46.5846" lon="3.05642">
        <ele>290</ele>
        <time>2014-05-19T18:43:23Z</time>
      </trkpt>
      <trkpt lat="46.58453" lon="3.05654">
        <ele>289.6</ele>
        <time>2014-05-19T18:43:25Z</time>
      </trkpt>
      <trkpt lat="46.58445" lon="3.05666">
        <ele>289.4</ele>
        <time>2014-05-19T18:43:27Z</time>
      </trkpt>
      <trkpt lat="46.58437" lon="3.05681">
        <ele>289.5</ele>
        <time>2014-05-19T18:43:29Z</time>
      </trkpt>
      <trkpt lat="46.58431" lon="3.05694">
        <ele>289.7</ele>
        <time>2014-05-19T18:43:31Z</time>
      </trkpt>
      <trkpt lat="46.58423" lon="3.05707">
        <ele>290.1</ele>
        <time>2014-05-19T18:43:33Z</time>
      </trkpt>
      <trkpt lat="46.58414" lon="3.05723">
        <ele>290.4</ele>
        <time>2014-05-19T18:43:35Z</time>
      </trkpt>
      <trkpt lat="46.58406" lon="3.05738">
        <ele>290.9</ele>
        <time>2014-05-19T18:43:37Z</time>
      </trkpt>
      <trkpt lat="46.58399" lon="3.05755">
        <ele>291.3</ele>
        <time>2014-05-19T18:43:39Z</time>
      </trkpt>
      <trkpt lat="46.58393" lon="3.05763">
        <ele>291.7</ele>
        <time>2014-05-19T18:43:40Z</time>
      </trkpt>
      <trkpt lat="46.58385" lon="3.05784">
        <ele>292.3</ele>
        <time>2014-05-19T18:43:42Z</time>
      </trkpt>
      <trkpt lat="46.58383" lon="3.05796">
        <ele>293</ele>
        <time>2014-05-19T18:43:43Z</time>
      </trkpt>
      <trkpt lat="46.5838" lon="3.05808">
        <ele>293.7</ele>
        <time>2014-05-19T18:43:44Z</time>
      </trkpt>
      <trkpt lat="46.58378" lon="3.05821">
        <ele>294.5</ele>
        <time>2014-05-19T18:43:45Z</time>
      </trkpt>
      <trkpt lat="46.58376" lon="3.05836">
        <ele>295.1</ele>
        <time>2014-05-19T18:43:46Z</time>
      </trkpt>
      <trkpt lat="46.58374" lon="3.0585">
        <ele>295.7</ele>
        <time>2014-05-19T18:43:47Z</time>
      </trkpt>
      <trkpt lat="46.58372" lon="3.05864">
        <ele>296.4</ele>
        <time>2014-05-19T18:43:48Z</time>
      </trkpt>
      <trkpt lat="46.58371" lon="3.05879">
        <ele>297</ele>
        <time>2014-05-19T18:43:49Z</time>
      </trkpt>
      <trkpt lat="46.58369" lon="3.05894">
        <ele>297.7</ele>
        <time>2014-05-19T18:43:50Z</time>
      </trkpt>
      <trkpt lat="46.58368" lon="3.05909">
        <ele>298.4</ele>
        <time>2014-05-19T18:43:51Z</time>
      </trkpt>
      <trkpt lat="46.58367" lon="3.05923">
        <ele>299.2</ele>
        <time>2014-05-19T18:43:52Z</time>
      </trkpt>
      <trkpt lat="46.58366" lon="3.05937">
        <ele>299.9</ele>
        <time>2014-05-19T18:43:53Z</time>
      </trkpt>
      <trkpt lat="46.58364" lon="3.05955">
        <ele>300.7</ele>
        <time>2014-05-19T18:43:55Z</time>
      </trkpt>
      <trkpt lat="46.58363" lon="3.05969">
        <ele>301.4</ele>
        <time>2014-05-19T18:43:59Z</time>
      </trkpt>
      <trkpt lat="46.58361" lon="3.05985">
        <ele>302</ele>
        <time>2014-05-19T18:44:01Z</time>
      </trkpt>
      <trkpt lat="46.58359" lon="3.06004">
        <ele>302.6</ele>
        <time>2014-05-19T18:44:03Z</time>
      </trkpt>
      <trkpt lat="46.58357" lon="3.06026">
        <ele>303.1</ele>
        <time>2014-05-19T18:44:05Z</time>
      </trkpt>
      <trkpt lat="46.58357" lon="3.06039">
        <ele>303.6</ele>
        <time>2014-05-19T18:44:06Z</time>
      </trkpt>
      <trkpt lat="46.58355" lon="3.06052">
        <ele>304</ele>
        <time>2014-05-19T18:44:07Z</time>
      </trkpt>
      <trkpt lat="46.58354" lon="3.06066">
        <ele>304.2</ele>
        <time>2014-05-19T18:44:08Z</time>
      </trkpt>
      <trkpt lat="46.58352" lon="3.0608">
        <ele>304.5</ele>
        <time>2014-05-19T18:44:09Z</time>
      </trkpt>
      <trkpt lat="46.5835" lon="3.06095">
        <ele>304.7</ele>
        <time>2014-05-19T18:44:10Z</time>
      </trkpt>
      <trkpt lat="46.58349" lon="3.0611">
        <ele>305</ele>
        <time>2014-05-19T18:44:11Z</time>
      </trkpt>
      <trkpt lat="46.58347" lon="3.06124">
        <ele>305.1</ele>
        <time>2014-05-19T18:44:12Z</time>
      </trkpt>
      <trkpt lat="46.58347" lon="3.06137">
        <ele>305.3</ele>
        <time>2014-05-19T18:44:13Z</time>
      </trkpt>
      <trkpt lat="46.58346" lon="3.06149">
        <ele>305.5</ele>
        <time>2014-05-19T18:44:14Z</time>
      </trkpt>
      <trkpt lat="46.58344" lon="3.06167">
        <ele>305.7</ele>
        <time>2014-05-19T18:44:16Z</time>
      </trkpt>
      <trkpt lat="46.58348" lon="3.0618">
        <ele>306</ele>
        <time>2014-05-19T18:44:19Z</time>
      </trkpt>
      <trkpt lat="46.58355" lon="3.06175">
        <ele>306.2</ele>
        <time>2014-05-19T18:44:24Z</time>
      </trkpt>
      <trkpt lat="46.58355" lon="3.06161">
        <ele>306.4</ele>
        <time>2014-05-19T18:44:33Z</time>
      </trkpt>
      <trkpt lat="46.58356" lon="3.06133">
        <ele>306.8</ele>
        <time>2014-05-19T18:44:35Z</time>
      </trkpt>
      <trkpt lat="46.58357" lon="3.0612">
        <ele>307</ele>
        <time>2014-05-19T18:44:36Z</time>
      </trkpt>
      <trkpt lat="46.58358" lon="3.06108">
        <ele>307.1</ele>
        <time>2014-05-19T18:44:37Z</time>
      </trkpt>
      <trkpt lat="46.58359" lon="3.06094">
        <ele>307.3</ele>
        <time>2014-05-19T18:44:38Z</time>
      </trkpt>
      <trkpt lat="46.58361" lon="3.06073">
        <ele>307.5</ele>
        <time>2014-05-19T18:44:40Z</time>
      </trkpt>
      <trkpt lat="46.58367" lon="3.06059">
        <ele>307.6</ele>
        <time>2014-05-19T18:44:42Z</time>
      </trkpt>
      <trkpt lat="46.58375" lon="3.06052">
        <ele>307.6</ele>
        <time>2014-05-19T18:44:44Z</time>
      </trkpt>
      <trkpt lat="46.58392" lon="3.06045">
        <ele>307.6</ele>
        <time>2014-05-19T18:44:46Z</time>
      </trkpt>
      <trkpt lat="46.58408" lon="3.06036">
        <ele>307.6</ele>
        <time>2014-05-19T18:44:48Z</time>
      </trkpt>
      <trkpt lat="46.58417" lon="3.06031">
        <ele>307.5</ele>
        <time>2014-05-19T18:44:49Z</time>
      </trkpt>
      <trkpt lat="46.58428" lon="3.06027">
        <ele>307.4</ele>
        <time>2014-05-19T18:44:50Z</time>
      </trkpt>
      <trkpt lat="46.58439" lon="3.06023">
        <ele>307.1</ele>
        <time>2014-05-19T18:44:51Z</time>
      </trkpt>
      <trkpt lat="46.58449" lon="3.06019">
        <ele>306.8</ele>
        <time>2014-05-19T18:44:52Z</time>
      </trkpt>
      <trkpt lat="46.5846" lon="3.06014">
        <ele>306.6</ele>
        <time>2014-05-19T18:44:53Z</time>
      </trkpt>
      <trkpt lat="46.5847" lon="3.06011">
        <ele>306.3</ele>
        <time>2014-05-19T18:44:54Z</time>
      </trkpt>
      <trkpt lat="46.5848" lon="3.06006">
        <ele>306</ele>
        <time>2014-05-19T18:44:55Z</time>
      </trkpt>
      <trkpt lat="46.58488" lon="3.06002">
        <ele>305.6</ele>
        <time>2014-05-19T18:44:56Z</time>
      </trkpt>
      <trkpt lat="46.585" lon="3.05996">
        <ele>305.3</ele>
        <time>2014-05-19T18:44:58Z</time>
      </trkpt>
      <trkpt lat="46.58511" lon="3.05991">
        <ele>305</ele>
        <time>2014-05-19T18:45:00Z</time>
      </trkpt>
      <trkpt lat="46.58523" lon="3.05984">
        <ele>304.5</ele>
        <time>2014-05-19T18:45:02Z</time>
      </trkpt>
      <trkpt lat="46.5853" lon="3.0598">
        <ele>304</ele>
        <time>2014-05-19T18:45:03Z</time>
      </trkpt>
      <trkpt lat="46.58539" lon="3.05976">
        <ele>303.3</ele>
        <time>2014-05-19T18:45:04Z</time>
      </trkpt>
      <trkpt lat="46.58547" lon="3.05972">
        <ele>302.5</ele>
        <time>2014-05-19T18:45:05Z</time>
      </trkpt>
      <trkpt lat="46.58555" lon="3.05967">
        <ele>301.8</ele>
        <time>2014-05-19T18:45:06Z</time>
      </trkpt>
      <trkpt lat="46.5857" lon="3.05961">
        <ele>301</ele>
        <time>2014-05-19T18:45:08Z</time>
      </trkpt>
      <trkpt lat="46.58585" lon="3.05958">
        <ele>300.1</ele>
        <time>2014-05-19T18:45:10Z</time>
      </trkpt>
      <trkpt lat="46.58599" lon="3.05961">
        <ele>299.2</ele>
        <time>2014-05-19T18:45:12Z</time>
      </trkpt>
      <trkpt lat="46.58614" lon="3.05968">
        <ele>298.2</ele>
        <time>2014-05-19T18:45:14Z</time>
      </trkpt>
      <trkpt lat="46.58628" lon="3.05976">
        <ele>297.2</ele>
        <time>2014-05-19T18:45:16Z</time>
      </trkpt>
      <trkpt lat="46.58643" lon="3.05984">
        <ele>296.1</ele>
        <time>2014-05-19T18:45:18Z</time>
      </trkpt>
      <trkpt lat="46.58651" lon="3.05988">
        <ele>295.2</ele>
        <time>2014-05-19T18:45:19Z</time>
      </trkpt>
      <trkpt lat="46.5866" lon="3.05993">
        <ele>294.3</ele>
        <time>2014-05-19T18:45:20Z</time>
      </trkpt>
      <trkpt lat="46.58668" lon="3.05998">
        <ele>293.6</ele>
        <time>2014-05-19T18:45:21Z</time>
      </trkpt>
      <trkpt lat="46.58679" lon="3.06004">
        <ele>293</ele>
        <time>2014-05-19T18:45:22Z</time>
      </trkpt>
      <trkpt lat="46.5869" lon="3.0601">
        <ele>292.4</ele>
        <time>2014-05-19T18:45:23Z</time>
      </trkpt>
      <trkpt lat="46.587" lon="3.06015">
        <ele>291.9</ele>
        <time>2014-05-19T18:45:24Z</time>
      </trkpt>
      <trkpt lat="46.5871" lon="3.06021">
        <ele>291.5</ele>
        <time>2014-05-19T18:45:25Z</time>
      </trkpt>
      <trkpt lat="46.58719" lon="3.06027">
        <ele>291.1</ele>
        <time>2014-05-19T18:45:26Z</time>
      </trkpt>
      <trkpt lat="46.58728" lon="3.06034">
        <ele>290.6</ele>
        <time>2014-05-19T18:45:27Z</time>
      </trkpt>
      <trkpt lat="46.58736" lon="3.06042">
        <ele>290.3</ele>
        <time>2014-05-19T18:45:28Z</time>
      </trkpt>
      <trkpt lat="46.58744" lon="3.06052">
        <ele>290.1</ele>
        <time>2014-05-19T18:45:29Z</time>
      </trkpt>
      <trkpt lat="46.58753" lon="3.06064">
        <ele>289.7</ele>
        <time>2014-05-19T18:45:30Z</time>
      </trkpt>
      <trkpt lat="46.58761" lon="3.06075">
        <ele>289.3</ele>
        <time>2014-05-19T18:45:31Z</time>
      </trkpt>
      <trkpt lat="46.58769" lon="3.06086">
        <ele>288.9</ele>
        <time>2014-05-19T18:45:32Z</time>
      </trkpt>
      <trkpt lat="46.58776" lon="3.06099">
        <ele>288.5</ele>
        <time>2014-05-19T18:45:33Z</time>
      </trkpt>
      <trkpt lat="46.58782" lon="3.0611">
        <ele>288.1</ele>
        <time>2014-05-19T18:45:34Z</time>
      </trkpt>
      <trkpt lat="46.58786" lon="3.0612">
        <ele>287.7</ele>
        <time>2014-05-19T18:45:35Z</time>
      </trkpt>
      <trkpt lat="46.58796" lon="3.06136">
        <ele>287.4</ele>
        <time>2014-05-19T18:45:37Z</time>
      </trkpt>
      <trkpt lat="46.58805" lon="3.06141">
        <ele>287.1</ele>
        <time>2014-05-19T18:45:39Z</time>
      </trkpt>
      <trkpt lat="46.58814" lon="3.06135">
        <ele>286.7</ele>
        <time>2014-05-19T18:45:45Z</time>
      </trkpt>
      <trkpt lat="46.58818" lon="3.06124">
        <ele>286.4</ele>
        <time>2014-05-19T18:45:47Z</time>
      </trkpt>
      <trkpt lat="46.58816" lon="3.06108">
        <ele>286</ele>
        <time>2014-05-19T18:45:49Z</time>
      </trkpt>
      <trkpt lat="46.58808" lon="3.06093">
        <ele>285.8</ele>
        <time>2014-05-19T18:45:51Z</time>
      </trkpt>
      <trkpt lat="46.588" lon="3.06077">
        <ele>285.7</ele>
        <time>2014-05-19T18:45:53Z</time>
      </trkpt>
      <trkpt lat="46.58793" lon="3.06062">
        <ele>285.6</ele>
        <time>2014-05-19T18:45:55Z</time>
      </trkpt>
      <trkpt lat="46.58787" lon="3.06051">
        <ele>285.5</ele>
        <time>2014-05-19T18:45:57Z</time>
      </trkpt>
      <trkpt lat="46.58782" lon="3.0604">
        <ele>285.4</ele>
        <time>2014-05-19T18:46:00Z</time>
      </trkpt>
      <trkpt lat="46.58776" lon="3.06029">
        <ele>285.5</ele>
        <time>2014-05-19T18:46:05Z</time>
      </trkpt>
      <trkpt lat="46.58769" lon="3.06017">
        <ele>285.4</ele>
        <time>2014-05-19T18:46:10Z</time>
      </trkpt>
      <trkpt lat="46.5876" lon="3.06">
        <ele>285.4</ele>
        <time>2014-05-19T18:46:12Z</time>
      </trkpt>
      <trkpt lat="46.58755" lon="3.05987">
        <ele>285.5</ele>
        <time>2014-05-19T18:46:14Z</time>
      </trkpt>
      <trkpt lat="46.58748" lon="3.05976">
        <ele>285.6</ele>
        <time>2014-05-19T18:46:16Z</time>
      </trkpt>
      <trkpt lat="46.58742" lon="3.05968">
        <ele>285.7</ele>
        <time>2014-05-19T18:46:18Z</time>
      </trkpt>
      <trkpt lat="46.58736" lon="3.05955">
        <ele>285.7</ele>
        <time>2014-05-19T18:46:20Z</time>
      </trkpt>
      <trkpt lat="46.58728" lon="3.05941">
        <ele>285.8</ele>
        <time>2014-05-19T18:46:22Z</time>
      </trkpt>
      <trkpt lat="46.58721" lon="3.05928">
        <ele>285.9</ele>
        <time>2014-05-19T18:46:24Z</time>
      </trkpt>
      <trkpt lat="46.58727" lon="3.05916">
        <ele>286.2</ele>
        <time>2014-05-19T18:46:27Z</time>
      </trkpt>
      <trkpt lat="46.58739" lon="3.05915">
        <ele>286.3</ele>
        <time>2014-05-19T18:46:29Z</time>
      </trkpt>
      <trkpt lat="46.58753" lon="3.05916">
        <ele>286.6</ele>
        <time>2014-05-19T18:46:31Z</time>
      </trkpt>
      <trkpt lat="46.58761" lon="3.05915">
        <ele>286.8</ele>
        <time>2014-05-19T18:46:32Z</time>
      </trkpt>
      <trkpt lat="46.5877" lon="3.05917">
        <ele>287</ele>
        <time>2014-05-19T18:46:33Z</time>
      </trkpt>
      <trkpt lat="46.58785" lon="3.05919">
        <ele>287.3</ele>
        <time>2014-05-19T18:46:35Z</time>
      </trkpt>
      <trkpt lat="46.58799" lon="3.05922">
        <ele>287.7</ele>
        <time>2014-05-19T18:46:37Z</time>
      </trkpt>
      <trkpt lat="46.58812" lon="3.05926">
        <ele>288.2</ele>
        <time>2014-05-19T18:46:39Z</time>
      </trkpt>
      <trkpt lat="46.58823" lon="3.0594">
        <ele>288.8</ele>
        <time>2014-05-19T18:46:41Z</time>
      </trkpt>
      <trkpt lat="46.58836" lon="3.05956">
        <ele>289.5</ele>
        <time>2014-05-19T18:46:43Z</time>
      </trkpt>
      <trkpt lat="46.58844" lon="3.05963">
        <ele>290.3</ele>
        <time>2014-05-19T18:46:44Z</time>
      </trkpt>
      <trkpt lat="46.58853" lon="3.0597">
        <ele>291.1</ele>
        <time>2014-05-19T18:46:45Z</time>
      </trkpt>
      <trkpt lat="46.58861" lon="3.05976">
        <ele>291.9</ele>
        <time>2014-05-19T18:46:46Z</time>
      </trkpt>
      <trkpt lat="46.58875" lon="3.05984">
        <ele>292.6</ele>
        <time>2014-05-19T18:46:48Z</time>
      </trkpt>
      <trkpt lat="46.5889" lon="3.05989">
        <ele>293.5</ele>
        <time>2014-05-19T18:46:50Z</time>
      </trkpt>
      <trkpt lat="46.58905" lon="3.05991">
        <ele>294.2</ele>
        <time>2014-05-19T18:46:52Z</time>
      </trkpt>
      <trkpt lat="46.58921" lon="3.05988">
        <ele>295</ele>
        <time>2014-05-19T18:46:54Z</time>
      </trkpt>
      <trkpt lat="46.5893" lon="3.05983">
        <ele>295.7</ele>
        <time>2014-05-19T18:46:55Z</time>
      </trkpt>
      <trkpt lat="46.5894" lon="3.05979">
        <ele>296.5</ele>
        <time>2014-05-19T18:46:56Z</time>
      </trkpt>
      <trkpt lat="46.58949" lon="3.05977">
        <ele>297.3</ele>
        <time>2014-05-19T18:46:57Z</time>
      </trkpt>
      <trkpt lat="46.58959" lon="3.05977">
        <ele>297.8</ele>
        <time>2014-05-19T18:46:58Z</time>
      </trkpt>
      <trkpt lat="46.58971" lon="3.05981">
        <ele>298.4</ele>
        <time>2014-05-19T18:46:59Z</time>
      </trkpt>
      <trkpt lat="46.5898" lon="3.05987">
        <ele>298.9</ele>
        <time>2014-05-19T18:47:00Z</time>
      </trkpt>
      <trkpt lat="46.58991" lon="3.05993">
        <ele>299.3</ele>
        <time>2014-05-19T18:47:01Z</time>
      </trkpt>
      <trkpt lat="46.59002" lon="3.05999">
        <ele>299.7</ele>
        <time>2014-05-19T18:47:02Z</time>
      </trkpt>
      <trkpt lat="46.59013" lon="3.06005">
        <ele>300.2</ele>
        <time>2014-05-19T18:47:03Z</time>
      </trkpt>
      <trkpt lat="46.59024" lon="3.06012">
        <ele>300.7</ele>
        <time>2014-05-19T18:47:04Z</time>
      </trkpt>
      <trkpt lat="46.59037" lon="3.06019">
        <ele>301.4</ele>
        <time>2014-05-19T18:47:05Z</time>
      </trkpt>
      <trkpt lat="46.5905" lon="3.06026">
        <ele>302</ele>
        <time>2014-05-19T18:47:06Z</time>
      </trkpt>
      <trkpt lat="46.59063" lon="3.06035">
        <ele>302.6</ele>
        <time>2014-05-19T18:47:07Z</time>
      </trkpt>
      <trkpt lat="46.59076" lon="3.06044">
        <ele>303.2</ele>
        <time>2014-05-19T18:47:08Z</time>
      </trkpt>
      <trkpt lat="46.5909" lon="3.06053">
        <ele>303.9</ele>
        <time>2014-05-19T18:47:09Z</time>
      </trkpt>
      <trkpt lat="46.59101" lon="3.06066">
        <ele>304.5</ele>
        <time>2014-05-19T18:47:10Z</time>
      </trkpt>
      <trkpt lat="46.59112" lon="3.0608">
        <ele>305.3</ele>
        <time>2014-05-19T18:47:11Z</time>
      </trkpt>
      <trkpt lat="46.59122" lon="3.06096">
        <ele>306.3</ele>
        <time>2014-05-19T18:47:12Z</time>
      </trkpt>
      <trkpt lat="46.59129" lon="3.06111">
        <ele>306.8</ele>
        <time>2014-05-19T18:47:13Z</time>
      </trkpt>
      <trkpt lat="46.59135" lon="3.06123">
        <ele>307.3</ele>
        <time>2014-05-19T18:47:14Z</time>
      </trkpt>
      <trkpt lat="46.59139" lon="3.06135">
        <ele>307.9</ele>
        <time>2014-05-19T18:47:15Z</time>
      </trkpt>
      <trkpt lat="46.59141" lon="3.06147">
        <ele>308.4</ele>
        <time>2014-05-19T18:47:17Z</time>
      </trkpt>
      <trkpt lat="46.59136" lon="3.06139">
        <ele>308.9</ele>
        <time>2014-05-19T18:47:49Z</time>
      </trkpt>
      <trkpt lat="46.59142" lon="3.06161">
        <ele>311.2</ele>
        <time>2014-05-19T18:47:58Z</time>
      </trkpt>
      <trkpt lat="46.59142" lon="3.06161">
        <ele>311.2</ele>
        <time>2014-05-19T18:47:58Z</time>
      </trkpt>
      <trkpt lat="46.5915" lon="3.06156">
        <ele>311.2</ele>
        <time>2014-05-19T18:48:02Z</time>
      </trkpt>
      <trkpt lat="46.59155" lon="3.0615">
        <ele>311.2</ele>
        <time>2014-05-19T18:48:16Z</time>
      </trkpt>
      <trkpt lat="46.59141" lon="3.06148">
        <ele>307.4</ele>
        <time>2014-05-19T18:48:37Z</time>
      </trkpt>
      <trkpt lat="46.59141" lon="3.06148">
        <ele>308.1</ele>
        <time>2014-05-19T18:48:37Z</time>
      </trkpt>
      <trkpt lat="46.59141" lon="3.06135">
        <ele>308.5</ele>
        <time>2014-05-19T18:48:43Z</time>
      </trkpt>
      <trkpt lat="46.59138" lon="3.06123">
        <ele>308.8</ele>
        <time>2014-05-19T18:48:45Z</time>
      </trkpt>
      <trkpt lat="46.59128" lon="3.06101">
        <ele>308.8</ele>
        <time>2014-05-19T18:48:46Z</time>
      </trkpt>
      <trkpt lat="46.59122" lon="3.06089">
        <ele>308.9</ele>
        <time>2014-05-19T18:48:47Z</time>
      </trkpt>
      <trkpt lat="46.59114" lon="3.06077">
        <ele>309.3</ele>
        <time>2014-05-19T18:48:48Z</time>
      </trkpt>
      <trkpt lat="46.59106" lon="3.06065">
        <ele>309.7</ele>
        <time>2014-05-19T18:48:49Z</time>
      </trkpt>
      <trkpt lat="46.59096" lon="3.06053">
        <ele>310</ele>
        <time>2014-05-19T18:48:50Z</time>
      </trkpt>
      <trkpt lat="46.59084" lon="3.06044">
        <ele>310.3</ele>
        <time>2014-05-19T18:48:51Z</time>
      </trkpt>
      <trkpt lat="46.59071" lon="3.06035">
        <ele>310.3</ele>
        <time>2014-05-19T18:48:52Z</time>
      </trkpt>
      <trkpt lat="46.59057" lon="3.06025">
        <ele>310.2</ele>
        <time>2014-05-19T18:48:53Z</time>
      </trkpt>
      <trkpt lat="46.59043" lon="3.0602">
        <ele>310.1</ele>
        <time>2014-05-19T18:48:54Z</time>
      </trkpt>
      <trkpt lat="46.59029" lon="3.06012">
        <ele>310</ele>
        <time>2014-05-19T18:48:55Z</time>
      </trkpt>
      <trkpt lat="46.59016" lon="3.06004">
        <ele>309.8</ele>
        <time>2014-05-19T18:48:56Z</time>
      </trkpt>
      <trkpt lat="46.59004" lon="3.05996">
        <ele>309.5</ele>
        <time>2014-05-19T18:48:57Z</time>
      </trkpt>
      <trkpt lat="46.58992" lon="3.0599">
        <ele>308.8</ele>
        <time>2014-05-19T18:48:58Z</time>
      </trkpt>
      <trkpt lat="46.58981" lon="3.05983">
        <ele>308</ele>
        <time>2014-05-19T18:48:59Z</time>
      </trkpt>
      <trkpt lat="46.58969" lon="3.05977">
        <ele>307.2</ele>
        <time>2014-05-19T18:49:00Z</time>
      </trkpt>
      <trkpt lat="46.58959" lon="3.05973">
        <ele>306.3</ele>
        <time>2014-05-19T18:49:01Z</time>
      </trkpt>
      <trkpt lat="46.58948" lon="3.05975">
        <ele>305.1</ele>
        <time>2014-05-19T18:49:02Z</time>
      </trkpt>
      <trkpt lat="46.58938" lon="3.05979">
        <ele>303.9</ele>
        <time>2014-05-19T18:49:03Z</time>
      </trkpt>
      <trkpt lat="46.58927" lon="3.05981">
        <ele>302.6</ele>
        <time>2014-05-19T18:49:04Z</time>
      </trkpt>
      <trkpt lat="46.58915" lon="3.05985">
        <ele>301.2</ele>
        <time>2014-05-19T18:49:06Z</time>
      </trkpt>
      <trkpt lat="46.58904" lon="3.05985">
        <ele>299.6</ele>
        <time>2014-05-19T18:49:06Z</time>
      </trkpt>
      <trkpt lat="46.58894" lon="3.05984">
        <ele>298.2</ele>
        <time>2014-05-19T18:49:07Z</time>
      </trkpt>
      <trkpt lat="46.58884" lon="3.0598">
        <ele>297</ele>
        <time>2014-05-19T18:49:08Z</time>
      </trkpt>
      <trkpt lat="46.58876" lon="3.05976">
        <ele>296.2</ele>
        <time>2014-05-19T18:49:09Z</time>
      </trkpt>
      <trkpt lat="46.58865" lon="3.05973">
        <ele>295.5</ele>
        <time>2014-05-19T18:49:11Z</time>
      </trkpt>
      <trkpt lat="46.58859" lon="3.05955">
        <ele>294.9</ele>
        <time>2014-05-19T18:49:14Z</time>
      </trkpt>
      <trkpt lat="46.58859" lon="3.05941">
        <ele>294.3</ele>
        <time>2014-05-19T18:49:16Z</time>
      </trkpt>
      <trkpt lat="46.5886" lon="3.05928">
        <ele>293.7</ele>
        <time>2014-05-19T18:49:22Z</time>
      </trkpt>
      <trkpt lat="46.58866" lon="3.05914">
        <ele>293.2</ele>
        <time>2014-05-19T18:49:25Z</time>
      </trkpt>
      <trkpt lat="46.58865" lon="3.059">
        <ele>292.8</ele>
        <time>2014-05-19T18:49:28Z</time>
      </trkpt>
      <trkpt lat="46.58862" lon="3.05912">
        <ele>292.1</ele>
        <time>2014-05-19T18:49:42Z</time>
      </trkpt>
      <trkpt lat="46.58863" lon="3.05926">
        <ele>291.6</ele>
        <time>2014-05-19T18:49:46Z</time>
      </trkpt>
      <trkpt lat="46.5886" lon="3.05938">
        <ele>291</ele>
        <time>2014-05-19T18:49:50Z</time>
      </trkpt>
      <trkpt lat="46.58858" lon="3.05955">
        <ele>290.3</ele>
        <time>2014-05-19T18:49:53Z</time>
      </trkpt>
      <trkpt lat="46.58857" lon="3.05967">
        <ele>289.7</ele>
        <time>2014-05-19T18:49:57Z</time>
      </trkpt>
      <trkpt lat="46.58848" lon="3.05964">
        <ele>289.1</ele>
        <time>2014-05-19T18:50:02Z</time>
      </trkpt>
      <trkpt lat="46.58841" lon="3.05956">
        <ele>288.4</ele>
        <time>2014-05-19T18:50:03Z</time>
      </trkpt>
      <trkpt lat="46.5883" lon="3.05942">
        <ele>287.8</ele>
        <time>2014-05-19T18:50:05Z</time>
      </trkpt>
      <trkpt lat="46.58821" lon="3.05928">
        <ele>287.2</ele>
        <time>2014-05-19T18:50:07Z</time>
      </trkpt>
      <trkpt lat="46.58812" lon="3.05919">
        <ele>286.8</ele>
        <time>2014-05-19T18:50:09Z</time>
      </trkpt>
      <trkpt lat="46.58801" lon="3.05917">
        <ele>286.3</ele>
        <time>2014-05-19T18:50:11Z</time>
      </trkpt>
      <trkpt lat="46.58787" lon="3.05915">
        <ele>286.1</ele>
        <time>2014-05-19T18:50:13Z</time>
      </trkpt>
      <trkpt lat="46.58771" lon="3.05913">
        <ele>285.9</ele>
        <time>2014-05-19T18:50:15Z</time>
      </trkpt>
      <trkpt lat="46.58763" lon="3.05913">
        <ele>285.6</ele>
        <time>2014-05-19T18:50:16Z</time>
      </trkpt>
      <trkpt lat="46.58754" lon="3.05912">
        <ele>285.2</ele>
        <time>2014-05-19T18:50:18Z</time>
      </trkpt>
      <trkpt lat="46.58746" lon="3.05911">
        <ele>284.8</ele>
        <time>2014-05-19T18:50:18Z</time>
      </trkpt>
      <trkpt lat="46.58737" lon="3.05911">
        <ele>284.3</ele>
        <time>2014-05-19T18:50:19Z</time>
      </trkpt>
      <trkpt lat="46.58723" lon="3.05911">
        <ele>283.8</ele>
        <time>2014-05-19T18:50:21Z</time>
      </trkpt>
      <trkpt lat="46.58713" lon="3.05909">
        <ele>283.5</ele>
        <time>2014-05-19T18:50:24Z</time>
      </trkpt>
      <trkpt lat="46.58704" lon="3.05897">
        <ele>283.1</ele>
        <time>2014-05-19T18:50:31Z</time>
      </trkpt>
      <trkpt lat="46.58693" lon="3.05886">
        <ele>282.6</ele>
        <time>2014-05-19T18:50:33Z</time>
      </trkpt>
      <trkpt lat="46.58683" lon="3.05876">
        <ele>282.1</ele>
        <time>2014-05-19T18:50:35Z</time>
      </trkpt>
      <trkpt lat="46.58669" lon="3.05868">
        <ele>281.7</ele>
        <time>2014-05-19T18:50:37Z</time>
      </trkpt>
      <trkpt lat="46.58656" lon="3.0586">
        <ele>281.1</ele>
        <time>2014-05-19T18:50:39Z</time>
      </trkpt>
      <trkpt lat="46.58643" lon="3.05857">
        <ele>280.9</ele>
        <time>2014-05-19T18:50:41Z</time>
      </trkpt>
      <trkpt lat="46.58634" lon="3.05852">
        <ele>280.7</ele>
        <time>2014-05-19T18:50:43Z</time>
      </trkpt>
      <trkpt lat="46.58625" lon="3.05846">
        <ele>280.6</ele>
        <time>2014-05-19T18:50:45Z</time>
      </trkpt>
      <trkpt lat="46.58618" lon="3.05836">
        <ele>280.5</ele>
        <time>2014-05-19T18:50:47Z</time>
      </trkpt>
      <trkpt lat="46.58613" lon="3.05822">
        <ele>280.5</ele>
        <time>2014-05-19T18:50:49Z</time>
      </trkpt>
      <trkpt lat="46.58611" lon="3.0581">
        <ele>280.4</ele>
        <time>2014-05-19T18:50:51Z</time>
      </trkpt>
      <trkpt lat="46.58602" lon="3.05801">
        <ele>280.4</ele>
        <time>2014-05-19T18:50:53Z</time>
      </trkpt>
      <trkpt lat="46.58592" lon="3.05792">
        <ele>280.6</ele>
        <time>2014-05-19T18:50:55Z</time>
      </trkpt>
      <trkpt lat="46.58581" lon="3.05782">
        <ele>280.6</ele>
        <time>2014-05-19T18:50:57Z</time>
      </trkpt>
      <trkpt lat="46.5857" lon="3.0577">
        <ele>280.7</ele>
        <time>2014-05-19T18:51:00Z</time>
      </trkpt>
      <trkpt lat="46.58559" lon="3.05756">
        <ele>280.7</ele>
        <time>2014-05-19T18:51:01Z</time>
      </trkpt>
      <trkpt lat="46.58548" lon="3.0574">
        <ele>280.5</ele>
        <time>2014-05-19T18:51:03Z</time>
      </trkpt>
      <trkpt lat="46.58537" lon="3.05724">
        <ele>280.4</ele>
        <time>2014-05-19T18:51:05Z</time>
      </trkpt>
      <trkpt lat="46.58524" lon="3.0571">
        <ele>280.3</ele>
        <time>2014-05-19T18:51:07Z</time>
      </trkpt>
      <trkpt lat="46.5852" lon="3.05699">
        <ele>280.3</ele>
        <time>2014-05-19T18:51:08Z</time>
      </trkpt>
      <trkpt lat="46.58511" lon="3.05684">
        <ele>280.3</ele>
        <time>2014-05-19T18:51:10Z</time>
      </trkpt>
      <trkpt lat="46.58501" lon="3.05672">
        <ele>280.4</ele>
        <time>2014-05-19T18:51:12Z</time>
      </trkpt>
      <trkpt lat="46.58492" lon="3.05659">
        <ele>280.6</ele>
        <time>2014-05-19T18:51:14Z</time>
      </trkpt>
      <trkpt lat="46.58483" lon="3.05646">
        <ele>280.9</ele>
        <time>2014-05-19T18:51:16Z</time>
      </trkpt>
      <trkpt lat="46.58476" lon="3.05633">
        <ele>281.4</ele>
        <time>2014-05-19T18:51:18Z</time>
      </trkpt>
      <trkpt lat="46.58468" lon="3.05621">
        <ele>282</ele>
        <time>2014-05-19T18:51:20Z</time>
      </trkpt>
      <trkpt lat="46.5846" lon="3.05608">
        <ele>282.7</ele>
        <time>2014-05-19T18:51:22Z</time>
      </trkpt>
      <trkpt lat="46.5845" lon="3.05593">
        <ele>283.4</ele>
        <time>2014-05-19T18:51:24Z</time>
      </trkpt>
      <trkpt lat="46.58443" lon="3.05585">
        <ele>284.2</ele>
        <time>2014-05-19T18:51:25Z</time>
      </trkpt>
      <trkpt lat="46.58431" lon="3.05572">
        <ele>284.9</ele>
        <time>2014-05-19T18:51:27Z</time>
      </trkpt>
      <trkpt lat="46.58425" lon="3.05564">
        <ele>285.5</ele>
        <time>2014-05-19T18:51:28Z</time>
      </trkpt>
      <trkpt lat="46.58417" lon="3.05556">
        <ele>286.2</ele>
        <time>2014-05-19T18:51:29Z</time>
      </trkpt>
      <trkpt lat="46.58409" lon="3.05548">
        <ele>286.7</ele>
        <time>2014-05-19T18:51:30Z</time>
      </trkpt>
      <trkpt lat="46.58403" lon="3.05537">
        <ele>287.2</ele>
        <time>2014-05-19T18:51:31Z</time>
      </trkpt>
      <trkpt lat="46.58395" lon="3.05525">
        <ele>287.6</ele>
        <time>2014-05-19T18:51:32Z</time>
      </trkpt>
      <trkpt lat="46.58387" lon="3.05515">
        <ele>287.9</ele>
        <time>2014-05-19T18:51:33Z</time>
      </trkpt>
      <trkpt lat="46.58379" lon="3.05504">
        <ele>288.4</ele>
        <time>2014-05-19T18:51:34Z</time>
      </trkpt>
      <trkpt lat="46.58371" lon="3.05494">
        <ele>288.8</ele>
        <time>2014-05-19T18:51:35Z</time>
      </trkpt>
      <trkpt lat="46.5836" lon="3.05488">
        <ele>289.3</ele>
        <time>2014-05-19T18:51:36Z</time>
      </trkpt>
      <trkpt lat="46.58351" lon="3.05482">
        <ele>289.8</ele>
        <time>2014-05-19T18:51:37Z</time>
      </trkpt>
      <trkpt lat="46.58339" lon="3.05483">
        <ele>290.3</ele>
        <time>2014-05-19T18:51:38Z</time>
      </trkpt>
      <trkpt lat="46.58325" lon="3.05484">
        <ele>290.8</ele>
        <time>2014-05-19T18:51:39Z</time>
      </trkpt>
      <trkpt lat="46.58313" lon="3.05483">
        <ele>291.4</ele>
        <time>2014-05-19T18:51:40Z</time>
      </trkpt>
      <trkpt lat="46.58301" lon="3.05481">
        <ele>292</ele>
        <time>2014-05-19T18:51:41Z</time>
      </trkpt>
      <trkpt lat="46.5829" lon="3.05474">
        <ele>292.5</ele>
        <time>2014-05-19T18:51:42Z</time>
      </trkpt>
      <trkpt lat="46.58281" lon="3.05463">
        <ele>293</ele>
        <time>2014-05-19T18:51:43Z</time>
      </trkpt>
      <trkpt lat="46.58271" lon="3.0545">
        <ele>293.6</ele>
        <time>2014-05-19T18:51:44Z</time>
      </trkpt>
      <trkpt lat="46.58262" lon="3.05437">
        <ele>293.9</ele>
        <time>2014-05-19T18:51:45Z</time>
      </trkpt>
      <trkpt lat="46.58252" lon="3.05423">
        <ele>294.2</ele>
        <time>2014-05-19T18:51:46Z</time>
      </trkpt>
      <trkpt lat="46.58242" lon="3.05407">
        <ele>294.5</ele>
        <time>2014-05-19T18:51:47Z</time>
      </trkpt>
      <trkpt lat="46.58232" lon="3.05392">
        <ele>294.6</ele>
        <time>2014-05-19T18:51:48Z</time>
      </trkpt>
      <trkpt lat="46.58221" lon="3.05377">
        <ele>294.9</ele>
        <time>2014-05-19T18:51:49Z</time>
      </trkpt>
      <trkpt lat="46.58209" lon="3.05361">
        <ele>295.1</ele>
        <time>2014-05-19T18:51:50Z</time>
      </trkpt>
      <trkpt lat="46.58198" lon="3.05345">
        <ele>295.5</ele>
        <time>2014-05-19T18:51:51Z</time>
      </trkpt>
      <trkpt lat="46.58187" lon="3.05329">
        <ele>295.8</ele>
        <time>2014-05-19T18:51:52Z</time>
      </trkpt>
      <trkpt lat="46.58176" lon="3.05314">
        <ele>296.3</ele>
        <time>2014-05-19T18:51:53Z</time>
      </trkpt>
      <trkpt lat="46.58165" lon="3.05298">
        <ele>296.9</ele>
        <time>2014-05-19T18:51:54Z</time>
      </trkpt>
      <trkpt lat="46.58153" lon="3.05282">
        <ele>297.6</ele>
        <time>2014-05-19T18:51:55Z</time>
      </trkpt>
      <trkpt lat="46.58143" lon="3.05267">
        <ele>298.3</ele>
        <time>2014-05-19T18:51:56Z</time>
      </trkpt>
      <trkpt lat="46.58131" lon="3.0525">
        <ele>299.1</ele>
        <time>2014-05-19T18:51:57Z</time>
      </trkpt>
      <trkpt lat="46.5812" lon="3.05236">
        <ele>300</ele>
        <time>2014-05-19T18:51:58Z</time>
      </trkpt>
      <trkpt lat="46.58108" lon="3.0522">
        <ele>301.1</ele>
        <time>2014-05-19T18:51:59Z</time>
      </trkpt>
      <trkpt lat="46.58097" lon="3.05205">
        <ele>302</ele>
        <time>2014-05-19T18:52:00Z</time>
      </trkpt>
      <trkpt lat="46.58084" lon="3.0519">
        <ele>302.8</ele>
        <time>2014-05-19T18:52:01Z</time>
      </trkpt>
      <trkpt lat="46.58071" lon="3.05175">
        <ele>303.6</ele>
        <time>2014-05-19T18:52:02Z</time>
      </trkpt>
      <trkpt lat="46.58058" lon="3.0516">
        <ele>304.3</ele>
        <time>2014-05-19T18:52:03Z</time>
      </trkpt>
      <trkpt lat="46.58045" lon="3.05145">
        <ele>305</ele>
        <time>2014-05-19T18:52:04Z</time>
      </trkpt>
      <trkpt lat="46.58033" lon="3.0513">
        <ele>305.6</ele>
        <time>2014-05-19T18:52:05Z</time>
      </trkpt>
      <trkpt lat="46.5802" lon="3.05116">
        <ele>306.4</ele>
        <time>2014-05-19T18:52:07Z</time>
      </trkpt>
      <trkpt lat="46.58009" lon="3.05102">
        <ele>307.2</ele>
        <time>2014-05-19T18:52:07Z</time>
      </trkpt>
      <trkpt lat="46.57997" lon="3.05088">
        <ele>307.9</ele>
        <time>2014-05-19T18:52:09Z</time>
      </trkpt>
      <trkpt lat="46.57985" lon="3.05074">
        <ele>308.7</ele>
        <time>2014-05-19T18:52:09Z</time>
      </trkpt>
      <trkpt lat="46.57974" lon="3.05061">
        <ele>309.5</ele>
        <time>2014-05-19T18:52:10Z</time>
      </trkpt>
      <trkpt lat="46.57962" lon="3.05048">
        <ele>310.3</ele>
        <time>2014-05-19T18:52:11Z</time>
      </trkpt>
      <trkpt lat="46.5795" lon="3.05034">
        <ele>311.2</ele>
        <time>2014-05-19T18:52:12Z</time>
      </trkpt>
      <trkpt lat="46.5794" lon="3.05021">
        <ele>312.2</ele>
        <time>2014-05-19T18:52:14Z</time>
      </trkpt>
      <trkpt lat="46.5793" lon="3.05008">
        <ele>313.2</ele>
        <time>2014-05-19T18:52:14Z</time>
      </trkpt>
      <trkpt lat="46.57921" lon="3.04995">
        <ele>314.3</ele>
        <time>2014-05-19T18:52:16Z</time>
      </trkpt>
      <trkpt lat="46.57912" lon="3.04981">
        <ele>315.4</ele>
        <time>2014-05-19T18:52:17Z</time>
      </trkpt>
      <trkpt lat="46.57904" lon="3.04966">
        <ele>316.4</ele>
        <time>2014-05-19T18:52:17Z</time>
      </trkpt>
      <trkpt lat="46.57894" lon="3.0495">
        <ele>317.3</ele>
        <time>2014-05-19T18:52:18Z</time>
      </trkpt>
      <trkpt lat="46.57885" lon="3.04933">
        <ele>318.1</ele>
        <time>2014-05-19T18:52:19Z</time>
      </trkpt>
      <trkpt lat="46.57876" lon="3.04915">
        <ele>318.9</ele>
        <time>2014-05-19T18:52:20Z</time>
      </trkpt>
      <trkpt lat="46.57867" lon="3.04897">
        <ele>319.6</ele>
        <time>2014-05-19T18:52:21Z</time>
      </trkpt>
      <trkpt lat="46.57857" lon="3.04879">
        <ele>320.2</ele>
        <time>2014-05-19T18:52:22Z</time>
      </trkpt>
      <trkpt lat="46.57848" lon="3.0486">
        <ele>320.8</ele>
        <time>2014-05-19T18:52:23Z</time>
      </trkpt>
      <trkpt lat="46.57839" lon="3.04841">
        <ele>321.2</ele>
        <time>2014-05-19T18:52:25Z</time>
      </trkpt>
      <trkpt lat="46.57829" lon="3.04823">
        <ele>321.5</ele>
        <time>2014-05-19T18:52:25Z</time>
      </trkpt>
      <trkpt lat="46.57818" lon="3.04805">
        <ele>321.7</ele>
        <time>2014-05-19T18:52:26Z</time>
      </trkpt>
      <trkpt lat="46.57808" lon="3.04786">
        <ele>321.8</ele>
        <time>2014-05-19T18:52:27Z</time>
      </trkpt>
      <trkpt lat="46.57799" lon="3.04769">
        <ele>322</ele>
        <time>2014-05-19T18:52:28Z</time>
      </trkpt>
      <trkpt lat="46.5779" lon="3.04751">
        <ele>322.1</ele>
        <time>2014-05-19T18:52:29Z</time>
      </trkpt>
      <trkpt lat="46.57782" lon="3.04734">
        <ele>322.2</ele>
        <time>2014-05-19T18:52:30Z</time>
      </trkpt>
      <trkpt lat="46.57773" lon="3.04718">
        <ele>322.6</ele>
        <time>2014-05-19T18:52:31Z</time>
      </trkpt>
      <trkpt lat="46.57768" lon="3.04704">
        <ele>323</ele>
        <time>2014-05-19T18:52:32Z</time>
      </trkpt>
      <trkpt lat="46.57763" lon="3.04689">
        <ele>323.6</ele>
        <time>2014-05-19T18:52:33Z</time>
      </trkpt>
      <trkpt lat="46.57759" lon="3.04676">
        <ele>324.4</ele>
        <time>2014-05-19T18:52:35Z</time>
      </trkpt>
      <trkpt lat="46.57755" lon="3.04664">
        <ele>324.6</ele>
        <time>2014-05-19T18:52:35Z</time>
      </trkpt>
      <trkpt lat="46.57747" lon="3.04644">
        <ele>324.9</ele>
        <time>2014-05-19T18:52:37Z</time>
      </trkpt>
      <trkpt lat="46.57741" lon="3.04627">
        <ele>325.3</ele>
        <time>2014-05-19T18:52:39Z</time>
      </trkpt>
      <trkpt lat="46.57734" lon="3.04616">
        <ele>325.7</ele>
        <time>2014-05-19T18:52:41Z</time>
      </trkpt>
      <trkpt lat="46.57729" lon="3.04612">
        <ele>326.2</ele>
        <time>2014-05-19T18:52:53Z</time>
      </trkpt>
      <trkpt lat="46.57728" lon="3.04606">
        <ele>331.6</ele>
        <time>2014-05-19T18:53:02Z</time>
      </trkpt>
      <trkpt lat="46.57728" lon="3.04606">
        <ele>331.6</ele>
        <time>2014-05-19T18:53:02Z</time>
      </trkpt>
      <trkpt lat="46.57725" lon="3.04608">
        <ele>331.6</ele>
        <time>2014-05-19T18:53:13Z</time>
      </trkpt>
      <trkpt lat="46.57715" lon="3.04637">
        <ele>336</ele>
        <time>2014-05-19T18:54:08Z</time>
      </trkpt>
      <trkpt lat="46.57715" lon="3.04637">
        <ele>336.3</ele>
        <time>2014-05-19T18:54:08Z</time>
      </trkpt>
      <trkpt lat="46.57715" lon="3.04657">
        <ele>336.5</ele>
        <time>2014-05-19T18:54:09Z</time>
      </trkpt>
      <trkpt lat="46.57714" lon="3.04672">
        <ele>336.6</ele>
        <time>2014-05-19T18:54:11Z</time>
      </trkpt>
      <trkpt lat="46.57716" lon="3.04685">
        <ele>336.6</ele>
        <time>2014-05-19T18:54:15Z</time>
      </trkpt>
      <trkpt lat="46.57726" lon="3.04691">
        <ele>336.6</ele>
        <time>2014-05-19T18:54:17Z</time>
      </trkpt>
      <trkpt lat="46.57739" lon="3.04698">
        <ele>336.9</ele>
        <time>2014-05-19T18:54:19Z</time>
      </trkpt>
      <trkpt lat="46.57747" lon="3.04702">
        <ele>337.3</ele>
        <time>2014-05-19T18:54:21Z</time>
      </trkpt>
      <trkpt lat="46.57749" lon="3.04702">
        <ele>337.7</ele>
        <time>2014-05-19T18:54:31Z</time>
      </trkpt>
      <trkpt lat="46.57759" lon="3.04711">
        <ele>336.1</ele>
        <time>2014-05-19T18:55:21Z</time>
      </trkpt>
      <trkpt lat="46.57759" lon="3.04711">
        <ele>336</ele>
        <time>2014-05-19T18:55:21Z</time>
      </trkpt>
      <trkpt lat="46.57768" lon="3.04725">
        <ele>336</ele>
        <time>2014-05-19T18:55:23Z</time>
      </trkpt>
      <trkpt lat="46.57777" lon="3.04743">
        <ele>335.9</ele>
        <time>2014-05-19T18:55:25Z</time>
      </trkpt>
      <trkpt lat="46.57782" lon="3.04754">
        <ele>335.8</ele>
        <time>2014-05-19T18:55:26Z</time>
      </trkpt>
      <trkpt lat="46.57787" lon="3.04764">
        <ele>335.7</ele>
        <time>2014-05-19T18:55:27Z</time>
      </trkpt>
      <trkpt lat="46.57793" lon="3.04776">
        <ele>335.6</ele>
        <time>2014-05-19T18:55:28Z</time>
      </trkpt>
      <trkpt lat="46.57799" lon="3.04788">
        <ele>335.5</ele>
        <time>2014-05-19T18:55:29Z</time>
      </trkpt>
      <trkpt lat="46.57805" lon="3.048">
        <ele>335.4</ele>
        <time>2014-05-19T18:55:30Z</time>
      </trkpt>
      <trkpt lat="46.57812" lon="3.04812">
        <ele>335.2</ele>
        <time>2014-05-19T18:55:31Z</time>
      </trkpt>
      <trkpt lat="46.57818" lon="3.04824">
        <ele>335</ele>
        <time>2014-05-19T18:55:32Z</time>
      </trkpt>
      <trkpt lat="46.57825" lon="3.04836">
        <ele>334.8</ele>
        <time>2014-05-19T18:55:33Z</time>
      </trkpt>
      <trkpt lat="46.57831" lon="3.04848">
        <ele>334.6</ele>
        <time>2014-05-19T18:55:34Z</time>
      </trkpt>
      <trkpt lat="46.57838" lon="3.0486">
        <ele>334.5</ele>
        <time>2014-05-19T18:55:35Z</time>
      </trkpt>
      <trkpt lat="46.57844" lon="3.04872">
        <ele>334.3</ele>
        <time>2014-05-19T18:55:36Z</time>
      </trkpt>
      <trkpt lat="46.57849" lon="3.04883">
        <ele>334.1</ele>
        <time>2014-05-19T18:55:37Z</time>
      </trkpt>
      <trkpt lat="46.57855" lon="3.04894">
        <ele>333.9</ele>
        <time>2014-05-19T18:55:38Z</time>
      </trkpt>
      <trkpt lat="46.5786" lon="3.04904">
        <ele>333.6</ele>
        <time>2014-05-19T18:55:39Z</time>
      </trkpt>
      <trkpt lat="46.57866" lon="3.04916">
        <ele>333.4</ele>
        <time>2014-05-19T18:55:40Z</time>
      </trkpt>
      <trkpt lat="46.57872" lon="3.04928">
        <ele>333.2</ele>
        <time>2014-05-19T18:55:41Z</time>
      </trkpt>
      <trkpt lat="46.57878" lon="3.04941">
        <ele>333</ele>
        <time>2014-05-19T18:55:42Z</time>
      </trkpt>
      <trkpt lat="46.57885" lon="3.04952">
        <ele>332.7</ele>
        <time>2014-05-19T18:55:43Z</time>
      </trkpt>
      <trkpt lat="46.5789" lon="3.04964">
        <ele>332.4</ele>
        <time>2014-05-19T18:55:44Z</time>
      </trkpt>
      <trkpt lat="46.57895" lon="3.04974">
        <ele>331.9</ele>
        <time>2014-05-19T18:55:45Z</time>
      </trkpt>
      <trkpt lat="46.57905" lon="3.04992">
        <ele>331.4</ele>
        <time>2014-05-19T18:55:47Z</time>
      </trkpt>
      <trkpt lat="46.57914" lon="3.05008">
        <ele>330.8</ele>
        <time>2014-05-19T18:55:49Z</time>
      </trkpt>
      <trkpt lat="46.57923" lon="3.0502">
        <ele>330.2</ele>
        <time>2014-05-19T18:55:51Z</time>
      </trkpt>
      <trkpt lat="46.57934" lon="3.05032">
        <ele>329.6</ele>
        <time>2014-05-19T18:55:53Z</time>
      </trkpt>
      <trkpt lat="46.57941" lon="3.05041">
        <ele>328.8</ele>
        <time>2014-05-19T18:55:54Z</time>
      </trkpt>
      <trkpt lat="46.57949" lon="3.05051">
        <ele>328</ele>
        <time>2014-05-19T18:55:55Z</time>
      </trkpt>
      <trkpt lat="46.57957" lon="3.0506">
        <ele>327</ele>
        <time>2014-05-19T18:55:56Z</time>
      </trkpt>
      <trkpt lat="46.57966" lon="3.0507">
        <ele>326.1</ele>
        <time>2014-05-19T18:55:57Z</time>
      </trkpt>
      <trkpt lat="46.57974" lon="3.05079">
        <ele>325</ele>
        <time>2014-05-19T18:55:58Z</time>
      </trkpt>
      <trkpt lat="46.57981" lon="3.05087">
        <ele>323.9</ele>
        <time>2014-05-19T18:55:59Z</time>
      </trkpt>
      <trkpt lat="46.57993" lon="3.051">
        <ele>322.8</ele>
        <time>2014-05-19T18:56:01Z</time>
      </trkpt>
      <trkpt lat="46.58004" lon="3.05112">
        <ele>321.7</ele>
        <time>2014-05-19T18:56:03Z</time>
      </trkpt>
      <trkpt lat="46.58011" lon="3.0512">
        <ele>320.7</ele>
        <time>2014-05-19T18:56:04Z</time>
      </trkpt>
      <trkpt lat="46.58019" lon="3.05129">
        <ele>319.7</ele>
        <time>2014-05-19T18:56:05Z</time>
      </trkpt>
      <trkpt lat="46.58027" lon="3.05139">
        <ele>318.7</ele>
        <time>2014-05-19T18:56:06Z</time>
      </trkpt>
      <trkpt lat="46.58037" lon="3.05151">
        <ele>317.7</ele>
        <time>2014-05-19T18:56:07Z</time>
      </trkpt>
      <trkpt lat="46.58046" lon="3.05162">
        <ele>316.9</ele>
        <time>2014-05-19T18:56:08Z</time>
      </trkpt>
      <trkpt lat="46.58056" lon="3.05174">
        <ele>316.1</ele>
        <time>2014-05-19T18:56:09Z</time>
      </trkpt>
      <trkpt lat="46.58066" lon="3.05185">
        <ele>315.3</ele>
        <time>2014-05-19T18:56:10Z</time>
      </trkpt>
      <trkpt lat="46.58076" lon="3.05197">
        <ele>314.5</ele>
        <time>2014-05-19T18:56:11Z</time>
      </trkpt>
      <trkpt lat="46.58086" lon="3.05209">
        <ele>313.7</ele>
        <time>2014-05-19T18:56:12Z</time>
      </trkpt>
      <trkpt lat="46.58097" lon="3.05222">
        <ele>313</ele>
        <time>2014-05-19T18:56:13Z</time>
      </trkpt>
      <trkpt lat="46.58107" lon="3.05235">
        <ele>312.2</ele>
        <time>2014-05-19T18:56:14Z</time>
      </trkpt>
      <trkpt lat="46.58117" lon="3.05249">
        <ele>311.4</ele>
        <time>2014-05-19T18:56:15Z</time>
      </trkpt>
      <trkpt lat="46.58127" lon="3.05263">
        <ele>310.6</ele>
        <time>2014-05-19T18:56:16Z</time>
      </trkpt>
      <trkpt lat="46.58136" lon="3.05277">
        <ele>309.8</ele>
        <time>2014-05-19T18:56:17Z</time>
      </trkpt>
      <trkpt lat="46.58145" lon="3.0529">
        <ele>309</ele>
        <time>2014-05-19T18:56:18Z</time>
      </trkpt>
      <trkpt lat="46.58155" lon="3.05303">
        <ele>308.3</ele>
        <time>2014-05-19T18:56:19Z</time>
      </trkpt>
      <trkpt lat="46.58164" lon="3.05316">
        <ele>307.5</ele>
        <time>2014-05-19T18:56:20Z</time>
      </trkpt>
      <trkpt lat="46.58174" lon="3.05329">
        <ele>306.7</ele>
        <time>2014-05-19T18:56:21Z</time>
      </trkpt>
      <trkpt lat="46.58184" lon="3.05343">
        <ele>306.1</ele>
        <time>2014-05-19T18:56:22Z</time>
      </trkpt>
      <trkpt lat="46.58193" lon="3.05356">
        <ele>305.6</ele>
        <time>2014-05-19T18:56:23Z</time>
      </trkpt>
      <trkpt lat="46.58203" lon="3.0537">
        <ele>305.1</ele>
        <time>2014-05-19T18:56:24Z</time>
      </trkpt>
      <trkpt lat="46.58213" lon="3.05383">
        <ele>304.6</ele>
        <time>2014-05-19T18:56:25Z</time>
      </trkpt>
      <trkpt lat="46.58222" lon="3.05396">
        <ele>304.2</ele>
        <time>2014-05-19T18:56:26Z</time>
      </trkpt>
      <trkpt lat="46.58232" lon="3.0541">
        <ele>303.8</ele>
        <time>2014-05-19T18:56:27Z</time>
      </trkpt>
      <trkpt lat="46.58242" lon="3.05423">
        <ele>303.4</ele>
        <time>2014-05-19T18:56:28Z</time>
      </trkpt>
      <trkpt lat="46.58251" lon="3.05437">
        <ele>303</ele>
        <time>2014-05-19T18:56:29Z</time>
      </trkpt>
      <trkpt lat="46.58261" lon="3.0545">
        <ele>302.6</ele>
        <time>2014-05-19T18:56:30Z</time>
      </trkpt>
      <trkpt lat="46.5827" lon="3.05463">
        <ele>302.3</ele>
        <time>2014-05-19T18:56:31Z</time>
      </trkpt>
      <trkpt lat="46.58279" lon="3.05474">
        <ele>301.9</ele>
        <time>2014-05-19T18:56:32Z</time>
      </trkpt>
      <trkpt lat="46.58288" lon="3.05484">
        <ele>301.6</ele>
        <time>2014-05-19T18:56:33Z</time>
      </trkpt>
      <trkpt lat="46.58297" lon="3.0549">
        <ele>301.2</ele>
        <time>2014-05-19T18:56:34Z</time>
      </trkpt>
      <trkpt lat="46.58305" lon="3.05495">
        <ele>300.9</ele>
        <time>2014-05-19T18:56:35Z</time>
      </trkpt>
      <trkpt lat="46.5832" lon="3.05498">
        <ele>300.7</ele>
        <time>2014-05-19T18:56:37Z</time>
      </trkpt>
      <trkpt lat="46.58335" lon="3.05498">
        <ele>300.4</ele>
        <time>2014-05-19T18:56:39Z</time>
      </trkpt>
      <trkpt lat="46.58351" lon="3.055">
        <ele>300.1</ele>
        <time>2014-05-19T18:56:41Z</time>
      </trkpt>
      <trkpt lat="46.58358" lon="3.05504">
        <ele>299.9</ele>
        <time>2014-05-19T18:56:42Z</time>
      </trkpt>
      <trkpt lat="46.58367" lon="3.05509">
        <ele>299.6</ele>
        <time>2014-05-19T18:56:43Z</time>
      </trkpt>
      <trkpt lat="46.58373" lon="3.05518">
        <ele>299.3</ele>
        <time>2014-05-19T18:56:44Z</time>
      </trkpt>
      <trkpt lat="46.58381" lon="3.05527">
        <ele>299</ele>
        <time>2014-05-19T18:56:45Z</time>
      </trkpt>
      <trkpt lat="46.58388" lon="3.05536">
        <ele>298.6</ele>
        <time>2014-05-19T18:56:46Z</time>
      </trkpt>
      <trkpt lat="46.58395" lon="3.05545">
        <ele>298.1</ele>
        <time>2014-05-19T18:56:47Z</time>
      </trkpt>
      <trkpt lat="46.58401" lon="3.05553">
        <ele>297.4</ele>
        <time>2014-05-19T18:56:48Z</time>
      </trkpt>
      <trkpt lat="46.5841" lon="3.05568">
        <ele>296.7</ele>
        <time>2014-05-19T18:56:50Z</time>
      </trkpt>
      <trkpt lat="46.5842" lon="3.05578">
        <ele>296.1</ele>
        <time>2014-05-19T18:56:52Z</time>
      </trkpt>
      <trkpt lat="46.58428" lon="3.05575">
        <ele>295.4</ele>
        <time>2014-05-19T18:56:55Z</time>
      </trkpt>
      <trkpt lat="46.58422" lon="3.05565">
        <ele>294.9</ele>
        <time>2014-05-19T18:57:00Z</time>
      </trkpt>
      <trkpt lat="46.58412" lon="3.05558">
        <ele>294.4</ele>
        <time>2014-05-19T18:57:02Z</time>
      </trkpt>
      <trkpt lat="46.58402" lon="3.05544">
        <ele>293.9</ele>
        <time>2014-05-19T18:57:04Z</time>
      </trkpt>
      <trkpt lat="46.58389" lon="3.05527">
        <ele>293.4</ele>
        <time>2014-05-19T18:57:06Z</time>
      </trkpt>
      <trkpt lat="46.58383" lon="3.05517">
        <ele>293</ele>
        <time>2014-05-19T18:57:07Z</time>
      </trkpt>
      <trkpt lat="46.58376" lon="3.05508">
        <ele>292.6</ele>
        <time>2014-05-19T18:57:08Z</time>
      </trkpt>
      <trkpt lat="46.58369" lon="3.05499">
        <ele>292.5</ele>
        <time>2014-05-19T18:57:09Z</time>
      </trkpt>
      <trkpt lat="46.58361" lon="3.05495">
        <ele>292.6</ele>
        <time>2014-05-19T18:57:10Z</time>
      </trkpt>
      <trkpt lat="46.58352" lon="3.05492">
        <ele>292.7</ele>
        <time>2014-05-19T18:57:11Z</time>
      </trkpt>
      <trkpt lat="46.58337" lon="3.05491">
        <ele>292.9</ele>
        <time>2014-05-19T18:57:13Z</time>
      </trkpt>
      <trkpt lat="46.58329" lon="3.05503">
        <ele>293.1</ele>
        <time>2014-05-19T18:57:15Z</time>
      </trkpt>
      <trkpt lat="46.58326" lon="3.05515">
        <ele>293.4</ele>
        <time>2014-05-19T18:57:16Z</time>
      </trkpt>
      <trkpt lat="46.58324" lon="3.05528">
        <ele>293.8</ele>
        <time>2014-05-19T18:57:17Z</time>
      </trkpt>
      <trkpt lat="46.58322" lon="3.05544">
        <ele>294.2</ele>
        <time>2014-05-19T18:57:18Z</time>
      </trkpt>
      <trkpt lat="46.5832" lon="3.05564">
        <ele>294.7</ele>
        <time>2014-05-19T18:57:19Z</time>
      </trkpt>
      <trkpt lat="46.58318" lon="3.05581">
        <ele>295.2</ele>
        <time>2014-05-19T18:57:20Z</time>
      </trkpt>
      <trkpt lat="46.58315" lon="3.056">
        <ele>295.6</ele>
        <time>2014-05-19T18:57:21Z</time>
      </trkpt>
      <trkpt lat="46.58312" lon="3.05619">
        <ele>296.1</ele>
        <time>2014-05-19T18:57:22Z</time>
      </trkpt>
      <trkpt lat="46.58308" lon="3.05637">
        <ele>296.5</ele>
        <time>2014-05-19T18:57:23Z</time>
      </trkpt>
      <trkpt lat="46.58302" lon="3.05653">
        <ele>296.8</ele>
        <time>2014-05-19T18:57:24Z</time>
      </trkpt>
      <trkpt lat="46.58294" lon="3.05667">
        <ele>297.3</ele>
        <time>2014-05-19T18:57:25Z</time>
      </trkpt>
      <trkpt lat="46.58283" lon="3.05678">
        <ele>298.1</ele>
        <time>2014-05-19T18:57:26Z</time>
      </trkpt>
      <trkpt lat="46.58272" lon="3.05689">
        <ele>298.7</ele>
        <time>2014-05-19T18:57:27Z</time>
      </trkpt>
      <trkpt lat="46.58263" lon="3.05699">
        <ele>299.3</ele>
        <time>2014-05-19T18:57:28Z</time>
      </trkpt>
      <trkpt lat="46.58254" lon="3.05705">
        <ele>299.9</ele>
        <time>2014-05-19T18:57:29Z</time>
      </trkpt>
      <trkpt lat="46.58246" lon="3.0571">
        <ele>300.4</ele>
        <time>2014-05-19T18:57:30Z</time>
      </trkpt>
      <trkpt lat="46.58232" lon="3.05709">
        <ele>301.1</ele>
        <time>2014-05-19T18:57:32Z</time>
      </trkpt>
      <trkpt lat="46.5822" lon="3.05705">
        <ele>301.9</ele>
        <time>2014-05-19T18:57:34Z</time>
      </trkpt>
      <trkpt lat="46.58207" lon="3.05698">
        <ele>302.7</ele>
        <time>2014-05-19T18:57:36Z</time>
      </trkpt>
      <trkpt lat="46.5819" lon="3.05691">
        <ele>303.5</ele>
        <time>2014-05-19T18:57:38Z</time>
      </trkpt>
      <trkpt lat="46.58181" lon="3.05688">
        <ele>304.3</ele>
        <time>2014-05-19T18:57:39Z</time>
      </trkpt>
      <trkpt lat="46.58171" lon="3.05683">
        <ele>305.1</ele>
        <time>2014-05-19T18:57:40Z</time>
      </trkpt>
      <trkpt lat="46.5816" lon="3.05678">
        <ele>305.5</ele>
        <time>2014-05-19T18:57:41Z</time>
      </trkpt>
      <trkpt lat="46.58148" lon="3.05673">
        <ele>306</ele>
        <time>2014-05-19T18:57:42Z</time>
      </trkpt>
      <trkpt lat="46.58135" lon="3.05668">
        <ele>306.4</ele>
        <time>2014-05-19T18:57:43Z</time>
      </trkpt>
      <trkpt lat="46.58121" lon="3.05661">
        <ele>306.9</ele>
        <time>2014-05-19T18:57:44Z</time>
      </trkpt>
      <trkpt lat="46.58107" lon="3.05654">
        <ele>307.5</ele>
        <time>2014-05-19T18:57:45Z</time>
      </trkpt>
      <trkpt lat="46.58091" lon="3.05647">
        <ele>307.9</ele>
        <time>2014-05-19T18:57:46Z</time>
      </trkpt>
      <trkpt lat="46.58074" lon="3.05641">
        <ele>308.3</ele>
        <time>2014-05-19T18:57:47Z</time>
      </trkpt>
      <trkpt lat="46.58058" lon="3.05632">
        <ele>308.7</ele>
        <time>2014-05-19T18:57:48Z</time>
      </trkpt>
      <trkpt lat="46.58042" lon="3.05626">
        <ele>309.2</ele>
        <time>2014-05-19T18:57:49Z</time>
      </trkpt>
      <trkpt lat="46.58027" lon="3.05621">
        <ele>309.7</ele>
        <time>2014-05-19T18:57:50Z</time>
      </trkpt>
      <trkpt lat="46.5801" lon="3.05618">
        <ele>310.3</ele>
        <time>2014-05-19T18:57:51Z</time>
      </trkpt>
      <trkpt lat="46.57998" lon="3.05621">
        <ele>311</ele>
        <time>2014-05-19T18:57:52Z</time>
      </trkpt>
      <trkpt lat="46.57984" lon="3.05623">
        <ele>311.7</ele>
        <time>2014-05-19T18:57:53Z</time>
      </trkpt>
      <trkpt lat="46.57971" lon="3.05631">
        <ele>312.6</ele>
        <time>2014-05-19T18:57:54Z</time>
      </trkpt>
      <trkpt lat="46.57957" lon="3.05639">
        <ele>313.6</ele>
        <time>2014-05-19T18:57:55Z</time>
      </trkpt>
      <trkpt lat="46.57941" lon="3.05647">
        <ele>314.5</ele>
        <time>2014-05-19T18:57:56Z</time>
      </trkpt>
      <trkpt lat="46.57923" lon="3.05656">
        <ele>315.4</ele>
        <time>2014-05-19T18:57:57Z</time>
      </trkpt>
      <trkpt lat="46.57906" lon="3.05662">
        <ele>316.4</ele>
        <time>2014-05-19T18:57:58Z</time>
      </trkpt>
      <trkpt lat="46.57888" lon="3.05665">
        <ele>317.3</ele>
        <time>2014-05-19T18:57:59Z</time>
      </trkpt>
      <trkpt lat="46.57869" lon="3.05663">
        <ele>318.1</ele>
        <time>2014-05-19T18:58:00Z</time>
      </trkpt>
      <trkpt lat="46.57852" lon="3.0566">
        <ele>318.8</ele>
        <time>2014-05-19T18:58:01Z</time>
      </trkpt>
      <trkpt lat="46.57836" lon="3.05647">
        <ele>319.6</ele>
        <time>2014-05-19T18:58:02Z</time>
      </trkpt>
      <trkpt lat="46.57821" lon="3.0563">
        <ele>320.1</ele>
        <time>2014-05-19T18:58:03Z</time>
      </trkpt>
      <trkpt lat="46.57807" lon="3.05615">
        <ele>320.5</ele>
        <time>2014-05-19T18:58:04Z</time>
      </trkpt>
      <trkpt lat="46.57791" lon="3.05601">
        <ele>320.8</ele>
        <time>2014-05-19T18:58:05Z</time>
      </trkpt>
      <trkpt lat="46.57775" lon="3.0559">
        <ele>320.9</ele>
        <time>2014-05-19T18:58:06Z</time>
      </trkpt>
      <trkpt lat="46.5776" lon="3.05578">
        <ele>321</ele>
        <time>2014-05-19T18:58:07Z</time>
      </trkpt>
      <trkpt lat="46.57742" lon="3.05574">
        <ele>321.1</ele>
        <time>2014-05-19T18:58:08Z</time>
      </trkpt>
      <trkpt lat="46.57725" lon="3.05572">
        <ele>321.2</ele>
        <time>2014-05-19T18:58:09Z</time>
      </trkpt>
      <trkpt lat="46.57708" lon="3.05571">
        <ele>321.4</ele>
        <time>2014-05-19T18:58:10Z</time>
      </trkpt>
      <trkpt lat="46.57692" lon="3.0557">
        <ele>321.7</ele>
        <time>2014-05-19T18:58:11Z</time>
      </trkpt>
      <trkpt lat="46.57677" lon="3.05568">
        <ele>322.2</ele>
        <time>2014-05-19T18:58:12Z</time>
      </trkpt>
      <trkpt lat="46.57662" lon="3.05566">
        <ele>322.3</ele>
        <time>2014-05-19T18:58:13Z</time>
      </trkpt>
      <trkpt lat="46.57652" lon="3.05564">
        <ele>322.4</ele>
        <time>2014-05-19T18:58:14Z</time>
      </trkpt>
      <trkpt lat="46.57643" lon="3.05562">
        <ele>322.5</ele>
        <time>2014-05-19T18:58:15Z</time>
      </trkpt>
      <trkpt lat="46.5763" lon="3.05559">
        <ele>322.7</ele>
        <time>2014-05-19T18:58:17Z</time>
      </trkpt>
      <trkpt lat="46.57624" lon="3.05558">
        <ele>323</ele>
        <time>2014-05-19T18:58:28Z</time>
      </trkpt>
      <trkpt lat="46.57621" lon="3.05556">
        <ele>326.9</ele>
        <time>2014-05-19T18:58:33Z</time>
      </trkpt>
      <trkpt lat="46.57621" lon="3.05556">
        <ele>326.7</ele>
        <time>2014-05-19T18:58:33Z</time>
      </trkpt>
      <trkpt lat="46.57612" lon="3.05555">
        <ele>326.6</ele>
        <time>2014-05-19T18:58:34Z</time>
      </trkpt>
      <trkpt lat="46.57611" lon="3.05569">
        <ele>326.6</ele>
        <time>2014-05-19T18:58:37Z</time>
      </trkpt>
      <trkpt lat="46.57626" lon="3.05563">
        <ele>326.7</ele>
        <time>2014-05-19T18:58:39Z</time>
      </trkpt>
      <trkpt lat="46.57642" lon="3.05565">
        <ele>326.7</ele>
        <time>2014-05-19T18:58:41Z</time>
      </trkpt>
      <trkpt lat="46.57653" lon="3.05567">
        <ele>326.7</ele>
        <time>2014-05-19T18:58:42Z</time>
      </trkpt>
      <trkpt lat="46.57665" lon="3.0557">
        <ele>326.7</ele>
        <time>2014-05-19T18:58:43Z</time>
      </trkpt>
      <trkpt lat="46.57678" lon="3.05571">
        <ele>326.8</ele>
        <time>2014-05-19T18:58:45Z</time>
      </trkpt>
      <trkpt lat="46.57691" lon="3.05573">
        <ele>326.9</ele>
        <time>2014-05-19T18:58:45Z</time>
      </trkpt>
      <trkpt lat="46.57706" lon="3.05574">
        <ele>327.1</ele>
        <time>2014-05-19T18:58:47Z</time>
      </trkpt>
      <trkpt lat="46.57721" lon="3.05575">
        <ele>327.4</ele>
        <time>2014-05-19T18:58:47Z</time>
      </trkpt>
      <trkpt lat="46.57736" lon="3.05578">
        <ele>327.7</ele>
        <time>2014-05-19T18:58:48Z</time>
      </trkpt>
      <trkpt lat="46.57753" lon="3.05582">
        <ele>327.9</ele>
        <time>2014-05-19T18:58:50Z</time>
      </trkpt>
      <trkpt lat="46.57769" lon="3.0559">
        <ele>328.2</ele>
        <time>2014-05-19T18:58:51Z</time>
      </trkpt>
      <trkpt lat="46.57785" lon="3.056">
        <ele>328.2</ele>
        <time>2014-05-19T18:58:51Z</time>
      </trkpt>
      <trkpt lat="46.578" lon="3.05613">
        <ele>328.3</ele>
        <time>2014-05-19T18:58:52Z</time>
      </trkpt>
      <trkpt lat="46.57815" lon="3.05626">
        <ele>328.3</ele>
        <time>2014-05-19T18:58:53Z</time>
      </trkpt>
      <trkpt lat="46.57828" lon="3.05641">
        <ele>328.1</ele>
        <time>2014-05-19T18:58:55Z</time>
      </trkpt>
      <trkpt lat="46.57842" lon="3.05654">
        <ele>327.9</ele>
        <time>2014-05-19T18:58:55Z</time>
      </trkpt>
      <trkpt lat="46.57857" lon="3.05662">
        <ele>327.6</ele>
        <time>2014-05-19T18:58:56Z</time>
      </trkpt>
      <trkpt lat="46.57871" lon="3.0567">
        <ele>327.3</ele>
        <time>2014-05-19T18:58:57Z</time>
      </trkpt>
      <trkpt lat="46.57888" lon="3.05668">
        <ele>326.9</ele>
        <time>2014-05-19T18:58:59Z</time>
      </trkpt>
      <trkpt lat="46.57904" lon="3.05665">
        <ele>326.6</ele>
        <time>2014-05-19T18:58:59Z</time>
      </trkpt>
      <trkpt lat="46.5792" lon="3.05659">
        <ele>326.2</ele>
        <time>2014-05-19T18:59:00Z</time>
      </trkpt>
      <trkpt lat="46.57936" lon="3.05653">
        <ele>325.9</ele>
        <time>2014-05-19T18:59:01Z</time>
      </trkpt>
      <trkpt lat="46.57952" lon="3.05646">
        <ele>325.6</ele>
        <time>2014-05-19T18:59:02Z</time>
      </trkpt>
      <trkpt lat="46.57967" lon="3.05639">
        <ele>325.3</ele>
        <time>2014-05-19T18:59:04Z</time>
      </trkpt>
      <trkpt lat="46.57981" lon="3.05634">
        <ele>325</ele>
        <time>2014-05-19T18:59:04Z</time>
      </trkpt>
      <trkpt lat="46.57995" lon="3.0563">
        <ele>324.9</ele>
        <time>2014-05-19T18:59:05Z</time>
      </trkpt>
      <trkpt lat="46.58008" lon="3.05629">
        <ele>324.8</ele>
        <time>2014-05-19T18:59:06Z</time>
      </trkpt>
      <trkpt lat="46.58021" lon="3.05629">
        <ele>324.6</ele>
        <time>2014-05-19T18:59:07Z</time>
      </trkpt>
      <trkpt lat="46.58036" lon="3.05632">
        <ele>324.5</ele>
        <time>2014-05-19T18:59:08Z</time>
      </trkpt>
      <trkpt lat="46.5805" lon="3.05638">
        <ele>324.3</ele>
        <time>2014-05-19T18:59:09Z</time>
      </trkpt>
      <trkpt lat="46.58065" lon="3.05643">
        <ele>324</ele>
        <time>2014-05-19T18:59:10Z</time>
      </trkpt>
      <trkpt lat="46.58081" lon="3.0565">
        <ele>323.8</ele>
        <time>2014-05-19T18:59:11Z</time>
      </trkpt>
      <trkpt lat="46.58095" lon="3.05656">
        <ele>323.5</ele>
        <time>2014-05-19T18:59:12Z</time>
      </trkpt>
      <trkpt lat="46.5811" lon="3.05664">
        <ele>323.3</ele>
        <time>2014-05-19T18:59:14Z</time>
      </trkpt>
      <trkpt lat="46.58122" lon="3.05671">
        <ele>322.9</ele>
        <time>2014-05-19T18:59:14Z</time>
      </trkpt>
      <trkpt lat="46.58133" lon="3.05676">
        <ele>322.6</ele>
        <time>2014-05-19T18:59:15Z</time>
      </trkpt>
      <trkpt lat="46.58143" lon="3.05681">
        <ele>322.2</ele>
        <time>2014-05-19T18:59:16Z</time>
      </trkpt>
      <trkpt lat="46.58153" lon="3.05685">
        <ele>322</ele>
        <time>2014-05-19T18:59:17Z</time>
      </trkpt>
      <trkpt lat="46.58161" lon="3.05688">
        <ele>322</ele>
        <time>2014-05-19T18:59:18Z</time>
      </trkpt>
      <trkpt lat="46.58168" lon="3.057">
        <ele>322</ele>
        <time>2014-05-19T18:59:21Z</time>
      </trkpt>
      <trkpt lat="46.58169" lon="3.05717">
        <ele>322.1</ele>
        <time>2014-05-19T18:59:23Z</time>
      </trkpt>
      <trkpt lat="46.5817" lon="3.05729">
        <ele>322.2</ele>
        <time>2014-05-19T18:59:24Z</time>
      </trkpt>
      <trkpt lat="46.58165" lon="3.05744">
        <ele>322.4</ele>
        <time>2014-05-19T18:59:25Z</time>
      </trkpt>
      <trkpt lat="46.58163" lon="3.05759">
        <ele>322.5</ele>
        <time>2014-05-19T18:59:26Z</time>
      </trkpt>
      <trkpt lat="46.5816" lon="3.05775">
        <ele>322.7</ele>
        <time>2014-05-19T18:59:27Z</time>
      </trkpt>
      <trkpt lat="46.58158" lon="3.05789">
        <ele>323</ele>
        <time>2014-05-19T18:59:28Z</time>
      </trkpt>
      <trkpt lat="46.58157" lon="3.05803">
        <ele>323.2</ele>
        <time>2014-05-19T18:59:30Z</time>
      </trkpt>
      <trkpt lat="46.58154" lon="3.05815">
        <ele>323.5</ele>
        <time>2014-05-19T18:59:30Z</time>
      </trkpt>
      <trkpt lat="46.58152" lon="3.05828">
        <ele>323.5</ele>
        <time>2014-05-19T18:59:32Z</time>
      </trkpt>
      <trkpt lat="46.58143" lon="3.05839">
        <ele>323.5</ele>
        <time>2014-05-19T18:59:32Z</time>
      </trkpt>
      <trkpt lat="46.58134" lon="3.0585">
        <ele>323.3</ele>
        <time>2014-05-19T18:59:33Z</time>
      </trkpt>
      <trkpt lat="46.58126" lon="3.05863">
        <ele>323.2</ele>
        <time>2014-05-19T18:59:34Z</time>
      </trkpt>
      <trkpt lat="46.58119" lon="3.05878">
        <ele>323</ele>
        <time>2014-05-19T18:59:35Z</time>
      </trkpt>
      <trkpt lat="46.58113" lon="3.05896">
        <ele>322.7</ele>
        <time>2014-05-19T18:59:36Z</time>
      </trkpt>
      <trkpt lat="46.58107" lon="3.05917">
        <ele>322.5</ele>
        <time>2014-05-19T18:59:37Z</time>
      </trkpt>
      <trkpt lat="46.581" lon="3.05939">
        <ele>322.3</ele>
        <time>2014-05-19T18:59:38Z</time>
      </trkpt>
      <trkpt lat="46.58094" lon="3.05962">
        <ele>322</ele>
        <time>2014-05-19T18:59:39Z</time>
      </trkpt>
      <trkpt lat="46.58087" lon="3.05987">
        <ele>321.7</ele>
        <time>2014-05-19T18:59:41Z</time>
      </trkpt>
      <trkpt lat="46.58081" lon="3.06013">
        <ele>321.4</ele>
        <time>2014-05-19T18:59:42Z</time>
      </trkpt>
      <trkpt lat="46.58076" lon="3.06041">
        <ele>321.2</ele>
        <time>2014-05-19T18:59:42Z</time>
      </trkpt>
      <trkpt lat="46.5807" lon="3.06069">
        <ele>321</ele>
        <time>2014-05-19T18:59:43Z</time>
      </trkpt>
      <trkpt lat="46.58066" lon="3.06099">
        <ele>320.9</ele>
        <time>2014-05-19T18:59:45Z</time>
      </trkpt>
      <trkpt lat="46.58061" lon="3.06128">
        <ele>320.7</ele>
        <time>2014-05-19T18:59:45Z</time>
      </trkpt>
      <trkpt lat="46.58056" lon="3.06158">
        <ele>320.7</ele>
        <time>2014-05-19T18:59:46Z</time>
      </trkpt>
      <trkpt lat="46.58051" lon="3.06186">
        <ele>320.7</ele>
        <time>2014-05-19T18:59:47Z</time>
      </trkpt>
      <trkpt lat="46.58045" lon="3.06212">
        <ele>320.7</ele>
        <time>2014-05-19T18:59:48Z</time>
      </trkpt>
      <trkpt lat="46.58037" lon="3.06232">
        <ele>320.6</ele>
        <time>2014-05-19T18:59:50Z</time>
      </trkpt>
      <trkpt lat="46.58029" lon="3.06249">
        <ele>320.7</ele>
        <time>2014-05-19T18:59:51Z</time>
      </trkpt>
      <trkpt lat="46.58021" lon="3.06265">
        <ele>320.9</ele>
        <time>2014-05-19T18:59:51Z</time>
      </trkpt>
      <trkpt lat="46.58014" lon="3.06276">
        <ele>321</ele>
        <time>2014-05-19T18:59:53Z</time>
      </trkpt>
      <trkpt lat="46.58007" lon="3.06286">
        <ele>321.2</ele>
        <time>2014-05-19T18:59:53Z</time>
      </trkpt>
      <trkpt lat="46.58004" lon="3.06298">
        <ele>321.5</ele>
        <time>2014-05-19T18:59:58Z</time>
      </trkpt>
      <trkpt lat="46.57995" lon="3.06316">
        <ele>321.8</ele>
        <time>2014-05-19T18:59:59Z</time>
      </trkpt>
      <trkpt lat="46.57992" lon="3.06328">
        <ele>322.1</ele>
        <time>2014-05-19T19:00:00Z</time>
      </trkpt>
      <trkpt lat="46.57988" lon="3.06342">
        <ele>322.3</ele>
        <time>2014-05-19T19:00:01Z</time>
      </trkpt>
      <trkpt lat="46.57985" lon="3.06357">
        <ele>322.5</ele>
        <time>2014-05-19T19:00:02Z</time>
      </trkpt>
      <trkpt lat="46.57983" lon="3.06382">
        <ele>322.8</ele>
        <time>2014-05-19T19:00:03Z</time>
      </trkpt>
      <trkpt lat="46.57981" lon="3.06404">
        <ele>323.1</ele>
        <time>2014-05-19T19:00:05Z</time>
      </trkpt>
      <trkpt lat="46.57979" lon="3.06428">
        <ele>323.5</ele>
        <time>2014-05-19T19:00:05Z</time>
      </trkpt>
      <trkpt lat="46.57976" lon="3.06451">
        <ele>323.9</ele>
        <time>2014-05-19T19:00:06Z</time>
      </trkpt>
      <trkpt lat="46.57972" lon="3.06481">
        <ele>324.4</ele>
        <time>2014-05-19T19:00:08Z</time>
      </trkpt>
      <trkpt lat="46.57969" lon="3.06508">
        <ele>324.9</ele>
        <time>2014-05-19T19:00:08Z</time>
      </trkpt>
      <trkpt lat="46.57966" lon="3.06535">
        <ele>325.4</ele>
        <time>2014-05-19T19:00:09Z</time>
      </trkpt>
      <trkpt lat="46.57962" lon="3.06563">
        <ele>326</ele>
        <time>2014-05-19T19:00:10Z</time>
      </trkpt>
      <trkpt lat="46.5796" lon="3.06593">
        <ele>326.6</ele>
        <time>2014-05-19T19:00:12Z</time>
      </trkpt>
      <trkpt lat="46.57956" lon="3.06622">
        <ele>327.3</ele>
        <time>2014-05-19T19:00:12Z</time>
      </trkpt>
      <trkpt lat="46.57953" lon="3.06652">
        <ele>327.9</ele>
        <time>2014-05-19T19:00:14Z</time>
      </trkpt>
      <trkpt lat="46.57949" lon="3.06682">
        <ele>328.6</ele>
        <time>2014-05-19T19:00:14Z</time>
      </trkpt>
      <trkpt lat="46.57945" lon="3.06713">
        <ele>329.2</ele>
        <time>2014-05-19T19:00:15Z</time>
      </trkpt>
      <trkpt lat="46.57941" lon="3.06744">
        <ele>329.6</ele>
        <time>2014-05-19T19:00:16Z</time>
      </trkpt>
      <trkpt lat="46.57938" lon="3.06775">
        <ele>330.1</ele>
        <time>2014-05-19T19:00:18Z</time>
      </trkpt>
      <trkpt lat="46.57934" lon="3.06804">
        <ele>330.5</ele>
        <time>2014-05-19T19:00:18Z</time>
      </trkpt>
      <trkpt lat="46.5793" lon="3.06833">
        <ele>330.9</ele>
        <time>2014-05-19T19:00:19Z</time>
      </trkpt>
      <trkpt lat="46.57927" lon="3.06856">
        <ele>331.1</ele>
        <time>2014-05-19T19:00:21Z</time>
      </trkpt>
      <trkpt lat="46.57925" lon="3.06881">
        <ele>331.3</ele>
        <time>2014-05-19T19:00:21Z</time>
      </trkpt>
      <trkpt lat="46.57922" lon="3.06906">
        <ele>331.4</ele>
        <time>2014-05-19T19:00:22Z</time>
      </trkpt>
      <trkpt lat="46.57919" lon="3.06928">
        <ele>331.5</ele>
        <time>2014-05-19T19:00:23Z</time>
      </trkpt>
      <trkpt lat="46.57916" lon="3.06949">
        <ele>331.6</ele>
        <time>2014-05-19T19:00:24Z</time>
      </trkpt>
      <trkpt lat="46.57914" lon="3.0697">
        <ele>331.5</ele>
        <time>2014-05-19T19:00:26Z</time>
      </trkpt>
      <trkpt lat="46.57911" lon="3.06989">
        <ele>331.4</ele>
        <time>2014-05-19T19:00:26Z</time>
      </trkpt>
      <trkpt lat="46.57908" lon="3.07009">
        <ele>331.2</ele>
        <time>2014-05-19T19:00:27Z</time>
      </trkpt>
      <trkpt lat="46.57904" lon="3.07028">
        <ele>331</ele>
        <time>2014-05-19T19:00:28Z</time>
      </trkpt>
      <trkpt lat="46.579" lon="3.07048">
        <ele>330.7</ele>
        <time>2014-05-19T19:00:29Z</time>
      </trkpt>
      <trkpt lat="46.57896" lon="3.07067">
        <ele>330.4</ele>
        <time>2014-05-19T19:00:30Z</time>
      </trkpt>
      <trkpt lat="46.57892" lon="3.07086">
        <ele>330</ele>
        <time>2014-05-19T19:00:31Z</time>
      </trkpt>
      <trkpt lat="46.57887" lon="3.07105">
        <ele>329.6</ele>
        <time>2014-05-19T19:00:32Z</time>
      </trkpt>
      <trkpt lat="46.57883" lon="3.07123">
        <ele>329.1</ele>
        <time>2014-05-19T19:00:34Z</time>
      </trkpt>
      <trkpt lat="46.57879" lon="3.07143">
        <ele>328.7</ele>
        <time>2014-05-19T19:00:34Z</time>
      </trkpt>
      <trkpt lat="46.57875" lon="3.07163">
        <ele>328.2</ele>
        <time>2014-05-19T19:00:35Z</time>
      </trkpt>
      <trkpt lat="46.5787" lon="3.07183">
        <ele>327.9</ele>
        <time>2014-05-19T19:00:36Z</time>
      </trkpt>
      <trkpt lat="46.57865" lon="3.07203">
        <ele>327.3</ele>
        <time>2014-05-19T19:00:37Z</time>
      </trkpt>
      <trkpt lat="46.5786" lon="3.07224">
        <ele>326.7</ele>
        <time>2014-05-19T19:00:38Z</time>
      </trkpt>
      <trkpt lat="46.57855" lon="3.07244">
        <ele>326.2</ele>
        <time>2014-05-19T19:00:39Z</time>
      </trkpt>
      <trkpt lat="46.5785" lon="3.07265">
        <ele>325.7</ele>
        <time>2014-05-19T19:00:40Z</time>
      </trkpt>
      <trkpt lat="46.57846" lon="3.07286">
        <ele>325.2</ele>
        <time>2014-05-19T19:00:41Z</time>
      </trkpt>
      <trkpt lat="46.57842" lon="3.07309">
        <ele>324.6</ele>
        <time>2014-05-19T19:00:42Z</time>
      </trkpt>
      <trkpt lat="46.57837" lon="3.0733">
        <ele>324.1</ele>
        <time>2014-05-19T19:00:44Z</time>
      </trkpt>
      <trkpt lat="46.57832" lon="3.07352">
        <ele>323.5</ele>
        <time>2014-05-19T19:00:44Z</time>
      </trkpt>
      <trkpt lat="46.57827" lon="3.07375">
        <ele>322.9</ele>
        <time>2014-05-19T19:00:46Z</time>
      </trkpt>
      <trkpt lat="46.57823" lon="3.07398">
        <ele>322.2</ele>
        <time>2014-05-19T19:00:46Z</time>
      </trkpt>
      <trkpt lat="46.57818" lon="3.07423">
        <ele>321.6</ele>
        <time>2014-05-19T19:00:48Z</time>
      </trkpt>
      <trkpt lat="46.57813" lon="3.07447">
        <ele>320.8</ele>
        <time>2014-05-19T19:00:48Z</time>
      </trkpt>
      <trkpt lat="46.57809" lon="3.07472">
        <ele>320.1</ele>
        <time>2014-05-19T19:00:50Z</time>
      </trkpt>
      <trkpt lat="46.57804" lon="3.07498">
        <ele>319.1</ele>
        <time>2014-05-19T19:00:50Z</time>
      </trkpt>
      <trkpt lat="46.57798" lon="3.07523">
        <ele>317.9</ele>
        <time>2014-05-19T19:00:51Z</time>
      </trkpt>
      <trkpt lat="46.57793" lon="3.07548">
        <ele>316.5</ele>
        <time>2014-05-19T19:00:53Z</time>
      </trkpt>
      <trkpt lat="46.57789" lon="3.07576">
        <ele>315.1</ele>
        <time>2014-05-19T19:00:53Z</time>
      </trkpt>
      <trkpt lat="46.57787" lon="3.07606">
        <ele>313.7</ele>
        <time>2014-05-19T19:00:54Z</time>
      </trkpt>
      <trkpt lat="46.57783" lon="3.07634">
        <ele>312</ele>
        <time>2014-05-19T19:00:55Z</time>
      </trkpt>
      <trkpt lat="46.5778" lon="3.07664">
        <ele>310.3</ele>
        <time>2014-05-19T19:00:56Z</time>
      </trkpt>
      <trkpt lat="46.57778" lon="3.07693">
        <ele>308.5</ele>
        <time>2014-05-19T19:00:57Z</time>
      </trkpt>
      <trkpt lat="46.57776" lon="3.07721">
        <ele>306.7</ele>
        <time>2014-05-19T19:00:58Z</time>
      </trkpt>
      <trkpt lat="46.57774" lon="3.07748">
        <ele>305.1</ele>
        <time>2014-05-19T19:00:59Z</time>
      </trkpt>
      <trkpt lat="46.57771" lon="3.07774">
        <ele>303.7</ele>
        <time>2014-05-19T19:01:00Z</time>
      </trkpt>
      <trkpt lat="46.57764" lon="3.07801">
        <ele>302.5</ele>
        <time>2014-05-19T19:01:01Z</time>
      </trkpt>
      <trkpt lat="46.57749" lon="3.07823">
        <ele>301.7</ele>
        <time>2014-05-19T19:01:02Z</time>
      </trkpt>
      <trkpt lat="46.57737" lon="3.07849">
        <ele>301.1</ele>
        <time>2014-05-19T19:01:03Z</time>
      </trkpt>
      <trkpt lat="46.57724" lon="3.07876">
        <ele>301</ele>
        <time>2014-05-19T19:01:04Z</time>
      </trkpt>
      <trkpt lat="46.57708" lon="3.07903">
        <ele>301.2</ele>
        <time>2014-05-19T19:01:05Z</time>
      </trkpt>
      <trkpt lat="46.57694" lon="3.07931">
        <ele>301.6</ele>
        <time>2014-05-19T19:01:06Z</time>
      </trkpt>
      <trkpt lat="46.57665" lon="3.0799">
        <ele>302.2</ele>
        <time>2014-05-19T19:01:07Z</time>
      </trkpt>
      <trkpt lat="46.5765" lon="3.08019">
        <ele>302.9</ele>
        <time>2014-05-19T19:01:08Z</time>
      </trkpt>
      <trkpt lat="46.57633" lon="3.08049">
        <ele>304</ele>
        <time>2014-05-19T19:01:09Z</time>
      </trkpt>
      <trkpt lat="46.57616" lon="3.0808">
        <ele>305.2</ele>
        <time>2014-05-19T19:01:10Z</time>
      </trkpt>
      <trkpt lat="46.576" lon="3.08109">
        <ele>306.4</ele>
        <time>2014-05-19T19:01:11Z</time>
      </trkpt>
      <trkpt lat="46.57584" lon="3.08139">
        <ele>307.7</ele>
        <time>2014-05-19T19:01:12Z</time>
      </trkpt>
      <trkpt lat="46.57568" lon="3.08166">
        <ele>308.7</ele>
        <time>2014-05-19T19:01:14Z</time>
      </trkpt>
      <trkpt lat="46.57554" lon="3.08192">
        <ele>309.9</ele>
        <time>2014-05-19T19:01:15Z</time>
      </trkpt>
      <trkpt lat="46.57541" lon="3.08217">
        <ele>311</ele>
        <time>2014-05-19T19:01:16Z</time>
      </trkpt>
      <trkpt lat="46.57528" lon="3.0824">
        <ele>311.9</ele>
        <time>2014-05-19T19:01:17Z</time>
      </trkpt>
      <trkpt lat="46.57518" lon="3.08264">
        <ele>312.9</ele>
        <time>2014-05-19T19:01:18Z</time>
      </trkpt>
      <trkpt lat="46.57508" lon="3.08289">
        <ele>314.1</ele>
        <time>2014-05-19T19:01:18Z</time>
      </trkpt>
      <trkpt lat="46.57507" lon="3.08318">
        <ele>315.3</ele>
        <time>2014-05-19T19:01:19Z</time>
      </trkpt>
      <trkpt lat="46.57501" lon="3.08346">
        <ele>316.3</ele>
        <time>2014-05-19T19:01:20Z</time>
      </trkpt>
      <trkpt lat="46.57495" lon="3.08375">
        <ele>317.1</ele>
        <time>2014-05-19T19:01:21Z</time>
      </trkpt>
      <trkpt lat="46.57489" lon="3.08403">
        <ele>318</ele>
        <time>2014-05-19T19:01:22Z</time>
      </trkpt>
      <trkpt lat="46.57482" lon="3.08428">
        <ele>319.1</ele>
        <time>2014-05-19T19:01:24Z</time>
      </trkpt>
      <trkpt lat="46.57473" lon="3.08453">
        <ele>320.2</ele>
        <time>2014-05-19T19:01:25Z</time>
      </trkpt>
      <trkpt lat="46.57463" lon="3.08479">
        <ele>321.2</ele>
        <time>2014-05-19T19:01:26Z</time>
      </trkpt>
      <trkpt lat="46.57453" lon="3.08505">
        <ele>322</ele>
        <time>2014-05-19T19:01:26Z</time>
      </trkpt>
      <trkpt lat="46.57446" lon="3.08534">
        <ele>322.8</ele>
        <time>2014-05-19T19:01:27Z</time>
      </trkpt>
      <trkpt lat="46.57438" lon="3.08562">
        <ele>323.6</ele>
        <time>2014-05-19T19:01:29Z</time>
      </trkpt>
      <trkpt lat="46.57427" lon="3.0859">
        <ele>324.2</ele>
        <time>2014-05-19T19:01:29Z</time>
      </trkpt>
      <trkpt lat="46.57415" lon="3.08618">
        <ele>324.8</ele>
        <time>2014-05-19T19:01:30Z</time>
      </trkpt>
      <trkpt lat="46.57402" lon="3.08645">
        <ele>325.4</ele>
        <time>2014-05-19T19:01:31Z</time>
      </trkpt>
      <trkpt lat="46.57389" lon="3.08671">
        <ele>326</ele>
        <time>2014-05-19T19:01:32Z</time>
      </trkpt>
      <trkpt lat="46.57371" lon="3.08695">
        <ele>326.6</ele>
        <time>2014-05-19T19:01:33Z</time>
      </trkpt>
      <trkpt lat="46.57354" lon="3.08719">
        <ele>327</ele>
        <time>2014-05-19T19:01:35Z</time>
      </trkpt>
      <trkpt lat="46.57338" lon="3.0874">
        <ele>327.5</ele>
        <time>2014-05-19T19:01:35Z</time>
      </trkpt>
      <trkpt lat="46.57323" lon="3.0876">
        <ele>328</ele>
        <time>2014-05-19T19:01:37Z</time>
      </trkpt>
      <trkpt lat="46.57307" lon="3.08779">
        <ele>328.6</ele>
        <time>2014-05-19T19:01:38Z</time>
      </trkpt>
      <trkpt lat="46.57291" lon="3.08797">
        <ele>329</ele>
        <time>2014-05-19T19:01:38Z</time>
      </trkpt>
      <trkpt lat="46.57276" lon="3.08817">
        <ele>329.4</ele>
        <time>2014-05-19T19:01:39Z</time>
      </trkpt>
      <trkpt lat="46.57263" lon="3.08838">
        <ele>329.8</ele>
        <time>2014-05-19T19:01:40Z</time>
      </trkpt>
      <trkpt lat="46.5725" lon="3.08862">
        <ele>330.1</ele>
        <time>2014-05-19T19:01:41Z</time>
      </trkpt>
      <trkpt lat="46.57239" lon="3.08887">
        <ele>330.4</ele>
        <time>2014-05-19T19:01:43Z</time>
      </trkpt>
      <trkpt lat="46.57229" lon="3.08916">
        <ele>330.6</ele>
        <time>2014-05-19T19:01:43Z</time>
      </trkpt>
      <trkpt lat="46.57221" lon="3.08948">
        <ele>330.7</ele>
        <time>2014-05-19T19:01:44Z</time>
      </trkpt>
      <trkpt lat="46.57212" lon="3.0898">
        <ele>330.9</ele>
        <time>2014-05-19T19:01:45Z</time>
      </trkpt>
      <trkpt lat="46.57203" lon="3.09013">
        <ele>331.1</ele>
        <time>2014-05-19T19:01:47Z</time>
      </trkpt>
      <trkpt lat="46.57193" lon="3.09046">
        <ele>331.1</ele>
        <time>2014-05-19T19:01:47Z</time>
      </trkpt>
      <trkpt lat="46.57184" lon="3.0908">
        <ele>331.1</ele>
        <time>2014-05-19T19:01:48Z</time>
      </trkpt>
      <trkpt lat="46.57175" lon="3.09115">
        <ele>331.1</ele>
        <time>2014-05-19T19:01:50Z</time>
      </trkpt>
      <trkpt lat="46.57165" lon="3.0915">
        <ele>331.2</ele>
        <time>2014-05-19T19:01:50Z</time>
      </trkpt>
      <trkpt lat="46.57155" lon="3.09185">
        <ele>331.3</ele>
        <time>2014-05-19T19:01:51Z</time>
      </trkpt>
      <trkpt lat="46.57145" lon="3.0922">
        <ele>331.3</ele>
        <time>2014-05-19T19:01:53Z</time>
      </trkpt>
      <trkpt lat="46.57136" lon="3.09254">
        <ele>331.4</ele>
        <time>2014-05-19T19:01:54Z</time>
      </trkpt>
      <trkpt lat="46.57127" lon="3.09287">
        <ele>331.5</ele>
        <time>2014-05-19T19:01:54Z</time>
      </trkpt>
      <trkpt lat="46.57118" lon="3.09318">
        <ele>331.6</ele>
        <time>2014-05-19T19:01:55Z</time>
      </trkpt>
      <trkpt lat="46.5711" lon="3.09345">
        <ele>331.6</ele>
        <time>2014-05-19T19:01:56Z</time>
      </trkpt>
      <trkpt lat="46.57102" lon="3.0937">
        <ele>331.6</ele>
        <time>2014-05-19T19:01:58Z</time>
      </trkpt>
      <trkpt lat="46.57096" lon="3.09392">
        <ele>331.9</ele>
        <time>2014-05-19T19:01:59Z</time>
      </trkpt>
      <trkpt lat="46.57089" lon="3.09414">
        <ele>332.2</ele>
        <time>2014-05-19T19:02:00Z</time>
      </trkpt>
      <trkpt lat="46.57082" lon="3.09434">
        <ele>332.6</ele>
        <time>2014-05-19T19:02:00Z</time>
      </trkpt>
      <trkpt lat="46.57075" lon="3.09451">
        <ele>333</ele>
        <time>2014-05-19T19:02:02Z</time>
      </trkpt>
      <trkpt lat="46.57082" lon="3.09444">
        <ele>333.3</ele>
        <time>2014-05-19T19:02:03Z</time>
      </trkpt>
      <trkpt lat="46.57083" lon="3.09457">
        <ele>333.7</ele>
        <time>2014-05-19T19:02:04Z</time>
      </trkpt>
      <trkpt lat="46.57094" lon="3.09466">
        <ele>334.1</ele>
        <time>2014-05-19T19:02:06Z</time>
      </trkpt>
      <trkpt lat="46.57104" lon="3.09469">
        <ele>334.4</ele>
        <time>2014-05-19T19:02:08Z</time>
      </trkpt>
      <trkpt lat="46.57117" lon="3.09476">
        <ele>334.7</ele>
        <time>2014-05-19T19:02:09Z</time>
      </trkpt>
      <trkpt lat="46.57129" lon="3.09482">
        <ele>334.9</ele>
        <time>2014-05-19T19:02:09Z</time>
      </trkpt>
      <trkpt lat="46.57142" lon="3.09489">
        <ele>335.1</ele>
        <time>2014-05-19T19:02:11Z</time>
      </trkpt>
      <trkpt lat="46.57156" lon="3.09497">
        <ele>334.9</ele>
        <time>2014-05-19T19:02:11Z</time>
      </trkpt>
      <trkpt lat="46.57171" lon="3.09505">
        <ele>334.7</ele>
        <time>2014-05-19T19:02:12Z</time>
      </trkpt>
      <trkpt lat="46.57188" lon="3.09514">
        <ele>334.4</ele>
        <time>2014-05-19T19:02:13Z</time>
      </trkpt>
      <trkpt lat="46.57206" lon="3.09524">
        <ele>333.9</ele>
        <time>2014-05-19T19:02:14Z</time>
      </trkpt>
      <trkpt lat="46.57223" lon="3.09536">
        <ele>333.5</ele>
        <time>2014-05-19T19:02:16Z</time>
      </trkpt>
      <trkpt lat="46.57241" lon="3.09547">
        <ele>333</ele>
        <time>2014-05-19T19:02:17Z</time>
      </trkpt>
      <trkpt lat="46.57258" lon="3.09561">
        <ele>332.5</ele>
        <time>2014-05-19T19:02:18Z</time>
      </trkpt>
      <trkpt lat="46.57278" lon="3.09578">
        <ele>332</ele>
        <time>2014-05-19T19:02:18Z</time>
      </trkpt>
      <trkpt lat="46.57297" lon="3.09596">
        <ele>331.6</ele>
        <time>2014-05-19T19:02:20Z</time>
      </trkpt>
      <trkpt lat="46.57315" lon="3.09615">
        <ele>331.2</ele>
        <time>2014-05-19T19:02:20Z</time>
      </trkpt>
      <trkpt lat="46.57336" lon="3.09637">
        <ele>331</ele>
        <time>2014-05-19T19:02:21Z</time>
      </trkpt>
      <trkpt lat="46.57355" lon="3.09658">
        <ele>330.9</ele>
        <time>2014-05-19T19:02:22Z</time>
      </trkpt>
      <trkpt lat="46.57375" lon="3.0968">
        <ele>330.7</ele>
        <time>2014-05-19T19:02:23Z</time>
      </trkpt>
      <trkpt lat="46.57394" lon="3.09702">
        <ele>330.7</ele>
        <time>2014-05-19T19:02:24Z</time>
      </trkpt>
      <trkpt lat="46.57413" lon="3.09726">
        <ele>330.8</ele>
        <time>2014-05-19T19:02:25Z</time>
      </trkpt>
      <trkpt lat="46.57431" lon="3.09751">
        <ele>330.9</ele>
        <time>2014-05-19T19:02:26Z</time>
      </trkpt>
      <trkpt lat="46.57449" lon="3.09778">
        <ele>331</ele>
        <time>2014-05-19T19:02:27Z</time>
      </trkpt>
      <trkpt lat="46.57466" lon="3.09806">
        <ele>331.2</ele>
        <time>2014-05-19T19:02:28Z</time>
      </trkpt>
      <trkpt lat="46.57484" lon="3.09836">
        <ele>331.3</ele>
        <time>2014-05-19T19:02:29Z</time>
      </trkpt>
      <trkpt lat="46.57502" lon="3.09866">
        <ele>331.4</ele>
        <time>2014-05-19T19:02:30Z</time>
      </trkpt>
      <trkpt lat="46.5752" lon="3.09895">
        <ele>331.4</ele>
        <time>2014-05-19T19:02:31Z</time>
      </trkpt>
      <trkpt lat="46.57539" lon="3.09926">
        <ele>331.2</ele>
        <time>2014-05-19T19:02:32Z</time>
      </trkpt>
      <trkpt lat="46.57558" lon="3.09957">
        <ele>330.9</ele>
        <time>2014-05-19T19:02:33Z</time>
      </trkpt>
      <trkpt lat="46.57577" lon="3.09988">
        <ele>330.5</ele>
        <time>2014-05-19T19:02:34Z</time>
      </trkpt>
      <trkpt lat="46.57596" lon="3.1002">
        <ele>330</ele>
        <time>2014-05-19T19:02:35Z</time>
      </trkpt>
      <trkpt lat="46.57616" lon="3.10052">
        <ele>329.5</ele>
        <time>2014-05-19T19:02:36Z</time>
      </trkpt>
      <trkpt lat="46.57635" lon="3.10084">
        <ele>329</ele>
        <time>2014-05-19T19:02:37Z</time>
      </trkpt>
      <trkpt lat="46.57654" lon="3.10115">
        <ele>328.4</ele>
        <time>2014-05-19T19:02:38Z</time>
      </trkpt>
      <trkpt lat="46.57673" lon="3.10147">
        <ele>327.9</ele>
        <time>2014-05-19T19:02:39Z</time>
      </trkpt>
      <trkpt lat="46.57691" lon="3.10177">
        <ele>327.4</ele>
        <time>2014-05-19T19:02:40Z</time>
      </trkpt>
      <trkpt lat="46.57709" lon="3.10207">
        <ele>326.9</ele>
        <time>2014-05-19T19:02:41Z</time>
      </trkpt>
      <trkpt lat="46.57727" lon="3.10237">
        <ele>326.4</ele>
        <time>2014-05-19T19:02:42Z</time>
      </trkpt>
      <trkpt lat="46.57745" lon="3.10266">
        <ele>326.2</ele>
        <time>2014-05-19T19:02:43Z</time>
      </trkpt>
      <trkpt lat="46.57762" lon="3.10294">
        <ele>325.9</ele>
        <time>2014-05-19T19:02:45Z</time>
      </trkpt>
      <trkpt lat="46.57794" lon="3.10348">
        <ele>325.7</ele>
        <time>2014-05-19T19:02:46Z</time>
      </trkpt>
      <trkpt lat="46.57809" lon="3.10373">
        <ele>325.7</ele>
        <time>2014-05-19T19:02:47Z</time>
      </trkpt>
      <trkpt lat="46.57824" lon="3.10398">
        <ele>325.6</ele>
        <time>2014-05-19T19:02:48Z</time>
      </trkpt>
      <trkpt lat="46.57837" lon="3.10421">
        <ele>325.5</ele>
        <time>2014-05-19T19:02:49Z</time>
      </trkpt>
      <trkpt lat="46.57851" lon="3.10444">
        <ele>325.4</ele>
        <time>2014-05-19T19:02:50Z</time>
      </trkpt>
      <trkpt lat="46.57865" lon="3.10467">
        <ele>325.3</ele>
        <time>2014-05-19T19:02:51Z</time>
      </trkpt>
      <trkpt lat="46.57879" lon="3.1049">
        <ele>325.3</ele>
        <time>2014-05-19T19:02:52Z</time>
      </trkpt>
      <trkpt lat="46.57893" lon="3.10513">
        <ele>325.4</ele>
        <time>2014-05-19T19:02:53Z</time>
      </trkpt>
      <trkpt lat="46.57907" lon="3.10537">
        <ele>325.5</ele>
        <time>2014-05-19T19:02:54Z</time>
      </trkpt>
      <trkpt lat="46.5792" lon="3.10562">
        <ele>325.5</ele>
        <time>2014-05-19T19:02:55Z</time>
      </trkpt>
      <trkpt lat="46.57934" lon="3.10589">
        <ele>325.5</ele>
        <time>2014-05-19T19:02:56Z</time>
      </trkpt>
      <trkpt lat="46.57947" lon="3.10616">
        <ele>325.5</ele>
        <time>2014-05-19T19:02:57Z</time>
      </trkpt>
      <trkpt lat="46.57958" lon="3.10645">
        <ele>325.5</ele>
        <time>2014-05-19T19:02:58Z</time>
      </trkpt>
      <trkpt lat="46.5797" lon="3.10674">
        <ele>325.4</ele>
        <time>2014-05-19T19:02:59Z</time>
      </trkpt>
      <trkpt lat="46.57975" lon="3.10697">
        <ele>325.4</ele>
        <time>2014-05-19T19:03:00Z</time>
      </trkpt>
      <trkpt lat="46.57982" lon="3.10717">
        <ele>325.3</ele>
        <time>2014-05-19T19:03:01Z</time>
      </trkpt>
      <trkpt lat="46.57989" lon="3.10736">
        <ele>325.2</ele>
        <time>2014-05-19T19:03:02Z</time>
      </trkpt>
      <trkpt lat="46.57995" lon="3.10755">
        <ele>325.1</ele>
        <time>2014-05-19T19:03:03Z</time>
      </trkpt>
      <trkpt lat="46.58001" lon="3.10774">
        <ele>324.9</ele>
        <time>2014-05-19T19:03:04Z</time>
      </trkpt>
      <trkpt lat="46.58008" lon="3.10793">
        <ele>324.7</ele>
        <time>2014-05-19T19:03:05Z</time>
      </trkpt>
      <trkpt lat="46.58015" lon="3.10811">
        <ele>324.5</ele>
        <time>2014-05-19T19:03:06Z</time>
      </trkpt>
      <trkpt lat="46.58021" lon="3.1083">
        <ele>324.3</ele>
        <time>2014-05-19T19:03:07Z</time>
      </trkpt>
      <trkpt lat="46.58027" lon="3.10847">
        <ele>324.2</ele>
        <time>2014-05-19T19:03:08Z</time>
      </trkpt>
      <trkpt lat="46.58032" lon="3.10866">
        <ele>324</ele>
        <time>2014-05-19T19:03:09Z</time>
      </trkpt>
      <trkpt lat="46.58038" lon="3.10887">
        <ele>323.8</ele>
        <time>2014-05-19T19:03:10Z</time>
      </trkpt>
      <trkpt lat="46.58044" lon="3.10908">
        <ele>323.6</ele>
        <time>2014-05-19T19:03:11Z</time>
      </trkpt>
      <trkpt lat="46.58049" lon="3.10934">
        <ele>323.5</ele>
        <time>2014-05-19T19:03:12Z</time>
      </trkpt>
      <trkpt lat="46.58054" lon="3.10959">
        <ele>323.4</ele>
        <time>2014-05-19T19:03:13Z</time>
      </trkpt>
      <trkpt lat="46.5806" lon="3.10987">
        <ele>323.2</ele>
        <time>2014-05-19T19:03:14Z</time>
      </trkpt>
      <trkpt lat="46.58065" lon="3.11015">
        <ele>322.9</ele>
        <time>2014-05-19T19:03:15Z</time>
      </trkpt>
      <trkpt lat="46.5807" lon="3.11045">
        <ele>322.6</ele>
        <time>2014-05-19T19:03:16Z</time>
      </trkpt>
      <trkpt lat="46.58075" lon="3.11075">
        <ele>322.4</ele>
        <time>2014-05-19T19:03:17Z</time>
      </trkpt>
      <trkpt lat="46.58081" lon="3.11105">
        <ele>322.2</ele>
        <time>2014-05-19T19:03:18Z</time>
      </trkpt>
      <trkpt lat="46.58087" lon="3.11135">
        <ele>322</ele>
        <time>2014-05-19T19:03:19Z</time>
      </trkpt>
      <trkpt lat="46.58093" lon="3.11164">
        <ele>321.8</ele>
        <time>2014-05-19T19:03:20Z</time>
      </trkpt>
      <trkpt lat="46.581" lon="3.11195">
        <ele>321.8</ele>
        <time>2014-05-19T19:03:21Z</time>
      </trkpt>
      <trkpt lat="46.58106" lon="3.11224">
        <ele>321.7</ele>
        <time>2014-05-19T19:03:22Z</time>
      </trkpt>
      <trkpt lat="46.58112" lon="3.11253">
        <ele>321.7</ele>
        <time>2014-05-19T19:03:23Z</time>
      </trkpt>
      <trkpt lat="46.58118" lon="3.11281">
        <ele>321.5</ele>
        <time>2014-05-19T19:03:24Z</time>
      </trkpt>
      <trkpt lat="46.58124" lon="3.11308">
        <ele>321.5</ele>
        <time>2014-05-19T19:03:25Z</time>
      </trkpt>
      <trkpt lat="46.58131" lon="3.11335">
        <ele>321.6</ele>
        <time>2014-05-19T19:03:26Z</time>
      </trkpt>
      <trkpt lat="46.58137" lon="3.1136">
        <ele>321.7</ele>
        <time>2014-05-19T19:03:27Z</time>
      </trkpt>
      <trkpt lat="46.58143" lon="3.11387">
        <ele>321.7</ele>
        <time>2014-05-19T19:03:28Z</time>
      </trkpt>
      <trkpt lat="46.58148" lon="3.11413">
        <ele>321.7</ele>
        <time>2014-05-19T19:03:29Z</time>
      </trkpt>
      <trkpt lat="46.58153" lon="3.11441">
        <ele>321.7</ele>
        <time>2014-05-19T19:03:30Z</time>
      </trkpt>
      <trkpt lat="46.58158" lon="3.11469">
        <ele>321.6</ele>
        <time>2014-05-19T19:03:31Z</time>
      </trkpt>
      <trkpt lat="46.58163" lon="3.11496">
        <ele>321.6</ele>
        <time>2014-05-19T19:03:32Z</time>
      </trkpt>
      <trkpt lat="46.58168" lon="3.11523">
        <ele>321.4</ele>
        <time>2014-05-19T19:03:33Z</time>
      </trkpt>
      <trkpt lat="46.58173" lon="3.11549">
        <ele>321.2</ele>
        <time>2014-05-19T19:03:34Z</time>
      </trkpt>
      <trkpt lat="46.58177" lon="3.11576">
        <ele>321.1</ele>
        <time>2014-05-19T19:03:35Z</time>
      </trkpt>
      <trkpt lat="46.58182" lon="3.11603">
        <ele>321</ele>
        <time>2014-05-19T19:03:36Z</time>
      </trkpt>
      <trkpt lat="46.58187" lon="3.11631">
        <ele>320.9</ele>
        <time>2014-05-19T19:03:37Z</time>
      </trkpt>
      <trkpt lat="46.58192" lon="3.11658">
        <ele>320.8</ele>
        <time>2014-05-19T19:03:38Z</time>
      </trkpt>
      <trkpt lat="46.58196" lon="3.11684">
        <ele>320.7</ele>
        <time>2014-05-19T19:03:39Z</time>
      </trkpt>
      <trkpt lat="46.58201" lon="3.11708">
        <ele>320.6</ele>
        <time>2014-05-19T19:03:40Z</time>
      </trkpt>
      <trkpt lat="46.58205" lon="3.11732">
        <ele>320.4</ele>
        <time>2014-05-19T19:03:41Z</time>
      </trkpt>
      <trkpt lat="46.58209" lon="3.11756">
        <ele>320.1</ele>
        <time>2014-05-19T19:03:42Z</time>
      </trkpt>
      <trkpt lat="46.58211" lon="3.11783">
        <ele>319.9</ele>
        <time>2014-05-19T19:03:43Z</time>
      </trkpt>
      <trkpt lat="46.58213" lon="3.1181">
        <ele>319.6</ele>
        <time>2014-05-19T19:03:44Z</time>
      </trkpt>
      <trkpt lat="46.58212" lon="3.11838">
        <ele>319.4</ele>
        <time>2014-05-19T19:03:45Z</time>
      </trkpt>
      <trkpt lat="46.58211" lon="3.11866">
        <ele>319.1</ele>
        <time>2014-05-19T19:03:46Z</time>
      </trkpt>
      <trkpt lat="46.5821" lon="3.11896">
        <ele>318.9</ele>
        <time>2014-05-19T19:03:47Z</time>
      </trkpt>
      <trkpt lat="46.58209" lon="3.11926">
        <ele>318.7</ele>
        <time>2014-05-19T19:03:48Z</time>
      </trkpt>
      <trkpt lat="46.58208" lon="3.11955">
        <ele>318.5</ele>
        <time>2014-05-19T19:03:49Z</time>
      </trkpt>
      <trkpt lat="46.58208" lon="3.11984">
        <ele>318.2</ele>
        <time>2014-05-19T19:03:50Z</time>
      </trkpt>
      <trkpt lat="46.58206" lon="3.12011">
        <ele>318</ele>
        <time>2014-05-19T19:03:51Z</time>
      </trkpt>
      <trkpt lat="46.58205" lon="3.12038">
        <ele>317.8</ele>
        <time>2014-05-19T19:03:52Z</time>
      </trkpt>
      <trkpt lat="46.58204" lon="3.12062">
        <ele>317.8</ele>
        <time>2014-05-19T19:03:53Z</time>
      </trkpt>
      <trkpt lat="46.58203" lon="3.12084">
        <ele>317.7</ele>
        <time>2014-05-19T19:03:54Z</time>
      </trkpt>
      <trkpt lat="46.58202" lon="3.12104">
        <ele>317.6</ele>
        <time>2014-05-19T19:03:55Z</time>
      </trkpt>
      <trkpt lat="46.58202" lon="3.12123">
        <ele>317.5</ele>
        <time>2014-05-19T19:03:56Z</time>
      </trkpt>
      <trkpt lat="46.58201" lon="3.12135">
        <ele>317.5</ele>
        <time>2014-05-19T19:03:57Z</time>
      </trkpt>
      <trkpt lat="46.58202" lon="3.12147">
        <ele>317.4</ele>
        <time>2014-05-19T19:03:58Z</time>
      </trkpt>
      <trkpt lat="46.58198" lon="3.12161">
        <ele>317.4</ele>
        <time>2014-05-19T19:04:00Z</time>
      </trkpt>
      <trkpt lat="46.58198" lon="3.12161">
        <ele>317.3</ele>
        <time>2014-05-19T19:04:10Z</time>
      </trkpt>
      <trkpt lat="46.58196" lon="3.12178">
        <ele>313.4</ele>
        <time>2014-05-19T19:04:57Z</time>
      </trkpt>
      <trkpt lat="46.58196" lon="3.12178">
        <ele>313.1</ele>
        <time>2014-05-19T19:04:57Z</time>
      </trkpt>
      <trkpt lat="46.58195" lon="3.122">
        <ele>312.9</ele>
        <time>2014-05-19T19:04:59Z</time>
      </trkpt>
      <trkpt lat="46.58195" lon="3.12213">
        <ele>312.7</ele>
        <time>2014-05-19T19:05:00Z</time>
      </trkpt>
      <trkpt lat="46.58212" lon="3.1227">
        <ele>312.5</ele>
        <time>2014-05-19T19:05:02Z</time>
      </trkpt>
      <trkpt lat="46.58217" lon="3.12295">
        <ele>312.3</ele>
        <time>2014-05-19T19:05:03Z</time>
      </trkpt>
      <trkpt lat="46.58221" lon="3.1232">
        <ele>311.7</ele>
        <time>2014-05-19T19:05:04Z</time>
      </trkpt>
      <trkpt lat="46.58226" lon="3.12346">
        <ele>311.3</ele>
        <time>2014-05-19T19:05:05Z</time>
      </trkpt>
      <trkpt lat="46.5823" lon="3.12372">
        <ele>310.9</ele>
        <time>2014-05-19T19:05:06Z</time>
      </trkpt>
      <trkpt lat="46.58237" lon="3.12399">
        <ele>310.6</ele>
        <time>2014-05-19T19:05:07Z</time>
      </trkpt>
      <trkpt lat="46.58243" lon="3.12426">
        <ele>310.3</ele>
        <time>2014-05-19T19:05:08Z</time>
      </trkpt>
      <trkpt lat="46.58249" lon="3.12454">
        <ele>310.2</ele>
        <time>2014-05-19T19:05:09Z</time>
      </trkpt>
      <trkpt lat="46.5826" lon="3.12483">
        <ele>310.1</ele>
        <time>2014-05-19T19:05:10Z</time>
      </trkpt>
      <trkpt lat="46.58266" lon="3.12511">
        <ele>310.1</ele>
        <time>2014-05-19T19:05:11Z</time>
      </trkpt>
      <trkpt lat="46.58274" lon="3.1254">
        <ele>310.1</ele>
        <time>2014-05-19T19:05:12Z</time>
      </trkpt>
      <trkpt lat="46.58281" lon="3.12571">
        <ele>310</ele>
        <time>2014-05-19T19:05:13Z</time>
      </trkpt>
      <trkpt lat="46.58288" lon="3.12601">
        <ele>310</ele>
        <time>2014-05-19T19:05:14Z</time>
      </trkpt>
      <trkpt lat="46.58295" lon="3.12631">
        <ele>310.2</ele>
        <time>2014-05-19T19:05:15Z</time>
      </trkpt>
      <trkpt lat="46.58301" lon="3.1266">
        <ele>310.3</ele>
        <time>2014-05-19T19:05:16Z</time>
      </trkpt>
      <trkpt lat="46.58307" lon="3.12687">
        <ele>310.1</ele>
        <time>2014-05-19T19:05:17Z</time>
      </trkpt>
      <trkpt lat="46.58313" lon="3.12714">
        <ele>309.9</ele>
        <time>2014-05-19T19:05:18Z</time>
      </trkpt>
      <trkpt lat="46.58319" lon="3.1274">
        <ele>309.4</ele>
        <time>2014-05-19T19:05:19Z</time>
      </trkpt>
      <trkpt lat="46.58325" lon="3.12765">
        <ele>308.8</ele>
        <time>2014-05-19T19:05:20Z</time>
      </trkpt>
      <trkpt lat="46.58328" lon="3.1279">
        <ele>307.8</ele>
        <time>2014-05-19T19:05:21Z</time>
      </trkpt>
      <trkpt lat="46.58331" lon="3.12818">
        <ele>306.7</ele>
        <time>2014-05-19T19:05:22Z</time>
      </trkpt>
      <trkpt lat="46.58334" lon="3.12846">
        <ele>305.2</ele>
        <time>2014-05-19T19:05:23Z</time>
      </trkpt>
      <trkpt lat="46.58337" lon="3.12875">
        <ele>303.6</ele>
        <time>2014-05-19T19:05:24Z</time>
      </trkpt>
      <trkpt lat="46.58341" lon="3.12905">
        <ele>301.9</ele>
        <time>2014-05-19T19:05:25Z</time>
      </trkpt>
      <trkpt lat="46.58344" lon="3.12936">
        <ele>300.1</ele>
        <time>2014-05-19T19:05:26Z</time>
      </trkpt>
      <trkpt lat="46.58349" lon="3.12967">
        <ele>298.3</ele>
        <time>2014-05-19T19:05:27Z</time>
      </trkpt>
      <trkpt lat="46.58353" lon="3.12997">
        <ele>296.4</ele>
        <time>2014-05-19T19:05:28Z</time>
      </trkpt>
      <trkpt lat="46.58357" lon="3.13029">
        <ele>294.6</ele>
        <time>2014-05-19T19:05:29Z</time>
      </trkpt>
      <trkpt lat="46.5836" lon="3.1306">
        <ele>292.9</ele>
        <time>2014-05-19T19:05:30Z</time>
      </trkpt>
      <trkpt lat="46.58363" lon="3.13091">
        <ele>291.2</ele>
        <time>2014-05-19T19:05:31Z</time>
      </trkpt>
      <trkpt lat="46.58367" lon="3.13123">
        <ele>289.7</ele>
        <time>2014-05-19T19:05:32Z</time>
      </trkpt>
      <trkpt lat="46.58371" lon="3.13156">
        <ele>288.5</ele>
        <time>2014-05-19T19:05:33Z</time>
      </trkpt>
      <trkpt lat="46.58374" lon="3.13188">
        <ele>287.5</ele>
        <time>2014-05-19T19:05:34Z</time>
      </trkpt>
      <trkpt lat="46.58378" lon="3.13221">
        <ele>286.7</ele>
        <time>2014-05-19T19:05:35Z</time>
      </trkpt>
      <trkpt lat="46.58381" lon="3.13253">
        <ele>285.9</ele>
        <time>2014-05-19T19:05:36Z</time>
      </trkpt>
      <trkpt lat="46.58385" lon="3.13286">
        <ele>285.3</ele>
        <time>2014-05-19T19:05:37Z</time>
      </trkpt>
      <trkpt lat="46.58389" lon="3.1332">
        <ele>284.7</ele>
        <time>2014-05-19T19:05:38Z</time>
      </trkpt>
      <trkpt lat="46.58392" lon="3.13352">
        <ele>284.1</ele>
        <time>2014-05-19T19:05:39Z</time>
      </trkpt>
      <trkpt lat="46.58396" lon="3.13385">
        <ele>283.6</ele>
        <time>2014-05-19T19:05:40Z</time>
      </trkpt>
      <trkpt lat="46.58399" lon="3.13417">
        <ele>283.2</ele>
        <time>2014-05-19T19:05:41Z</time>
      </trkpt>
      <trkpt lat="46.58403" lon="3.13447">
        <ele>282.8</ele>
        <time>2014-05-19T19:05:42Z</time>
      </trkpt>
      <trkpt lat="46.58406" lon="3.13478">
        <ele>282.5</ele>
        <time>2014-05-19T19:05:43Z</time>
      </trkpt>
      <trkpt lat="46.58409" lon="3.13508">
        <ele>282.2</ele>
        <time>2014-05-19T19:05:44Z</time>
      </trkpt>
      <trkpt lat="46.58412" lon="3.13535">
        <ele>282</ele>
        <time>2014-05-19T19:05:45Z</time>
      </trkpt>
      <trkpt lat="46.58416" lon="3.13563">
        <ele>281.9</ele>
        <time>2014-05-19T19:05:46Z</time>
      </trkpt>
      <trkpt lat="46.58419" lon="3.13591">
        <ele>281.8</ele>
        <time>2014-05-19T19:05:47Z</time>
      </trkpt>
      <trkpt lat="46.58423" lon="3.13619">
        <ele>281.8</ele>
        <time>2014-05-19T19:05:48Z</time>
      </trkpt>
      <trkpt lat="46.58432" lon="3.13645">
        <ele>281.8</ele>
        <time>2014-05-19T19:05:49Z</time>
      </trkpt>
      <trkpt lat="46.58438" lon="3.13672">
        <ele>281.8</ele>
        <time>2014-05-19T19:05:50Z</time>
      </trkpt>
      <trkpt lat="46.58452" lon="3.13697">
        <ele>281.8</ele>
        <time>2014-05-19T19:05:51Z</time>
      </trkpt>
      <trkpt lat="46.5846" lon="3.13723">
        <ele>282</ele>
        <time>2014-05-19T19:05:52Z</time>
      </trkpt>
      <trkpt lat="46.58469" lon="3.13748">
        <ele>282.1</ele>
        <time>2014-05-19T19:05:53Z</time>
      </trkpt>
      <trkpt lat="46.58475" lon="3.13775">
        <ele>282.2</ele>
        <time>2014-05-19T19:05:54Z</time>
      </trkpt>
      <trkpt lat="46.58481" lon="3.13802">
        <ele>282.2</ele>
        <time>2014-05-19T19:05:55Z</time>
      </trkpt>
      <trkpt lat="46.58486" lon="3.1383">
        <ele>282.1</ele>
        <time>2014-05-19T19:05:56Z</time>
      </trkpt>
      <trkpt lat="46.5849" lon="3.13858">
        <ele>282</ele>
        <time>2014-05-19T19:05:57Z</time>
      </trkpt>
      <trkpt lat="46.58494" lon="3.13886">
        <ele>281.9</ele>
        <time>2014-05-19T19:05:58Z</time>
      </trkpt>
      <trkpt lat="46.58494" lon="3.13917">
        <ele>281.7</ele>
        <time>2014-05-19T19:05:59Z</time>
      </trkpt>
      <trkpt lat="46.58494" lon="3.13946">
        <ele>281.6</ele>
        <time>2014-05-19T19:06:00Z</time>
      </trkpt>
      <trkpt lat="46.58494" lon="3.13976">
        <ele>281.4</ele>
        <time>2014-05-19T19:06:01Z</time>
      </trkpt>
      <trkpt lat="46.58494" lon="3.14006">
        <ele>281.3</ele>
        <time>2014-05-19T19:06:02Z</time>
      </trkpt>
      <trkpt lat="46.58494" lon="3.14037">
        <ele>281.1</ele>
        <time>2014-05-19T19:06:03Z</time>
      </trkpt>
      <trkpt lat="46.58494" lon="3.14067">
        <ele>280.9</ele>
        <time>2014-05-19T19:06:04Z</time>
      </trkpt>
      <trkpt lat="46.58494" lon="3.14098">
        <ele>280.8</ele>
        <time>2014-05-19T19:06:05Z</time>
      </trkpt>
      <trkpt lat="46.58495" lon="3.14129">
        <ele>280.7</ele>
        <time>2014-05-19T19:06:06Z</time>
      </trkpt>
      <trkpt lat="46.58498" lon="3.1416">
        <ele>280.7</ele>
        <time>2014-05-19T19:06:07Z</time>
      </trkpt>
      <trkpt lat="46.585" lon="3.14189">
        <ele>280.7</ele>
        <time>2014-05-19T19:06:08Z</time>
      </trkpt>
      <trkpt lat="46.58502" lon="3.14217">
        <ele>280.7</ele>
        <time>2014-05-19T19:06:09Z</time>
      </trkpt>
      <trkpt lat="46.58504" lon="3.14243">
        <ele>280.7</ele>
        <time>2014-05-19T19:06:10Z</time>
      </trkpt>
      <trkpt lat="46.58506" lon="3.14266">
        <ele>280.8</ele>
        <time>2014-05-19T19:06:11Z</time>
      </trkpt>
      <trkpt lat="46.58508" lon="3.14288">
        <ele>280.8</ele>
        <time>2014-05-19T19:06:12Z</time>
      </trkpt>
      <trkpt lat="46.58512" lon="3.14309">
        <ele>280.7</ele>
        <time>2014-05-19T19:06:13Z</time>
      </trkpt>
      <trkpt lat="46.5852" lon="3.14329">
        <ele>280.7</ele>
        <time>2014-05-19T19:06:14Z</time>
      </trkpt>
      <trkpt lat="46.5853" lon="3.1435">
        <ele>280.7</ele>
        <time>2014-05-19T19:06:15Z</time>
      </trkpt>
      <trkpt lat="46.5854" lon="3.1437">
        <ele>280.7</ele>
        <time>2014-05-19T19:06:16Z</time>
      </trkpt>
      <trkpt lat="46.58552" lon="3.14393">
        <ele>280.6</ele>
        <time>2014-05-19T19:06:17Z</time>
      </trkpt>
      <trkpt lat="46.58564" lon="3.14416">
        <ele>280.5</ele>
        <time>2014-05-19T19:06:18Z</time>
      </trkpt>
      <trkpt lat="46.58575" lon="3.14438">
        <ele>280.3</ele>
        <time>2014-05-19T19:06:19Z</time>
      </trkpt>
      <trkpt lat="46.58586" lon="3.1446">
        <ele>280.2</ele>
        <time>2014-05-19T19:06:20Z</time>
      </trkpt>
      <trkpt lat="46.58598" lon="3.14483">
        <ele>280</ele>
        <time>2014-05-19T19:06:21Z</time>
      </trkpt>
      <trkpt lat="46.58609" lon="3.14507">
        <ele>279.8</ele>
        <time>2014-05-19T19:06:22Z</time>
      </trkpt>
      <trkpt lat="46.58621" lon="3.14529">
        <ele>279.7</ele>
        <time>2014-05-19T19:06:23Z</time>
      </trkpt>
      <trkpt lat="46.58632" lon="3.14552">
        <ele>279.4</ele>
        <time>2014-05-19T19:06:24Z</time>
      </trkpt>
      <trkpt lat="46.58643" lon="3.14574">
        <ele>279.2</ele>
        <time>2014-05-19T19:06:25Z</time>
      </trkpt>
      <trkpt lat="46.58653" lon="3.14594">
        <ele>279</ele>
        <time>2014-05-19T19:06:26Z</time>
      </trkpt>
      <trkpt lat="46.58663" lon="3.14613">
        <ele>278.8</ele>
        <time>2014-05-19T19:06:27Z</time>
      </trkpt>
      <trkpt lat="46.58672" lon="3.14631">
        <ele>278.6</ele>
        <time>2014-05-19T19:06:28Z</time>
      </trkpt>
      <trkpt lat="46.58681" lon="3.14648">
        <ele>278.4</ele>
        <time>2014-05-19T19:06:29Z</time>
      </trkpt>
      <trkpt lat="46.5869" lon="3.14665">
        <ele>278.3</ele>
        <time>2014-05-19T19:06:30Z</time>
      </trkpt>
      <trkpt lat="46.58696" lon="3.14679">
        <ele>278.2</ele>
        <time>2014-05-19T19:06:31Z</time>
      </trkpt>
      <trkpt lat="46.58703" lon="3.14691">
        <ele>278.1</ele>
        <time>2014-05-19T19:06:32Z</time>
      </trkpt>
      <trkpt lat="46.58708" lon="3.14701">
        <ele>278</ele>
        <time>2014-05-19T19:06:33Z</time>
      </trkpt>
      <trkpt lat="46.58713" lon="3.14711">
        <ele>277.9</ele>
        <time>2014-05-19T19:06:34Z</time>
      </trkpt>
      <trkpt lat="46.58714" lon="3.14727">
        <ele>277.9</ele>
        <time>2014-05-19T19:06:39Z</time>
      </trkpt>
      <trkpt lat="46.5871" lon="3.14746">
        <ele>277.9</ele>
        <time>2014-05-19T19:06:41Z</time>
      </trkpt>
      <trkpt lat="46.58704" lon="3.14769">
        <ele>277.9</ele>
        <time>2014-05-19T19:06:43Z</time>
      </trkpt>
      <trkpt lat="46.587" lon="3.14784">
        <ele>277.8</ele>
        <time>2014-05-19T19:06:44Z</time>
      </trkpt>
      <trkpt lat="46.58695" lon="3.148">
        <ele>277.8</ele>
        <time>2014-05-19T19:06:45Z</time>
      </trkpt>
      <trkpt lat="46.5869" lon="3.14818">
        <ele>277.9</ele>
        <time>2014-05-19T19:06:46Z</time>
      </trkpt>
      <trkpt lat="46.58685" lon="3.14836">
        <ele>277.9</ele>
        <time>2014-05-19T19:06:47Z</time>
      </trkpt>
      <trkpt lat="46.58679" lon="3.14857">
        <ele>278.1</ele>
        <time>2014-05-19T19:06:48Z</time>
      </trkpt>
      <trkpt lat="46.58673" lon="3.14879">
        <ele>278.3</ele>
        <time>2014-05-19T19:06:49Z</time>
      </trkpt>
      <trkpt lat="46.58666" lon="3.14903">
        <ele>278.6</ele>
        <time>2014-05-19T19:06:50Z</time>
      </trkpt>
      <trkpt lat="46.5866" lon="3.14927">
        <ele>279.1</ele>
        <time>2014-05-19T19:06:51Z</time>
      </trkpt>
      <trkpt lat="46.58653" lon="3.14951">
        <ele>279.6</ele>
        <time>2014-05-19T19:06:52Z</time>
      </trkpt>
      <trkpt lat="46.58647" lon="3.14976">
        <ele>280.1</ele>
        <time>2014-05-19T19:06:53Z</time>
      </trkpt>
      <trkpt lat="46.58641" lon="3.15001">
        <ele>280.7</ele>
        <time>2014-05-19T19:06:54Z</time>
      </trkpt>
      <trkpt lat="46.58637" lon="3.15027">
        <ele>281.3</ele>
        <time>2014-05-19T19:06:55Z</time>
      </trkpt>
      <trkpt lat="46.58636" lon="3.15055">
        <ele>281.9</ele>
        <time>2014-05-19T19:06:56Z</time>
      </trkpt>
      <trkpt lat="46.58636" lon="3.15081">
        <ele>282.5</ele>
        <time>2014-05-19T19:06:57Z</time>
      </trkpt>
      <trkpt lat="46.58637" lon="3.15108">
        <ele>283</ele>
        <time>2014-05-19T19:06:58Z</time>
      </trkpt>
      <trkpt lat="46.58637" lon="3.15136">
        <ele>283.4</ele>
        <time>2014-05-19T19:06:59Z</time>
      </trkpt>
      <trkpt lat="46.58639" lon="3.15163">
        <ele>283.7</ele>
        <time>2014-05-19T19:07:00Z</time>
      </trkpt>
      <trkpt lat="46.5864" lon="3.1519">
        <ele>284</ele>
        <time>2014-05-19T19:07:01Z</time>
      </trkpt>
      <trkpt lat="46.58639" lon="3.15215">
        <ele>284.1</ele>
        <time>2014-05-19T19:07:02Z</time>
      </trkpt>
      <trkpt lat="46.58637" lon="3.15239">
        <ele>284.3</ele>
        <time>2014-05-19T19:07:03Z</time>
      </trkpt>
      <trkpt lat="46.58634" lon="3.1526">
        <ele>284.5</ele>
        <time>2014-05-19T19:07:04Z</time>
      </trkpt>
      <trkpt lat="46.58631" lon="3.15276">
        <ele>284.6</ele>
        <time>2014-05-19T19:07:05Z</time>
      </trkpt>
      <trkpt lat="46.58628" lon="3.15288">
        <ele>284.6</ele>
        <time>2014-05-19T19:07:06Z</time>
      </trkpt>
      <trkpt lat="46.58624" lon="3.15304">
        <ele>284.6</ele>
        <time>2014-05-19T19:07:08Z</time>
      </trkpt>
      <trkpt lat="46.58623" lon="3.15316">
        <ele>284.6</ele>
        <time>2014-05-19T19:07:10Z</time>
      </trkpt>
      <trkpt lat="46.5862" lon="3.15332">
        <ele>284.6</ele>
        <time>2014-05-19T19:07:13Z</time>
      </trkpt>
      <trkpt lat="46.58621" lon="3.15335">
        <ele>284.7</ele>
        <time>2014-05-19T19:07:23Z</time>
      </trkpt>
      <trkpt lat="46.58618" lon="3.15349">
        <ele>286.8</ele>
        <time>2014-05-19T19:07:29Z</time>
      </trkpt>
      <trkpt lat="46.58618" lon="3.15349">
        <ele>287.1</ele>
        <time>2014-05-19T19:07:29Z</time>
      </trkpt>
      <trkpt lat="46.58617" lon="3.15365">
        <ele>287.3</ele>
        <time>2014-05-19T19:07:31Z</time>
      </trkpt>
      <trkpt lat="46.58617" lon="3.15385">
        <ele>287.4</ele>
        <time>2014-05-19T19:07:33Z</time>
      </trkpt>
      <trkpt lat="46.58614" lon="3.15401">
        <ele>287.6</ele>
        <time>2014-05-19T19:07:34Z</time>
      </trkpt>
      <trkpt lat="46.58611" lon="3.15415">
        <ele>287.7</ele>
        <time>2014-05-19T19:07:35Z</time>
      </trkpt>
      <trkpt lat="46.58607" lon="3.15429">
        <ele>288</ele>
        <time>2014-05-19T19:07:36Z</time>
      </trkpt>
      <trkpt lat="46.58602" lon="3.15444">
        <ele>288.3</ele>
        <time>2014-05-19T19:07:37Z</time>
      </trkpt>
      <trkpt lat="46.58596" lon="3.15461">
        <ele>288.5</ele>
        <time>2014-05-19T19:07:38Z</time>
      </trkpt>
      <trkpt lat="46.5859" lon="3.15479">
        <ele>288.7</ele>
        <time>2014-05-19T19:07:39Z</time>
      </trkpt>
      <trkpt lat="46.58583" lon="3.15497">
        <ele>289</ele>
        <time>2014-05-19T19:07:40Z</time>
      </trkpt>
      <trkpt lat="46.58576" lon="3.15516">
        <ele>289.1</ele>
        <time>2014-05-19T19:07:41Z</time>
      </trkpt>
      <trkpt lat="46.58568" lon="3.15535">
        <ele>289.3</ele>
        <time>2014-05-19T19:07:42Z</time>
      </trkpt>
      <trkpt lat="46.5856" lon="3.15553">
        <ele>289.6</ele>
        <time>2014-05-19T19:07:43Z</time>
      </trkpt>
      <trkpt lat="46.58554" lon="3.15569">
        <ele>289.8</ele>
        <time>2014-05-19T19:07:44Z</time>
      </trkpt>
      <trkpt lat="46.58548" lon="3.15584">
        <ele>290.1</ele>
        <time>2014-05-19T19:07:45Z</time>
      </trkpt>
      <trkpt lat="46.58542" lon="3.15598">
        <ele>290.5</ele>
        <time>2014-05-19T19:07:46Z</time>
      </trkpt>
      <trkpt lat="46.58538" lon="3.1561">
        <ele>291</ele>
        <time>2014-05-19T19:07:47Z</time>
      </trkpt>
      <trkpt lat="46.58537" lon="3.15622">
        <ele>291.5</ele>
        <time>2014-05-19T19:07:48Z</time>
      </trkpt>
      <trkpt lat="46.58537" lon="3.15635">
        <ele>292</ele>
        <time>2014-05-19T19:07:49Z</time>
      </trkpt>
      <trkpt lat="46.58538" lon="3.15649">
        <ele>292.6</ele>
        <time>2014-05-19T19:07:50Z</time>
      </trkpt>
      <trkpt lat="46.58537" lon="3.15662">
        <ele>293.3</ele>
        <time>2014-05-19T19:07:51Z</time>
      </trkpt>
      <trkpt lat="46.58538" lon="3.15675">
        <ele>294.3</ele>
        <time>2014-05-19T19:07:52Z</time>
      </trkpt>
      <trkpt lat="46.58538" lon="3.15688">
        <ele>294.6</ele>
        <time>2014-05-19T19:07:53Z</time>
      </trkpt>
      <trkpt lat="46.58538" lon="3.15701">
        <ele>295.1</ele>
        <time>2014-05-19T19:07:54Z</time>
      </trkpt>
      <trkpt lat="46.58538" lon="3.15712">
        <ele>295.5</ele>
        <time>2014-05-19T19:07:55Z</time>
      </trkpt>
      <trkpt lat="46.58535" lon="3.15726">
        <ele>295.9</ele>
        <time>2014-05-19T19:07:57Z</time>
      </trkpt>
      <trkpt lat="46.58534" lon="3.15731">
        <ele>296.3</ele>
        <time>2014-05-19T19:08:09Z</time>
      </trkpt>
      <trkpt lat="46.58533" lon="3.15744">
        <ele>303.3</ele>
        <time>2014-05-19T19:08:42Z</time>
      </trkpt>
      <trkpt lat="46.58533" lon="3.15744">
        <ele>303.4</ele>
        <time>2014-05-19T19:08:42Z</time>
      </trkpt>
      <trkpt lat="46.58531" lon="3.15761">
        <ele>303.5</ele>
        <time>2014-05-19T19:08:44Z</time>
      </trkpt>
      <trkpt lat="46.58522" lon="3.15778">
        <ele>303.7</ele>
        <time>2014-05-19T19:08:46Z</time>
      </trkpt>
      <trkpt lat="46.5851" lon="3.15788">
        <ele>303.8</ele>
        <time>2014-05-19T19:08:48Z</time>
      </trkpt>
      <trkpt lat="46.58497" lon="3.1579">
        <ele>304</ele>
        <time>2014-05-19T19:08:50Z</time>
      </trkpt>
      <trkpt lat="46.58481" lon="3.15788">
        <ele>304.2</ele>
        <time>2014-05-19T19:08:52Z</time>
      </trkpt>
      <trkpt lat="46.58467" lon="3.15788">
        <ele>304.5</ele>
        <time>2014-05-19T19:08:54Z</time>
      </trkpt>
      <trkpt lat="46.58455" lon="3.15801">
        <ele>304.7</ele>
        <time>2014-05-19T19:08:56Z</time>
      </trkpt>
      <trkpt lat="46.58449" lon="3.1581">
        <ele>304.9</ele>
        <time>2014-05-19T19:08:57Z</time>
      </trkpt>
      <trkpt lat="46.58444" lon="3.15821">
        <ele>305.1</ele>
        <time>2014-05-19T19:08:58Z</time>
      </trkpt>
      <trkpt lat="46.5844" lon="3.15833">
        <ele>305.4</ele>
        <time>2014-05-19T19:08:59Z</time>
      </trkpt>
      <trkpt lat="46.58439" lon="3.15847">
        <ele>305.6</ele>
        <time>2014-05-19T19:09:00Z</time>
      </trkpt>
      <trkpt lat="46.58436" lon="3.15861">
        <ele>305.8</ele>
        <time>2014-05-19T19:09:01Z</time>
      </trkpt>
      <trkpt lat="46.58434" lon="3.15876">
        <ele>306</ele>
        <time>2014-05-19T19:09:02Z</time>
      </trkpt>
      <trkpt lat="46.5843" lon="3.15891">
        <ele>306.2</ele>
        <time>2014-05-19T19:09:03Z</time>
      </trkpt>
      <trkpt lat="46.58426" lon="3.15907">
        <ele>306.4</ele>
        <time>2014-05-19T19:09:04Z</time>
      </trkpt>
      <trkpt lat="46.58423" lon="3.15923">
        <ele>306.6</ele>
        <time>2014-05-19T19:09:05Z</time>
      </trkpt>
      <trkpt lat="46.58419" lon="3.15939">
        <ele>306.8</ele>
        <time>2014-05-19T19:09:06Z</time>
      </trkpt>
      <trkpt lat="46.58413" lon="3.15955">
        <ele>307</ele>
        <time>2014-05-19T19:09:07Z</time>
      </trkpt>
      <trkpt lat="46.58407" lon="3.15971">
        <ele>307.2</ele>
        <time>2014-05-19T19:09:08Z</time>
      </trkpt>
      <trkpt lat="46.58401" lon="3.15987">
        <ele>307.3</ele>
        <time>2014-05-19T19:09:09Z</time>
      </trkpt>
      <trkpt lat="46.58395" lon="3.16003">
        <ele>307.4</ele>
        <time>2014-05-19T19:09:10Z</time>
      </trkpt>
      <trkpt lat="46.58389" lon="3.16019">
        <ele>307.7</ele>
        <time>2014-05-19T19:09:11Z</time>
      </trkpt>
      <trkpt lat="46.58382" lon="3.16034">
        <ele>308</ele>
        <time>2014-05-19T19:09:12Z</time>
      </trkpt>
      <trkpt lat="46.58377" lon="3.16049">
        <ele>308.2</ele>
        <time>2014-05-19T19:09:13Z</time>
      </trkpt>
      <trkpt lat="46.58372" lon="3.16062">
        <ele>308.4</ele>
        <time>2014-05-19T19:09:14Z</time>
      </trkpt>
      <trkpt lat="46.58366" lon="3.16083">
        <ele>308.7</ele>
        <time>2014-05-19T19:09:16Z</time>
      </trkpt>
      <trkpt lat="46.58364" lon="3.16095">
        <ele>308.9</ele>
        <time>2014-05-19T19:09:18Z</time>
      </trkpt>
      <trkpt lat="46.58366" lon="3.1611">
        <ele>309.2</ele>
        <time>2014-05-19T19:09:21Z</time>
      </trkpt>
      <trkpt lat="46.58376" lon="3.16125">
        <ele>309.4</ele>
        <time>2014-05-19T19:09:23Z</time>
      </trkpt>
      <trkpt lat="46.58388" lon="3.16133">
        <ele>309.6</ele>
        <time>2014-05-19T19:09:25Z</time>
      </trkpt>
      <trkpt lat="46.584" lon="3.16139">
        <ele>309.8</ele>
        <time>2014-05-19T19:09:27Z</time>
      </trkpt>
      <trkpt lat="46.58415" lon="3.16148">
        <ele>310.1</ele>
        <time>2014-05-19T19:09:29Z</time>
      </trkpt>
      <trkpt lat="46.58425" lon="3.16155">
        <ele>310.2</ele>
        <time>2014-05-19T19:09:30Z</time>
      </trkpt>
      <trkpt lat="46.58434" lon="3.16162">
        <ele>310.3</ele>
        <time>2014-05-19T19:09:31Z</time>
      </trkpt>
      <trkpt lat="46.58444" lon="3.16171">
        <ele>310.4</ele>
        <time>2014-05-19T19:09:32Z</time>
      </trkpt>
      <trkpt lat="46.58454" lon="3.16179">
        <ele>310.4</ele>
        <time>2014-05-19T19:09:33Z</time>
      </trkpt>
      <trkpt lat="46.58464" lon="3.16187">
        <ele>310.4</ele>
        <time>2014-05-19T19:09:34Z</time>
      </trkpt>
      <trkpt lat="46.58475" lon="3.16195">
        <ele>310.3</ele>
        <time>2014-05-19T19:09:35Z</time>
      </trkpt>
      <trkpt lat="46.58486" lon="3.16204">
        <ele>310.3</ele>
        <time>2014-05-19T19:09:36Z</time>
      </trkpt>
      <trkpt lat="46.58497" lon="3.16212">
        <ele>310.3</ele>
        <time>2014-05-19T19:09:37Z</time>
      </trkpt>
      <trkpt lat="46.58509" lon="3.16221">
        <ele>310.3</ele>
        <time>2014-05-19T19:09:38Z</time>
      </trkpt>
      <trkpt lat="46.58521" lon="3.16232">
        <ele>310.3</ele>
        <time>2014-05-19T19:09:39Z</time>
      </trkpt>
      <trkpt lat="46.58533" lon="3.16241">
        <ele>310.2</ele>
        <time>2014-05-19T19:09:40Z</time>
      </trkpt>
      <trkpt lat="46.58545" lon="3.16249">
        <ele>310.2</ele>
        <time>2014-05-19T19:09:41Z</time>
      </trkpt>
      <trkpt lat="46.58557" lon="3.16259">
        <ele>310</ele>
        <time>2014-05-19T19:09:42Z</time>
      </trkpt>
      <trkpt lat="46.58568" lon="3.16268">
        <ele>309.8</ele>
        <time>2014-05-19T19:09:43Z</time>
      </trkpt>
      <trkpt lat="46.58579" lon="3.16275">
        <ele>309.5</ele>
        <time>2014-05-19T19:09:44Z</time>
      </trkpt>
      <trkpt lat="46.58589" lon="3.16284">
        <ele>309.3</ele>
        <time>2014-05-19T19:09:46Z</time>
      </trkpt>
      <trkpt lat="46.58596" lon="3.16289">
        <ele>309</ele>
        <time>2014-05-19T19:09:46Z</time>
      </trkpt>
      <trkpt lat="46.58608" lon="3.163">
        <ele>308.8</ele>
        <time>2014-05-19T19:09:48Z</time>
      </trkpt>
      <trkpt lat="46.58621" lon="3.16307">
        <ele>308.6</ele>
        <time>2014-05-19T19:09:50Z</time>
      </trkpt>
      <trkpt lat="46.58636" lon="3.16312">
        <ele>308.3</ele>
        <time>2014-05-19T19:09:52Z</time>
      </trkpt>
      <trkpt lat="46.58644" lon="3.16312">
        <ele>307.9</ele>
        <time>2014-05-19T19:09:53Z</time>
      </trkpt>
      <trkpt lat="46.58654" lon="3.16313">
        <ele>307.4</ele>
        <time>2014-05-19T19:09:54Z</time>
      </trkpt>
      <trkpt lat="46.58669" lon="3.16305">
        <ele>306.8</ele>
        <time>2014-05-19T19:09:56Z</time>
      </trkpt>
      <trkpt lat="46.58677" lon="3.16301">
        <ele>306.4</ele>
        <time>2014-05-19T19:09:57Z</time>
      </trkpt>
      <trkpt lat="46.58685" lon="3.16297">
        <ele>306</ele>
        <time>2014-05-19T19:09:58Z</time>
      </trkpt>
      <trkpt lat="46.58694" lon="3.16294">
        <ele>305.7</ele>
        <time>2014-05-19T19:09:59Z</time>
      </trkpt>
      <trkpt lat="46.58709" lon="3.1629">
        <ele>305.4</ele>
        <time>2014-05-19T19:10:01Z</time>
      </trkpt>
      <trkpt lat="46.58727" lon="3.16286">
        <ele>304.9</ele>
        <time>2014-05-19T19:10:03Z</time>
      </trkpt>
      <trkpt lat="46.58736" lon="3.16284">
        <ele>304.5</ele>
        <time>2014-05-19T19:10:04Z</time>
      </trkpt>
      <trkpt lat="46.58747" lon="3.16282">
        <ele>304</ele>
        <time>2014-05-19T19:10:05Z</time>
      </trkpt>
      <trkpt lat="46.58757" lon="3.1628">
        <ele>303.7</ele>
        <time>2014-05-19T19:10:06Z</time>
      </trkpt>
      <trkpt lat="46.58767" lon="3.16279">
        <ele>303.4</ele>
        <time>2014-05-19T19:10:07Z</time>
      </trkpt>
      <trkpt lat="46.58777" lon="3.16279">
        <ele>303.2</ele>
        <time>2014-05-19T19:10:08Z</time>
      </trkpt>
      <trkpt lat="46.58787" lon="3.16281">
        <ele>303</ele>
        <time>2014-05-19T19:10:09Z</time>
      </trkpt>
      <trkpt lat="46.58795" lon="3.16286">
        <ele>302.6</ele>
        <time>2014-05-19T19:10:10Z</time>
      </trkpt>
      <trkpt lat="46.58804" lon="3.1629">
        <ele>302.2</ele>
        <time>2014-05-19T19:10:11Z</time>
      </trkpt>
      <trkpt lat="46.58813" lon="3.16295">
        <ele>301.8</ele>
        <time>2014-05-19T19:10:12Z</time>
      </trkpt>
      <trkpt lat="46.58822" lon="3.16299">
        <ele>301.3</ele>
        <time>2014-05-19T19:10:13Z</time>
      </trkpt>
      <trkpt lat="46.58831" lon="3.16304">
        <ele>300.9</ele>
        <time>2014-05-19T19:10:14Z</time>
      </trkpt>
      <trkpt lat="46.5884" lon="3.16309">
        <ele>300.5</ele>
        <time>2014-05-19T19:10:15Z</time>
      </trkpt>
      <trkpt lat="46.58849" lon="3.16314">
        <ele>300</ele>
        <time>2014-05-19T19:10:16Z</time>
      </trkpt>
      <trkpt lat="46.58857" lon="3.16323">
        <ele>299.5</ele>
        <time>2014-05-19T19:10:17Z</time>
      </trkpt>
      <trkpt lat="46.58866" lon="3.16333">
        <ele>299</ele>
        <time>2014-05-19T19:10:18Z</time>
      </trkpt>
      <trkpt lat="46.58873" lon="3.16345">
        <ele>298.5</ele>
        <time>2014-05-19T19:10:19Z</time>
      </trkpt>
      <trkpt lat="46.58881" lon="3.16359">
        <ele>297.9</ele>
        <time>2014-05-19T19:10:20Z</time>
      </trkpt>
      <trkpt lat="46.58887" lon="3.16374">
        <ele>297.6</ele>
        <time>2014-05-19T19:10:21Z</time>
      </trkpt>
      <trkpt lat="46.58895" lon="3.16389">
        <ele>297.4</ele>
        <time>2014-05-19T19:10:22Z</time>
      </trkpt>
      <trkpt lat="46.58904" lon="3.16402">
        <ele>297.1</ele>
        <time>2014-05-19T19:10:23Z</time>
      </trkpt>
      <trkpt lat="46.58913" lon="3.16413">
        <ele>296.8</ele>
        <time>2014-05-19T19:10:24Z</time>
      </trkpt>
      <trkpt lat="46.58923" lon="3.16422">
        <ele>296.4</ele>
        <time>2014-05-19T19:10:25Z</time>
      </trkpt>
      <trkpt lat="46.58935" lon="3.16428">
        <ele>296.1</ele>
        <time>2014-05-19T19:10:26Z</time>
      </trkpt>
      <trkpt lat="46.58947" lon="3.16434">
        <ele>295.7</ele>
        <time>2014-05-19T19:10:27Z</time>
      </trkpt>
      <trkpt lat="46.58961" lon="3.16439">
        <ele>295.4</ele>
        <time>2014-05-19T19:10:28Z</time>
      </trkpt>
      <trkpt lat="46.58975" lon="3.16444">
        <ele>295</ele>
        <time>2014-05-19T19:10:29Z</time>
      </trkpt>
      <trkpt lat="46.58988" lon="3.1645">
        <ele>294.5</ele>
        <time>2014-05-19T19:10:30Z</time>
      </trkpt>
      <trkpt lat="46.59" lon="3.16455">
        <ele>294.1</ele>
        <time>2014-05-19T19:10:31Z</time>
      </trkpt>
      <trkpt lat="46.59011" lon="3.1646">
        <ele>293.5</ele>
        <time>2014-05-19T19:10:32Z</time>
      </trkpt>
      <trkpt lat="46.59021" lon="3.16464">
        <ele>292.9</ele>
        <time>2014-05-19T19:10:33Z</time>
      </trkpt>
      <trkpt lat="46.59029" lon="3.16467">
        <ele>292.3</ele>
        <time>2014-05-19T19:10:34Z</time>
      </trkpt>
      <trkpt lat="46.59042" lon="3.16472">
        <ele>291.8</ele>
        <time>2014-05-19T19:10:36Z</time>
      </trkpt>
      <trkpt lat="46.59049" lon="3.16483">
        <ele>291.3</ele>
        <time>2014-05-19T19:10:38Z</time>
      </trkpt>
      <trkpt lat="46.59052" lon="3.16503">
        <ele>290.8</ele>
        <time>2014-05-19T19:10:40Z</time>
      </trkpt>
      <trkpt lat="46.59046" lon="3.1652">
        <ele>290.3</ele>
        <time>2014-05-19T19:10:41Z</time>
      </trkpt>
      <trkpt lat="46.59043" lon="3.16536">
        <ele>289.9</ele>
        <time>2014-05-19T19:10:42Z</time>
      </trkpt>
      <trkpt lat="46.5904" lon="3.16553">
        <ele>289.5</ele>
        <time>2014-05-19T19:10:43Z</time>
      </trkpt>
      <trkpt lat="46.59038" lon="3.16569">
        <ele>289.1</ele>
        <time>2014-05-19T19:10:44Z</time>
      </trkpt>
      <trkpt lat="46.59037" lon="3.16586">
        <ele>288.8</ele>
        <time>2014-05-19T19:10:45Z</time>
      </trkpt>
      <trkpt lat="46.59036" lon="3.16602">
        <ele>288.6</ele>
        <time>2014-05-19T19:10:46Z</time>
      </trkpt>
      <trkpt lat="46.59036" lon="3.16618">
        <ele>288.4</ele>
        <time>2014-05-19T19:10:47Z</time>
      </trkpt>
      <trkpt lat="46.59037" lon="3.16635">
        <ele>288.3</ele>
        <time>2014-05-19T19:10:48Z</time>
      </trkpt>
      <trkpt lat="46.59037" lon="3.16654">
        <ele>288.2</ele>
        <time>2014-05-19T19:10:49Z</time>
      </trkpt>
      <trkpt lat="46.59038" lon="3.16674">
        <ele>288</ele>
        <time>2014-05-19T19:10:50Z</time>
      </trkpt>
      <trkpt lat="46.5904" lon="3.16697">
        <ele>287.9</ele>
        <time>2014-05-19T19:10:51Z</time>
      </trkpt>
      <trkpt lat="46.59042" lon="3.16721">
        <ele>287.9</ele>
        <time>2014-05-19T19:10:52Z</time>
      </trkpt>
      <trkpt lat="46.59043" lon="3.16743">
        <ele>287.9</ele>
        <time>2014-05-19T19:10:53Z</time>
      </trkpt>
      <trkpt lat="46.59044" lon="3.16758">
        <ele>287.9</ele>
        <time>2014-05-19T19:10:54Z</time>
      </trkpt>
      <trkpt lat="46.59045" lon="3.16772">
        <ele>288</ele>
        <time>2014-05-19T19:10:55Z</time>
      </trkpt>
      <trkpt lat="46.59046" lon="3.16786">
        <ele>288.1</ele>
        <time>2014-05-19T19:10:56Z</time>
      </trkpt>
      <trkpt lat="46.59048" lon="3.16802">
        <ele>288.2</ele>
        <time>2014-05-19T19:10:57Z</time>
      </trkpt>
      <trkpt lat="46.59051" lon="3.1682">
        <ele>288.3</ele>
        <time>2014-05-19T19:10:58Z</time>
      </trkpt>
      <trkpt lat="46.59057" lon="3.1684">
        <ele>288.4</ele>
        <time>2014-05-19T19:10:59Z</time>
      </trkpt>
      <trkpt lat="46.59062" lon="3.16862">
        <ele>288.5</ele>
        <time>2014-05-19T19:11:00Z</time>
      </trkpt>
      <trkpt lat="46.5907" lon="3.16884">
        <ele>288.6</ele>
        <time>2014-05-19T19:11:01Z</time>
      </trkpt>
      <trkpt lat="46.59076" lon="3.16908">
        <ele>288.7</ele>
        <time>2014-05-19T19:11:02Z</time>
      </trkpt>
      <trkpt lat="46.59083" lon="3.16932">
        <ele>288.7</ele>
        <time>2014-05-19T19:11:03Z</time>
      </trkpt>
      <trkpt lat="46.59091" lon="3.16957">
        <ele>288.7</ele>
        <time>2014-05-19T19:11:04Z</time>
      </trkpt>
      <trkpt lat="46.59099" lon="3.16982">
        <ele>288.7</ele>
        <time>2014-05-19T19:11:05Z</time>
      </trkpt>
      <trkpt lat="46.5911" lon="3.17008">
        <ele>288.8</ele>
        <time>2014-05-19T19:11:06Z</time>
      </trkpt>
      <trkpt lat="46.59119" lon="3.17033">
        <ele>288.8</ele>
        <time>2014-05-19T19:11:07Z</time>
      </trkpt>
      <trkpt lat="46.59127" lon="3.17059">
        <ele>288.8</ele>
        <time>2014-05-19T19:11:08Z</time>
      </trkpt>
      <trkpt lat="46.59134" lon="3.17083">
        <ele>288.9</ele>
        <time>2014-05-19T19:11:09Z</time>
      </trkpt>
      <trkpt lat="46.5914" lon="3.17105">
        <ele>289</ele>
        <time>2014-05-19T19:11:10Z</time>
      </trkpt>
      <trkpt lat="46.59148" lon="3.17123">
        <ele>289.2</ele>
        <time>2014-05-19T19:11:11Z</time>
      </trkpt>
      <trkpt lat="46.59155" lon="3.17138">
        <ele>289.5</ele>
        <time>2014-05-19T19:11:12Z</time>
      </trkpt>
      <trkpt lat="46.59164" lon="3.17151">
        <ele>289.7</ele>
        <time>2014-05-19T19:11:14Z</time>
      </trkpt>
      <trkpt lat="46.59177" lon="3.17143">
        <ele>290</ele>
        <time>2014-05-19T19:11:14Z</time>
      </trkpt>
      <trkpt lat="46.59189" lon="3.1714">
        <ele>290.2</ele>
        <time>2014-05-19T19:11:15Z</time>
      </trkpt>
      <trkpt lat="46.59201" lon="3.17134">
        <ele>290.5</ele>
        <time>2014-05-19T19:11:16Z</time>
      </trkpt>
      <trkpt lat="46.59212" lon="3.17129">
        <ele>290.9</ele>
        <time>2014-05-19T19:11:17Z</time>
      </trkpt>
      <trkpt lat="46.59224" lon="3.17122">
        <ele>291.4</ele>
        <time>2014-05-19T19:11:18Z</time>
      </trkpt>
      <trkpt lat="46.59237" lon="3.17115">
        <ele>291.8</ele>
        <time>2014-05-19T19:11:19Z</time>
      </trkpt>
      <trkpt lat="46.5925" lon="3.17109">
        <ele>292.2</ele>
        <time>2014-05-19T19:11:20Z</time>
      </trkpt>
      <trkpt lat="46.59262" lon="3.17103">
        <ele>292.5</ele>
        <time>2014-05-19T19:11:21Z</time>
      </trkpt>
      <trkpt lat="46.59273" lon="3.17105">
        <ele>292.8</ele>
        <time>2014-05-19T19:11:22Z</time>
      </trkpt>
      <trkpt lat="46.59284" lon="3.17109">
        <ele>293.1</ele>
        <time>2014-05-19T19:11:23Z</time>
      </trkpt>
      <trkpt lat="46.59297" lon="3.17116">
        <ele>293.4</ele>
        <time>2014-05-19T19:11:25Z</time>
      </trkpt>
      <trkpt lat="46.59309" lon="3.17126">
        <ele>293.8</ele>
        <time>2014-05-19T19:11:26Z</time>
      </trkpt>
      <trkpt lat="46.59322" lon="3.1714">
        <ele>294.1</ele>
        <time>2014-05-19T19:11:26Z</time>
      </trkpt>
      <trkpt lat="46.59334" lon="3.17152">
        <ele>294.5</ele>
        <time>2014-05-19T19:11:27Z</time>
      </trkpt>
      <trkpt lat="46.59347" lon="3.17163">
        <ele>294.7</ele>
        <time>2014-05-19T19:11:28Z</time>
      </trkpt>
      <trkpt lat="46.5936" lon="3.17174">
        <ele>295</ele>
        <time>2014-05-19T19:11:29Z</time>
      </trkpt>
      <trkpt lat="46.59373" lon="3.17183">
        <ele>295.4</ele>
        <time>2014-05-19T19:11:30Z</time>
      </trkpt>
      <trkpt lat="46.59388" lon="3.17191">
        <ele>295.7</ele>
        <time>2014-05-19T19:11:31Z</time>
      </trkpt>
      <trkpt lat="46.59404" lon="3.17197">
        <ele>296</ele>
        <time>2014-05-19T19:11:32Z</time>
      </trkpt>
      <trkpt lat="46.59421" lon="3.17201">
        <ele>296.3</ele>
        <time>2014-05-19T19:11:33Z</time>
      </trkpt>
      <trkpt lat="46.59438" lon="3.17204">
        <ele>296.8</ele>
        <time>2014-05-19T19:11:34Z</time>
      </trkpt>
      <trkpt lat="46.59455" lon="3.17208">
        <ele>297.2</ele>
        <time>2014-05-19T19:11:35Z</time>
      </trkpt>
      <trkpt lat="46.59471" lon="3.17213">
        <ele>297.6</ele>
        <time>2014-05-19T19:11:36Z</time>
      </trkpt>
      <trkpt lat="46.59487" lon="3.17221">
        <ele>298.1</ele>
        <time>2014-05-19T19:11:37Z</time>
      </trkpt>
      <trkpt lat="46.59503" lon="3.17231">
        <ele>298.4</ele>
        <time>2014-05-19T19:11:38Z</time>
      </trkpt>
      <trkpt lat="46.59521" lon="3.17245">
        <ele>298.8</ele>
        <time>2014-05-19T19:11:39Z</time>
      </trkpt>
      <trkpt lat="46.59539" lon="3.17259">
        <ele>299.3</ele>
        <time>2014-05-19T19:11:40Z</time>
      </trkpt>
      <trkpt lat="46.59559" lon="3.17273">
        <ele>299.7</ele>
        <time>2014-05-19T19:11:41Z</time>
      </trkpt>
      <trkpt lat="46.59578" lon="3.17287">
        <ele>300.2</ele>
        <time>2014-05-19T19:11:42Z</time>
      </trkpt>
      <trkpt lat="46.59597" lon="3.17302">
        <ele>300.7</ele>
        <time>2014-05-19T19:11:43Z</time>
      </trkpt>
      <trkpt lat="46.59615" lon="3.17316">
        <ele>301.2</ele>
        <time>2014-05-19T19:11:44Z</time>
      </trkpt>
      <trkpt lat="46.59633" lon="3.17328">
        <ele>301.5</ele>
        <time>2014-05-19T19:11:45Z</time>
      </trkpt>
      <trkpt lat="46.5965" lon="3.17342">
        <ele>301.9</ele>
        <time>2014-05-19T19:11:46Z</time>
      </trkpt>
      <trkpt lat="46.59666" lon="3.17358">
        <ele>302.3</ele>
        <time>2014-05-19T19:11:47Z</time>
      </trkpt>
      <trkpt lat="46.59681" lon="3.17374">
        <ele>302.8</ele>
        <time>2014-05-19T19:11:48Z</time>
      </trkpt>
      <trkpt lat="46.59696" lon="3.17391">
        <ele>303.3</ele>
        <time>2014-05-19T19:11:49Z</time>
      </trkpt>
      <trkpt lat="46.5971" lon="3.1741">
        <ele>303.7</ele>
        <time>2014-05-19T19:11:50Z</time>
      </trkpt>
      <trkpt lat="46.59722" lon="3.17432">
        <ele>304.1</ele>
        <time>2014-05-19T19:11:51Z</time>
      </trkpt>
      <trkpt lat="46.59734" lon="3.17455">
        <ele>304.6</ele>
        <time>2014-05-19T19:11:52Z</time>
      </trkpt>
      <trkpt lat="46.59746" lon="3.17479">
        <ele>305</ele>
        <time>2014-05-19T19:11:53Z</time>
      </trkpt>
      <trkpt lat="46.59757" lon="3.17502">
        <ele>305.5</ele>
        <time>2014-05-19T19:11:54Z</time>
      </trkpt>
      <trkpt lat="46.59767" lon="3.17525">
        <ele>306</ele>
        <time>2014-05-19T19:11:55Z</time>
      </trkpt>
      <trkpt lat="46.59774" lon="3.17549">
        <ele>306.6</ele>
        <time>2014-05-19T19:11:56Z</time>
      </trkpt>
      <trkpt lat="46.59782" lon="3.17573">
        <ele>307.1</ele>
        <time>2014-05-19T19:11:57Z</time>
      </trkpt>
      <trkpt lat="46.59789" lon="3.17596">
        <ele>307.6</ele>
        <time>2014-05-19T19:11:58Z</time>
      </trkpt>
      <trkpt lat="46.59796" lon="3.17618">
        <ele>308</ele>
        <time>2014-05-19T19:11:59Z</time>
      </trkpt>
      <trkpt lat="46.59802" lon="3.1764">
        <ele>308.4</ele>
        <time>2014-05-19T19:12:00Z</time>
      </trkpt>
      <trkpt lat="46.59807" lon="3.1766">
        <ele>308.9</ele>
        <time>2014-05-19T19:12:01Z</time>
      </trkpt>
      <trkpt lat="46.59813" lon="3.17681">
        <ele>309.2</ele>
        <time>2014-05-19T19:12:02Z</time>
      </trkpt>
      <trkpt lat="46.59826" lon="3.17701">
        <ele>309.6</ele>
        <time>2014-05-19T19:12:03Z</time>
      </trkpt>
      <trkpt lat="46.59836" lon="3.17719">
        <ele>309.8</ele>
        <time>2014-05-19T19:12:04Z</time>
      </trkpt>
      <trkpt lat="46.59847" lon="3.17737">
        <ele>310.1</ele>
        <time>2014-05-19T19:12:05Z</time>
      </trkpt>
      <trkpt lat="46.5986" lon="3.17759">
        <ele>310.4</ele>
        <time>2014-05-19T19:12:06Z</time>
      </trkpt>
      <trkpt lat="46.59874" lon="3.17781">
        <ele>310.6</ele>
        <time>2014-05-19T19:12:07Z</time>
      </trkpt>
      <trkpt lat="46.59888" lon="3.17804">
        <ele>310.9</ele>
        <time>2014-05-19T19:12:08Z</time>
      </trkpt>
      <trkpt lat="46.59902" lon="3.17827">
        <ele>311.1</ele>
        <time>2014-05-19T19:12:09Z</time>
      </trkpt>
      <trkpt lat="46.59917" lon="3.17851">
        <ele>311.2</ele>
        <time>2014-05-19T19:12:10Z</time>
      </trkpt>
      <trkpt lat="46.59931" lon="3.17875">
        <ele>311.3</ele>
        <time>2014-05-19T19:12:11Z</time>
      </trkpt>
      <trkpt lat="46.59945" lon="3.17899">
        <ele>311.4</ele>
        <time>2014-05-19T19:12:12Z</time>
      </trkpt>
      <trkpt lat="46.59962" lon="3.17924">
        <ele>311.5</ele>
        <time>2014-05-19T19:12:13Z</time>
      </trkpt>
      <trkpt lat="46.59979" lon="3.1795">
        <ele>311.9</ele>
        <time>2014-05-19T19:12:14Z</time>
      </trkpt>
      <trkpt lat="46.59994" lon="3.17976">
        <ele>312.3</ele>
        <time>2014-05-19T19:12:15Z</time>
      </trkpt>
      <trkpt lat="46.60012" lon="3.18">
        <ele>312.7</ele>
        <time>2014-05-19T19:12:16Z</time>
      </trkpt>
      <trkpt lat="46.60028" lon="3.18023">
        <ele>313</ele>
        <time>2014-05-19T19:12:17Z</time>
      </trkpt>
      <trkpt lat="46.60042" lon="3.18048">
        <ele>313.3</ele>
        <time>2014-05-19T19:12:18Z</time>
      </trkpt>
      <trkpt lat="46.60056" lon="3.18073">
        <ele>313.5</ele>
        <time>2014-05-19T19:12:19Z</time>
      </trkpt>
      <trkpt lat="46.60071" lon="3.18097">
        <ele>313.8</ele>
        <time>2014-05-19T19:12:20Z</time>
      </trkpt>
      <trkpt lat="46.60087" lon="3.18121">
        <ele>314</ele>
        <time>2014-05-19T19:12:21Z</time>
      </trkpt>
      <trkpt lat="46.60103" lon="3.18146">
        <ele>314.2</ele>
        <time>2014-05-19T19:12:22Z</time>
      </trkpt>
      <trkpt lat="46.60119" lon="3.18172">
        <ele>314.3</ele>
        <time>2014-05-19T19:12:23Z</time>
      </trkpt>
      <trkpt lat="46.60134" lon="3.182">
        <ele>314.3</ele>
        <time>2014-05-19T19:12:24Z</time>
      </trkpt>
      <trkpt lat="46.60149" lon="3.18223">
        <ele>314.1</ele>
        <time>2014-05-19T19:12:25Z</time>
      </trkpt>
      <trkpt lat="46.60164" lon="3.18246">
        <ele>313.9</ele>
        <time>2014-05-19T19:12:26Z</time>
      </trkpt>
      <trkpt lat="46.60177" lon="3.18265">
        <ele>313.7</ele>
        <time>2014-05-19T19:12:27Z</time>
      </trkpt>
      <trkpt lat="46.60189" lon="3.18284">
        <ele>313.5</ele>
        <time>2014-05-19T19:12:28Z</time>
      </trkpt>
      <trkpt lat="46.60199" lon="3.183">
        <ele>313.4</ele>
        <time>2014-05-19T19:12:29Z</time>
      </trkpt>
      <trkpt lat="46.60209" lon="3.18314">
        <ele>313.1</ele>
        <time>2014-05-19T19:12:30Z</time>
      </trkpt>
      <trkpt lat="46.60221" lon="3.18326">
        <ele>313</ele>
        <time>2014-05-19T19:12:31Z</time>
      </trkpt>
      <trkpt lat="46.60229" lon="3.18337">
        <ele>312.8</ele>
        <time>2014-05-19T19:12:32Z</time>
      </trkpt>
      <trkpt lat="46.60237" lon="3.18351">
        <ele>312.8</ele>
        <time>2014-05-19T19:12:33Z</time>
      </trkpt>
      <trkpt lat="46.60244" lon="3.18362">
        <ele>312.9</ele>
        <time>2014-05-19T19:12:34Z</time>
      </trkpt>
      <trkpt lat="46.60249" lon="3.18371">
        <ele>313</ele>
        <time>2014-05-19T19:12:35Z</time>
      </trkpt>
      <trkpt lat="46.60255" lon="3.18383">
        <ele>313.1</ele>
        <time>2014-05-19T19:12:36Z</time>
      </trkpt>
      <trkpt lat="46.60261" lon="3.18397">
        <ele>313.1</ele>
        <time>2014-05-19T19:12:37Z</time>
      </trkpt>
      <trkpt lat="46.60266" lon="3.18412">
        <ele>313.2</ele>
        <time>2014-05-19T19:12:38Z</time>
      </trkpt>
      <trkpt lat="46.6027" lon="3.18425">
        <ele>313.4</ele>
        <time>2014-05-19T19:12:39Z</time>
      </trkpt>
      <trkpt lat="46.60275" lon="3.18439">
        <ele>313.5</ele>
        <time>2014-05-19T19:12:40Z</time>
      </trkpt>
      <trkpt lat="46.6028" lon="3.18456">
        <ele>313.8</ele>
        <time>2014-05-19T19:12:41Z</time>
      </trkpt>
      <trkpt lat="46.60286" lon="3.18475">
        <ele>314.2</ele>
        <time>2014-05-19T19:12:42Z</time>
      </trkpt>
      <trkpt lat="46.60294" lon="3.18504">
        <ele>314.5</ele>
        <time>2014-05-19T19:12:43Z</time>
      </trkpt>
      <trkpt lat="46.60299" lon="3.18526">
        <ele>314.9</ele>
        <time>2014-05-19T19:12:44Z</time>
      </trkpt>
      <trkpt lat="46.60305" lon="3.18548">
        <ele>315.2</ele>
        <time>2014-05-19T19:12:45Z</time>
      </trkpt>
      <trkpt lat="46.60312" lon="3.18572">
        <ele>315.5</ele>
        <time>2014-05-19T19:12:46Z</time>
      </trkpt>
      <trkpt lat="46.6032" lon="3.18598">
        <ele>315.8</ele>
        <time>2014-05-19T19:12:47Z</time>
      </trkpt>
      <trkpt lat="46.60326" lon="3.18623">
        <ele>316.1</ele>
        <time>2014-05-19T19:12:48Z</time>
      </trkpt>
      <trkpt lat="46.60334" lon="3.18647">
        <ele>316.3</ele>
        <time>2014-05-19T19:12:49Z</time>
      </trkpt>
      <trkpt lat="46.60342" lon="3.18671">
        <ele>316.6</ele>
        <time>2014-05-19T19:12:50Z</time>
      </trkpt>
      <trkpt lat="46.6035" lon="3.18697">
        <ele>316.9</ele>
        <time>2014-05-19T19:12:51Z</time>
      </trkpt>
      <trkpt lat="46.60358" lon="3.18723">
        <ele>317.3</ele>
        <time>2014-05-19T19:12:52Z</time>
      </trkpt>
      <trkpt lat="46.60368" lon="3.18749">
        <ele>317.5</ele>
        <time>2014-05-19T19:12:53Z</time>
      </trkpt>
      <trkpt lat="46.60378" lon="3.18777">
        <ele>317.7</ele>
        <time>2014-05-19T19:12:54Z</time>
      </trkpt>
      <trkpt lat="46.60387" lon="3.18807">
        <ele>317.8</ele>
        <time>2014-05-19T19:12:55Z</time>
      </trkpt>
      <trkpt lat="46.60398" lon="3.18834">
        <ele>318</ele>
        <time>2014-05-19T19:12:56Z</time>
      </trkpt>
      <trkpt lat="46.60403" lon="3.18859">
        <ele>318.3</ele>
        <time>2014-05-19T19:12:57Z</time>
      </trkpt>
      <trkpt lat="46.60412" lon="3.18886">
        <ele>318.6</ele>
        <time>2014-05-19T19:12:58Z</time>
      </trkpt>
      <trkpt lat="46.60421" lon="3.18914">
        <ele>319</ele>
        <time>2014-05-19T19:12:59Z</time>
      </trkpt>
      <trkpt lat="46.60428" lon="3.18938">
        <ele>319.4</ele>
        <time>2014-05-19T19:13:00Z</time>
      </trkpt>
      <trkpt lat="46.60438" lon="3.18967">
        <ele>319.7</ele>
        <time>2014-05-19T19:13:01Z</time>
      </trkpt>
      <trkpt lat="46.60449" lon="3.18996">
        <ele>320</ele>
        <time>2014-05-19T19:13:02Z</time>
      </trkpt>
      <trkpt lat="46.6046" lon="3.19022">
        <ele>320.3</ele>
        <time>2014-05-19T19:13:03Z</time>
      </trkpt>
      <trkpt lat="46.60471" lon="3.19047">
        <ele>320.5</ele>
        <time>2014-05-19T19:13:04Z</time>
      </trkpt>
      <trkpt lat="46.60482" lon="3.19073">
        <ele>320.9</ele>
        <time>2014-05-19T19:13:05Z</time>
      </trkpt>
      <trkpt lat="46.60494" lon="3.19098">
        <ele>321.2</ele>
        <time>2014-05-19T19:13:06Z</time>
      </trkpt>
      <trkpt lat="46.60504" lon="3.19123">
        <ele>321.6</ele>
        <time>2014-05-19T19:13:07Z</time>
      </trkpt>
      <trkpt lat="46.60515" lon="3.19148">
        <ele>322</ele>
        <time>2014-05-19T19:13:08Z</time>
      </trkpt>
      <trkpt lat="46.60525" lon="3.19172">
        <ele>322.5</ele>
        <time>2014-05-19T19:13:09Z</time>
      </trkpt>
      <trkpt lat="46.60536" lon="3.192">
        <ele>323.1</ele>
        <time>2014-05-19T19:13:10Z</time>
      </trkpt>
      <trkpt lat="46.60548" lon="3.19226">
        <ele>323.5</ele>
        <time>2014-05-19T19:13:11Z</time>
      </trkpt>
      <trkpt lat="46.6056" lon="3.19255">
        <ele>324</ele>
        <time>2014-05-19T19:13:12Z</time>
      </trkpt>
      <trkpt lat="46.6057" lon="3.19284">
        <ele>324.5</ele>
        <time>2014-05-19T19:13:13Z</time>
      </trkpt>
      <trkpt lat="46.60583" lon="3.19314">
        <ele>324.9</ele>
        <time>2014-05-19T19:13:14Z</time>
      </trkpt>
      <trkpt lat="46.60593" lon="3.19343">
        <ele>325.3</ele>
        <time>2014-05-19T19:13:15Z</time>
      </trkpt>
      <trkpt lat="46.60604" lon="3.19373">
        <ele>325.7</ele>
        <time>2014-05-19T19:13:16Z</time>
      </trkpt>
      <trkpt lat="46.60618" lon="3.19404">
        <ele>326.2</ele>
        <time>2014-05-19T19:13:17Z</time>
      </trkpt>
      <trkpt lat="46.60629" lon="3.19435">
        <ele>326.6</ele>
        <time>2014-05-19T19:13:18Z</time>
      </trkpt>
      <trkpt lat="46.60641" lon="3.19465">
        <ele>327</ele>
        <time>2014-05-19T19:13:19Z</time>
      </trkpt>
      <trkpt lat="46.60654" lon="3.19494">
        <ele>327.2</ele>
        <time>2014-05-19T19:13:20Z</time>
      </trkpt>
      <trkpt lat="46.60667" lon="3.19527">
        <ele>327.6</ele>
        <time>2014-05-19T19:13:21Z</time>
      </trkpt>
      <trkpt lat="46.60679" lon="3.19558">
        <ele>328</ele>
        <time>2014-05-19T19:13:22Z</time>
      </trkpt>
      <trkpt lat="46.60692" lon="3.19589">
        <ele>328.4</ele>
        <time>2014-05-19T19:13:23Z</time>
      </trkpt>
      <trkpt lat="46.60705" lon="3.19621">
        <ele>328.9</ele>
        <time>2014-05-19T19:13:24Z</time>
      </trkpt>
      <trkpt lat="46.60718" lon="3.19652">
        <ele>329.3</ele>
        <time>2014-05-19T19:13:25Z</time>
      </trkpt>
      <trkpt lat="46.60731" lon="3.19687">
        <ele>330</ele>
        <time>2014-05-19T19:13:26Z</time>
      </trkpt>
      <trkpt lat="46.60743" lon="3.19721">
        <ele>330.6</ele>
        <time>2014-05-19T19:13:27Z</time>
      </trkpt>
      <trkpt lat="46.60755" lon="3.19756">
        <ele>331.1</ele>
        <time>2014-05-19T19:13:28Z</time>
      </trkpt>
      <trkpt lat="46.60767" lon="3.19789">
        <ele>331.6</ele>
        <time>2014-05-19T19:13:29Z</time>
      </trkpt>
      <trkpt lat="46.6078" lon="3.19821">
        <ele>332.1</ele>
        <time>2014-05-19T19:13:30Z</time>
      </trkpt>
      <trkpt lat="46.60789" lon="3.19849">
        <ele>332.6</ele>
        <time>2014-05-19T19:13:31Z</time>
      </trkpt>
      <trkpt lat="46.60801" lon="3.19879">
        <ele>332.8</ele>
        <time>2014-05-19T19:13:32Z</time>
      </trkpt>
      <trkpt lat="46.60813" lon="3.19908">
        <ele>333</ele>
        <time>2014-05-19T19:13:33Z</time>
      </trkpt>
      <trkpt lat="46.60826" lon="3.19935">
        <ele>333.3</ele>
        <time>2014-05-19T19:13:34Z</time>
      </trkpt>
      <trkpt lat="46.60839" lon="3.19966">
        <ele>333.5</ele>
        <time>2014-05-19T19:13:35Z</time>
      </trkpt>
      <trkpt lat="46.6085" lon="3.19995">
        <ele>333.8</ele>
        <time>2014-05-19T19:13:36Z</time>
      </trkpt>
      <trkpt lat="46.60865" lon="3.20025">
        <ele>334</ele>
        <time>2014-05-19T19:13:37Z</time>
      </trkpt>
      <trkpt lat="46.60876" lon="3.20055">
        <ele>334.2</ele>
        <time>2014-05-19T19:13:38Z</time>
      </trkpt>
      <trkpt lat="46.60889" lon="3.20081">
        <ele>334.6</ele>
        <time>2014-05-19T19:13:39Z</time>
      </trkpt>
      <trkpt lat="46.60902" lon="3.20111">
        <ele>334.8</ele>
        <time>2014-05-19T19:13:40Z</time>
      </trkpt>
      <trkpt lat="46.60914" lon="3.20143">
        <ele>335.1</ele>
        <time>2014-05-19T19:13:41Z</time>
      </trkpt>
      <trkpt lat="46.60926" lon="3.20175">
        <ele>335.4</ele>
        <time>2014-05-19T19:13:42Z</time>
      </trkpt>
      <trkpt lat="46.60939" lon="3.20207">
        <ele>335.7</ele>
        <time>2014-05-19T19:13:43Z</time>
      </trkpt>
      <trkpt lat="46.60951" lon="3.20239">
        <ele>336</ele>
        <time>2014-05-19T19:13:44Z</time>
      </trkpt>
      <trkpt lat="46.60964" lon="3.20269">
        <ele>336.4</ele>
        <time>2014-05-19T19:13:45Z</time>
      </trkpt>
      <trkpt lat="46.60976" lon="3.20301">
        <ele>336.7</ele>
        <time>2014-05-19T19:13:46Z</time>
      </trkpt>
      <trkpt lat="46.60988" lon="3.20331">
        <ele>336.9</ele>
        <time>2014-05-19T19:13:47Z</time>
      </trkpt>
      <trkpt lat="46.61001" lon="3.20363">
        <ele>337.1</ele>
        <time>2014-05-19T19:13:48Z</time>
      </trkpt>
      <trkpt lat="46.61012" lon="3.20394">
        <ele>337.1</ele>
        <time>2014-05-19T19:13:49Z</time>
      </trkpt>
      <trkpt lat="46.61024" lon="3.20426">
        <ele>337.1</ele>
        <time>2014-05-19T19:13:50Z</time>
      </trkpt>
      <trkpt lat="46.61038" lon="3.20456">
        <ele>337.1</ele>
        <time>2014-05-19T19:13:51Z</time>
      </trkpt>
      <trkpt lat="46.6105" lon="3.20485">
        <ele>336.5</ele>
        <time>2014-05-19T19:13:52Z</time>
      </trkpt>
      <trkpt lat="46.61063" lon="3.20516">
        <ele>335.8</ele>
        <time>2014-05-19T19:13:53Z</time>
      </trkpt>
      <trkpt lat="46.61076" lon="3.20543">
        <ele>334.5</ele>
        <time>2014-05-19T19:13:54Z</time>
      </trkpt>
      <trkpt lat="46.61089" lon="3.20567">
        <ele>332.7</ele>
        <time>2014-05-19T19:13:55Z</time>
      </trkpt>
      <trkpt lat="46.61101" lon="3.20593">
        <ele>330.7</ele>
        <time>2014-05-19T19:13:56Z</time>
      </trkpt>
      <trkpt lat="46.6111" lon="3.20607">
        <ele>328.5</ele>
        <time>2014-05-19T19:13:57Z</time>
      </trkpt>
      <trkpt lat="46.61115" lon="3.20622">
        <ele>326</ele>
        <time>2014-05-19T19:13:58Z</time>
      </trkpt>
      <trkpt lat="46.61118" lon="3.20639">
        <ele>323.5</ele>
        <time>2014-05-19T19:13:59Z</time>
      </trkpt>
      <trkpt lat="46.61103" lon="3.20653">
        <ele>321</ele>
        <time>2014-05-19T19:14:00Z</time>
      </trkpt>
      <trkpt lat="46.61101" lon="3.20665">
        <ele>318.5</ele>
        <time>2014-05-19T19:14:01Z</time>
      </trkpt>
      <trkpt lat="46.61098" lon="3.20678">
        <ele>315.9</ele>
        <time>2014-05-19T19:14:03Z</time>
      </trkpt>
      <trkpt lat="46.61091" lon="3.20692">
        <ele>313.7</ele>
        <time>2014-05-19T19:14:05Z</time>
      </trkpt>
      <trkpt lat="46.61087" lon="3.20704">
        <ele>311.6</ele>
        <time>2014-05-19T19:14:06Z</time>
      </trkpt>
      <trkpt lat="46.61082" lon="3.20716">
        <ele>310</ele>
        <time>2014-05-19T19:14:07Z</time>
      </trkpt>
      <trkpt lat="46.61076" lon="3.20735">
        <ele>308.9</ele>
        <time>2014-05-19T19:14:08Z</time>
      </trkpt>
      <trkpt lat="46.6107" lon="3.20753">
        <ele>308.2</ele>
        <time>2014-05-19T19:14:09Z</time>
      </trkpt>
      <trkpt lat="46.61064" lon="3.20772">
        <ele>307.9</ele>
        <time>2014-05-19T19:14:10Z</time>
      </trkpt>
      <trkpt lat="46.61057" lon="3.20793">
        <ele>307.8</ele>
        <time>2014-05-19T19:14:11Z</time>
      </trkpt>
      <trkpt lat="46.61051" lon="3.20817">
        <ele>307.7</ele>
        <time>2014-05-19T19:14:12Z</time>
      </trkpt>
      <trkpt lat="46.61043" lon="3.20842">
        <ele>307.7</ele>
        <time>2014-05-19T19:14:13Z</time>
      </trkpt>
      <trkpt lat="46.61035" lon="3.20868">
        <ele>307.6</ele>
        <time>2014-05-19T19:14:14Z</time>
      </trkpt>
      <trkpt lat="46.61027" lon="3.20895">
        <ele>307.6</ele>
        <time>2014-05-19T19:14:15Z</time>
      </trkpt>
      <trkpt lat="46.61021" lon="3.2092">
        <ele>307.8</ele>
        <time>2014-05-19T19:14:16Z</time>
      </trkpt>
      <trkpt lat="46.61014" lon="3.20946">
        <ele>308.1</ele>
        <time>2014-05-19T19:14:17Z</time>
      </trkpt>
      <trkpt lat="46.61009" lon="3.20974">
        <ele>308.4</ele>
        <time>2014-05-19T19:14:18Z</time>
      </trkpt>
      <trkpt lat="46.61004" lon="3.21005">
        <ele>308.6</ele>
        <time>2014-05-19T19:14:19Z</time>
      </trkpt>
      <trkpt lat="46.61004" lon="3.21038">
        <ele>308.7</ele>
        <time>2014-05-19T19:14:20Z</time>
      </trkpt>
      <trkpt lat="46.61002" lon="3.21071">
        <ele>308.7</ele>
        <time>2014-05-19T19:14:21Z</time>
      </trkpt>
      <trkpt lat="46.61" lon="3.21106">
        <ele>308.6</ele>
        <time>2014-05-19T19:14:22Z</time>
      </trkpt>
      <trkpt lat="46.60998" lon="3.21141">
        <ele>308.6</ele>
        <time>2014-05-19T19:14:23Z</time>
      </trkpt>
      <trkpt lat="46.60995" lon="3.21176">
        <ele>308.7</ele>
        <time>2014-05-19T19:14:24Z</time>
      </trkpt>
      <trkpt lat="46.60993" lon="3.21208">
        <ele>308.8</ele>
        <time>2014-05-19T19:14:25Z</time>
      </trkpt>
      <trkpt lat="46.60991" lon="3.21236">
        <ele>308.9</ele>
        <time>2014-05-19T19:14:26Z</time>
      </trkpt>
      <trkpt lat="46.6099" lon="3.21265">
        <ele>309</ele>
        <time>2014-05-19T19:14:27Z</time>
      </trkpt>
      <trkpt lat="46.60989" lon="3.21282">
        <ele>309.1</ele>
        <time>2014-05-19T19:14:28Z</time>
      </trkpt>
      <trkpt lat="46.60988" lon="3.21299">
        <ele>309.1</ele>
        <time>2014-05-19T19:14:29Z</time>
      </trkpt>
      <trkpt lat="46.60987" lon="3.21312">
        <ele>309.2</ele>
        <time>2014-05-19T19:14:30Z</time>
      </trkpt>
      <trkpt lat="46.60985" lon="3.21327">
        <ele>309.4</ele>
        <time>2014-05-19T19:14:32Z</time>
      </trkpt>
      <trkpt lat="46.60985" lon="3.2134">
        <ele>309.5</ele>
        <time>2014-05-19T19:14:36Z</time>
      </trkpt>
      <trkpt lat="46.60983" lon="3.21361">
        <ele>309.7</ele>
        <time>2014-05-19T19:14:38Z</time>
      </trkpt>
      <trkpt lat="46.60983" lon="3.21374">
        <ele>309.7</ele>
        <time>2014-05-19T19:14:39Z</time>
      </trkpt>
      <trkpt lat="46.60981" lon="3.21389">
        <ele>309.7</ele>
        <time>2014-05-19T19:14:40Z</time>
      </trkpt>
      <trkpt lat="46.6098" lon="3.21407">
        <ele>309.6</ele>
        <time>2014-05-19T19:14:41Z</time>
      </trkpt>
      <trkpt lat="46.60978" lon="3.21426">
        <ele>309.6</ele>
        <time>2014-05-19T19:14:42Z</time>
      </trkpt>
      <trkpt lat="46.60977" lon="3.21448">
        <ele>309.6</ele>
        <time>2014-05-19T19:14:43Z</time>
      </trkpt>
      <trkpt lat="46.60975" lon="3.21469">
        <ele>309.6</ele>
        <time>2014-05-19T19:14:44Z</time>
      </trkpt>
      <trkpt lat="46.60973" lon="3.21492">
        <ele>309.5</ele>
        <time>2014-05-19T19:14:45Z</time>
      </trkpt>
      <trkpt lat="46.60972" lon="3.21516">
        <ele>309.3</ele>
        <time>2014-05-19T19:14:46Z</time>
      </trkpt>
      <trkpt lat="46.60971" lon="3.21543">
        <ele>309.2</ele>
        <time>2014-05-19T19:14:47Z</time>
      </trkpt>
      <trkpt lat="46.6097" lon="3.21569">
        <ele>308.9</ele>
        <time>2014-05-19T19:14:48Z</time>
      </trkpt>
      <trkpt lat="46.6097" lon="3.21595">
        <ele>308.5</ele>
        <time>2014-05-19T19:14:49Z</time>
      </trkpt>
      <trkpt lat="46.60971" lon="3.21619">
        <ele>308</ele>
        <time>2014-05-19T19:14:50Z</time>
      </trkpt>
      <trkpt lat="46.60971" lon="3.21644">
        <ele>307.5</ele>
        <time>2014-05-19T19:14:51Z</time>
      </trkpt>
      <trkpt lat="46.60968" lon="3.21675">
        <ele>306.9</ele>
        <time>2014-05-19T19:14:52Z</time>
      </trkpt>
      <trkpt lat="46.60964" lon="3.21705">
        <ele>306.2</ele>
        <time>2014-05-19T19:14:53Z</time>
      </trkpt>
      <trkpt lat="46.6096" lon="3.21735">
        <ele>305.4</ele>
        <time>2014-05-19T19:14:54Z</time>
      </trkpt>
      <trkpt lat="46.60955" lon="3.21765">
        <ele>304.5</ele>
        <time>2014-05-19T19:14:55Z</time>
      </trkpt>
      <trkpt lat="46.60951" lon="3.21796">
        <ele>303.6</ele>
        <time>2014-05-19T19:14:56Z</time>
      </trkpt>
      <trkpt lat="46.60946" lon="3.21827">
        <ele>302.7</ele>
        <time>2014-05-19T19:14:57Z</time>
      </trkpt>
      <trkpt lat="46.60941" lon="3.21859">
        <ele>301.8</ele>
        <time>2014-05-19T19:14:58Z</time>
      </trkpt>
      <trkpt lat="46.60936" lon="3.2189">
        <ele>301</ele>
        <time>2014-05-19T19:14:59Z</time>
      </trkpt>
      <trkpt lat="46.60931" lon="3.21921">
        <ele>300.3</ele>
        <time>2014-05-19T19:15:00Z</time>
      </trkpt>
      <trkpt lat="46.60927" lon="3.21951">
        <ele>299.8</ele>
        <time>2014-05-19T19:15:01Z</time>
      </trkpt>
      <trkpt lat="46.60922" lon="3.2198">
        <ele>299.3</ele>
        <time>2014-05-19T19:15:02Z</time>
      </trkpt>
      <trkpt lat="46.60919" lon="3.22007">
        <ele>298.8</ele>
        <time>2014-05-19T19:15:03Z</time>
      </trkpt>
      <trkpt lat="46.60914" lon="3.22032">
        <ele>298.5</ele>
        <time>2014-05-19T19:15:04Z</time>
      </trkpt>
      <trkpt lat="46.60911" lon="3.22055">
        <ele>298.4</ele>
        <time>2014-05-19T19:15:05Z</time>
      </trkpt>
      <trkpt lat="46.6091" lon="3.22079">
        <ele>298.4</ele>
        <time>2014-05-19T19:15:06Z</time>
      </trkpt>
      <trkpt lat="46.60908" lon="3.22103">
        <ele>298.5</ele>
        <time>2014-05-19T19:15:07Z</time>
      </trkpt>
      <trkpt lat="46.60912" lon="3.22129">
        <ele>298.7</ele>
        <time>2014-05-19T19:15:08Z</time>
      </trkpt>
      <trkpt lat="46.60918" lon="3.22155">
        <ele>299</ele>
        <time>2014-05-19T19:15:09Z</time>
      </trkpt>
      <trkpt lat="46.60923" lon="3.22183">
        <ele>299.2</ele>
        <time>2014-05-19T19:15:10Z</time>
      </trkpt>
      <trkpt lat="46.60929" lon="3.22213">
        <ele>299.4</ele>
        <time>2014-05-19T19:15:11Z</time>
      </trkpt>
      <trkpt lat="46.60934" lon="3.22244">
        <ele>299.6</ele>
        <time>2014-05-19T19:15:12Z</time>
      </trkpt>
      <trkpt lat="46.6094" lon="3.22275">
        <ele>299.8</ele>
        <time>2014-05-19T19:15:13Z</time>
      </trkpt>
      <trkpt lat="46.60946" lon="3.22307">
        <ele>300</ele>
        <time>2014-05-19T19:15:14Z</time>
      </trkpt>
      <trkpt lat="46.60952" lon="3.22339">
        <ele>300.2</ele>
        <time>2014-05-19T19:15:15Z</time>
      </trkpt>
      <trkpt lat="46.60957" lon="3.2237">
        <ele>300.3</ele>
        <time>2014-05-19T19:15:16Z</time>
      </trkpt>
      <trkpt lat="46.6096" lon="3.22401">
        <ele>300.3</ele>
        <time>2014-05-19T19:15:17Z</time>
      </trkpt>
      <trkpt lat="46.60964" lon="3.22433">
        <ele>300.2</ele>
        <time>2014-05-19T19:15:18Z</time>
      </trkpt>
      <trkpt lat="46.60962" lon="3.22469">
        <ele>300</ele>
        <time>2014-05-19T19:15:19Z</time>
      </trkpt>
      <trkpt lat="46.60962" lon="3.22505">
        <ele>299.7</ele>
        <time>2014-05-19T19:15:20Z</time>
      </trkpt>
      <trkpt lat="46.60963" lon="3.22541">
        <ele>299.4</ele>
        <time>2014-05-19T19:15:21Z</time>
      </trkpt>
      <trkpt lat="46.60964" lon="3.22578">
        <ele>299.2</ele>
        <time>2014-05-19T19:15:22Z</time>
      </trkpt>
      <trkpt lat="46.60964" lon="3.22615">
        <ele>299</ele>
        <time>2014-05-19T19:15:23Z</time>
      </trkpt>
      <trkpt lat="46.60965" lon="3.22652">
        <ele>298.9</ele>
        <time>2014-05-19T19:15:24Z</time>
      </trkpt>
      <trkpt lat="46.60966" lon="3.22692">
        <ele>298.8</ele>
        <time>2014-05-19T19:15:25Z</time>
      </trkpt>
      <trkpt lat="46.60966" lon="3.22731">
        <ele>298.8</ele>
        <time>2014-05-19T19:15:26Z</time>
      </trkpt>
      <trkpt lat="46.60967" lon="3.2277">
        <ele>298.7</ele>
        <time>2014-05-19T19:15:27Z</time>
      </trkpt>
      <trkpt lat="46.60968" lon="3.22809">
        <ele>298.7</ele>
        <time>2014-05-19T19:15:28Z</time>
      </trkpt>
      <trkpt lat="46.60967" lon="3.22845">
        <ele>298.9</ele>
        <time>2014-05-19T19:15:29Z</time>
      </trkpt>
      <trkpt lat="46.60967" lon="3.22882">
        <ele>299.1</ele>
        <time>2014-05-19T19:15:30Z</time>
      </trkpt>
      <trkpt lat="46.60965" lon="3.22916">
        <ele>299.3</ele>
        <time>2014-05-19T19:15:31Z</time>
      </trkpt>
      <trkpt lat="46.60965" lon="3.22951">
        <ele>299.6</ele>
        <time>2014-05-19T19:15:32Z</time>
      </trkpt>
      <trkpt lat="46.60965" lon="3.22988">
        <ele>299.9</ele>
        <time>2014-05-19T19:15:33Z</time>
      </trkpt>
      <trkpt lat="46.60966" lon="3.23024">
        <ele>300.3</ele>
        <time>2014-05-19T19:15:34Z</time>
      </trkpt>
      <trkpt lat="46.60966" lon="3.23063">
        <ele>300.5</ele>
        <time>2014-05-19T19:15:35Z</time>
      </trkpt>
      <trkpt lat="46.60967" lon="3.23102">
        <ele>300.6</ele>
        <time>2014-05-19T19:15:36Z</time>
      </trkpt>
      <trkpt lat="46.60967" lon="3.23143">
        <ele>300.7</ele>
        <time>2014-05-19T19:15:37Z</time>
      </trkpt>
      <trkpt lat="46.60968" lon="3.23182">
        <ele>300.7</ele>
        <time>2014-05-19T19:15:38Z</time>
      </trkpt>
      <trkpt lat="46.60968" lon="3.23224">
        <ele>300.7</ele>
        <time>2014-05-19T19:15:39Z</time>
      </trkpt>
      <trkpt lat="46.60969" lon="3.23265">
        <ele>300.7</ele>
        <time>2014-05-19T19:15:40Z</time>
      </trkpt>
      <trkpt lat="46.60969" lon="3.23306">
        <ele>300.6</ele>
        <time>2014-05-19T19:15:41Z</time>
      </trkpt>
      <trkpt lat="46.60969" lon="3.23346">
        <ele>300.6</ele>
        <time>2014-05-19T19:15:42Z</time>
      </trkpt>
      <trkpt lat="46.6097" lon="3.23385">
        <ele>300.5</ele>
        <time>2014-05-19T19:15:43Z</time>
      </trkpt>
      <trkpt lat="46.6097" lon="3.23425">
        <ele>300.4</ele>
        <time>2014-05-19T19:15:45Z</time>
      </trkpt>
      <trkpt lat="46.60971" lon="3.23464">
        <ele>300.4</ele>
        <time>2014-05-19T19:15:45Z</time>
      </trkpt>
      <trkpt lat="46.60971" lon="3.23502">
        <ele>300.4</ele>
        <time>2014-05-19T19:15:46Z</time>
      </trkpt>
      <trkpt lat="46.60972" lon="3.2354">
        <ele>300.4</ele>
        <time>2014-05-19T19:15:47Z</time>
      </trkpt>
      <trkpt lat="46.60972" lon="3.23578">
        <ele>300.5</ele>
        <time>2014-05-19T19:15:48Z</time>
      </trkpt>
      <trkpt lat="46.60972" lon="3.23611">
        <ele>300.6</ele>
        <time>2014-05-19T19:15:49Z</time>
      </trkpt>
      <trkpt lat="46.60972" lon="3.23645">
        <ele>300.8</ele>
        <time>2014-05-19T19:15:50Z</time>
      </trkpt>
      <trkpt lat="46.60972" lon="3.23678">
        <ele>301</ele>
        <time>2014-05-19T19:15:51Z</time>
      </trkpt>
      <trkpt lat="46.60972" lon="3.2371">
        <ele>301.2</ele>
        <time>2014-05-19T19:15:52Z</time>
      </trkpt>
      <trkpt lat="46.60973" lon="3.23742">
        <ele>301.4</ele>
        <time>2014-05-19T19:15:53Z</time>
      </trkpt>
      <trkpt lat="46.60973" lon="3.23774">
        <ele>301.6</ele>
        <time>2014-05-19T19:15:54Z</time>
      </trkpt>
      <trkpt lat="46.60972" lon="3.23805">
        <ele>301.7</ele>
        <time>2014-05-19T19:15:55Z</time>
      </trkpt>
      <trkpt lat="46.60974" lon="3.23835">
        <ele>301.7</ele>
        <time>2014-05-19T19:15:56Z</time>
      </trkpt>
      <trkpt lat="46.60975" lon="3.23865">
        <ele>301.7</ele>
        <time>2014-05-19T19:15:57Z</time>
      </trkpt>
      <trkpt lat="46.60981" lon="3.23898">
        <ele>301.7</ele>
        <time>2014-05-19T19:15:58Z</time>
      </trkpt>
      <trkpt lat="46.60985" lon="3.23929">
        <ele>301.6</ele>
        <time>2014-05-19T19:15:59Z</time>
      </trkpt>
      <trkpt lat="46.60989" lon="3.23961">
        <ele>301.5</ele>
        <time>2014-05-19T19:16:00Z</time>
      </trkpt>
      <trkpt lat="46.60993" lon="3.23994">
        <ele>301.3</ele>
        <time>2014-05-19T19:16:01Z</time>
      </trkpt>
      <trkpt lat="46.60998" lon="3.24025">
        <ele>301.1</ele>
        <time>2014-05-19T19:16:02Z</time>
      </trkpt>
      <trkpt lat="46.61" lon="3.24057">
        <ele>300.9</ele>
        <time>2014-05-19T19:16:03Z</time>
      </trkpt>
      <trkpt lat="46.61003" lon="3.24089">
        <ele>300.8</ele>
        <time>2014-05-19T19:16:04Z</time>
      </trkpt>
      <trkpt lat="46.61007" lon="3.24121">
        <ele>300.5</ele>
        <time>2014-05-19T19:16:05Z</time>
      </trkpt>
      <trkpt lat="46.6101" lon="3.24154">
        <ele>300.1</ele>
        <time>2014-05-19T19:16:06Z</time>
      </trkpt>
      <trkpt lat="46.61012" lon="3.24186">
        <ele>299.7</ele>
        <time>2014-05-19T19:16:07Z</time>
      </trkpt>
      <trkpt lat="46.61015" lon="3.24219">
        <ele>299.2</ele>
        <time>2014-05-19T19:16:08Z</time>
      </trkpt>
      <trkpt lat="46.61017" lon="3.24253">
        <ele>298.7</ele>
        <time>2014-05-19T19:16:09Z</time>
      </trkpt>
      <trkpt lat="46.6102" lon="3.24287">
        <ele>298.2</ele>
        <time>2014-05-19T19:16:10Z</time>
      </trkpt>
      <trkpt lat="46.61023" lon="3.24321">
        <ele>297.7</ele>
        <time>2014-05-19T19:16:11Z</time>
      </trkpt>
      <trkpt lat="46.61026" lon="3.24356">
        <ele>297.1</ele>
        <time>2014-05-19T19:16:12Z</time>
      </trkpt>
      <trkpt lat="46.61028" lon="3.24391">
        <ele>296.4</ele>
        <time>2014-05-19T19:16:13Z</time>
      </trkpt>
      <trkpt lat="46.6103" lon="3.24425">
        <ele>295.8</ele>
        <time>2014-05-19T19:16:14Z</time>
      </trkpt>
      <trkpt lat="46.61033" lon="3.24459">
        <ele>295.1</ele>
        <time>2014-05-19T19:16:15Z</time>
      </trkpt>
      <trkpt lat="46.61036" lon="3.24492">
        <ele>294.5</ele>
        <time>2014-05-19T19:16:16Z</time>
      </trkpt>
      <trkpt lat="46.6104" lon="3.24523">
        <ele>294.1</ele>
        <time>2014-05-19T19:16:17Z</time>
      </trkpt>
      <trkpt lat="46.61044" lon="3.24555">
        <ele>293.8</ele>
        <time>2014-05-19T19:16:18Z</time>
      </trkpt>
      <trkpt lat="46.61049" lon="3.24586">
        <ele>293.5</ele>
        <time>2014-05-19T19:16:19Z</time>
      </trkpt>
      <trkpt lat="46.61054" lon="3.24619">
        <ele>293.3</ele>
        <time>2014-05-19T19:16:20Z</time>
      </trkpt>
      <trkpt lat="46.61059" lon="3.24648">
        <ele>293.1</ele>
        <time>2014-05-19T19:16:21Z</time>
      </trkpt>
      <trkpt lat="46.61065" lon="3.24676">
        <ele>293.1</ele>
        <time>2014-05-19T19:16:22Z</time>
      </trkpt>
      <trkpt lat="46.6107" lon="3.24703">
        <ele>293.1</ele>
        <time>2014-05-19T19:16:23Z</time>
      </trkpt>
      <trkpt lat="46.61075" lon="3.24731">
        <ele>293.3</ele>
        <time>2014-05-19T19:16:24Z</time>
      </trkpt>
      <trkpt lat="46.61089" lon="3.24751">
        <ele>293.4</ele>
        <time>2014-05-19T19:16:25Z</time>
      </trkpt>
      <trkpt lat="46.61099" lon="3.24774">
        <ele>293.5</ele>
        <time>2014-05-19T19:16:26Z</time>
      </trkpt>
      <trkpt lat="46.6111" lon="3.24798">
        <ele>293.5</ele>
        <time>2014-05-19T19:16:27Z</time>
      </trkpt>
      <trkpt lat="46.61122" lon="3.24821">
        <ele>293.5</ele>
        <time>2014-05-19T19:16:28Z</time>
      </trkpt>
      <trkpt lat="46.61134" lon="3.24844">
        <ele>293.3</ele>
        <time>2014-05-19T19:16:29Z</time>
      </trkpt>
      <trkpt lat="46.61145" lon="3.24868">
        <ele>293.1</ele>
        <time>2014-05-19T19:16:30Z</time>
      </trkpt>
      <trkpt lat="46.61153" lon="3.24885">
        <ele>292.8</ele>
        <time>2014-05-19T19:16:31Z</time>
      </trkpt>
      <trkpt lat="46.61161" lon="3.24902">
        <ele>292.5</ele>
        <time>2014-05-19T19:16:32Z</time>
      </trkpt>
      <trkpt lat="46.61168" lon="3.24921">
        <ele>292.2</ele>
        <time>2014-05-19T19:16:33Z</time>
      </trkpt>
      <trkpt lat="46.61172" lon="3.24938">
        <ele>291.8</ele>
        <time>2014-05-19T19:16:34Z</time>
      </trkpt>
      <trkpt lat="46.61175" lon="3.24951">
        <ele>291.5</ele>
        <time>2014-05-19T19:16:35Z</time>
      </trkpt>
      <trkpt lat="46.61178" lon="3.24972">
        <ele>291.2</ele>
        <time>2014-05-19T19:16:37Z</time>
      </trkpt>
      <trkpt lat="46.61179" lon="3.24997">
        <ele>291</ele>
        <time>2014-05-19T19:16:39Z</time>
      </trkpt>
      <trkpt lat="46.61178" lon="3.25011">
        <ele>290.8</ele>
        <time>2014-05-19T19:16:40Z</time>
      </trkpt>
      <trkpt lat="46.61178" lon="3.25024">
        <ele>290.8</ele>
        <time>2014-05-19T19:16:41Z</time>
      </trkpt>
      <trkpt lat="46.61178" lon="3.25041">
        <ele>290.9</ele>
        <time>2014-05-19T19:16:42Z</time>
      </trkpt>
      <trkpt lat="46.61178" lon="3.25057">
        <ele>291.1</ele>
        <time>2014-05-19T19:16:43Z</time>
      </trkpt>
      <trkpt lat="46.61179" lon="3.25072">
        <ele>291.3</ele>
        <time>2014-05-19T19:16:44Z</time>
      </trkpt>
      <trkpt lat="46.6118" lon="3.25087">
        <ele>291.6</ele>
        <time>2014-05-19T19:16:45Z</time>
      </trkpt>
      <trkpt lat="46.61183" lon="3.25101">
        <ele>291.8</ele>
        <time>2014-05-19T19:16:46Z</time>
      </trkpt>
      <trkpt lat="46.61186" lon="3.25114">
        <ele>292</ele>
        <time>2014-05-19T19:16:47Z</time>
      </trkpt>
      <trkpt lat="46.61189" lon="3.25128">
        <ele>292.1</ele>
        <time>2014-05-19T19:16:48Z</time>
      </trkpt>
      <trkpt lat="46.61193" lon="3.25142">
        <ele>292.2</ele>
        <time>2014-05-19T19:16:49Z</time>
      </trkpt>
      <trkpt lat="46.61196" lon="3.25157">
        <ele>292.3</ele>
        <time>2014-05-19T19:16:50Z</time>
      </trkpt>
      <trkpt lat="46.61201" lon="3.25173">
        <ele>292.4</ele>
        <time>2014-05-19T19:16:51Z</time>
      </trkpt>
      <trkpt lat="46.61205" lon="3.25189">
        <ele>292.4</ele>
        <time>2014-05-19T19:16:52Z</time>
      </trkpt>
      <trkpt lat="46.61209" lon="3.25207">
        <ele>292.3</ele>
        <time>2014-05-19T19:16:53Z</time>
      </trkpt>
      <trkpt lat="46.61214" lon="3.25225">
        <ele>292.2</ele>
        <time>2014-05-19T19:16:54Z</time>
      </trkpt>
      <trkpt lat="46.61218" lon="3.25243">
        <ele>292.2</ele>
        <time>2014-05-19T19:16:55Z</time>
      </trkpt>
      <trkpt lat="46.61224" lon="3.25265">
        <ele>292.1</ele>
        <time>2014-05-19T19:16:56Z</time>
      </trkpt>
      <trkpt lat="46.6123" lon="3.25287">
        <ele>292.1</ele>
        <time>2014-05-19T19:16:57Z</time>
      </trkpt>
      <trkpt lat="46.61237" lon="3.2531">
        <ele>292</ele>
        <time>2014-05-19T19:16:58Z</time>
      </trkpt>
      <trkpt lat="46.61243" lon="3.25334">
        <ele>291.8</ele>
        <time>2014-05-19T19:16:59Z</time>
      </trkpt>
      <trkpt lat="46.61249" lon="3.25359">
        <ele>291.9</ele>
        <time>2014-05-19T19:17:00Z</time>
      </trkpt>
      <trkpt lat="46.61254" lon="3.25382">
        <ele>292</ele>
        <time>2014-05-19T19:17:02Z</time>
      </trkpt>
      <trkpt lat="46.61256" lon="3.25407">
        <ele>292.1</ele>
        <time>2014-05-19T19:17:02Z</time>
      </trkpt>
      <trkpt lat="46.61259" lon="3.25431">
        <ele>292.2</ele>
        <time>2014-05-19T19:17:03Z</time>
      </trkpt>
      <trkpt lat="46.61256" lon="3.25452">
        <ele>292.4</ele>
        <time>2014-05-19T19:17:04Z</time>
      </trkpt>
      <trkpt lat="46.61251" lon="3.25477">
        <ele>292.5</ele>
        <time>2014-05-19T19:17:05Z</time>
      </trkpt>
      <trkpt lat="46.61249" lon="3.25503">
        <ele>292.5</ele>
        <time>2014-05-19T19:17:06Z</time>
      </trkpt>
      <trkpt lat="46.6125" lon="3.2553">
        <ele>292.5</ele>
        <time>2014-05-19T19:17:07Z</time>
      </trkpt>
      <trkpt lat="46.61254" lon="3.2556">
        <ele>292.6</ele>
        <time>2014-05-19T19:17:08Z</time>
      </trkpt>
      <trkpt lat="46.61257" lon="3.2559">
        <ele>292.8</ele>
        <time>2014-05-19T19:17:09Z</time>
      </trkpt>
      <trkpt lat="46.6126" lon="3.25621">
        <ele>292.8</ele>
        <time>2014-05-19T19:17:10Z</time>
      </trkpt>
      <trkpt lat="46.61263" lon="3.25652">
        <ele>292.5</ele>
        <time>2014-05-19T19:17:11Z</time>
      </trkpt>
      <trkpt lat="46.61265" lon="3.25683">
        <ele>292</ele>
        <time>2014-05-19T19:17:12Z</time>
      </trkpt>
      <trkpt lat="46.61267" lon="3.25712">
        <ele>291.3</ele>
        <time>2014-05-19T19:17:13Z</time>
      </trkpt>
      <trkpt lat="46.61269" lon="3.25741">
        <ele>290.5</ele>
        <time>2014-05-19T19:17:14Z</time>
      </trkpt>
      <trkpt lat="46.61268" lon="3.25768">
        <ele>289.6</ele>
        <time>2014-05-19T19:17:15Z</time>
      </trkpt>
      <trkpt lat="46.61266" lon="3.25799">
        <ele>288.4</ele>
        <time>2014-05-19T19:17:16Z</time>
      </trkpt>
      <trkpt lat="46.61261" lon="3.2583">
        <ele>287.1</ele>
        <time>2014-05-19T19:17:17Z</time>
      </trkpt>
      <trkpt lat="46.61255" lon="3.25862">
        <ele>285.6</ele>
        <time>2014-05-19T19:17:18Z</time>
      </trkpt>
      <trkpt lat="46.61249" lon="3.25895">
        <ele>284</ele>
        <time>2014-05-19T19:17:19Z</time>
      </trkpt>
      <trkpt lat="46.61243" lon="3.2593">
        <ele>282.3</ele>
        <time>2014-05-19T19:17:20Z</time>
      </trkpt>
      <trkpt lat="46.61236" lon="3.25966">
        <ele>280.5</ele>
        <time>2014-05-19T19:17:21Z</time>
      </trkpt>
      <trkpt lat="46.61229" lon="3.26002">
        <ele>278.7</ele>
        <time>2014-05-19T19:17:22Z</time>
      </trkpt>
      <trkpt lat="46.61222" lon="3.2604">
        <ele>277</ele>
        <time>2014-05-19T19:17:23Z</time>
      </trkpt>
      <trkpt lat="46.61216" lon="3.26077">
        <ele>275.3</ele>
        <time>2014-05-19T19:17:24Z</time>
      </trkpt>
      <trkpt lat="46.6121" lon="3.26114">
        <ele>273.7</ele>
        <time>2014-05-19T19:17:25Z</time>
      </trkpt>
      <trkpt lat="46.61205" lon="3.2615">
        <ele>272.1</ele>
        <time>2014-05-19T19:17:26Z</time>
      </trkpt>
      <trkpt lat="46.61199" lon="3.26187">
        <ele>270.6</ele>
        <time>2014-05-19T19:17:27Z</time>
      </trkpt>
      <trkpt lat="46.61194" lon="3.26223">
        <ele>269.1</ele>
        <time>2014-05-19T19:17:28Z</time>
      </trkpt>
      <trkpt lat="46.61189" lon="3.26259">
        <ele>267.8</ele>
        <time>2014-05-19T19:17:29Z</time>
      </trkpt>
      <trkpt lat="46.61184" lon="3.26295">
        <ele>266.4</ele>
        <time>2014-05-19T19:17:30Z</time>
      </trkpt>
      <trkpt lat="46.6118" lon="3.2633">
        <ele>265.3</ele>
        <time>2014-05-19T19:17:31Z</time>
      </trkpt>
      <trkpt lat="46.61175" lon="3.26364">
        <ele>264.3</ele>
        <time>2014-05-19T19:17:32Z</time>
      </trkpt>
      <trkpt lat="46.61171" lon="3.26395">
        <ele>263.5</ele>
        <time>2014-05-19T19:17:33Z</time>
      </trkpt>
      <trkpt lat="46.61166" lon="3.26426">
        <ele>262.8</ele>
        <time>2014-05-19T19:17:34Z</time>
      </trkpt>
      <trkpt lat="46.61159" lon="3.26449">
        <ele>262.3</ele>
        <time>2014-05-19T19:17:35Z</time>
      </trkpt>
      <trkpt lat="46.61151" lon="3.26475">
        <ele>262</ele>
        <time>2014-05-19T19:17:36Z</time>
      </trkpt>
      <trkpt lat="46.61139" lon="3.26497">
        <ele>261.9</ele>
        <time>2014-05-19T19:17:37Z</time>
      </trkpt>
      <trkpt lat="46.61123" lon="3.26517">
        <ele>261.9</ele>
        <time>2014-05-19T19:17:38Z</time>
      </trkpt>
      <trkpt lat="46.61105" lon="3.26535">
        <ele>262.1</ele>
        <time>2014-05-19T19:17:39Z</time>
      </trkpt>
      <trkpt lat="46.61088" lon="3.26551">
        <ele>262.3</ele>
        <time>2014-05-19T19:17:40Z</time>
      </trkpt>
      <trkpt lat="46.61068" lon="3.26564">
        <ele>262.5</ele>
        <time>2014-05-19T19:17:41Z</time>
      </trkpt>
      <trkpt lat="46.61046" lon="3.26574">
        <ele>262.8</ele>
        <time>2014-05-19T19:17:42Z</time>
      </trkpt>
      <trkpt lat="46.61024" lon="3.26585">
        <ele>263</ele>
        <time>2014-05-19T19:17:43Z</time>
      </trkpt>
      <trkpt lat="46.61003" lon="3.26597">
        <ele>263.2</ele>
        <time>2014-05-19T19:17:44Z</time>
      </trkpt>
      <trkpt lat="46.6098" lon="3.26608">
        <ele>263.5</ele>
        <time>2014-05-19T19:17:45Z</time>
      </trkpt>
      <trkpt lat="46.60957" lon="3.26621">
        <ele>263.7</ele>
        <time>2014-05-19T19:17:46Z</time>
      </trkpt>
      <trkpt lat="46.60933" lon="3.26633">
        <ele>263.9</ele>
        <time>2014-05-19T19:17:47Z</time>
      </trkpt>
      <trkpt lat="46.6091" lon="3.26645">
        <ele>264.2</ele>
        <time>2014-05-19T19:17:48Z</time>
      </trkpt>
      <trkpt lat="46.60888" lon="3.26658">
        <ele>264.4</ele>
        <time>2014-05-19T19:17:49Z</time>
      </trkpt>
      <trkpt lat="46.60867" lon="3.26668">
        <ele>264.6</ele>
        <time>2014-05-19T19:17:50Z</time>
      </trkpt>
      <trkpt lat="46.60845" lon="3.26679">
        <ele>264.9</ele>
        <time>2014-05-19T19:17:51Z</time>
      </trkpt>
      <trkpt lat="46.60823" lon="3.26684">
        <ele>265.2</ele>
        <time>2014-05-19T19:17:52Z</time>
      </trkpt>
      <trkpt lat="46.60801" lon="3.2669">
        <ele>265.5</ele>
        <time>2014-05-19T19:17:53Z</time>
      </trkpt>
      <trkpt lat="46.60778" lon="3.26697">
        <ele>265.9</ele>
        <time>2014-05-19T19:17:54Z</time>
      </trkpt>
      <trkpt lat="46.60756" lon="3.26702">
        <ele>266.2</ele>
        <time>2014-05-19T19:17:55Z</time>
      </trkpt>
      <trkpt lat="46.60733" lon="3.26705">
        <ele>266.4</ele>
        <time>2014-05-19T19:17:56Z</time>
      </trkpt>
      <trkpt lat="46.60711" lon="3.26708">
        <ele>266.7</ele>
        <time>2014-05-19T19:17:57Z</time>
      </trkpt>
      <trkpt lat="46.60693" lon="3.26703">
        <ele>266.8</ele>
        <time>2014-05-19T19:17:58Z</time>
      </trkpt>
      <trkpt lat="46.60675" lon="3.26701">
        <ele>266.8</ele>
        <time>2014-05-19T19:17:59Z</time>
      </trkpt>
      <trkpt lat="46.60657" lon="3.26699">
        <ele>266.8</ele>
        <time>2014-05-19T19:18:00Z</time>
      </trkpt>
      <trkpt lat="46.60639" lon="3.26699">
        <ele>266.9</ele>
        <time>2014-05-19T19:18:01Z</time>
      </trkpt>
      <trkpt lat="46.60621" lon="3.26698">
        <ele>266.9</ele>
        <time>2014-05-19T19:18:02Z</time>
      </trkpt>
      <trkpt lat="46.606" lon="3.26709">
        <ele>267.1</ele>
        <time>2014-05-19T19:18:03Z</time>
      </trkpt>
      <trkpt lat="46.60579" lon="3.26722">
        <ele>267.3</ele>
        <time>2014-05-19T19:18:04Z</time>
      </trkpt>
      <trkpt lat="46.60557" lon="3.26732">
        <ele>267.6</ele>
        <time>2014-05-19T19:18:05Z</time>
      </trkpt>
      <trkpt lat="46.60535" lon="3.26741">
        <ele>267.9</ele>
        <time>2014-05-19T19:18:06Z</time>
      </trkpt>
      <trkpt lat="46.60512" lon="3.26751">
        <ele>268.3</ele>
        <time>2014-05-19T19:18:07Z</time>
      </trkpt>
      <trkpt lat="46.60488" lon="3.2676">
        <ele>268.7</ele>
        <time>2014-05-19T19:18:08Z</time>
      </trkpt>
      <trkpt lat="46.60464" lon="3.26768">
        <ele>269</ele>
        <time>2014-05-19T19:18:09Z</time>
      </trkpt>
      <trkpt lat="46.6044" lon="3.26774">
        <ele>269.3</ele>
        <time>2014-05-19T19:18:10Z</time>
      </trkpt>
      <trkpt lat="46.60416" lon="3.26781">
        <ele>269.5</ele>
        <time>2014-05-19T19:18:11Z</time>
      </trkpt>
      <trkpt lat="46.60393" lon="3.26788">
        <ele>269.7</ele>
        <time>2014-05-19T19:18:12Z</time>
      </trkpt>
      <trkpt lat="46.6037" lon="3.26794">
        <ele>269.9</ele>
        <time>2014-05-19T19:18:13Z</time>
      </trkpt>
      <trkpt lat="46.60346" lon="3.26801">
        <ele>270</ele>
        <time>2014-05-19T19:18:14Z</time>
      </trkpt>
      <trkpt lat="46.60323" lon="3.26807">
        <ele>270</ele>
        <time>2014-05-19T19:18:15Z</time>
      </trkpt>
      <trkpt lat="46.60299" lon="3.26812">
        <ele>270</ele>
        <time>2014-05-19T19:18:16Z</time>
      </trkpt>
      <trkpt lat="46.60278" lon="3.2682">
        <ele>269.9</ele>
        <time>2014-05-19T19:18:17Z</time>
      </trkpt>
      <trkpt lat="46.60255" lon="3.26825">
        <ele>269.8</ele>
        <time>2014-05-19T19:18:18Z</time>
      </trkpt>
      <trkpt lat="46.60233" lon="3.2683">
        <ele>269.7</ele>
        <time>2014-05-19T19:18:19Z</time>
      </trkpt>
      <trkpt lat="46.6021" lon="3.26823">
        <ele>269.6</ele>
        <time>2014-05-19T19:18:20Z</time>
      </trkpt>
      <trkpt lat="46.60187" lon="3.26819">
        <ele>269.7</ele>
        <time>2014-05-19T19:18:21Z</time>
      </trkpt>
      <trkpt lat="46.60163" lon="3.26814">
        <ele>269.8</ele>
        <time>2014-05-19T19:18:22Z</time>
      </trkpt>
      <trkpt lat="46.60139" lon="3.2681">
        <ele>269.8</ele>
        <time>2014-05-19T19:18:23Z</time>
      </trkpt>
      <trkpt lat="46.60114" lon="3.26805">
        <ele>269.7</ele>
        <time>2014-05-19T19:18:24Z</time>
      </trkpt>
      <trkpt lat="46.6009" lon="3.26801">
        <ele>269.7</ele>
        <time>2014-05-19T19:18:25Z</time>
      </trkpt>
      <trkpt lat="46.60066" lon="3.26796">
        <ele>269.6</ele>
        <time>2014-05-19T19:18:26Z</time>
      </trkpt>
      <trkpt lat="46.60044" lon="3.26792">
        <ele>269.6</ele>
        <time>2014-05-19T19:18:27Z</time>
      </trkpt>
      <trkpt lat="46.60023" lon="3.26786">
        <ele>269.6</ele>
        <time>2014-05-19T19:18:28Z</time>
      </trkpt>
      <trkpt lat="46.60002" lon="3.26782">
        <ele>269.8</ele>
        <time>2014-05-19T19:18:29Z</time>
      </trkpt>
      <trkpt lat="46.59984" lon="3.26778">
        <ele>270</ele>
        <time>2014-05-19T19:18:30Z</time>
      </trkpt>
      <trkpt lat="46.59968" lon="3.26776">
        <ele>270.1</ele>
        <time>2014-05-19T19:18:31Z</time>
      </trkpt>
      <trkpt lat="46.59953" lon="3.26777">
        <ele>270.3</ele>
        <time>2014-05-19T19:18:32Z</time>
      </trkpt>
      <trkpt lat="46.5994" lon="3.26781">
        <ele>270.4</ele>
        <time>2014-05-19T19:18:33Z</time>
      </trkpt>
      <trkpt lat="46.59928" lon="3.26791">
        <ele>270.6</ele>
        <time>2014-05-19T19:18:34Z</time>
      </trkpt>
      <trkpt lat="46.59918" lon="3.26805">
        <ele>270.7</ele>
        <time>2014-05-19T19:18:35Z</time>
      </trkpt>
      <trkpt lat="46.59908" lon="3.26822">
        <ele>270.7</ele>
        <time>2014-05-19T19:18:36Z</time>
      </trkpt>
      <trkpt lat="46.59899" lon="3.26839">
        <ele>270.8</ele>
        <time>2014-05-19T19:18:37Z</time>
      </trkpt>
      <trkpt lat="46.59891" lon="3.26864">
        <ele>270.7</ele>
        <time>2014-05-19T19:18:38Z</time>
      </trkpt>
      <trkpt lat="46.5988" lon="3.26887">
        <ele>270.6</ele>
        <time>2014-05-19T19:18:39Z</time>
      </trkpt>
      <trkpt lat="46.59869" lon="3.26911">
        <ele>270.5</ele>
        <time>2014-05-19T19:18:40Z</time>
      </trkpt>
      <trkpt lat="46.59856" lon="3.26935">
        <ele>270.3</ele>
        <time>2014-05-19T19:18:41Z</time>
      </trkpt>
      <trkpt lat="46.59843" lon="3.26957">
        <ele>270.1</ele>
        <time>2014-05-19T19:18:42Z</time>
      </trkpt>
      <trkpt lat="46.59829" lon="3.26978">
        <ele>270</ele>
        <time>2014-05-19T19:18:43Z</time>
      </trkpt>
      <trkpt lat="46.59811" lon="3.26994">
        <ele>270.1</ele>
        <time>2014-05-19T19:18:44Z</time>
      </trkpt>
      <trkpt lat="46.5979" lon="3.27005">
        <ele>270.1</ele>
        <time>2014-05-19T19:18:45Z</time>
      </trkpt>
      <trkpt lat="46.59769" lon="3.27017">
        <ele>270.3</ele>
        <time>2014-05-19T19:18:46Z</time>
      </trkpt>
      <trkpt lat="46.59748" lon="3.2703">
        <ele>270.6</ele>
        <time>2014-05-19T19:18:47Z</time>
      </trkpt>
      <trkpt lat="46.59725" lon="3.27045">
        <ele>270.8</ele>
        <time>2014-05-19T19:18:48Z</time>
      </trkpt>
      <trkpt lat="46.59703" lon="3.27062">
        <ele>271.1</ele>
        <time>2014-05-19T19:18:49Z</time>
      </trkpt>
      <trkpt lat="46.59681" lon="3.2708">
        <ele>271.4</ele>
        <time>2014-05-19T19:18:50Z</time>
      </trkpt>
      <trkpt lat="46.59659" lon="3.27099">
        <ele>271.6</ele>
        <time>2014-05-19T19:18:51Z</time>
      </trkpt>
      <trkpt lat="46.59636" lon="3.27116">
        <ele>271.9</ele>
        <time>2014-05-19T19:18:52Z</time>
      </trkpt>
      <trkpt lat="46.59614" lon="3.27134">
        <ele>272</ele>
        <time>2014-05-19T19:18:53Z</time>
      </trkpt>
      <trkpt lat="46.59593" lon="3.2715">
        <ele>272</ele>
        <time>2014-05-19T19:18:54Z</time>
      </trkpt>
      <trkpt lat="46.59572" lon="3.27167">
        <ele>271.9</ele>
        <time>2014-05-19T19:18:55Z</time>
      </trkpt>
      <trkpt lat="46.59555" lon="3.27182">
        <ele>271.8</ele>
        <time>2014-05-19T19:18:56Z</time>
      </trkpt>
      <trkpt lat="46.59536" lon="3.27199">
        <ele>271.6</ele>
        <time>2014-05-19T19:18:57Z</time>
      </trkpt>
      <trkpt lat="46.59522" lon="3.27224">
        <ele>271.3</ele>
        <time>2014-05-19T19:18:58Z</time>
      </trkpt>
      <trkpt lat="46.59508" lon="3.27251">
        <ele>271.1</ele>
        <time>2014-05-19T19:18:59Z</time>
      </trkpt>
      <trkpt lat="46.59494" lon="3.2728">
        <ele>270.9</ele>
        <time>2014-05-19T19:19:01Z</time>
      </trkpt>
      <trkpt lat="46.59479" lon="3.2731">
        <ele>270.7</ele>
        <time>2014-05-19T19:19:01Z</time>
      </trkpt>
      <trkpt lat="46.59464" lon="3.27341">
        <ele>270.4</ele>
        <time>2014-05-19T19:19:02Z</time>
      </trkpt>
      <trkpt lat="46.5945" lon="3.27371">
        <ele>270.1</ele>
        <time>2014-05-19T19:19:03Z</time>
      </trkpt>
      <trkpt lat="46.59435" lon="3.27401">
        <ele>269.7</ele>
        <time>2014-05-19T19:19:04Z</time>
      </trkpt>
      <trkpt lat="46.59418" lon="3.27429">
        <ele>269.4</ele>
        <time>2014-05-19T19:19:05Z</time>
      </trkpt>
      <trkpt lat="46.59401" lon="3.27456">
        <ele>269.1</ele>
        <time>2014-05-19T19:19:06Z</time>
      </trkpt>
      <trkpt lat="46.59381" lon="3.27483">
        <ele>268.8</ele>
        <time>2014-05-19T19:19:07Z</time>
      </trkpt>
      <trkpt lat="46.59361" lon="3.2751">
        <ele>268.6</ele>
        <time>2014-05-19T19:19:08Z</time>
      </trkpt>
      <trkpt lat="46.59342" lon="3.27537">
        <ele>268.4</ele>
        <time>2014-05-19T19:19:09Z</time>
      </trkpt>
      <trkpt lat="46.59324" lon="3.27563">
        <ele>268.2</ele>
        <time>2014-05-19T19:19:10Z</time>
      </trkpt>
      <trkpt lat="46.59307" lon="3.27586">
        <ele>268</ele>
        <time>2014-05-19T19:19:12Z</time>
      </trkpt>
      <trkpt lat="46.59292" lon="3.27609">
        <ele>267.7</ele>
        <time>2014-05-19T19:19:12Z</time>
      </trkpt>
      <trkpt lat="46.59274" lon="3.27627">
        <ele>267.6</ele>
        <time>2014-05-19T19:19:13Z</time>
      </trkpt>
      <trkpt lat="46.59256" lon="3.27645">
        <ele>267.5</ele>
        <time>2014-05-19T19:19:14Z</time>
      </trkpt>
      <trkpt lat="46.59236" lon="3.2766">
        <ele>267.5</ele>
        <time>2014-05-19T19:19:15Z</time>
      </trkpt>
      <trkpt lat="46.59214" lon="3.27672">
        <ele>267.5</ele>
        <time>2014-05-19T19:19:16Z</time>
      </trkpt>
      <trkpt lat="46.59192" lon="3.27687">
        <ele>267.6</ele>
        <time>2014-05-19T19:19:17Z</time>
      </trkpt>
      <trkpt lat="46.5917" lon="3.27703">
        <ele>267.5</ele>
        <time>2014-05-19T19:19:18Z</time>
      </trkpt>
      <trkpt lat="46.59148" lon="3.27717">
        <ele>267.5</ele>
        <time>2014-05-19T19:19:19Z</time>
      </trkpt>
      <trkpt lat="46.59128" lon="3.27731">
        <ele>267.6</ele>
        <time>2014-05-19T19:19:20Z</time>
      </trkpt>
      <trkpt lat="46.59109" lon="3.27744">
        <ele>267.6</ele>
        <time>2014-05-19T19:19:21Z</time>
      </trkpt>
      <trkpt lat="46.5909" lon="3.27758">
        <ele>267.5</ele>
        <time>2014-05-19T19:19:22Z</time>
      </trkpt>
      <trkpt lat="46.5907" lon="3.27772">
        <ele>267.4</ele>
        <time>2014-05-19T19:19:23Z</time>
      </trkpt>
      <trkpt lat="46.59059" lon="3.278">
        <ele>267.3</ele>
        <time>2014-05-19T19:19:24Z</time>
      </trkpt>
      <trkpt lat="46.59043" lon="3.2782">
        <ele>267.2</ele>
        <time>2014-05-19T19:19:25Z</time>
      </trkpt>
      <trkpt lat="46.59027" lon="3.27836">
        <ele>267</ele>
        <time>2014-05-19T19:19:26Z</time>
      </trkpt>
      <trkpt lat="46.59009" lon="3.27844">
        <ele>267</ele>
        <time>2014-05-19T19:19:27Z</time>
      </trkpt>
      <trkpt lat="46.58991" lon="3.27856">
        <ele>266.9</ele>
        <time>2014-05-19T19:19:28Z</time>
      </trkpt>
      <trkpt lat="46.58974" lon="3.27867">
        <ele>266.8</ele>
        <time>2014-05-19T19:19:29Z</time>
      </trkpt>
      <trkpt lat="46.5896" lon="3.27879">
        <ele>266.6</ele>
        <time>2014-05-19T19:19:30Z</time>
      </trkpt>
      <trkpt lat="46.58945" lon="3.27892">
        <ele>266.3</ele>
        <time>2014-05-19T19:19:31Z</time>
      </trkpt>
      <trkpt lat="46.58937" lon="3.27911">
        <ele>266</ele>
        <time>2014-05-19T19:19:32Z</time>
      </trkpt>
      <trkpt lat="46.58928" lon="3.2793">
        <ele>265.8</ele>
        <time>2014-05-19T19:19:33Z</time>
      </trkpt>
      <trkpt lat="46.58924" lon="3.27953">
        <ele>265.6</ele>
        <time>2014-05-19T19:19:34Z</time>
      </trkpt>
      <trkpt lat="46.58922" lon="3.27977">
        <ele>265.4</ele>
        <time>2014-05-19T19:19:35Z</time>
      </trkpt>
      <trkpt lat="46.5892" lon="3.28003">
        <ele>265.1</ele>
        <time>2014-05-19T19:19:36Z</time>
      </trkpt>
      <trkpt lat="46.58917" lon="3.2803">
        <ele>264.9</ele>
        <time>2014-05-19T19:19:37Z</time>
      </trkpt>
      <trkpt lat="46.58915" lon="3.28058">
        <ele>264.6</ele>
        <time>2014-05-19T19:19:38Z</time>
      </trkpt>
      <trkpt lat="46.5891" lon="3.28086">
        <ele>264.3</ele>
        <time>2014-05-19T19:19:39Z</time>
      </trkpt>
      <trkpt lat="46.58904" lon="3.28112">
        <ele>264.2</ele>
        <time>2014-05-19T19:19:40Z</time>
      </trkpt>
      <trkpt lat="46.58896" lon="3.28138">
        <ele>264.1</ele>
        <time>2014-05-19T19:19:41Z</time>
      </trkpt>
      <trkpt lat="46.58882" lon="3.28161">
        <ele>264.1</ele>
        <time>2014-05-19T19:19:42Z</time>
      </trkpt>
      <trkpt lat="46.58869" lon="3.28183">
        <ele>264.1</ele>
        <time>2014-05-19T19:19:43Z</time>
      </trkpt>
      <trkpt lat="46.58852" lon="3.28207">
        <ele>264.1</ele>
        <time>2014-05-19T19:19:44Z</time>
      </trkpt>
      <trkpt lat="46.58835" lon="3.28232">
        <ele>264.1</ele>
        <time>2014-05-19T19:19:45Z</time>
      </trkpt>
      <trkpt lat="46.58817" lon="3.28259">
        <ele>264.2</ele>
        <time>2014-05-19T19:19:46Z</time>
      </trkpt>
      <trkpt lat="46.58799" lon="3.28285">
        <ele>264.2</ele>
        <time>2014-05-19T19:19:47Z</time>
      </trkpt>
      <trkpt lat="46.5878" lon="3.28313">
        <ele>264.3</ele>
        <time>2014-05-19T19:19:48Z</time>
      </trkpt>
      <trkpt lat="46.58762" lon="3.2834">
        <ele>264.3</ele>
        <time>2014-05-19T19:19:49Z</time>
      </trkpt>
      <trkpt lat="46.58744" lon="3.28368">
        <ele>264.3</ele>
        <time>2014-05-19T19:19:50Z</time>
      </trkpt>
      <trkpt lat="46.58725" lon="3.28397">
        <ele>264.3</ele>
        <time>2014-05-19T19:19:51Z</time>
      </trkpt>
      <trkpt lat="46.58706" lon="3.28425">
        <ele>264.2</ele>
        <time>2014-05-19T19:19:52Z</time>
      </trkpt>
      <trkpt lat="46.58686" lon="3.28453">
        <ele>264.2</ele>
        <time>2014-05-19T19:19:53Z</time>
      </trkpt>
      <trkpt lat="46.58667" lon="3.28481">
        <ele>264.2</ele>
        <time>2014-05-19T19:19:54Z</time>
      </trkpt>
      <trkpt lat="46.58649" lon="3.28508">
        <ele>264.2</ele>
        <time>2014-05-19T19:19:55Z</time>
      </trkpt>
      <trkpt lat="46.5863" lon="3.28537">
        <ele>264.3</ele>
        <time>2014-05-19T19:19:56Z</time>
      </trkpt>
      <trkpt lat="46.58611" lon="3.28566">
        <ele>264.4</ele>
        <time>2014-05-19T19:19:57Z</time>
      </trkpt>
      <trkpt lat="46.58592" lon="3.28595">
        <ele>264.5</ele>
        <time>2014-05-19T19:19:58Z</time>
      </trkpt>
      <trkpt lat="46.58573" lon="3.28625">
        <ele>264.6</ele>
        <time>2014-05-19T19:19:59Z</time>
      </trkpt>
      <trkpt lat="46.58553" lon="3.28654">
        <ele>264.7</ele>
        <time>2014-05-19T19:20:00Z</time>
      </trkpt>
      <trkpt lat="46.58533" lon="3.28684">
        <ele>264.9</ele>
        <time>2014-05-19T19:20:01Z</time>
      </trkpt>
      <trkpt lat="46.58513" lon="3.28714">
        <ele>265.1</ele>
        <time>2014-05-19T19:20:02Z</time>
      </trkpt>
      <trkpt lat="46.58493" lon="3.28744">
        <ele>265.3</ele>
        <time>2014-05-19T19:20:03Z</time>
      </trkpt>
      <trkpt lat="46.58473" lon="3.28774">
        <ele>265.5</ele>
        <time>2014-05-19T19:20:04Z</time>
      </trkpt>
      <trkpt lat="46.58454" lon="3.28803">
        <ele>265.6</ele>
        <time>2014-05-19T19:20:05Z</time>
      </trkpt>
      <trkpt lat="46.58434" lon="3.28831">
        <ele>265.8</ele>
        <time>2014-05-19T19:20:06Z</time>
      </trkpt>
      <trkpt lat="46.58414" lon="3.2886">
        <ele>265.9</ele>
        <time>2014-05-19T19:20:07Z</time>
      </trkpt>
      <trkpt lat="46.58396" lon="3.28888">
        <ele>266</ele>
        <time>2014-05-19T19:20:08Z</time>
      </trkpt>
      <trkpt lat="46.58377" lon="3.28916">
        <ele>266.2</ele>
        <time>2014-05-19T19:20:09Z</time>
      </trkpt>
      <trkpt lat="46.58359" lon="3.28943">
        <ele>266.3</ele>
        <time>2014-05-19T19:20:10Z</time>
      </trkpt>
      <trkpt lat="46.5834" lon="3.28971">
        <ele>266.5</ele>
        <time>2014-05-19T19:20:11Z</time>
      </trkpt>
      <trkpt lat="46.58322" lon="3.28997">
        <ele>266.6</ele>
        <time>2014-05-19T19:20:12Z</time>
      </trkpt>
      <trkpt lat="46.58305" lon="3.29023">
        <ele>266.7</ele>
        <time>2014-05-19T19:20:13Z</time>
      </trkpt>
      <trkpt lat="46.58288" lon="3.29047">
        <ele>266.8</ele>
        <time>2014-05-19T19:20:14Z</time>
      </trkpt>
      <trkpt lat="46.58273" lon="3.2907">
        <ele>266.8</ele>
        <time>2014-05-19T19:20:15Z</time>
      </trkpt>
      <trkpt lat="46.58258" lon="3.29092">
        <ele>266.9</ele>
        <time>2014-05-19T19:20:16Z</time>
      </trkpt>
      <trkpt lat="46.58243" lon="3.29113">
        <ele>267</ele>
        <time>2014-05-19T19:20:17Z</time>
      </trkpt>
      <trkpt lat="46.58229" lon="3.29134">
        <ele>267</ele>
        <time>2014-05-19T19:20:18Z</time>
      </trkpt>
      <trkpt lat="46.58216" lon="3.29155">
        <ele>267.1</ele>
        <time>2014-05-19T19:20:19Z</time>
      </trkpt>
      <trkpt lat="46.58203" lon="3.29175">
        <ele>267.1</ele>
        <time>2014-05-19T19:20:20Z</time>
      </trkpt>
      <trkpt lat="46.58189" lon="3.29196">
        <ele>267.1</ele>
        <time>2014-05-19T19:20:21Z</time>
      </trkpt>
      <trkpt lat="46.58176" lon="3.29216">
        <ele>267.1</ele>
        <time>2014-05-19T19:20:22Z</time>
      </trkpt>
      <trkpt lat="46.58162" lon="3.29235">
        <ele>267</ele>
        <time>2014-05-19T19:20:23Z</time>
      </trkpt>
      <trkpt lat="46.58149" lon="3.29255">
        <ele>267</ele>
        <time>2014-05-19T19:20:24Z</time>
      </trkpt>
      <trkpt lat="46.58136" lon="3.29274">
        <ele>266.9</ele>
        <time>2014-05-19T19:20:25Z</time>
      </trkpt>
      <trkpt lat="46.58122" lon="3.29294">
        <ele>267</ele>
        <time>2014-05-19T19:20:26Z</time>
      </trkpt>
      <trkpt lat="46.58107" lon="3.29315">
        <ele>267</ele>
        <time>2014-05-19T19:20:27Z</time>
      </trkpt>
      <trkpt lat="46.58093" lon="3.29337">
        <ele>267.1</ele>
        <time>2014-05-19T19:20:28Z</time>
      </trkpt>
      <trkpt lat="46.58079" lon="3.29358">
        <ele>267.2</ele>
        <time>2014-05-19T19:20:29Z</time>
      </trkpt>
      <trkpt lat="46.58063" lon="3.29381">
        <ele>267.3</ele>
        <time>2014-05-19T19:20:30Z</time>
      </trkpt>
      <trkpt lat="46.58047" lon="3.29407">
        <ele>267.4</ele>
        <time>2014-05-19T19:20:31Z</time>
      </trkpt>
      <trkpt lat="46.58031" lon="3.29431">
        <ele>267.4</ele>
        <time>2014-05-19T19:20:32Z</time>
      </trkpt>
      <trkpt lat="46.58013" lon="3.29457">
        <ele>267.4</ele>
        <time>2014-05-19T19:20:33Z</time>
      </trkpt>
      <trkpt lat="46.57995" lon="3.29484">
        <ele>267.4</ele>
        <time>2014-05-19T19:20:34Z</time>
      </trkpt>
      <trkpt lat="46.57976" lon="3.2951">
        <ele>267.3</ele>
        <time>2014-05-19T19:20:35Z</time>
      </trkpt>
      <trkpt lat="46.57957" lon="3.29537">
        <ele>267.3</ele>
        <time>2014-05-19T19:20:36Z</time>
      </trkpt>
      <trkpt lat="46.57938" lon="3.29564">
        <ele>267</ele>
        <time>2014-05-19T19:20:37Z</time>
      </trkpt>
      <trkpt lat="46.57918" lon="3.2959">
        <ele>266.7</ele>
        <time>2014-05-19T19:20:38Z</time>
      </trkpt>
      <trkpt lat="46.57899" lon="3.29617">
        <ele>266.4</ele>
        <time>2014-05-19T19:20:39Z</time>
      </trkpt>
      <trkpt lat="46.57879" lon="3.29644">
        <ele>266</ele>
        <time>2014-05-19T19:20:40Z</time>
      </trkpt>
      <trkpt lat="46.5786" lon="3.29671">
        <ele>265.7</ele>
        <time>2014-05-19T19:20:41Z</time>
      </trkpt>
      <trkpt lat="46.57838" lon="3.29689">
        <ele>265.3</ele>
        <time>2014-05-19T19:20:42Z</time>
      </trkpt>
      <trkpt lat="46.57816" lon="3.29713">
        <ele>265</ele>
        <time>2014-05-19T19:20:43Z</time>
      </trkpt>
      <trkpt lat="46.57795" lon="3.29736">
        <ele>264.7</ele>
        <time>2014-05-19T19:20:44Z</time>
      </trkpt>
      <trkpt lat="46.57774" lon="3.2976">
        <ele>264.5</ele>
        <time>2014-05-19T19:20:45Z</time>
      </trkpt>
      <trkpt lat="46.57753" lon="3.29782">
        <ele>264.4</ele>
        <time>2014-05-19T19:20:46Z</time>
      </trkpt>
      <trkpt lat="46.57732" lon="3.29805">
        <ele>264.2</ele>
        <time>2014-05-19T19:20:47Z</time>
      </trkpt>
      <trkpt lat="46.57713" lon="3.29826">
        <ele>264.2</ele>
        <time>2014-05-19T19:20:48Z</time>
      </trkpt>
      <trkpt lat="46.57693" lon="3.29847">
        <ele>264.3</ele>
        <time>2014-05-19T19:20:49Z</time>
      </trkpt>
      <trkpt lat="46.57674" lon="3.29868">
        <ele>264.3</ele>
        <time>2014-05-19T19:20:50Z</time>
      </trkpt>
      <trkpt lat="46.57658" lon="3.29888">
        <ele>264.3</ele>
        <time>2014-05-19T19:20:51Z</time>
      </trkpt>
      <trkpt lat="46.57642" lon="3.2991">
        <ele>264.4</ele>
        <time>2014-05-19T19:20:52Z</time>
      </trkpt>
      <trkpt lat="46.57626" lon="3.29932">
        <ele>264.5</ele>
        <time>2014-05-19T19:20:53Z</time>
      </trkpt>
      <trkpt lat="46.57614" lon="3.29962">
        <ele>264.6</ele>
        <time>2014-05-19T19:20:54Z</time>
      </trkpt>
      <trkpt lat="46.57601" lon="3.29991">
        <ele>264.6</ele>
        <time>2014-05-19T19:20:55Z</time>
      </trkpt>
      <trkpt lat="46.57589" lon="3.30022">
        <ele>264.7</ele>
        <time>2014-05-19T19:20:56Z</time>
      </trkpt>
      <trkpt lat="46.57577" lon="3.30052">
        <ele>264.7</ele>
        <time>2014-05-19T19:20:57Z</time>
      </trkpt>
      <trkpt lat="46.57564" lon="3.30087">
        <ele>264.8</ele>
        <time>2014-05-19T19:20:58Z</time>
      </trkpt>
      <trkpt lat="46.57551" lon="3.3012">
        <ele>264.8</ele>
        <time>2014-05-19T19:20:59Z</time>
      </trkpt>
      <trkpt lat="46.57537" lon="3.30154">
        <ele>265</ele>
        <time>2014-05-19T19:21:00Z</time>
      </trkpt>
      <trkpt lat="46.57524" lon="3.30189">
        <ele>264.9</ele>
        <time>2014-05-19T19:21:01Z</time>
      </trkpt>
      <trkpt lat="46.5751" lon="3.30225">
        <ele>264.9</ele>
        <time>2014-05-19T19:21:02Z</time>
      </trkpt>
      <trkpt lat="46.57496" lon="3.3026">
        <ele>264.8</ele>
        <time>2014-05-19T19:21:03Z</time>
      </trkpt>
      <trkpt lat="46.57482" lon="3.30296">
        <ele>264.7</ele>
        <time>2014-05-19T19:21:04Z</time>
      </trkpt>
      <trkpt lat="46.57467" lon="3.30333">
        <ele>264.6</ele>
        <time>2014-05-19T19:21:05Z</time>
      </trkpt>
      <trkpt lat="46.57454" lon="3.30366">
        <ele>264.5</ele>
        <time>2014-05-19T19:21:06Z</time>
      </trkpt>
      <trkpt lat="46.57441" lon="3.304">
        <ele>264.3</ele>
        <time>2014-05-19T19:21:07Z</time>
      </trkpt>
      <trkpt lat="46.57427" lon="3.30434">
        <ele>264.2</ele>
        <time>2014-05-19T19:21:08Z</time>
      </trkpt>
      <trkpt lat="46.57414" lon="3.30468">
        <ele>264.1</ele>
        <time>2014-05-19T19:21:09Z</time>
      </trkpt>
      <trkpt lat="46.57402" lon="3.305">
        <ele>263.9</ele>
        <time>2014-05-19T19:21:10Z</time>
      </trkpt>
      <trkpt lat="46.5739" lon="3.30532">
        <ele>263.7</ele>
        <time>2014-05-19T19:21:11Z</time>
      </trkpt>
      <trkpt lat="46.57378" lon="3.30563">
        <ele>263.6</ele>
        <time>2014-05-19T19:21:12Z</time>
      </trkpt>
      <trkpt lat="46.57366" lon="3.30594">
        <ele>263.7</ele>
        <time>2014-05-19T19:21:13Z</time>
      </trkpt>
      <trkpt lat="46.57354" lon="3.30623">
        <ele>263.8</ele>
        <time>2014-05-19T19:21:14Z</time>
      </trkpt>
      <trkpt lat="46.57342" lon="3.30652">
        <ele>263.8</ele>
        <time>2014-05-19T19:21:15Z</time>
      </trkpt>
      <trkpt lat="46.57331" lon="3.3068">
        <ele>263.9</ele>
        <time>2014-05-19T19:21:16Z</time>
      </trkpt>
      <trkpt lat="46.57319" lon="3.30707">
        <ele>264</ele>
        <time>2014-05-19T19:21:17Z</time>
      </trkpt>
      <trkpt lat="46.57307" lon="3.30728">
        <ele>264</ele>
        <time>2014-05-19T19:21:18Z</time>
      </trkpt>
      <trkpt lat="46.57286" lon="3.30745">
        <ele>264.1</ele>
        <time>2014-05-19T19:21:19Z</time>
      </trkpt>
      <trkpt lat="46.57268" lon="3.30764">
        <ele>264.2</ele>
        <time>2014-05-19T19:21:20Z</time>
      </trkpt>
      <trkpt lat="46.57249" lon="3.30783">
        <ele>264.2</ele>
        <time>2014-05-19T19:21:21Z</time>
      </trkpt>
      <trkpt lat="46.57228" lon="3.30801">
        <ele>264.4</ele>
        <time>2014-05-19T19:21:22Z</time>
      </trkpt>
      <trkpt lat="46.57208" lon="3.30821">
        <ele>264.6</ele>
        <time>2014-05-19T19:21:23Z</time>
      </trkpt>
      <trkpt lat="46.57187" lon="3.30842">
        <ele>264.7</ele>
        <time>2014-05-19T19:21:24Z</time>
      </trkpt>
      <trkpt lat="46.57166" lon="3.30862">
        <ele>264.9</ele>
        <time>2014-05-19T19:21:25Z</time>
      </trkpt>
      <trkpt lat="46.57144" lon="3.30883">
        <ele>265.2</ele>
        <time>2014-05-19T19:21:26Z</time>
      </trkpt>
      <trkpt lat="46.57121" lon="3.30904">
        <ele>265.4</ele>
        <time>2014-05-19T19:21:27Z</time>
      </trkpt>
      <trkpt lat="46.571" lon="3.30926">
        <ele>265.6</ele>
        <time>2014-05-19T19:21:28Z</time>
      </trkpt>
      <trkpt lat="46.57077" lon="3.30947">
        <ele>265.8</ele>
        <time>2014-05-19T19:21:29Z</time>
      </trkpt>
      <trkpt lat="46.57056" lon="3.30966">
        <ele>266</ele>
        <time>2014-05-19T19:21:30Z</time>
      </trkpt>
      <trkpt lat="46.57037" lon="3.30986">
        <ele>266.2</ele>
        <time>2014-05-19T19:21:31Z</time>
      </trkpt>
      <trkpt lat="46.57019" lon="3.31005">
        <ele>266.3</ele>
        <time>2014-05-19T19:21:32Z</time>
      </trkpt>
      <trkpt lat="46.57002" lon="3.31025">
        <ele>266.4</ele>
        <time>2014-05-19T19:21:33Z</time>
      </trkpt>
      <trkpt lat="46.56985" lon="3.31045">
        <ele>266.5</ele>
        <time>2014-05-19T19:21:34Z</time>
      </trkpt>
      <trkpt lat="46.56969" lon="3.31065">
        <ele>266.5</ele>
        <time>2014-05-19T19:21:35Z</time>
      </trkpt>
      <trkpt lat="46.56954" lon="3.31084">
        <ele>266.5</ele>
        <time>2014-05-19T19:21:36Z</time>
      </trkpt>
      <trkpt lat="46.56939" lon="3.31103">
        <ele>266.5</ele>
        <time>2014-05-19T19:21:37Z</time>
      </trkpt>
      <trkpt lat="46.56924" lon="3.31122">
        <ele>266.5</ele>
        <time>2014-05-19T19:21:38Z</time>
      </trkpt>
      <trkpt lat="46.56909" lon="3.3114">
        <ele>266.5</ele>
        <time>2014-05-19T19:21:39Z</time>
      </trkpt>
      <trkpt lat="46.56895" lon="3.31158">
        <ele>266.6</ele>
        <time>2014-05-19T19:21:40Z</time>
      </trkpt>
      <trkpt lat="46.56881" lon="3.31175">
        <ele>266.8</ele>
        <time>2014-05-19T19:21:41Z</time>
      </trkpt>
      <trkpt lat="46.56866" lon="3.31193">
        <ele>266.9</ele>
        <time>2014-05-19T19:21:42Z</time>
      </trkpt>
      <trkpt lat="46.56853" lon="3.31211">
        <ele>267</ele>
        <time>2014-05-19T19:21:43Z</time>
      </trkpt>
      <trkpt lat="46.56839" lon="3.31228">
        <ele>267.2</ele>
        <time>2014-05-19T19:21:44Z</time>
      </trkpt>
      <trkpt lat="46.56825" lon="3.31246">
        <ele>267.3</ele>
        <time>2014-05-19T19:21:45Z</time>
      </trkpt>
      <trkpt lat="46.56811" lon="3.31263">
        <ele>267.4</ele>
        <time>2014-05-19T19:21:46Z</time>
      </trkpt>
      <trkpt lat="46.56797" lon="3.3128">
        <ele>267.6</ele>
        <time>2014-05-19T19:21:47Z</time>
      </trkpt>
      <trkpt lat="46.56783" lon="3.31298">
        <ele>267.8</ele>
        <time>2014-05-19T19:21:48Z</time>
      </trkpt>
      <trkpt lat="46.56769" lon="3.31315">
        <ele>268</ele>
        <time>2014-05-19T19:21:49Z</time>
      </trkpt>
      <trkpt lat="46.56755" lon="3.31333">
        <ele>268.2</ele>
        <time>2014-05-19T19:21:50Z</time>
      </trkpt>
      <trkpt lat="46.56741" lon="3.3135">
        <ele>268.4</ele>
        <time>2014-05-19T19:21:51Z</time>
      </trkpt>
      <trkpt lat="46.56727" lon="3.31369">
        <ele>268.5</ele>
        <time>2014-05-19T19:21:52Z</time>
      </trkpt>
      <trkpt lat="46.56713" lon="3.31386">
        <ele>268.6</ele>
        <time>2014-05-19T19:21:53Z</time>
      </trkpt>
      <trkpt lat="46.56699" lon="3.31403">
        <ele>268.8</ele>
        <time>2014-05-19T19:21:54Z</time>
      </trkpt>
      <trkpt lat="46.56685" lon="3.3142">
        <ele>268.8</ele>
        <time>2014-05-19T19:21:55Z</time>
      </trkpt>
      <trkpt lat="46.56672" lon="3.31437">
        <ele>268.9</ele>
        <time>2014-05-19T19:21:56Z</time>
      </trkpt>
      <trkpt lat="46.56659" lon="3.31454">
        <ele>269</ele>
        <time>2014-05-19T19:21:57Z</time>
      </trkpt>
      <trkpt lat="46.56646" lon="3.3147">
        <ele>269</ele>
        <time>2014-05-19T19:21:58Z</time>
      </trkpt>
      <trkpt lat="46.56634" lon="3.31485">
        <ele>269.1</ele>
        <time>2014-05-19T19:21:59Z</time>
      </trkpt>
      <trkpt lat="46.56621" lon="3.31501">
        <ele>269.1</ele>
        <time>2014-05-19T19:22:00Z</time>
      </trkpt>
      <trkpt lat="46.56609" lon="3.31516">
        <ele>269</ele>
        <time>2014-05-19T19:22:01Z</time>
      </trkpt>
      <trkpt lat="46.56597" lon="3.31532">
        <ele>269</ele>
        <time>2014-05-19T19:22:02Z</time>
      </trkpt>
      <trkpt lat="46.56585" lon="3.31547">
        <ele>269.1</ele>
        <time>2014-05-19T19:22:03Z</time>
      </trkpt>
      <trkpt lat="46.56574" lon="3.31562">
        <ele>269.1</ele>
        <time>2014-05-19T19:22:04Z</time>
      </trkpt>
      <trkpt lat="46.56562" lon="3.31576">
        <ele>269.2</ele>
        <time>2014-05-19T19:22:05Z</time>
      </trkpt>
      <trkpt lat="46.56551" lon="3.31591">
        <ele>269.2</ele>
        <time>2014-05-19T19:22:06Z</time>
      </trkpt>
      <trkpt lat="46.5654" lon="3.31605">
        <ele>269.2</ele>
        <time>2014-05-19T19:22:07Z</time>
      </trkpt>
      <trkpt lat="46.56529" lon="3.3162">
        <ele>269.2</ele>
        <time>2014-05-19T19:22:08Z</time>
      </trkpt>
      <trkpt lat="46.56518" lon="3.31634">
        <ele>269.2</ele>
        <time>2014-05-19T19:22:09Z</time>
      </trkpt>
      <trkpt lat="46.56507" lon="3.31649">
        <ele>269.2</ele>
        <time>2014-05-19T19:22:10Z</time>
      </trkpt>
      <trkpt lat="46.56496" lon="3.31663">
        <ele>269.2</ele>
        <time>2014-05-19T19:22:11Z</time>
      </trkpt>
      <trkpt lat="46.56484" lon="3.31678">
        <ele>269.2</ele>
        <time>2014-05-19T19:22:12Z</time>
      </trkpt>
      <trkpt lat="46.56472" lon="3.31692">
        <ele>269.1</ele>
        <time>2014-05-19T19:22:13Z</time>
      </trkpt>
      <trkpt lat="46.5646" lon="3.31707">
        <ele>269.2</ele>
        <time>2014-05-19T19:22:14Z</time>
      </trkpt>
      <trkpt lat="46.56449" lon="3.31722">
        <ele>269</ele>
        <time>2014-05-19T19:22:15Z</time>
      </trkpt>
      <trkpt lat="46.56437" lon="3.31737">
        <ele>269</ele>
        <time>2014-05-19T19:22:16Z</time>
      </trkpt>
      <trkpt lat="46.56425" lon="3.31752">
        <ele>269</ele>
        <time>2014-05-19T19:22:17Z</time>
      </trkpt>
      <trkpt lat="46.56413" lon="3.31766">
        <ele>268.9</ele>
        <time>2014-05-19T19:22:18Z</time>
      </trkpt>
      <trkpt lat="46.56402" lon="3.31781">
        <ele>268.9</ele>
        <time>2014-05-19T19:22:19Z</time>
      </trkpt>
      <trkpt lat="46.56391" lon="3.31795">
        <ele>268.8</ele>
        <time>2014-05-19T19:22:20Z</time>
      </trkpt>
      <trkpt lat="46.5638" lon="3.31809">
        <ele>268.8</ele>
        <time>2014-05-19T19:22:21Z</time>
      </trkpt>
      <trkpt lat="46.56368" lon="3.31822">
        <ele>268.8</ele>
        <time>2014-05-19T19:22:22Z</time>
      </trkpt>
      <trkpt lat="46.56357" lon="3.31836">
        <ele>268.8</ele>
        <time>2014-05-19T19:22:23Z</time>
      </trkpt>
      <trkpt lat="46.56346" lon="3.31849">
        <ele>268.8</ele>
        <time>2014-05-19T19:22:24Z</time>
      </trkpt>
      <trkpt lat="46.56334" lon="3.31862">
        <ele>268.8</ele>
        <time>2014-05-19T19:22:25Z</time>
      </trkpt>
      <trkpt lat="46.56322" lon="3.31875">
        <ele>268.9</ele>
        <time>2014-05-19T19:22:26Z</time>
      </trkpt>
      <trkpt lat="46.5631" lon="3.31888">
        <ele>268.9</ele>
        <time>2014-05-19T19:22:27Z</time>
      </trkpt>
      <trkpt lat="46.56298" lon="3.31901">
        <ele>269</ele>
        <time>2014-05-19T19:22:28Z</time>
      </trkpt>
      <trkpt lat="46.56286" lon="3.31914">
        <ele>269.1</ele>
        <time>2014-05-19T19:22:29Z</time>
      </trkpt>
      <trkpt lat="46.56274" lon="3.31926">
        <ele>269.2</ele>
        <time>2014-05-19T19:22:30Z</time>
      </trkpt>
      <trkpt lat="46.56262" lon="3.31938">
        <ele>269.3</ele>
        <time>2014-05-19T19:22:31Z</time>
      </trkpt>
      <trkpt lat="46.56249" lon="3.3195">
        <ele>269.4</ele>
        <time>2014-05-19T19:22:32Z</time>
      </trkpt>
      <trkpt lat="46.56236" lon="3.31961">
        <ele>269.5</ele>
        <time>2014-05-19T19:22:33Z</time>
      </trkpt>
      <trkpt lat="46.56224" lon="3.31972">
        <ele>269.7</ele>
        <time>2014-05-19T19:22:34Z</time>
      </trkpt>
      <trkpt lat="46.56211" lon="3.31983">
        <ele>269.8</ele>
        <time>2014-05-19T19:22:35Z</time>
      </trkpt>
      <trkpt lat="46.56199" lon="3.31994">
        <ele>270</ele>
        <time>2014-05-19T19:22:36Z</time>
      </trkpt>
      <trkpt lat="46.56187" lon="3.32005">
        <ele>270.2</ele>
        <time>2014-05-19T19:22:37Z</time>
      </trkpt>
      <trkpt lat="46.56176" lon="3.32015">
        <ele>270.4</ele>
        <time>2014-05-19T19:22:38Z</time>
      </trkpt>
      <trkpt lat="46.56166" lon="3.32026">
        <ele>270.5</ele>
        <time>2014-05-19T19:22:39Z</time>
      </trkpt>
      <trkpt lat="46.56155" lon="3.32034">
        <ele>270.5</ele>
        <time>2014-05-19T19:22:40Z</time>
      </trkpt>
      <trkpt lat="46.56144" lon="3.32043">
        <ele>270.5</ele>
        <time>2014-05-19T19:22:41Z</time>
      </trkpt>
      <trkpt lat="46.56134" lon="3.32049">
        <ele>270.6</ele>
        <time>2014-05-19T19:22:42Z</time>
      </trkpt>
      <trkpt lat="46.56124" lon="3.32055">
        <ele>270.6</ele>
        <time>2014-05-19T19:22:43Z</time>
      </trkpt>
      <trkpt lat="46.56116" lon="3.3206">
        <ele>270.5</ele>
        <time>2014-05-19T19:22:44Z</time>
      </trkpt>
      <trkpt lat="46.56108" lon="3.32065">
        <ele>270.3</ele>
        <time>2014-05-19T19:22:50Z</time>
      </trkpt>
      <trkpt lat="46.56095" lon="3.32065">
        <ele>270.4</ele>
        <time>2014-05-19T19:22:52Z</time>
      </trkpt>
      <trkpt lat="46.56088" lon="3.32075">
        <ele>270.4</ele>
        <time>2014-05-19T19:22:54Z</time>
      </trkpt>
      <trkpt lat="46.56089" lon="3.32093">
        <ele>270.4</ele>
        <time>2014-05-19T19:22:56Z</time>
      </trkpt>
      <trkpt lat="46.56098" lon="3.32106">
        <ele>270.5</ele>
        <time>2014-05-19T19:22:57Z</time>
      </trkpt>
      <trkpt lat="46.56104" lon="3.32117">
        <ele>270.5</ele>
        <time>2014-05-19T19:22:58Z</time>
      </trkpt>
      <trkpt lat="46.56114" lon="3.32136">
        <ele>270.4</ele>
        <time>2014-05-19T19:22:59Z</time>
      </trkpt>
      <trkpt lat="46.56119" lon="3.32152">
        <ele>270.3</ele>
        <time>2014-05-19T19:23:01Z</time>
      </trkpt>
      <trkpt lat="46.56126" lon="3.3217">
        <ele>270.1</ele>
        <time>2014-05-19T19:23:01Z</time>
      </trkpt>
      <trkpt lat="46.56132" lon="3.3219">
        <ele>269.9</ele>
        <time>2014-05-19T19:23:02Z</time>
      </trkpt>
      <trkpt lat="46.5614" lon="3.3221">
        <ele>269.8</ele>
        <time>2014-05-19T19:23:03Z</time>
      </trkpt>
      <trkpt lat="46.56148" lon="3.32232">
        <ele>269.7</ele>
        <time>2014-05-19T19:23:04Z</time>
      </trkpt>
      <trkpt lat="46.56156" lon="3.32253">
        <ele>269.4</ele>
        <time>2014-05-19T19:23:05Z</time>
      </trkpt>
      <trkpt lat="46.56163" lon="3.32274">
        <ele>269</ele>
        <time>2014-05-19T19:23:06Z</time>
      </trkpt>
      <trkpt lat="46.5617" lon="3.32296">
        <ele>268.6</ele>
        <time>2014-05-19T19:23:07Z</time>
      </trkpt>
      <trkpt lat="46.56178" lon="3.32317">
        <ele>268.2</ele>
        <time>2014-05-19T19:23:08Z</time>
      </trkpt>
      <trkpt lat="46.56185" lon="3.32339">
        <ele>267.9</ele>
        <time>2014-05-19T19:23:09Z</time>
      </trkpt>
      <trkpt lat="46.56192" lon="3.3236">
        <ele>267.6</ele>
        <time>2014-05-19T19:23:10Z</time>
      </trkpt>
      <trkpt lat="46.56199" lon="3.32381">
        <ele>267.4</ele>
        <time>2014-05-19T19:23:11Z</time>
      </trkpt>
      <trkpt lat="46.56206" lon="3.324">
        <ele>267.2</ele>
        <time>2014-05-19T19:23:12Z</time>
      </trkpt>
      <trkpt lat="46.56213" lon="3.3242">
        <ele>267</ele>
        <time>2014-05-19T19:23:13Z</time>
      </trkpt>
      <trkpt lat="46.56219" lon="3.32438">
        <ele>266.9</ele>
        <time>2014-05-19T19:23:14Z</time>
      </trkpt>
      <trkpt lat="46.56225" lon="3.32454">
        <ele>266.9</ele>
        <time>2014-05-19T19:23:15Z</time>
      </trkpt>
      <trkpt lat="46.5623" lon="3.32469">
        <ele>267</ele>
        <time>2014-05-19T19:23:16Z</time>
      </trkpt>
      <trkpt lat="46.56235" lon="3.32484">
        <ele>267.1</ele>
        <time>2014-05-19T19:23:17Z</time>
      </trkpt>
      <trkpt lat="46.5624" lon="3.32505">
        <ele>267.2</ele>
        <time>2014-05-19T19:23:19Z</time>
      </trkpt>
      <trkpt lat="46.56241" lon="3.32526">
        <ele>267.3</ele>
        <time>2014-05-19T19:23:21Z</time>
      </trkpt>
      <trkpt lat="46.56245" lon="3.32542">
        <ele>267.4</ele>
        <time>2014-05-19T19:23:23Z</time>
      </trkpt>
      <trkpt lat="46.56258" lon="3.32545">
        <ele>267.6</ele>
        <time>2014-05-19T19:23:25Z</time>
      </trkpt>
      <trkpt lat="46.56269" lon="3.32531">
        <ele>267.7</ele>
        <time>2014-05-19T19:23:27Z</time>
      </trkpt>
      <trkpt lat="46.56277" lon="3.32524">
        <ele>267.7</ele>
        <time>2014-05-19T19:23:28Z</time>
      </trkpt>
      <trkpt lat="46.56285" lon="3.32518">
        <ele>267.8</ele>
        <time>2014-05-19T19:23:29Z</time>
      </trkpt>
      <trkpt lat="46.56294" lon="3.3251">
        <ele>267.7</ele>
        <time>2014-05-19T19:23:30Z</time>
      </trkpt>
      <trkpt lat="46.56305" lon="3.32501">
        <ele>267.6</ele>
        <time>2014-05-19T19:23:31Z</time>
      </trkpt>
      <trkpt lat="46.56318" lon="3.32491">
        <ele>267.4</ele>
        <time>2014-05-19T19:23:32Z</time>
      </trkpt>
      <trkpt lat="46.56332" lon="3.3248">
        <ele>267.3</ele>
        <time>2014-05-19T19:23:33Z</time>
      </trkpt>
      <trkpt lat="46.56345" lon="3.32468">
        <ele>267.1</ele>
        <time>2014-05-19T19:23:34Z</time>
      </trkpt>
      <trkpt lat="46.56359" lon="3.32456">
        <ele>267</ele>
        <time>2014-05-19T19:23:35Z</time>
      </trkpt>
      <trkpt lat="46.56373" lon="3.32443">
        <ele>266.9</ele>
        <time>2014-05-19T19:23:36Z</time>
      </trkpt>
      <trkpt lat="46.56388" lon="3.32431">
        <ele>266.8</ele>
        <time>2014-05-19T19:23:37Z</time>
      </trkpt>
      <trkpt lat="46.56402" lon="3.3242">
        <ele>266.7</ele>
        <time>2014-05-19T19:23:38Z</time>
      </trkpt>
      <trkpt lat="46.56417" lon="3.32411">
        <ele>266.6</ele>
        <time>2014-05-19T19:23:39Z</time>
      </trkpt>
      <trkpt lat="46.56433" lon="3.32404">
        <ele>266.6</ele>
        <time>2014-05-19T19:23:40Z</time>
      </trkpt>
      <trkpt lat="46.56449" lon="3.32398">
        <ele>266.6</ele>
        <time>2014-05-19T19:23:41Z</time>
      </trkpt>
      <trkpt lat="46.56466" lon="3.32392">
        <ele>266.6</ele>
        <time>2014-05-19T19:23:42Z</time>
      </trkpt>
      <trkpt lat="46.56483" lon="3.32387">
        <ele>266.5</ele>
        <time>2014-05-19T19:23:43Z</time>
      </trkpt>
      <trkpt lat="46.56501" lon="3.32381">
        <ele>266.3</ele>
        <time>2014-05-19T19:23:44Z</time>
      </trkpt>
      <trkpt lat="46.56518" lon="3.32376">
        <ele>266</ele>
        <time>2014-05-19T19:23:45Z</time>
      </trkpt>
      <trkpt lat="46.56537" lon="3.32371">
        <ele>265.8</ele>
        <time>2014-05-19T19:23:46Z</time>
      </trkpt>
      <trkpt lat="46.56554" lon="3.32366">
        <ele>265.5</ele>
        <time>2014-05-19T19:23:47Z</time>
      </trkpt>
      <trkpt lat="46.56572" lon="3.3236">
        <ele>265.3</ele>
        <time>2014-05-19T19:23:48Z</time>
      </trkpt>
      <trkpt lat="46.5659" lon="3.32354">
        <ele>265.1</ele>
        <time>2014-05-19T19:23:49Z</time>
      </trkpt>
      <trkpt lat="46.56608" lon="3.32348">
        <ele>264.9</ele>
        <time>2014-05-19T19:23:50Z</time>
      </trkpt>
      <trkpt lat="46.56625" lon="3.32342">
        <ele>264.6</ele>
        <time>2014-05-19T19:23:51Z</time>
      </trkpt>
      <trkpt lat="46.56643" lon="3.32336">
        <ele>264.4</ele>
        <time>2014-05-19T19:23:52Z</time>
      </trkpt>
      <trkpt lat="46.5666" lon="3.32329">
        <ele>264.2</ele>
        <time>2014-05-19T19:23:53Z</time>
      </trkpt>
      <trkpt lat="46.56677" lon="3.32323">
        <ele>264.1</ele>
        <time>2014-05-19T19:23:54Z</time>
      </trkpt>
      <trkpt lat="46.56694" lon="3.32316">
        <ele>264</ele>
        <time>2014-05-19T19:23:55Z</time>
      </trkpt>
      <trkpt lat="46.5671" lon="3.32311">
        <ele>263.9</ele>
        <time>2014-05-19T19:23:56Z</time>
      </trkpt>
      <trkpt lat="46.56724" lon="3.32305">
        <ele>263.9</ele>
        <time>2014-05-19T19:23:57Z</time>
      </trkpt>
      <trkpt lat="46.56738" lon="3.32301">
        <ele>263.8</ele>
        <time>2014-05-19T19:23:58Z</time>
      </trkpt>
      <trkpt lat="46.56751" lon="3.32299">
        <ele>263.8</ele>
        <time>2014-05-19T19:23:59Z</time>
      </trkpt>
      <trkpt lat="46.56764" lon="3.323">
        <ele>263.7</ele>
        <time>2014-05-19T19:24:00Z</time>
      </trkpt>
      <trkpt lat="46.56775" lon="3.32306">
        <ele>263.6</ele>
        <time>2014-05-19T19:24:01Z</time>
      </trkpt>
      <trkpt lat="46.56785" lon="3.32314">
        <ele>263.5</ele>
        <time>2014-05-19T19:24:02Z</time>
      </trkpt>
      <trkpt lat="46.56795" lon="3.32323">
        <ele>263.5</ele>
        <time>2014-05-19T19:24:03Z</time>
      </trkpt>
      <trkpt lat="46.56803" lon="3.32338">
        <ele>263.5</ele>
        <time>2014-05-19T19:24:04Z</time>
      </trkpt>
      <trkpt lat="46.56811" lon="3.32354">
        <ele>263.5</ele>
        <time>2014-05-19T19:24:05Z</time>
      </trkpt>
      <trkpt lat="46.56819" lon="3.3237">
        <ele>263.5</ele>
        <time>2014-05-19T19:24:06Z</time>
      </trkpt>
      <trkpt lat="46.56827" lon="3.32387">
        <ele>263.5</ele>
        <time>2014-05-19T19:24:07Z</time>
      </trkpt>
      <trkpt lat="46.56835" lon="3.32403">
        <ele>263.5</ele>
        <time>2014-05-19T19:24:08Z</time>
      </trkpt>
      <trkpt lat="46.56844" lon="3.3242">
        <ele>263.5</ele>
        <time>2014-05-19T19:24:09Z</time>
      </trkpt>
      <trkpt lat="46.56851" lon="3.32437">
        <ele>263.6</ele>
        <time>2014-05-19T19:24:10Z</time>
      </trkpt>
      <trkpt lat="46.56859" lon="3.32453">
        <ele>263.6</ele>
        <time>2014-05-19T19:24:11Z</time>
      </trkpt>
      <trkpt lat="46.56868" lon="3.32469">
        <ele>263.6</ele>
        <time>2014-05-19T19:24:12Z</time>
      </trkpt>
      <trkpt lat="46.56875" lon="3.32485">
        <ele>263.6</ele>
        <time>2014-05-19T19:24:13Z</time>
      </trkpt>
      <trkpt lat="46.56881" lon="3.32501">
        <ele>263.6</ele>
        <time>2014-05-19T19:24:14Z</time>
      </trkpt>
      <trkpt lat="46.56887" lon="3.32518">
        <ele>263.7</ele>
        <time>2014-05-19T19:24:15Z</time>
      </trkpt>
      <trkpt lat="46.56894" lon="3.32533">
        <ele>263.7</ele>
        <time>2014-05-19T19:24:16Z</time>
      </trkpt>
      <trkpt lat="46.56898" lon="3.32545">
        <ele>263.9</ele>
        <time>2014-05-19T19:24:17Z</time>
      </trkpt>
      <trkpt lat="46.56904" lon="3.3256">
        <ele>263.9</ele>
        <time>2014-05-19T19:24:19Z</time>
      </trkpt>
      <trkpt lat="46.56906" lon="3.32581">
        <ele>264</ele>
        <time>2014-05-19T19:24:21Z</time>
      </trkpt>
      <trkpt lat="46.5691" lon="3.326">
        <ele>264</ele>
        <time>2014-05-19T19:24:23Z</time>
      </trkpt>
      <trkpt lat="46.56923" lon="3.32608">
        <ele>264</ele>
        <time>2014-05-19T19:24:25Z</time>
      </trkpt>
      <trkpt lat="46.56937" lon="3.326">
        <ele>263.9</ele>
        <time>2014-05-19T19:24:27Z</time>
      </trkpt>
      <trkpt lat="46.56938" lon="3.32585">
        <ele>263.8</ele>
        <time>2014-05-19T19:24:28Z</time>
      </trkpt>
      <trkpt lat="46.56941" lon="3.32574">
        <ele>263.8</ele>
        <time>2014-05-19T19:24:29Z</time>
      </trkpt>
      <trkpt lat="46.56945" lon="3.32562">
        <ele>263.8</ele>
        <time>2014-05-19T19:24:30Z</time>
      </trkpt>
      <trkpt lat="46.5695" lon="3.32552">
        <ele>263.8</ele>
        <time>2014-05-19T19:24:31Z</time>
      </trkpt>
      <trkpt lat="46.5696" lon="3.32542">
        <ele>263.8</ele>
        <time>2014-05-19T19:24:32Z</time>
      </trkpt>
      <trkpt lat="46.5697" lon="3.32531">
        <ele>263.8</ele>
        <time>2014-05-19T19:24:33Z</time>
      </trkpt>
      <trkpt lat="46.56982" lon="3.3252">
        <ele>263.8</ele>
        <time>2014-05-19T19:24:34Z</time>
      </trkpt>
      <trkpt lat="46.56994" lon="3.32508">
        <ele>263.9</ele>
        <time>2014-05-19T19:24:35Z</time>
      </trkpt>
      <trkpt lat="46.57006" lon="3.32496">
        <ele>264</ele>
        <time>2014-05-19T19:24:36Z</time>
      </trkpt>
      <trkpt lat="46.57018" lon="3.32485">
        <ele>264.1</ele>
        <time>2014-05-19T19:24:37Z</time>
      </trkpt>
      <trkpt lat="46.57029" lon="3.32474">
        <ele>264.3</ele>
        <time>2014-05-19T19:24:38Z</time>
      </trkpt>
      <trkpt lat="46.57041" lon="3.32463">
        <ele>264.4</ele>
        <time>2014-05-19T19:24:39Z</time>
      </trkpt>
      <trkpt lat="46.57052" lon="3.32451">
        <ele>264.6</ele>
        <time>2014-05-19T19:24:40Z</time>
      </trkpt>
      <trkpt lat="46.57064" lon="3.32439">
        <ele>264.7</ele>
        <time>2014-05-19T19:24:41Z</time>
      </trkpt>
      <trkpt lat="46.57075" lon="3.32427">
        <ele>264.9</ele>
        <time>2014-05-19T19:24:42Z</time>
      </trkpt>
      <trkpt lat="46.57087" lon="3.32414">
        <ele>265</ele>
        <time>2014-05-19T19:24:43Z</time>
      </trkpt>
      <trkpt lat="46.571" lon="3.32402">
        <ele>265.1</ele>
        <time>2014-05-19T19:24:44Z</time>
      </trkpt>
      <trkpt lat="46.57113" lon="3.32389">
        <ele>265.1</ele>
        <time>2014-05-19T19:24:45Z</time>
      </trkpt>
      <trkpt lat="46.57126" lon="3.32376">
        <ele>265.2</ele>
        <time>2014-05-19T19:24:46Z</time>
      </trkpt>
      <trkpt lat="46.5714" lon="3.32363">
        <ele>265.3</ele>
        <time>2014-05-19T19:24:47Z</time>
      </trkpt>
      <trkpt lat="46.57153" lon="3.32349">
        <ele>265.4</ele>
        <time>2014-05-19T19:24:48Z</time>
      </trkpt>
      <trkpt lat="46.57167" lon="3.32336">
        <ele>265.4</ele>
        <time>2014-05-19T19:24:49Z</time>
      </trkpt>
      <trkpt lat="46.5718" lon="3.32322">
        <ele>265.5</ele>
        <time>2014-05-19T19:24:50Z</time>
      </trkpt>
      <trkpt lat="46.57194" lon="3.32308">
        <ele>265.5</ele>
        <time>2014-05-19T19:24:51Z</time>
      </trkpt>
      <trkpt lat="46.57208" lon="3.32294">
        <ele>265.5</ele>
        <time>2014-05-19T19:24:52Z</time>
      </trkpt>
      <trkpt lat="46.57222" lon="3.32281">
        <ele>265.5</ele>
        <time>2014-05-19T19:24:53Z</time>
      </trkpt>
      <trkpt lat="46.57235" lon="3.32267">
        <ele>265.5</ele>
        <time>2014-05-19T19:24:54Z</time>
      </trkpt>
      <trkpt lat="46.57248" lon="3.32254">
        <ele>265.5</ele>
        <time>2014-05-19T19:24:55Z</time>
      </trkpt>
      <trkpt lat="46.5726" lon="3.32241">
        <ele>265.5</ele>
        <time>2014-05-19T19:24:56Z</time>
      </trkpt>
      <trkpt lat="46.57272" lon="3.3223">
        <ele>265.5</ele>
        <time>2014-05-19T19:24:57Z</time>
      </trkpt>
      <trkpt lat="46.57285" lon="3.32217">
        <ele>265.6</ele>
        <time>2014-05-19T19:24:58Z</time>
      </trkpt>
      <trkpt lat="46.57297" lon="3.32205">
        <ele>265.6</ele>
        <time>2014-05-19T19:24:59Z</time>
      </trkpt>
      <trkpt lat="46.5731" lon="3.32192">
        <ele>265.7</ele>
        <time>2014-05-19T19:25:00Z</time>
      </trkpt>
      <trkpt lat="46.57323" lon="3.32179">
        <ele>265.8</ele>
        <time>2014-05-19T19:25:01Z</time>
      </trkpt>
      <trkpt lat="46.57335" lon="3.32167">
        <ele>266</ele>
        <time>2014-05-19T19:25:02Z</time>
      </trkpt>
      <trkpt lat="46.57347" lon="3.32154">
        <ele>266.1</ele>
        <time>2014-05-19T19:25:03Z</time>
      </trkpt>
      <trkpt lat="46.57358" lon="3.32143">
        <ele>266.2</ele>
        <time>2014-05-19T19:25:04Z</time>
      </trkpt>
      <trkpt lat="46.57369" lon="3.32132">
        <ele>266.3</ele>
        <time>2014-05-19T19:25:05Z</time>
      </trkpt>
      <trkpt lat="46.5738" lon="3.3212">
        <ele>266.4</ele>
        <time>2014-05-19T19:25:06Z</time>
      </trkpt>
      <trkpt lat="46.57391" lon="3.32109">
        <ele>266.4</ele>
        <time>2014-05-19T19:25:07Z</time>
      </trkpt>
      <trkpt lat="46.57402" lon="3.32099">
        <ele>266.5</ele>
        <time>2014-05-19T19:25:08Z</time>
      </trkpt>
      <trkpt lat="46.57413" lon="3.32088">
        <ele>266.6</ele>
        <time>2014-05-19T19:25:09Z</time>
      </trkpt>
      <trkpt lat="46.57423" lon="3.32077">
        <ele>266.7</ele>
        <time>2014-05-19T19:25:10Z</time>
      </trkpt>
      <trkpt lat="46.57434" lon="3.32066">
        <ele>266.8</ele>
        <time>2014-05-19T19:25:11Z</time>
      </trkpt>
      <trkpt lat="46.57445" lon="3.32055">
        <ele>266.9</ele>
        <time>2014-05-19T19:25:12Z</time>
      </trkpt>
      <trkpt lat="46.57456" lon="3.32043">
        <ele>266.8</ele>
        <time>2014-05-19T19:25:13Z</time>
      </trkpt>
      <trkpt lat="46.57468" lon="3.32031">
        <ele>266.8</ele>
        <time>2014-05-19T19:25:14Z</time>
      </trkpt>
      <trkpt lat="46.5748" lon="3.32019">
        <ele>266.7</ele>
        <time>2014-05-19T19:25:15Z</time>
      </trkpt>
      <trkpt lat="46.57492" lon="3.32007">
        <ele>266.5</ele>
        <time>2014-05-19T19:25:16Z</time>
      </trkpt>
      <trkpt lat="46.57503" lon="3.31996">
        <ele>266.3</ele>
        <time>2014-05-19T19:25:17Z</time>
      </trkpt>
      <trkpt lat="46.57513" lon="3.31986">
        <ele>266.5</ele>
        <time>2014-05-19T19:25:18Z</time>
      </trkpt>
      <trkpt lat="46.57522" lon="3.31976">
        <ele>266.4</ele>
        <time>2014-05-19T19:25:19Z</time>
      </trkpt>
      <trkpt lat="46.5753" lon="3.31968">
        <ele>266.3</ele>
        <time>2014-05-19T19:25:20Z</time>
      </trkpt>
      <trkpt lat="46.57543" lon="3.3196">
        <ele>266.2</ele>
        <time>2014-05-19T19:25:22Z</time>
      </trkpt>
      <trkpt lat="46.57552" lon="3.31955">
        <ele>266.1</ele>
        <time>2014-05-19T19:25:24Z</time>
      </trkpt>
      <trkpt lat="46.57554" lon="3.31954">
        <ele>266</ele>
        <time>2014-05-19T19:25:34Z</time>
      </trkpt>
      <trkpt lat="46.57561" lon="3.31952">
        <ele>270.8</ele>
        <time>2014-05-19T19:25:54Z</time>
      </trkpt>
      <trkpt lat="46.57561" lon="3.31952">
        <ele>271</ele>
        <time>2014-05-19T19:25:54Z</time>
      </trkpt>
      <trkpt lat="46.57569" lon="3.31941">
        <ele>271.1</ele>
        <time>2014-05-19T19:25:56Z</time>
      </trkpt>
      <trkpt lat="46.57579" lon="3.31925">
        <ele>271.1</ele>
        <time>2014-05-19T19:25:58Z</time>
      </trkpt>
      <trkpt lat="46.57587" lon="3.31916">
        <ele>271.2</ele>
        <time>2014-05-19T19:25:59Z</time>
      </trkpt>
      <trkpt lat="46.57595" lon="3.31907">
        <ele>271.2</ele>
        <time>2014-05-19T19:26:00Z</time>
      </trkpt>
      <trkpt lat="46.57604" lon="3.31898">
        <ele>271.3</ele>
        <time>2014-05-19T19:26:01Z</time>
      </trkpt>
      <trkpt lat="46.57614" lon="3.31888">
        <ele>271.4</ele>
        <time>2014-05-19T19:26:02Z</time>
      </trkpt>
      <trkpt lat="46.57624" lon="3.31877">
        <ele>271.4</ele>
        <time>2014-05-19T19:26:03Z</time>
      </trkpt>
      <trkpt lat="46.57634" lon="3.31867">
        <ele>271.4</ele>
        <time>2014-05-19T19:26:04Z</time>
      </trkpt>
      <trkpt lat="46.57645" lon="3.31857">
        <ele>271.4</ele>
        <time>2014-05-19T19:26:05Z</time>
      </trkpt>
      <trkpt lat="46.57655" lon="3.31846">
        <ele>271.3</ele>
        <time>2014-05-19T19:26:06Z</time>
      </trkpt>
      <trkpt lat="46.57665" lon="3.31836">
        <ele>271.1</ele>
        <time>2014-05-19T19:26:07Z</time>
      </trkpt>
      <trkpt lat="46.57676" lon="3.31829">
        <ele>271</ele>
        <time>2014-05-19T19:26:08Z</time>
      </trkpt>
      <trkpt lat="46.57688" lon="3.31827">
        <ele>270.9</ele>
        <time>2014-05-19T19:26:09Z</time>
      </trkpt>
      <trkpt lat="46.57699" lon="3.31825">
        <ele>270.7</ele>
        <time>2014-05-19T19:26:10Z</time>
      </trkpt>
      <trkpt lat="46.57712" lon="3.31823">
        <ele>270.6</ele>
        <time>2014-05-19T19:26:11Z</time>
      </trkpt>
      <trkpt lat="46.57726" lon="3.31821">
        <ele>270.5</ele>
        <time>2014-05-19T19:26:12Z</time>
      </trkpt>
      <trkpt lat="46.5774" lon="3.3182">
        <ele>270.3</ele>
        <time>2014-05-19T19:26:13Z</time>
      </trkpt>
      <trkpt lat="46.57752" lon="3.31819">
        <ele>270.3</ele>
        <time>2014-05-19T19:26:14Z</time>
      </trkpt>
      <trkpt lat="46.57764" lon="3.31817">
        <ele>270.1</ele>
        <time>2014-05-19T19:26:15Z</time>
      </trkpt>
      <trkpt lat="46.57775" lon="3.31813">
        <ele>269.9</ele>
        <time>2014-05-19T19:26:16Z</time>
      </trkpt>
      <trkpt lat="46.57787" lon="3.31805">
        <ele>269.7</ele>
        <time>2014-05-19T19:26:17Z</time>
      </trkpt>
      <trkpt lat="46.57797" lon="3.31794">
        <ele>269.5</ele>
        <time>2014-05-19T19:26:18Z</time>
      </trkpt>
      <trkpt lat="46.57807" lon="3.31782">
        <ele>269.3</ele>
        <time>2014-05-19T19:26:19Z</time>
      </trkpt>
      <trkpt lat="46.57817" lon="3.3177">
        <ele>269.1</ele>
        <time>2014-05-19T19:26:20Z</time>
      </trkpt>
      <trkpt lat="46.57827" lon="3.3176">
        <ele>269</ele>
        <time>2014-05-19T19:26:21Z</time>
      </trkpt>
      <trkpt lat="46.57836" lon="3.3175">
        <ele>268.7</ele>
        <time>2014-05-19T19:26:22Z</time>
      </trkpt>
      <trkpt lat="46.57844" lon="3.31741">
        <ele>268.5</ele>
        <time>2014-05-19T19:26:23Z</time>
      </trkpt>
      <trkpt lat="46.57852" lon="3.31731">
        <ele>268.2</ele>
        <time>2014-05-19T19:26:24Z</time>
      </trkpt>
      <trkpt lat="46.57861" lon="3.31721">
        <ele>267.8</ele>
        <time>2014-05-19T19:26:25Z</time>
      </trkpt>
      <trkpt lat="46.57871" lon="3.31711">
        <ele>267.5</ele>
        <time>2014-05-19T19:26:26Z</time>
      </trkpt>
      <trkpt lat="46.57881" lon="3.317">
        <ele>267.2</ele>
        <time>2014-05-19T19:26:27Z</time>
      </trkpt>
      <trkpt lat="46.57892" lon="3.31688">
        <ele>266.9</ele>
        <time>2014-05-19T19:26:28Z</time>
      </trkpt>
      <trkpt lat="46.57903" lon="3.31676">
        <ele>266.6</ele>
        <time>2014-05-19T19:26:29Z</time>
      </trkpt>
      <trkpt lat="46.57914" lon="3.31662">
        <ele>266.3</ele>
        <time>2014-05-19T19:26:30Z</time>
      </trkpt>
      <trkpt lat="46.57926" lon="3.31649">
        <ele>266</ele>
        <time>2014-05-19T19:26:31Z</time>
      </trkpt>
      <trkpt lat="46.57937" lon="3.31636">
        <ele>265.8</ele>
        <time>2014-05-19T19:26:32Z</time>
      </trkpt>
      <trkpt lat="46.57949" lon="3.31623">
        <ele>265.6</ele>
        <time>2014-05-19T19:26:33Z</time>
      </trkpt>
      <trkpt lat="46.5796" lon="3.31611">
        <ele>265.5</ele>
        <time>2014-05-19T19:26:34Z</time>
      </trkpt>
      <trkpt lat="46.5797" lon="3.31598">
        <ele>265.4</ele>
        <time>2014-05-19T19:26:35Z</time>
      </trkpt>
      <trkpt lat="46.57981" lon="3.31587">
        <ele>265.3</ele>
        <time>2014-05-19T19:26:36Z</time>
      </trkpt>
      <trkpt lat="46.57992" lon="3.31575">
        <ele>265.2</ele>
        <time>2014-05-19T19:26:37Z</time>
      </trkpt>
      <trkpt lat="46.58002" lon="3.31564">
        <ele>265.2</ele>
        <time>2014-05-19T19:26:38Z</time>
      </trkpt>
      <trkpt lat="46.58012" lon="3.31553">
        <ele>265.2</ele>
        <time>2014-05-19T19:26:39Z</time>
      </trkpt>
      <trkpt lat="46.58022" lon="3.31542">
        <ele>265.2</ele>
        <time>2014-05-19T19:26:40Z</time>
      </trkpt>
      <trkpt lat="46.58033" lon="3.31529">
        <ele>265.2</ele>
        <time>2014-05-19T19:26:41Z</time>
      </trkpt>
      <trkpt lat="46.58043" lon="3.31518">
        <ele>265.1</ele>
        <time>2014-05-19T19:26:42Z</time>
      </trkpt>
      <trkpt lat="46.58053" lon="3.31507">
        <ele>265</ele>
        <time>2014-05-19T19:26:43Z</time>
      </trkpt>
      <trkpt lat="46.58064" lon="3.31494">
        <ele>265</ele>
        <time>2014-05-19T19:26:44Z</time>
      </trkpt>
      <trkpt lat="46.58073" lon="3.3148">
        <ele>264.9</ele>
        <time>2014-05-19T19:26:45Z</time>
      </trkpt>
      <trkpt lat="46.58082" lon="3.31463">
        <ele>264.8</ele>
        <time>2014-05-19T19:26:46Z</time>
      </trkpt>
      <trkpt lat="46.58085" lon="3.31445">
        <ele>264.8</ele>
        <time>2014-05-19T19:26:47Z</time>
      </trkpt>
      <trkpt lat="46.58091" lon="3.31426">
        <ele>264.8</ele>
        <time>2014-05-19T19:26:48Z</time>
      </trkpt>
      <trkpt lat="46.58097" lon="3.31407">
        <ele>264.8</ele>
        <time>2014-05-19T19:26:49Z</time>
      </trkpt>
      <trkpt lat="46.58103" lon="3.31387">
        <ele>264.8</ele>
        <time>2014-05-19T19:26:50Z</time>
      </trkpt>
      <trkpt lat="46.5811" lon="3.31367">
        <ele>264.8</ele>
        <time>2014-05-19T19:26:51Z</time>
      </trkpt>
      <trkpt lat="46.58116" lon="3.31346">
        <ele>264.8</ele>
        <time>2014-05-19T19:26:52Z</time>
      </trkpt>
      <trkpt lat="46.58123" lon="3.31327">
        <ele>264.8</ele>
        <time>2014-05-19T19:26:53Z</time>
      </trkpt>
      <trkpt lat="46.58132" lon="3.31308">
        <ele>264.8</ele>
        <time>2014-05-19T19:26:54Z</time>
      </trkpt>
      <trkpt lat="46.58141" lon="3.31289">
        <ele>264.6</ele>
        <time>2014-05-19T19:26:55Z</time>
      </trkpt>
      <trkpt lat="46.58152" lon="3.31271">
        <ele>264.5</ele>
        <time>2014-05-19T19:26:56Z</time>
      </trkpt>
      <trkpt lat="46.58162" lon="3.31253">
        <ele>264.3</ele>
        <time>2014-05-19T19:26:57Z</time>
      </trkpt>
      <trkpt lat="46.58172" lon="3.31235">
        <ele>264</ele>
        <time>2014-05-19T19:26:58Z</time>
      </trkpt>
      <trkpt lat="46.58182" lon="3.31218">
        <ele>263.8</ele>
        <time>2014-05-19T19:26:59Z</time>
      </trkpt>
      <trkpt lat="46.58192" lon="3.312">
        <ele>263.6</ele>
        <time>2014-05-19T19:27:00Z</time>
      </trkpt>
      <trkpt lat="46.58203" lon="3.31181">
        <ele>263.4</ele>
        <time>2014-05-19T19:27:01Z</time>
      </trkpt>
      <trkpt lat="46.58216" lon="3.31162">
        <ele>263.2</ele>
        <time>2014-05-19T19:27:02Z</time>
      </trkpt>
      <trkpt lat="46.58228" lon="3.31144">
        <ele>263</ele>
        <time>2014-05-19T19:27:03Z</time>
      </trkpt>
      <trkpt lat="46.58239" lon="3.31129">
        <ele>262.9</ele>
        <time>2014-05-19T19:27:04Z</time>
      </trkpt>
      <trkpt lat="46.58252" lon="3.31116">
        <ele>262.8</ele>
        <time>2014-05-19T19:27:05Z</time>
      </trkpt>
      <trkpt lat="46.58266" lon="3.31104">
        <ele>262.8</ele>
        <time>2014-05-19T19:27:06Z</time>
      </trkpt>
      <trkpt lat="46.5828" lon="3.31093">
        <ele>262.8</ele>
        <time>2014-05-19T19:27:07Z</time>
      </trkpt>
      <trkpt lat="46.58294" lon="3.31082">
        <ele>262.8</ele>
        <time>2014-05-19T19:27:08Z</time>
      </trkpt>
      <trkpt lat="46.58309" lon="3.3107">
        <ele>262.9</ele>
        <time>2014-05-19T19:27:09Z</time>
      </trkpt>
      <trkpt lat="46.58324" lon="3.31058">
        <ele>262.9</ele>
        <time>2014-05-19T19:27:10Z</time>
      </trkpt>
      <trkpt lat="46.58337" lon="3.31046">
        <ele>262.9</ele>
        <time>2014-05-19T19:27:11Z</time>
      </trkpt>
      <trkpt lat="46.58352" lon="3.31034">
        <ele>262.8</ele>
        <time>2014-05-19T19:27:12Z</time>
      </trkpt>
      <trkpt lat="46.58367" lon="3.31023">
        <ele>262.8</ele>
        <time>2014-05-19T19:27:13Z</time>
      </trkpt>
      <trkpt lat="46.58382" lon="3.31012">
        <ele>262.7</ele>
        <time>2014-05-19T19:27:14Z</time>
      </trkpt>
      <trkpt lat="46.58398" lon="3.31001">
        <ele>262.6</ele>
        <time>2014-05-19T19:27:15Z</time>
      </trkpt>
      <trkpt lat="46.58413" lon="3.3099">
        <ele>262.5</ele>
        <time>2014-05-19T19:27:16Z</time>
      </trkpt>
      <trkpt lat="46.58429" lon="3.30979">
        <ele>262.5</ele>
        <time>2014-05-19T19:27:17Z</time>
      </trkpt>
      <trkpt lat="46.58444" lon="3.30969">
        <ele>262.4</ele>
        <time>2014-05-19T19:27:18Z</time>
      </trkpt>
      <trkpt lat="46.58459" lon="3.30959">
        <ele>262.3</ele>
        <time>2014-05-19T19:27:19Z</time>
      </trkpt>
      <trkpt lat="46.58474" lon="3.30947">
        <ele>262.2</ele>
        <time>2014-05-19T19:27:20Z</time>
      </trkpt>
      <trkpt lat="46.58486" lon="3.30935">
        <ele>262.2</ele>
        <time>2014-05-19T19:27:21Z</time>
      </trkpt>
      <trkpt lat="46.58499" lon="3.30921">
        <ele>262.3</ele>
        <time>2014-05-19T19:27:22Z</time>
      </trkpt>
      <trkpt lat="46.58509" lon="3.30906">
        <ele>262.4</ele>
        <time>2014-05-19T19:27:23Z</time>
      </trkpt>
      <trkpt lat="46.58519" lon="3.3089">
        <ele>262.4</ele>
        <time>2014-05-19T19:27:24Z</time>
      </trkpt>
      <trkpt lat="46.58529" lon="3.30873">
        <ele>262.5</ele>
        <time>2014-05-19T19:27:25Z</time>
      </trkpt>
      <trkpt lat="46.58539" lon="3.30855">
        <ele>262.5</ele>
        <time>2014-05-19T19:27:26Z</time>
      </trkpt>
      <trkpt lat="46.58549" lon="3.30838">
        <ele>262.5</ele>
        <time>2014-05-19T19:27:27Z</time>
      </trkpt>
      <trkpt lat="46.58558" lon="3.30822">
        <ele>262.5</ele>
        <time>2014-05-19T19:27:28Z</time>
      </trkpt>
      <trkpt lat="46.58566" lon="3.30807">
        <ele>262.5</ele>
        <time>2014-05-19T19:27:29Z</time>
      </trkpt>
      <trkpt lat="46.58575" lon="3.30796">
        <ele>262.7</ele>
        <time>2014-05-19T19:27:30Z</time>
      </trkpt>
      <trkpt lat="46.58583" lon="3.3079">
        <ele>263</ele>
        <time>2014-05-19T19:27:31Z</time>
      </trkpt>
      <trkpt lat="46.58592" lon="3.30786">
        <ele>263.4</ele>
        <time>2014-05-19T19:27:32Z</time>
      </trkpt>
      <trkpt lat="46.58602" lon="3.30789">
        <ele>263.8</ele>
        <time>2014-05-19T19:27:33Z</time>
      </trkpt>
      <trkpt lat="46.58613" lon="3.30797">
        <ele>264.3</ele>
        <time>2014-05-19T19:27:34Z</time>
      </trkpt>
      <trkpt lat="46.58623" lon="3.30804">
        <ele>264.8</ele>
        <time>2014-05-19T19:27:35Z</time>
      </trkpt>
      <trkpt lat="46.58632" lon="3.30813">
        <ele>265.3</ele>
        <time>2014-05-19T19:27:36Z</time>
      </trkpt>
      <trkpt lat="46.58643" lon="3.30822">
        <ele>266.1</ele>
        <time>2014-05-19T19:27:37Z</time>
      </trkpt>
      <trkpt lat="46.58654" lon="3.30831">
        <ele>267.1</ele>
        <time>2014-05-19T19:27:38Z</time>
      </trkpt>
      <trkpt lat="46.58665" lon="3.30839">
        <ele>268.1</ele>
        <time>2014-05-19T19:27:39Z</time>
      </trkpt>
      <trkpt lat="46.58674" lon="3.30846">
        <ele>269</ele>
        <time>2014-05-19T19:27:40Z</time>
      </trkpt>
      <trkpt lat="46.58681" lon="3.30854">
        <ele>269.7</ele>
        <time>2014-05-19T19:27:41Z</time>
      </trkpt>
      <trkpt lat="46.58685" lon="3.3087">
        <ele>270.3</ele>
        <time>2014-05-19T19:27:43Z</time>
      </trkpt>
      <trkpt lat="46.58682" lon="3.30888">
        <ele>270.8</ele>
        <time>2014-05-19T19:27:45Z</time>
      </trkpt>
      <trkpt lat="46.58677" lon="3.30905">
        <ele>271</ele>
        <time>2014-05-19T19:27:47Z</time>
      </trkpt>
      <trkpt lat="46.58672" lon="3.30927">
        <ele>271.3</ele>
        <time>2014-05-19T19:27:49Z</time>
      </trkpt>
      <trkpt lat="46.58669" lon="3.30941">
        <ele>271.5</ele>
        <time>2014-05-19T19:27:50Z</time>
      </trkpt>
      <trkpt lat="46.58665" lon="3.30956">
        <ele>271.7</ele>
        <time>2014-05-19T19:27:51Z</time>
      </trkpt>
      <trkpt lat="46.5866" lon="3.30972">
        <ele>271.5</ele>
        <time>2014-05-19T19:27:52Z</time>
      </trkpt>
      <trkpt lat="46.58656" lon="3.30989">
        <ele>271.3</ele>
        <time>2014-05-19T19:27:53Z</time>
      </trkpt>
      <trkpt lat="46.58653" lon="3.31007">
        <ele>271</ele>
        <time>2014-05-19T19:27:54Z</time>
      </trkpt>
      <trkpt lat="46.5865" lon="3.31026">
        <ele>270.8</ele>
        <time>2014-05-19T19:27:55Z</time>
      </trkpt>
      <trkpt lat="46.58647" lon="3.31046">
        <ele>270.7</ele>
        <time>2014-05-19T19:27:56Z</time>
      </trkpt>
      <trkpt lat="46.58643" lon="3.31066">
        <ele>270.6</ele>
        <time>2014-05-19T19:27:57Z</time>
      </trkpt>
      <trkpt lat="46.5864" lon="3.31087">
        <ele>270.5</ele>
        <time>2014-05-19T19:27:58Z</time>
      </trkpt>
      <trkpt lat="46.58637" lon="3.31107">
        <ele>270.5</ele>
        <time>2014-05-19T19:27:59Z</time>
      </trkpt>
      <trkpt lat="46.58635" lon="3.31127">
        <ele>270.6</ele>
        <time>2014-05-19T19:28:00Z</time>
      </trkpt>
      <trkpt lat="46.58633" lon="3.31145">
        <ele>270.7</ele>
        <time>2014-05-19T19:28:01Z</time>
      </trkpt>
      <trkpt lat="46.58631" lon="3.31162">
        <ele>270.9</ele>
        <time>2014-05-19T19:28:02Z</time>
      </trkpt>
      <trkpt lat="46.58629" lon="3.31176">
        <ele>271</ele>
        <time>2014-05-19T19:28:03Z</time>
      </trkpt>
      <trkpt lat="46.58627" lon="3.31188">
        <ele>271.3</ele>
        <time>2014-05-19T19:28:04Z</time>
      </trkpt>
      <trkpt lat="46.58627" lon="3.312">
        <ele>271.5</ele>
        <time>2014-05-19T19:28:05Z</time>
      </trkpt>
      <trkpt lat="46.58631" lon="3.31212">
        <ele>271.8</ele>
        <time>2014-05-19T19:28:06Z</time>
      </trkpt>
      <trkpt lat="46.58635" lon="3.31225">
        <ele>272.1</ele>
        <time>2014-05-19T19:28:07Z</time>
      </trkpt>
      <trkpt lat="46.5864" lon="3.31241">
        <ele>272.4</ele>
        <time>2014-05-19T19:28:08Z</time>
      </trkpt>
      <trkpt lat="46.58644" lon="3.31258">
        <ele>272.6</ele>
        <time>2014-05-19T19:28:09Z</time>
      </trkpt>
      <trkpt lat="46.58648" lon="3.31277">
        <ele>272.9</ele>
        <time>2014-05-19T19:28:10Z</time>
      </trkpt>
      <trkpt lat="46.58653" lon="3.31296">
        <ele>273.2</ele>
        <time>2014-05-19T19:28:11Z</time>
      </trkpt>
      <trkpt lat="46.58658" lon="3.31316">
        <ele>273.5</ele>
        <time>2014-05-19T19:28:12Z</time>
      </trkpt>
      <trkpt lat="46.58663" lon="3.31335">
        <ele>273.8</ele>
        <time>2014-05-19T19:28:13Z</time>
      </trkpt>
      <trkpt lat="46.58667" lon="3.31353">
        <ele>274.1</ele>
        <time>2014-05-19T19:28:14Z</time>
      </trkpt>
      <trkpt lat="46.58672" lon="3.31372">
        <ele>274.4</ele>
        <time>2014-05-19T19:28:15Z</time>
      </trkpt>
      <trkpt lat="46.58676" lon="3.3139">
        <ele>274.7</ele>
        <time>2014-05-19T19:28:16Z</time>
      </trkpt>
      <trkpt lat="46.5868" lon="3.31407">
        <ele>275</ele>
        <time>2014-05-19T19:28:17Z</time>
      </trkpt>
      <trkpt lat="46.58684" lon="3.31423">
        <ele>275.2</ele>
        <time>2014-05-19T19:28:18Z</time>
      </trkpt>
      <trkpt lat="46.58688" lon="3.31436">
        <ele>275.2</ele>
        <time>2014-05-19T19:28:19Z</time>
      </trkpt>
      <trkpt lat="46.58692" lon="3.31457">
        <ele>275.2</ele>
        <time>2014-05-19T19:28:21Z</time>
      </trkpt>
      <trkpt lat="46.5869" lon="3.31473">
        <ele>275</ele>
        <time>2014-05-19T19:28:23Z</time>
      </trkpt>
      <trkpt lat="46.58688" lon="3.31488">
        <ele>274.8</ele>
        <time>2014-05-19T19:28:25Z</time>
      </trkpt>
      <trkpt lat="46.58699" lon="3.31488">
        <ele>274.8</ele>
        <time>2014-05-19T19:28:27Z</time>
      </trkpt>
      <trkpt lat="46.58703" lon="3.31472">
        <ele>274.7</ele>
        <time>2014-05-19T19:28:29Z</time>
      </trkpt>
      <trkpt lat="46.58708" lon="3.31456">
        <ele>274.6</ele>
        <time>2014-05-19T19:28:31Z</time>
      </trkpt>
      <trkpt lat="46.58719" lon="3.31442">
        <ele>274.4</ele>
        <time>2014-05-19T19:28:33Z</time>
      </trkpt>
      <trkpt lat="46.58728" lon="3.31436">
        <ele>274.2</ele>
        <time>2014-05-19T19:28:35Z</time>
      </trkpt>
      <trkpt lat="46.58736" lon="3.3144">
        <ele>274.1</ele>
        <time>2014-05-19T19:28:37Z</time>
      </trkpt>
      <trkpt lat="46.5874" lon="3.31452">
        <ele>274</ele>
        <time>2014-05-19T19:28:39Z</time>
      </trkpt>
      <trkpt lat="46.58747" lon="3.31471">
        <ele>274</ele>
        <time>2014-05-19T19:28:41Z</time>
      </trkpt>
      <trkpt lat="46.58754" lon="3.31488">
        <ele>274.1</ele>
        <time>2014-05-19T19:28:43Z</time>
      </trkpt>
      <trkpt lat="46.5876" lon="3.31504">
        <ele>274.1</ele>
        <time>2014-05-19T19:28:45Z</time>
      </trkpt>
      <trkpt lat="46.58768" lon="3.31512">
        <ele>274.3</ele>
        <time>2014-05-19T19:28:47Z</time>
      </trkpt>
      <trkpt lat="46.58779" lon="3.31507">
        <ele>274.3</ele>
        <time>2014-05-19T19:28:49Z</time>
      </trkpt>
      <trkpt lat="46.5879" lon="3.315">
        <ele>274.4</ele>
        <time>2014-05-19T19:28:51Z</time>
      </trkpt>
      <trkpt lat="46.58797" lon="3.31491">
        <ele>274.4</ele>
        <time>2014-05-19T19:28:54Z</time>
      </trkpt>
      <trkpt lat="46.58795" lon="3.31485">
        <ele>274.4</ele>
        <time>2014-05-19T19:29:06Z</time>
      </trkpt>
      <trkpt lat="46.58804" lon="3.31483">
        <ele>275.9</ele>
        <time>2014-05-19T19:29:19Z</time>
      </trkpt>
      <trkpt lat="46.58804" lon="3.31483">
        <ele>275.9</ele>
        <time>2014-05-19T19:29:19Z</time>
      </trkpt>
      <trkpt lat="46.58811" lon="3.31476">
        <ele>275.9</ele>
        <time>2014-05-19T19:29:30Z</time>
      </trkpt>
      <trkpt lat="46.58815" lon="3.31465">
        <ele>275.9</ele>
        <time>2014-05-19T19:29:37Z</time>
      </trkpt>
      <trkpt lat="46.58813" lon="3.31453">
        <ele>275.9</ele>
        <time>2014-05-19T19:29:46Z</time>
      </trkpt>
      <trkpt lat="46.58815" lon="3.3145">
        <ele>275.9</ele>
        <time>2014-05-19T19:29:57Z</time>
      </trkpt>
      <trkpt lat="46.58822" lon="3.31448">
        <ele>275.8</ele>
        <time>2014-05-19T19:30:02Z</time>
      </trkpt>
      <trkpt lat="46.58822" lon="3.31448">
        <ele>278.7</ele>
        <time>2014-05-19T19:30:02Z</time>
      </trkpt>
      <trkpt lat="46.58831" lon="3.31444">
        <ele>279.7</ele>
        <time>2014-05-19T19:30:08Z</time>
      </trkpt>
      <trkpt lat="46.58838" lon="3.31439">
        <ele>280</ele>
        <time>2014-05-19T19:30:13Z</time>
      </trkpt>
      <trkpt lat="46.58846" lon="3.31432">
        <ele>280.3</ele>
        <time>2014-05-19T19:30:18Z</time>
      </trkpt>
      <trkpt lat="46.58873" lon="3.31389">
        <ele>280.6</ele>
        <time>2014-05-19T19:32:07Z</time>
      </trkpt>
      <trkpt lat="46.58807" lon="3.31449">
        <ele>281.4</ele>
        <time>2014-05-19T19:35:55Z</time>
      </trkpt>
      <trkpt lat="46.58814" lon="3.31455">
        <ele>282</ele>
        <time>2014-05-19T19:36:01Z</time>
      </trkpt>
      <trkpt lat="46.58817" lon="3.31468">
        <ele>282.6</ele>
        <time>2014-05-19T19:36:11Z</time>
      </trkpt>
      <trkpt lat="46.58814" lon="3.31479">
        <ele>283.4</ele>
        <time>2014-05-19T19:36:17Z</time>
      </trkpt>
      <trkpt lat="46.58806" lon="3.31485">
        <ele>284.4</ele>
        <time>2014-05-19T19:36:24Z</time>
      </trkpt>
      <trkpt lat="46.58799" lon="3.31491">
        <ele>285.5</ele>
        <time>2014-05-19T19:36:31Z</time>
      </trkpt>
      <trkpt lat="46.58794" lon="3.31491">
        <ele>283.8</ele>
        <time>2014-05-19T19:36:45Z</time>
      </trkpt>
      <trkpt lat="46.58789" lon="3.315">
        <ele>278.8</ele>
        <time>2014-05-19T19:37:14Z</time>
      </trkpt>
      <trkpt lat="46.58789" lon="3.315">
        <ele>278.4</ele>
        <time>2014-05-19T19:37:14Z</time>
      </trkpt>
      <trkpt lat="46.58781" lon="3.31504">
        <ele>277.9</ele>
        <time>2014-05-19T19:37:17Z</time>
      </trkpt>
      <trkpt lat="46.58774" lon="3.31495">
        <ele>277.5</ele>
        <time>2014-05-19T19:37:19Z</time>
      </trkpt>
      <trkpt lat="46.58768" lon="3.3148">
        <ele>277</ele>
        <time>2014-05-19T19:37:21Z</time>
      </trkpt>
      <trkpt lat="46.58761" lon="3.3147">
        <ele>276.8</ele>
        <time>2014-05-19T19:37:22Z</time>
      </trkpt>
      <trkpt lat="46.58751" lon="3.31461">
        <ele>276.2</ele>
        <time>2014-05-19T19:37:25Z</time>
      </trkpt>
      <trkpt lat="46.58744" lon="3.3145">
        <ele>275.7</ele>
        <time>2014-05-19T19:37:26Z</time>
      </trkpt>
      <trkpt lat="46.58738" lon="3.31436">
        <ele>275.4</ele>
        <time>2014-05-19T19:37:29Z</time>
      </trkpt>
      <trkpt lat="46.58732" lon="3.31425">
        <ele>275.1</ele>
        <time>2014-05-19T19:37:31Z</time>
      </trkpt>
      <trkpt lat="46.58723" lon="3.31428">
        <ele>275</ele>
        <time>2014-05-19T19:37:40Z</time>
      </trkpt>
      <trkpt lat="46.58715" lon="3.31441">
        <ele>274.9</ele>
        <time>2014-05-19T19:37:41Z</time>
      </trkpt>
      <trkpt lat="46.58706" lon="3.31457">
        <ele>274.7</ele>
        <time>2014-05-19T19:37:44Z</time>
      </trkpt>
      <trkpt lat="46.58696" lon="3.31468">
        <ele>274.7</ele>
        <time>2014-05-19T19:37:45Z</time>
      </trkpt>
      <trkpt lat="46.58688" lon="3.3148">
        <ele>274.8</ele>
        <time>2014-05-19T19:37:48Z</time>
      </trkpt>
      <trkpt lat="46.58689" lon="3.31496">
        <ele>275.2</ele>
        <time>2014-05-19T19:37:49Z</time>
      </trkpt>
      <trkpt lat="46.58691" lon="3.31514">
        <ele>275.4</ele>
        <time>2014-05-19T19:37:52Z</time>
      </trkpt>
      <trkpt lat="46.58695" lon="3.31538">
        <ele>275.7</ele>
        <time>2014-05-19T19:37:54Z</time>
      </trkpt>
      <trkpt lat="46.58697" lon="3.31551">
        <ele>275.9</ele>
        <time>2014-05-19T19:37:54Z</time>
      </trkpt>
      <trkpt lat="46.58703" lon="3.31571">
        <ele>276</ele>
        <time>2014-05-19T19:37:57Z</time>
      </trkpt>
      <trkpt lat="46.58705" lon="3.31589">
        <ele>276.2</ele>
        <time>2014-05-19T19:37:58Z</time>
      </trkpt>
      <trkpt lat="46.58696" lon="3.31605">
        <ele>276.3</ele>
        <time>2014-05-19T19:38:01Z</time>
      </trkpt>
      <trkpt lat="46.58688" lon="3.31612">
        <ele>276.5</ele>
        <time>2014-05-19T19:38:02Z</time>
      </trkpt>
      <trkpt lat="46.58679" lon="3.31619">
        <ele>276.8</ele>
        <time>2014-05-19T19:38:03Z</time>
      </trkpt>
      <trkpt lat="46.5867" lon="3.31626">
        <ele>277</ele>
        <time>2014-05-19T19:38:03Z</time>
      </trkpt>
      <trkpt lat="46.5866" lon="3.31634">
        <ele>277.1</ele>
        <time>2014-05-19T19:38:04Z</time>
      </trkpt>
      <trkpt lat="46.5865" lon="3.31642">
        <ele>277</ele>
        <time>2014-05-19T19:38:05Z</time>
      </trkpt>
      <trkpt lat="46.58641" lon="3.31649">
        <ele>277</ele>
        <time>2014-05-19T19:38:07Z</time>
      </trkpt>
      <trkpt lat="46.5863" lon="3.31657">
        <ele>276.8</ele>
        <time>2014-05-19T19:38:07Z</time>
      </trkpt>
      <trkpt lat="46.5862" lon="3.31665">
        <ele>276.7</ele>
        <time>2014-05-19T19:38:08Z</time>
      </trkpt>
      <trkpt lat="46.5861" lon="3.31672">
        <ele>276.6</ele>
        <time>2014-05-19T19:38:10Z</time>
      </trkpt>
      <trkpt lat="46.586" lon="3.3168">
        <ele>276.4</ele>
        <time>2014-05-19T19:38:11Z</time>
      </trkpt>
      <trkpt lat="46.58589" lon="3.31688">
        <ele>276.3</ele>
        <time>2014-05-19T19:38:12Z</time>
      </trkpt>
      <trkpt lat="46.58578" lon="3.31697">
        <ele>276.3</ele>
        <time>2014-05-19T19:38:12Z</time>
      </trkpt>
      <trkpt lat="46.58568" lon="3.31704">
        <ele>276.2</ele>
        <time>2014-05-19T19:38:13Z</time>
      </trkpt>
      <trkpt lat="46.58557" lon="3.31713">
        <ele>276.1</ele>
        <time>2014-05-19T19:38:15Z</time>
      </trkpt>
      <trkpt lat="46.58547" lon="3.3172">
        <ele>275.9</ele>
        <time>2014-05-19T19:38:16Z</time>
      </trkpt>
      <trkpt lat="46.58536" lon="3.31728">
        <ele>275.8</ele>
        <time>2014-05-19T19:38:17Z</time>
      </trkpt>
      <trkpt lat="46.58526" lon="3.31736">
        <ele>275.8</ele>
        <time>2014-05-19T19:38:17Z</time>
      </trkpt>
      <trkpt lat="46.58516" lon="3.31743">
        <ele>275.8</ele>
        <time>2014-05-19T19:38:18Z</time>
      </trkpt>
      <trkpt lat="46.58506" lon="3.31751">
        <ele>275.8</ele>
        <time>2014-05-19T19:38:19Z</time>
      </trkpt>
      <trkpt lat="46.58497" lon="3.31758">
        <ele>275.7</ele>
        <time>2014-05-19T19:38:20Z</time>
      </trkpt>
      <trkpt lat="46.58489" lon="3.31764">
        <ele>275.8</ele>
        <time>2014-05-19T19:38:22Z</time>
      </trkpt>
      <trkpt lat="46.58481" lon="3.3177">
        <ele>275.7</ele>
        <time>2014-05-19T19:38:25Z</time>
      </trkpt>
      <trkpt lat="46.58464" lon="3.31783">
        <ele>275.6</ele>
        <time>2014-05-19T19:38:25Z</time>
      </trkpt>
      <trkpt lat="46.58455" lon="3.3179">
        <ele>275.6</ele>
        <time>2014-05-19T19:38:26Z</time>
      </trkpt>
      <trkpt lat="46.58446" lon="3.31796">
        <ele>275.6</ele>
        <time>2014-05-19T19:38:27Z</time>
      </trkpt>
      <trkpt lat="46.58438" lon="3.31802">
        <ele>275.5</ele>
        <time>2014-05-19T19:38:27Z</time>
      </trkpt>
      <trkpt lat="46.58429" lon="3.31809">
        <ele>275.5</ele>
        <time>2014-05-19T19:38:29Z</time>
      </trkpt>
      <trkpt lat="46.58419" lon="3.31816">
        <ele>275.4</ele>
        <time>2014-05-19T19:38:29Z</time>
      </trkpt>
      <trkpt lat="46.58409" lon="3.31824">
        <ele>275.3</ele>
        <time>2014-05-19T19:38:30Z</time>
      </trkpt>
      <trkpt lat="46.58397" lon="3.31833">
        <ele>275.2</ele>
        <time>2014-05-19T19:38:31Z</time>
      </trkpt>
      <trkpt lat="46.58385" lon="3.31842">
        <ele>275.1</ele>
        <time>2014-05-19T19:38:32Z</time>
      </trkpt>
      <trkpt lat="46.58372" lon="3.31853">
        <ele>275</ele>
        <time>2014-05-19T19:38:33Z</time>
      </trkpt>
      <trkpt lat="46.58359" lon="3.31863">
        <ele>274.9</ele>
        <time>2014-05-19T19:38:34Z</time>
      </trkpt>
      <trkpt lat="46.58345" lon="3.31875">
        <ele>274.9</ele>
        <time>2014-05-19T19:38:35Z</time>
      </trkpt>
      <trkpt lat="46.58331" lon="3.31886">
        <ele>274.8</ele>
        <time>2014-05-19T19:38:36Z</time>
      </trkpt>
      <trkpt lat="46.58317" lon="3.31896">
        <ele>274.8</ele>
        <time>2014-05-19T19:38:37Z</time>
      </trkpt>
      <trkpt lat="46.58304" lon="3.31907">
        <ele>274.7</ele>
        <time>2014-05-19T19:38:38Z</time>
      </trkpt>
      <trkpt lat="46.5829" lon="3.31917">
        <ele>274.8</ele>
        <time>2014-05-19T19:38:39Z</time>
      </trkpt>
      <trkpt lat="46.58276" lon="3.31928">
        <ele>274.8</ele>
        <time>2014-05-19T19:38:40Z</time>
      </trkpt>
      <trkpt lat="46.58262" lon="3.31939">
        <ele>274.9</ele>
        <time>2014-05-19T19:38:41Z</time>
      </trkpt>
      <trkpt lat="46.58248" lon="3.3195">
        <ele>275</ele>
        <time>2014-05-19T19:38:42Z</time>
      </trkpt>
      <trkpt lat="46.58234" lon="3.3196">
        <ele>275.1</ele>
        <time>2014-05-19T19:38:43Z</time>
      </trkpt>
      <trkpt lat="46.58221" lon="3.31971">
        <ele>275.3</ele>
        <time>2014-05-19T19:38:44Z</time>
      </trkpt>
      <trkpt lat="46.58207" lon="3.31982">
        <ele>275.5</ele>
        <time>2014-05-19T19:38:45Z</time>
      </trkpt>
      <trkpt lat="46.58194" lon="3.31992">
        <ele>275.7</ele>
        <time>2014-05-19T19:38:46Z</time>
      </trkpt>
      <trkpt lat="46.58181" lon="3.32002">
        <ele>275.8</ele>
        <time>2014-05-19T19:38:47Z</time>
      </trkpt>
      <trkpt lat="46.58168" lon="3.32011">
        <ele>276</ele>
        <time>2014-05-19T19:38:48Z</time>
      </trkpt>
      <trkpt lat="46.58156" lon="3.32022">
        <ele>276.2</ele>
        <time>2014-05-19T19:38:49Z</time>
      </trkpt>
      <trkpt lat="46.58144" lon="3.32033">
        <ele>276.4</ele>
        <time>2014-05-19T19:38:50Z</time>
      </trkpt>
      <trkpt lat="46.58132" lon="3.32045">
        <ele>276.6</ele>
        <time>2014-05-19T19:38:51Z</time>
      </trkpt>
      <trkpt lat="46.58121" lon="3.32059">
        <ele>276.8</ele>
        <time>2014-05-19T19:38:52Z</time>
      </trkpt>
      <trkpt lat="46.5811" lon="3.32072">
        <ele>277</ele>
        <time>2014-05-19T19:38:53Z</time>
      </trkpt>
      <trkpt lat="46.581" lon="3.32087">
        <ele>277.1</ele>
        <time>2014-05-19T19:38:54Z</time>
      </trkpt>
      <trkpt lat="46.5809" lon="3.32102">
        <ele>277.1</ele>
        <time>2014-05-19T19:38:55Z</time>
      </trkpt>
      <trkpt lat="46.58079" lon="3.32117">
        <ele>277.2</ele>
        <time>2014-05-19T19:38:56Z</time>
      </trkpt>
      <trkpt lat="46.58069" lon="3.32132">
        <ele>277.2</ele>
        <time>2014-05-19T19:38:57Z</time>
      </trkpt>
      <trkpt lat="46.58059" lon="3.32148">
        <ele>277.4</ele>
        <time>2014-05-19T19:38:58Z</time>
      </trkpt>
      <trkpt lat="46.58048" lon="3.32163">
        <ele>277.5</ele>
        <time>2014-05-19T19:38:59Z</time>
      </trkpt>
      <trkpt lat="46.58037" lon="3.32179">
        <ele>277.5</ele>
        <time>2014-05-19T19:39:00Z</time>
      </trkpt>
      <trkpt lat="46.58026" lon="3.32194">
        <ele>277.5</ele>
        <time>2014-05-19T19:39:01Z</time>
      </trkpt>
      <trkpt lat="46.58016" lon="3.3221">
        <ele>277.5</ele>
        <time>2014-05-19T19:39:02Z</time>
      </trkpt>
      <trkpt lat="46.58005" lon="3.32226">
        <ele>277.5</ele>
        <time>2014-05-19T19:39:03Z</time>
      </trkpt>
      <trkpt lat="46.57994" lon="3.32241">
        <ele>277.4</ele>
        <time>2014-05-19T19:39:04Z</time>
      </trkpt>
      <trkpt lat="46.57983" lon="3.32257">
        <ele>277.4</ele>
        <time>2014-05-19T19:39:05Z</time>
      </trkpt>
      <trkpt lat="46.57973" lon="3.32272">
        <ele>277.3</ele>
        <time>2014-05-19T19:39:06Z</time>
      </trkpt>
      <trkpt lat="46.57963" lon="3.32287">
        <ele>277.3</ele>
        <time>2014-05-19T19:39:07Z</time>
      </trkpt>
      <trkpt lat="46.57953" lon="3.32301">
        <ele>277.2</ele>
        <time>2014-05-19T19:39:08Z</time>
      </trkpt>
      <trkpt lat="46.57944" lon="3.32313">
        <ele>277</ele>
        <time>2014-05-19T19:39:09Z</time>
      </trkpt>
      <trkpt lat="46.57935" lon="3.32325">
        <ele>276.8</ele>
        <time>2014-05-19T19:39:10Z</time>
      </trkpt>
      <trkpt lat="46.57925" lon="3.32334">
        <ele>276.6</ele>
        <time>2014-05-19T19:39:11Z</time>
      </trkpt>
      <trkpt lat="46.57915" lon="3.32342">
        <ele>276.5</ele>
        <time>2014-05-19T19:39:12Z</time>
      </trkpt>
      <trkpt lat="46.57905" lon="3.32347">
        <ele>276.2</ele>
        <time>2014-05-19T19:39:13Z</time>
      </trkpt>
      <trkpt lat="46.57896" lon="3.32351">
        <ele>275.9</ele>
        <time>2014-05-19T19:39:14Z</time>
      </trkpt>
      <trkpt lat="46.57884" lon="3.32359">
        <ele>275.7</ele>
        <time>2014-05-19T19:39:16Z</time>
      </trkpt>
      <trkpt lat="46.57881" lon="3.32371">
        <ele>275.5</ele>
        <time>2014-05-19T19:39:18Z</time>
      </trkpt>
      <trkpt lat="46.57886" lon="3.32387">
        <ele>275.4</ele>
        <time>2014-05-19T19:39:20Z</time>
      </trkpt>
      <trkpt lat="46.57893" lon="3.3241">
        <ele>275.2</ele>
        <time>2014-05-19T19:39:22Z</time>
      </trkpt>
      <trkpt lat="46.57898" lon="3.32423">
        <ele>275.1</ele>
        <time>2014-05-19T19:39:23Z</time>
      </trkpt>
      <trkpt lat="46.57903" lon="3.32438">
        <ele>275.1</ele>
        <time>2014-05-19T19:39:24Z</time>
      </trkpt>
      <trkpt lat="46.57908" lon="3.32454">
        <ele>275.2</ele>
        <time>2014-05-19T19:39:25Z</time>
      </trkpt>
      <trkpt lat="46.57913" lon="3.3247">
        <ele>275.4</ele>
        <time>2014-05-19T19:39:26Z</time>
      </trkpt>
      <trkpt lat="46.57917" lon="3.32486">
        <ele>275.5</ele>
        <time>2014-05-19T19:39:27Z</time>
      </trkpt>
      <trkpt lat="46.57921" lon="3.32504">
        <ele>275.9</ele>
        <time>2014-05-19T19:39:28Z</time>
      </trkpt>
      <trkpt lat="46.57926" lon="3.3252">
        <ele>276.1</ele>
        <time>2014-05-19T19:39:29Z</time>
      </trkpt>
      <trkpt lat="46.57931" lon="3.32541">
        <ele>276.4</ele>
        <time>2014-05-19T19:39:30Z</time>
      </trkpt>
      <trkpt lat="46.57937" lon="3.3256">
        <ele>276.8</ele>
        <time>2014-05-19T19:39:31Z</time>
      </trkpt>
      <trkpt lat="46.57942" lon="3.32579">
        <ele>277.2</ele>
        <time>2014-05-19T19:39:32Z</time>
      </trkpt>
      <trkpt lat="46.57948" lon="3.32598">
        <ele>277.6</ele>
        <time>2014-05-19T19:39:34Z</time>
      </trkpt>
      <trkpt lat="46.57953" lon="3.32616">
        <ele>278</ele>
        <time>2014-05-19T19:39:35Z</time>
      </trkpt>
      <trkpt lat="46.57958" lon="3.32635">
        <ele>278.3</ele>
        <time>2014-05-19T19:39:36Z</time>
      </trkpt>
      <trkpt lat="46.57963" lon="3.32654">
        <ele>278.5</ele>
        <time>2014-05-19T19:39:37Z</time>
      </trkpt>
      <trkpt lat="46.57971" lon="3.32686">
        <ele>278.6</ele>
        <time>2014-05-19T19:39:38Z</time>
      </trkpt>
      <trkpt lat="46.57974" lon="3.32699">
        <ele>278.6</ele>
        <time>2014-05-19T19:39:39Z</time>
      </trkpt>
      <trkpt lat="46.57977" lon="3.32712">
        <ele>278.6</ele>
        <time>2014-05-19T19:39:40Z</time>
      </trkpt>
      <trkpt lat="46.57975" lon="3.32725">
        <ele>278.6</ele>
        <time>2014-05-19T19:39:43Z</time>
      </trkpt>
      <trkpt lat="46.57964" lon="3.32736">
        <ele>278.6</ele>
        <time>2014-05-19T19:39:44Z</time>
      </trkpt>
      <trkpt lat="46.57949" lon="3.32743">
        <ele>278.4</ele>
        <time>2014-05-19T19:39:46Z</time>
      </trkpt>
      <trkpt lat="46.57941" lon="3.32747">
        <ele>278.2</ele>
        <time>2014-05-19T19:39:47Z</time>
      </trkpt>
      <trkpt lat="46.57932" lon="3.32751">
        <ele>278</ele>
        <time>2014-05-19T19:39:48Z</time>
      </trkpt>
      <trkpt lat="46.57922" lon="3.32756">
        <ele>277.7</ele>
        <time>2014-05-19T19:39:49Z</time>
      </trkpt>
      <trkpt lat="46.5791" lon="3.32763">
        <ele>277.5</ele>
        <time>2014-05-19T19:39:50Z</time>
      </trkpt>
      <trkpt lat="46.57897" lon="3.32769">
        <ele>277.2</ele>
        <time>2014-05-19T19:39:51Z</time>
      </trkpt>
      <trkpt lat="46.57883" lon="3.32776">
        <ele>277</ele>
        <time>2014-05-19T19:39:52Z</time>
      </trkpt>
      <trkpt lat="46.57867" lon="3.32784">
        <ele>276.8</ele>
        <time>2014-05-19T19:39:54Z</time>
      </trkpt>
      <trkpt lat="46.57852" lon="3.32792">
        <ele>276.6</ele>
        <time>2014-05-19T19:39:54Z</time>
      </trkpt>
      <trkpt lat="46.57835" lon="3.328">
        <ele>276.4</ele>
        <time>2014-05-19T19:39:55Z</time>
      </trkpt>
      <trkpt lat="46.57819" lon="3.32808">
        <ele>276.2</ele>
        <time>2014-05-19T19:39:56Z</time>
      </trkpt>
      <trkpt lat="46.57803" lon="3.32816">
        <ele>276</ele>
        <time>2014-05-19T19:39:57Z</time>
      </trkpt>
      <trkpt lat="46.57787" lon="3.32824">
        <ele>275.8</ele>
        <time>2014-05-19T19:39:58Z</time>
      </trkpt>
      <trkpt lat="46.5777" lon="3.32832">
        <ele>275.6</ele>
        <time>2014-05-19T19:39:59Z</time>
      </trkpt>
      <trkpt lat="46.57754" lon="3.3284">
        <ele>275.5</ele>
        <time>2014-05-19T19:40:00Z</time>
      </trkpt>
      <trkpt lat="46.57738" lon="3.32848">
        <ele>275.4</ele>
        <time>2014-05-19T19:40:01Z</time>
      </trkpt>
      <trkpt lat="46.57723" lon="3.32855">
        <ele>275.2</ele>
        <time>2014-05-19T19:40:02Z</time>
      </trkpt>
      <trkpt lat="46.57708" lon="3.32862">
        <ele>275</ele>
        <time>2014-05-19T19:40:03Z</time>
      </trkpt>
      <trkpt lat="46.57694" lon="3.32869">
        <ele>274.8</ele>
        <time>2014-05-19T19:40:04Z</time>
      </trkpt>
      <trkpt lat="46.57683" lon="3.32875">
        <ele>274.5</ele>
        <time>2014-05-19T19:40:05Z</time>
      </trkpt>
      <trkpt lat="46.57673" lon="3.32879">
        <ele>274.2</ele>
        <time>2014-05-19T19:40:06Z</time>
      </trkpt>
      <trkpt lat="46.57664" lon="3.32884">
        <ele>274.1</ele>
        <time>2014-05-19T19:40:07Z</time>
      </trkpt>
      <trkpt lat="46.57655" lon="3.32889">
        <ele>274</ele>
        <time>2014-05-19T19:40:08Z</time>
      </trkpt>
      <trkpt lat="46.57647" lon="3.32895">
        <ele>274</ele>
        <time>2014-05-19T19:40:09Z</time>
      </trkpt>
      <trkpt lat="46.57639" lon="3.32902">
        <ele>274</ele>
        <time>2014-05-19T19:40:10Z</time>
      </trkpt>
      <trkpt lat="46.5763" lon="3.3291">
        <ele>274</ele>
        <time>2014-05-19T19:40:11Z</time>
      </trkpt>
      <trkpt lat="46.5762" lon="3.3292">
        <ele>274.2</ele>
        <time>2014-05-19T19:40:12Z</time>
      </trkpt>
      <trkpt lat="46.5761" lon="3.32932">
        <ele>274.4</ele>
        <time>2014-05-19T19:40:13Z</time>
      </trkpt>
      <trkpt lat="46.576" lon="3.32943">
        <ele>274.7</ele>
        <time>2014-05-19T19:40:14Z</time>
      </trkpt>
      <trkpt lat="46.57591" lon="3.3296">
        <ele>275</ele>
        <time>2014-05-19T19:40:15Z</time>
      </trkpt>
      <trkpt lat="46.57584" lon="3.32977">
        <ele>275.3</ele>
        <time>2014-05-19T19:40:16Z</time>
      </trkpt>
      <trkpt lat="46.57575" lon="3.32996">
        <ele>275.7</ele>
        <time>2014-05-19T19:40:17Z</time>
      </trkpt>
      <trkpt lat="46.57568" lon="3.33015">
        <ele>275.9</ele>
        <time>2014-05-19T19:40:19Z</time>
      </trkpt>
      <trkpt lat="46.5756" lon="3.33035">
        <ele>276.1</ele>
        <time>2014-05-19T19:40:19Z</time>
      </trkpt>
      <trkpt lat="46.57552" lon="3.33054">
        <ele>276.2</ele>
        <time>2014-05-19T19:40:20Z</time>
      </trkpt>
      <trkpt lat="46.57543" lon="3.33073">
        <ele>276.3</ele>
        <time>2014-05-19T19:40:22Z</time>
      </trkpt>
      <trkpt lat="46.57535" lon="3.33093">
        <ele>276.5</ele>
        <time>2014-05-19T19:40:22Z</time>
      </trkpt>
      <trkpt lat="46.57526" lon="3.33112">
        <ele>276.5</ele>
        <time>2014-05-19T19:40:23Z</time>
      </trkpt>
      <trkpt lat="46.57518" lon="3.33132">
        <ele>276.5</ele>
        <time>2014-05-19T19:40:24Z</time>
      </trkpt>
      <trkpt lat="46.5751" lon="3.33151">
        <ele>276.6</ele>
        <time>2014-05-19T19:40:25Z</time>
      </trkpt>
      <trkpt lat="46.57502" lon="3.33171">
        <ele>276.7</ele>
        <time>2014-05-19T19:40:26Z</time>
      </trkpt>
      <trkpt lat="46.57494" lon="3.33189">
        <ele>276.7</ele>
        <time>2014-05-19T19:40:28Z</time>
      </trkpt>
      <trkpt lat="46.57486" lon="3.33207">
        <ele>276.8</ele>
        <time>2014-05-19T19:40:28Z</time>
      </trkpt>
      <trkpt lat="46.57478" lon="3.33225">
        <ele>276.9</ele>
        <time>2014-05-19T19:40:29Z</time>
      </trkpt>
      <trkpt lat="46.5747" lon="3.33243">
        <ele>276.9</ele>
        <time>2014-05-19T19:40:31Z</time>
      </trkpt>
      <trkpt lat="46.57463" lon="3.3326">
        <ele>277.1</ele>
        <time>2014-05-19T19:40:31Z</time>
      </trkpt>
      <trkpt lat="46.57451" lon="3.33277">
        <ele>277.1</ele>
        <time>2014-05-19T19:40:33Z</time>
      </trkpt>
      <trkpt lat="46.57446" lon="3.33288">
        <ele>276.9</ele>
        <time>2014-05-19T19:40:34Z</time>
      </trkpt>
      <trkpt lat="46.57438" lon="3.33305">
        <ele>276.8</ele>
        <time>2014-05-19T19:40:37Z</time>
      </trkpt>
      <trkpt lat="46.57429" lon="3.33314">
        <ele>276.6</ele>
        <time>2014-05-19T19:40:39Z</time>
      </trkpt>
      <trkpt lat="46.57426" lon="3.33326">
        <ele>276.5</ele>
        <time>2014-05-19T19:40:41Z</time>
      </trkpt>
      <trkpt lat="46.57425" lon="3.33341">
        <ele>276.4</ele>
        <time>2014-05-19T19:40:43Z</time>
      </trkpt>
      <trkpt lat="46.57419" lon="3.33359">
        <ele>276.2</ele>
        <time>2014-05-19T19:40:45Z</time>
      </trkpt>
      <trkpt lat="46.5741" lon="3.33379">
        <ele>276.2</ele>
        <time>2014-05-19T19:40:47Z</time>
      </trkpt>
      <trkpt lat="46.57404" lon="3.3339">
        <ele>276.1</ele>
        <time>2014-05-19T19:40:48Z</time>
      </trkpt>
      <trkpt lat="46.57399" lon="3.33402">
        <ele>276.3</ele>
        <time>2014-05-19T19:40:49Z</time>
      </trkpt>
      <trkpt lat="46.57393" lon="3.33415">
        <ele>276.5</ele>
        <time>2014-05-19T19:40:50Z</time>
      </trkpt>
      <trkpt lat="46.57388" lon="3.33428">
        <ele>276.7</ele>
        <time>2014-05-19T19:40:51Z</time>
      </trkpt>
      <trkpt lat="46.57382" lon="3.33441">
        <ele>277.1</ele>
        <time>2014-05-19T19:40:52Z</time>
      </trkpt>
      <trkpt lat="46.57376" lon="3.33454">
        <ele>277.6</ele>
        <time>2014-05-19T19:40:54Z</time>
      </trkpt>
      <trkpt lat="46.57369" lon="3.33468">
        <ele>278.1</ele>
        <time>2014-05-19T19:40:54Z</time>
      </trkpt>
      <trkpt lat="46.57362" lon="3.33481">
        <ele>278.7</ele>
        <time>2014-05-19T19:40:55Z</time>
      </trkpt>
      <trkpt lat="46.57355" lon="3.33493">
        <ele>279.2</ele>
        <time>2014-05-19T19:40:56Z</time>
      </trkpt>
      <trkpt lat="46.5735" lon="3.33508">
        <ele>279.9</ele>
        <time>2014-05-19T19:40:57Z</time>
      </trkpt>
      <trkpt lat="46.57344" lon="3.33522">
        <ele>280.4</ele>
        <time>2014-05-19T19:40:58Z</time>
      </trkpt>
      <trkpt lat="46.57339" lon="3.33535">
        <ele>280.9</ele>
        <time>2014-05-19T19:40:59Z</time>
      </trkpt>
      <trkpt lat="46.57334" lon="3.33547">
        <ele>281.3</ele>
        <time>2014-05-19T19:41:00Z</time>
      </trkpt>
      <trkpt lat="46.57329" lon="3.33562">
        <ele>281.4</ele>
        <time>2014-05-19T19:41:02Z</time>
      </trkpt>
      <trkpt lat="46.57333" lon="3.33579">
        <ele>281.5</ele>
        <time>2014-05-19T19:41:04Z</time>
      </trkpt>
      <trkpt lat="46.57344" lon="3.3359">
        <ele>281.5</ele>
        <time>2014-05-19T19:41:06Z</time>
      </trkpt>
      <trkpt lat="46.57351" lon="3.33595">
        <ele>281.4</ele>
        <time>2014-05-19T19:41:07Z</time>
      </trkpt>
      <trkpt lat="46.57359" lon="3.33602">
        <ele>281.2</ele>
        <time>2014-05-19T19:41:08Z</time>
      </trkpt>
      <trkpt lat="46.57368" lon="3.33607">
        <ele>280.9</ele>
        <time>2014-05-19T19:41:09Z</time>
      </trkpt>
      <trkpt lat="46.57377" lon="3.33613">
        <ele>280.6</ele>
        <time>2014-05-19T19:41:10Z</time>
      </trkpt>
      <trkpt lat="46.57387" lon="3.3362">
        <ele>280.2</ele>
        <time>2014-05-19T19:41:11Z</time>
      </trkpt>
      <trkpt lat="46.57396" lon="3.33627">
        <ele>279.9</ele>
        <time>2014-05-19T19:41:12Z</time>
      </trkpt>
      <trkpt lat="46.57404" lon="3.33634">
        <ele>279.6</ele>
        <time>2014-05-19T19:41:13Z</time>
      </trkpt>
      <trkpt lat="46.57412" lon="3.3364">
        <ele>279.3</ele>
        <time>2014-05-19T19:41:14Z</time>
      </trkpt>
      <trkpt lat="46.57421" lon="3.33647">
        <ele>279.2</ele>
        <time>2014-05-19T19:41:15Z</time>
      </trkpt>
      <trkpt lat="46.57429" lon="3.33655">
        <ele>279</ele>
        <time>2014-05-19T19:41:16Z</time>
      </trkpt>
      <trkpt lat="46.5744" lon="3.33664">
        <ele>278.8</ele>
        <time>2014-05-19T19:41:18Z</time>
      </trkpt>
      <trkpt lat="46.5745" lon="3.33675">
        <ele>278.7</ele>
        <time>2014-05-19T19:41:20Z</time>
      </trkpt>
      <trkpt lat="46.57457" lon="3.33683">
        <ele>278.6</ele>
        <time>2014-05-19T19:41:23Z</time>
      </trkpt>
      <trkpt lat="46.5745" lon="3.33698">
        <ele>278.5</ele>
        <time>2014-05-19T19:41:27Z</time>
      </trkpt>
      <trkpt lat="46.57437" lon="3.33716">
        <ele>278.4</ele>
        <time>2014-05-19T19:41:28Z</time>
      </trkpt>
      <trkpt lat="46.57429" lon="3.33726">
        <ele>278.3</ele>
        <time>2014-05-19T19:41:29Z</time>
      </trkpt>
      <trkpt lat="46.57422" lon="3.33736">
        <ele>278.2</ele>
        <time>2014-05-19T19:41:30Z</time>
      </trkpt>
      <trkpt lat="46.57414" lon="3.33746">
        <ele>278.1</ele>
        <time>2014-05-19T19:41:31Z</time>
      </trkpt>
      <trkpt lat="46.57406" lon="3.33756">
        <ele>277.8</ele>
        <time>2014-05-19T19:41:32Z</time>
      </trkpt>
      <trkpt lat="46.57398" lon="3.33765">
        <ele>277.5</ele>
        <time>2014-05-19T19:41:33Z</time>
      </trkpt>
      <trkpt lat="46.5739" lon="3.33775">
        <ele>277.4</ele>
        <time>2014-05-19T19:41:34Z</time>
      </trkpt>
      <trkpt lat="46.57381" lon="3.33785">
        <ele>277.4</ele>
        <time>2014-05-19T19:41:35Z</time>
      </trkpt>
      <trkpt lat="46.57373" lon="3.33795">
        <ele>277.4</ele>
        <time>2014-05-19T19:41:36Z</time>
      </trkpt>
      <trkpt lat="46.57365" lon="3.33805">
        <ele>277.4</ele>
        <time>2014-05-19T19:41:37Z</time>
      </trkpt>
      <trkpt lat="46.57356" lon="3.33814">
        <ele>277.5</ele>
        <time>2014-05-19T19:41:38Z</time>
      </trkpt>
      <trkpt lat="46.57349" lon="3.33824">
        <ele>277.6</ele>
        <time>2014-05-19T19:41:39Z</time>
      </trkpt>
      <trkpt lat="46.57341" lon="3.33834">
        <ele>277.7</ele>
        <time>2014-05-19T19:41:40Z</time>
      </trkpt>
      <trkpt lat="46.57333" lon="3.33844">
        <ele>277.9</ele>
        <time>2014-05-19T19:41:41Z</time>
      </trkpt>
      <trkpt lat="46.57325" lon="3.33853">
        <ele>278</ele>
        <time>2014-05-19T19:41:42Z</time>
      </trkpt>
      <trkpt lat="46.57317" lon="3.33861">
        <ele>278.3</ele>
        <time>2014-05-19T19:41:43Z</time>
      </trkpt>
      <trkpt lat="46.5731" lon="3.33869">
        <ele>278.5</ele>
        <time>2014-05-19T19:41:44Z</time>
      </trkpt>
      <trkpt lat="46.57302" lon="3.33878">
        <ele>278.9</ele>
        <time>2014-05-19T19:41:45Z</time>
      </trkpt>
      <trkpt lat="46.57295" lon="3.33888">
        <ele>279.2</ele>
        <time>2014-05-19T19:41:46Z</time>
      </trkpt>
      <trkpt lat="46.57286" lon="3.33897">
        <ele>279.5</ele>
        <time>2014-05-19T19:41:47Z</time>
      </trkpt>
      <trkpt lat="46.57277" lon="3.33905">
        <ele>279.8</ele>
        <time>2014-05-19T19:41:48Z</time>
      </trkpt>
      <trkpt lat="46.57269" lon="3.33913">
        <ele>280.1</ele>
        <time>2014-05-19T19:41:49Z</time>
      </trkpt>
      <trkpt lat="46.5726" lon="3.3392">
        <ele>280.5</ele>
        <time>2014-05-19T19:41:50Z</time>
      </trkpt>
      <trkpt lat="46.57252" lon="3.33928">
        <ele>280.7</ele>
        <time>2014-05-19T19:41:51Z</time>
      </trkpt>
      <trkpt lat="46.57243" lon="3.33935">
        <ele>280.9</ele>
        <time>2014-05-19T19:41:52Z</time>
      </trkpt>
      <trkpt lat="46.57235" lon="3.33943">
        <ele>281.2</ele>
        <time>2014-05-19T19:41:53Z</time>
      </trkpt>
      <trkpt lat="46.57228" lon="3.33949">
        <ele>281.5</ele>
        <time>2014-05-19T19:41:54Z</time>
      </trkpt>
      <trkpt lat="46.57217" lon="3.33965">
        <ele>281.7</ele>
        <time>2014-05-19T19:41:56Z</time>
      </trkpt>
      <trkpt lat="46.57211" lon="3.33983">
        <ele>281.8</ele>
        <time>2014-05-19T19:41:58Z</time>
      </trkpt>
      <trkpt lat="46.57207" lon="3.33993">
        <ele>282</ele>
        <time>2014-05-19T19:42:00Z</time>
      </trkpt>
      <trkpt lat="46.57201" lon="3.34005">
        <ele>282</ele>
        <time>2014-05-19T19:42:06Z</time>
      </trkpt>
      <trkpt lat="46.57197" lon="3.34017">
        <ele>282.1</ele>
        <time>2014-05-19T19:42:08Z</time>
      </trkpt>
      <trkpt lat="46.5719" lon="3.34034">
        <ele>282.2</ele>
        <time>2014-05-19T19:42:10Z</time>
      </trkpt>
      <trkpt lat="46.57182" lon="3.34052">
        <ele>282.3</ele>
        <time>2014-05-19T19:42:12Z</time>
      </trkpt>
      <trkpt lat="46.57178" lon="3.34062">
        <ele>282.4</ele>
        <time>2014-05-19T19:42:13Z</time>
      </trkpt>
      <trkpt lat="46.5717" lon="3.34081">
        <ele>282.5</ele>
        <time>2014-05-19T19:42:15Z</time>
      </trkpt>
      <trkpt lat="46.57165" lon="3.34091">
        <ele>282.6</ele>
        <time>2014-05-19T19:42:16Z</time>
      </trkpt>
      <trkpt lat="46.5716" lon="3.34102">
        <ele>282.7</ele>
        <time>2014-05-19T19:42:17Z</time>
      </trkpt>
      <trkpt lat="46.57155" lon="3.34113">
        <ele>282.8</ele>
        <time>2014-05-19T19:42:18Z</time>
      </trkpt>
      <trkpt lat="46.5715" lon="3.34125">
        <ele>282.9</ele>
        <time>2014-05-19T19:42:19Z</time>
      </trkpt>
      <trkpt lat="46.57144" lon="3.34135">
        <ele>283.1</ele>
        <time>2014-05-19T19:42:20Z</time>
      </trkpt>
      <trkpt lat="46.57138" lon="3.34147">
        <ele>283.4</ele>
        <time>2014-05-19T19:42:21Z</time>
      </trkpt>
      <trkpt lat="46.57134" lon="3.34159">
        <ele>283.7</ele>
        <time>2014-05-19T19:42:22Z</time>
      </trkpt>
      <trkpt lat="46.57129" lon="3.34169">
        <ele>284</ele>
        <time>2014-05-19T19:42:23Z</time>
      </trkpt>
      <trkpt lat="46.5712" lon="3.34188">
        <ele>284.3</ele>
        <time>2014-05-19T19:42:25Z</time>
      </trkpt>
      <trkpt lat="46.57115" lon="3.34207">
        <ele>284.7</ele>
        <time>2014-05-19T19:42:27Z</time>
      </trkpt>
      <trkpt lat="46.57112" lon="3.34222">
        <ele>285.1</ele>
        <time>2014-05-19T19:42:29Z</time>
      </trkpt>
      <trkpt lat="46.57117" lon="3.34243">
        <ele>285.5</ele>
        <time>2014-05-19T19:42:31Z</time>
      </trkpt>
      <trkpt lat="46.57119" lon="3.34256">
        <ele>286.1</ele>
        <time>2014-05-19T19:42:32Z</time>
      </trkpt>
      <trkpt lat="46.57123" lon="3.3427">
        <ele>286.6</ele>
        <time>2014-05-19T19:42:33Z</time>
      </trkpt>
      <trkpt lat="46.57124" lon="3.34288">
        <ele>287.1</ele>
        <time>2014-05-19T19:42:34Z</time>
      </trkpt>
      <trkpt lat="46.57128" lon="3.34306">
        <ele>287.5</ele>
        <time>2014-05-19T19:42:35Z</time>
      </trkpt>
      <trkpt lat="46.57131" lon="3.34322">
        <ele>287.9</ele>
        <time>2014-05-19T19:42:36Z</time>
      </trkpt>
      <trkpt lat="46.57134" lon="3.34338">
        <ele>288.3</ele>
        <time>2014-05-19T19:42:37Z</time>
      </trkpt>
      <trkpt lat="46.57136" lon="3.34355">
        <ele>288.6</ele>
        <time>2014-05-19T19:42:38Z</time>
      </trkpt>
      <trkpt lat="46.57139" lon="3.34372">
        <ele>288.9</ele>
        <time>2014-05-19T19:42:39Z</time>
      </trkpt>
      <trkpt lat="46.57141" lon="3.34389">
        <ele>289.2</ele>
        <time>2014-05-19T19:42:40Z</time>
      </trkpt>
      <trkpt lat="46.57142" lon="3.34407">
        <ele>289.5</ele>
        <time>2014-05-19T19:42:41Z</time>
      </trkpt>
      <trkpt lat="46.57143" lon="3.34425">
        <ele>289.8</ele>
        <time>2014-05-19T19:42:42Z</time>
      </trkpt>
      <trkpt lat="46.57144" lon="3.34442">
        <ele>290</ele>
        <time>2014-05-19T19:42:43Z</time>
      </trkpt>
      <trkpt lat="46.57143" lon="3.3446">
        <ele>290.2</ele>
        <time>2014-05-19T19:42:44Z</time>
      </trkpt>
      <trkpt lat="46.5714" lon="3.34478">
        <ele>290.4</ele>
        <time>2014-05-19T19:42:45Z</time>
      </trkpt>
      <trkpt lat="46.57139" lon="3.34497">
        <ele>290.7</ele>
        <time>2014-05-19T19:42:46Z</time>
      </trkpt>
      <trkpt lat="46.57138" lon="3.34514">
        <ele>290.8</ele>
        <time>2014-05-19T19:42:47Z</time>
      </trkpt>
      <trkpt lat="46.57137" lon="3.34531">
        <ele>291.1</ele>
        <time>2014-05-19T19:42:48Z</time>
      </trkpt>
      <trkpt lat="46.57136" lon="3.34547">
        <ele>291.4</ele>
        <time>2014-05-19T19:42:49Z</time>
      </trkpt>
      <trkpt lat="46.57135" lon="3.34563">
        <ele>291.6</ele>
        <time>2014-05-19T19:42:50Z</time>
      </trkpt>
      <trkpt lat="46.57135" lon="3.3458">
        <ele>291.7</ele>
        <time>2014-05-19T19:42:51Z</time>
      </trkpt>
      <trkpt lat="46.57136" lon="3.34596">
        <ele>291.8</ele>
        <time>2014-05-19T19:42:52Z</time>
      </trkpt>
      <trkpt lat="46.57136" lon="3.34613">
        <ele>291.9</ele>
        <time>2014-05-19T19:42:53Z</time>
      </trkpt>
      <trkpt lat="46.57137" lon="3.34629">
        <ele>292.1</ele>
        <time>2014-05-19T19:42:54Z</time>
      </trkpt>
      <trkpt lat="46.5714" lon="3.34645">
        <ele>292.2</ele>
        <time>2014-05-19T19:42:55Z</time>
      </trkpt>
      <trkpt lat="46.57142" lon="3.34662">
        <ele>292.4</ele>
        <time>2014-05-19T19:42:56Z</time>
      </trkpt>
      <trkpt lat="46.57143" lon="3.34679">
        <ele>292.5</ele>
        <time>2014-05-19T19:42:57Z</time>
      </trkpt>
      <trkpt lat="46.57144" lon="3.34697">
        <ele>292.7</ele>
        <time>2014-05-19T19:42:58Z</time>
      </trkpt>
      <trkpt lat="46.57145" lon="3.34715">
        <ele>292.7</ele>
        <time>2014-05-19T19:42:59Z</time>
      </trkpt>
      <trkpt lat="46.57146" lon="3.34733">
        <ele>292.7</ele>
        <time>2014-05-19T19:43:00Z</time>
      </trkpt>
      <trkpt lat="46.57147" lon="3.34751">
        <ele>292.9</ele>
        <time>2014-05-19T19:43:01Z</time>
      </trkpt>
      <trkpt lat="46.57148" lon="3.34769">
        <ele>292.9</ele>
        <time>2014-05-19T19:43:02Z</time>
      </trkpt>
      <trkpt lat="46.57148" lon="3.34788">
        <ele>293</ele>
        <time>2014-05-19T19:43:03Z</time>
      </trkpt>
      <trkpt lat="46.57148" lon="3.34805">
        <ele>293.1</ele>
        <time>2014-05-19T19:43:04Z</time>
      </trkpt>
      <trkpt lat="46.57148" lon="3.34822">
        <ele>293.1</ele>
        <time>2014-05-19T19:43:05Z</time>
      </trkpt>
      <trkpt lat="46.57148" lon="3.34838">
        <ele>293.1</ele>
        <time>2014-05-19T19:43:06Z</time>
      </trkpt>
      <trkpt lat="46.57149" lon="3.34852">
        <ele>293.2</ele>
        <time>2014-05-19T19:43:07Z</time>
      </trkpt>
      <trkpt lat="46.57149" lon="3.34865">
        <ele>293.2</ele>
        <time>2014-05-19T19:43:08Z</time>
      </trkpt>
      <trkpt lat="46.57149" lon="3.34886">
        <ele>293.3</ele>
        <time>2014-05-19T19:43:10Z</time>
      </trkpt>
      <trkpt lat="46.57156" lon="3.34902">
        <ele>293.4</ele>
        <time>2014-05-19T19:43:12Z</time>
      </trkpt>
      <trkpt lat="46.57162" lon="3.34911">
        <ele>293.6</ele>
        <time>2014-05-19T19:43:13Z</time>
      </trkpt>
      <trkpt lat="46.57169" lon="3.34919">
        <ele>293.8</ele>
        <time>2014-05-19T19:43:14Z</time>
      </trkpt>
      <trkpt lat="46.57177" lon="3.34927">
        <ele>294.1</ele>
        <time>2014-05-19T19:43:15Z</time>
      </trkpt>
      <trkpt lat="46.57184" lon="3.34934">
        <ele>294.3</ele>
        <time>2014-05-19T19:43:16Z</time>
      </trkpt>
      <trkpt lat="46.57192" lon="3.34947">
        <ele>294.4</ele>
        <time>2014-05-19T19:43:18Z</time>
      </trkpt>
      <trkpt lat="46.572" lon="3.34945">
        <ele>294.4</ele>
        <time>2014-05-19T19:43:21Z</time>
      </trkpt>
      <trkpt lat="46.57197" lon="3.34934">
        <ele>294.4</ele>
        <time>2014-05-19T19:43:37Z</time>
      </trkpt>
      <trkpt lat="46.57199" lon="3.34919">
        <ele>294.3</ele>
        <time>2014-05-19T19:43:43Z</time>
      </trkpt>
      <trkpt lat="46.572" lon="3.34907">
        <ele>294</ele>
        <time>2014-05-19T19:43:45Z</time>
      </trkpt>
      <trkpt lat="46.57202" lon="3.34894">
        <ele>293.7</ele>
        <time>2014-05-19T19:43:47Z</time>
      </trkpt>
      <trkpt lat="46.57205" lon="3.34883">
        <ele>293.7</ele>
        <time>2014-05-19T19:43:49Z</time>
      </trkpt>
      <trkpt lat="46.57209" lon="3.34872">
        <ele>293.5</ele>
        <time>2014-05-19T19:43:52Z</time>
      </trkpt>
      <trkpt lat="46.57217" lon="3.34872">
        <ele>293.2</ele>
        <time>2014-05-19T19:43:56Z</time>
      </trkpt>
      <trkpt lat="46.57225" lon="3.34878">
        <ele>292.8</ele>
        <time>2014-05-19T19:44:01Z</time>
      </trkpt>
      <trkpt lat="46.57222" lon="3.34871">
        <ele>292.5</ele>
        <time>2014-05-19T19:44:28Z</time>
      </trkpt>
      <trkpt lat="46.57238" lon="3.34878">
        <ele>290.7</ele>
        <time>2014-05-19T19:44:48Z</time>
      </trkpt>
      <trkpt lat="46.57238" lon="3.34878">
        <ele>290.7</ele>
        <time>2014-05-19T19:44:48Z</time>
      </trkpt>
      <trkpt lat="46.57241" lon="3.34879">
        <ele>290.7</ele>
        <time>2014-05-19T19:44:59Z</time>
      </trkpt>
      <trkpt lat="46.57245" lon="3.34883">
        <ele>290.4</ele>
        <time>2014-05-19T19:45:04Z</time>
      </trkpt>
      <trkpt lat="46.57245" lon="3.34883">
        <ele>290.4</ele>
        <time>2014-05-19T19:45:04Z</time>
      </trkpt>
      <trkpt lat="46.57236" lon="3.34879">
        <ele>290.4</ele>
        <time>2014-05-19T19:45:14Z</time>
      </trkpt>
      <trkpt lat="46.57235" lon="3.34881">
        <ele>290.4</ele>
        <time>2014-05-19T19:45:37Z</time>
      </trkpt>
      <trkpt lat="46.5723" lon="3.34887">
        <ele>289.6</ele>
        <time>2014-05-19T19:45:54Z</time>
      </trkpt>
      <trkpt lat="46.5723" lon="3.34887">
        <ele>289.6</ele>
        <time>2014-05-19T19:45:54Z</time>
      </trkpt>
      <trkpt lat="46.57223" lon="3.34881">
        <ele>289.6</ele>
        <time>2014-05-19T19:45:58Z</time>
      </trkpt>
      <trkpt lat="46.57218" lon="3.3487">
        <ele>289.6</ele>
        <time>2014-05-19T19:46:05Z</time>
      </trkpt>
      <trkpt lat="46.57227" lon="3.34868">
        <ele>289.6</ele>
        <time>2014-05-19T19:46:18Z</time>
      </trkpt>
      <trkpt lat="46.57229" lon="3.34869">
        <ele>289.6</ele>
        <time>2014-05-19T19:46:29Z</time>
      </trkpt>
      <trkpt lat="46.57218" lon="3.34872">
        <ele>290</ele>
        <time>2014-05-19T19:47:05Z</time>
      </trkpt>
      <trkpt lat="46.57218" lon="3.34872">
        <ele>290</ele>
        <time>2014-05-19T19:47:05Z</time>
      </trkpt>
      <trkpt lat="46.57218" lon="3.34871">
        <ele>290</ele>
        <time>2014-05-19T19:47:14Z</time>
      </trkpt>
    </trkseg>
  </trk>
</gpx>